<?xml version="1.0" encoding="UTF-8" standalone="no" ?>
<gpx xmlns="http://www.topografix.com/GPX/1/1" xmlns:xsi="http://www.w3.org/2001/XMLSchema-instance" xsi:schemaLocation="http://www.topografix.com/GPX/1/1 http://www.topografix.com/GPX/1/1/gpx.xsd" version="1.1" creator="VisuGPX - https://www.visugpx.com">
  <metadata>
    <name>Pointe Percée (tour) + pointe des carmélites</name>
    <desc><![CDATA[                                                                           ]]></desc>
  </metadata>
  <trk>
    <name><![CDATA[20190220141624-fZCKy]]></name>
    <trkseg>
      <trkpt lat="46.00104" lon="6.54089">
        <ele>1038.36</ele>
        <time>2019-02-16T06:23:37Z</time>
      </trkpt>
      <trkpt lat="46.00104" lon="6.54089">
        <ele>1065.76</ele>
        <time>2019-02-16T06:23:38Z</time>
      </trkpt>
      <trkpt lat="46.00103" lon="6.5409">
        <ele>1065.76</ele>
        <time>2019-02-16T06:23:39Z</time>
      </trkpt>
      <trkpt lat="46.00101" lon="6.54092">
        <ele>1038.84</ele>
        <time>2019-02-16T06:23:42Z</time>
      </trkpt>
      <trkpt lat="46.001" lon="6.54094">
        <ele>1038.84</ele>
        <time>2019-02-16T06:23:43Z</time>
      </trkpt>
      <trkpt lat="46.00099" lon="6.54096">
        <ele>1038.84</ele>
        <time>2019-02-16T06:23:45Z</time>
      </trkpt>
      <trkpt lat="46.00086" lon="6.54099">
        <ele>1040.28</ele>
        <time>2019-02-16T06:24:00Z</time>
      </trkpt>
      <trkpt lat="46.00053" lon="6.54111">
        <ele>1043.17</ele>
        <time>2019-02-16T06:24:31Z</time>
      </trkpt>
      <trkpt lat="45.99995" lon="6.5414">
        <ele>1046.05</ele>
        <time>2019-02-16T06:25:12Z</time>
      </trkpt>
      <trkpt lat="45.99993" lon="6.54141">
        <ele>1046.05</ele>
        <time>2019-02-16T06:25:13Z</time>
      </trkpt>
      <trkpt lat="45.99992" lon="6.54141">
        <ele>1046.05</ele>
        <time>2019-02-16T06:25:14Z</time>
      </trkpt>
      <trkpt lat="45.99981" lon="6.54147">
        <ele>1046.53</ele>
        <time>2019-02-16T06:25:22Z</time>
      </trkpt>
      <trkpt lat="45.99956" lon="6.54149">
        <ele>1047.49</ele>
        <time>2019-02-16T06:25:41Z</time>
      </trkpt>
      <trkpt lat="45.99954" lon="6.5415">
        <ele>1047.97</ele>
        <time>2019-02-16T06:25:43Z</time>
      </trkpt>
      <trkpt lat="45.99953" lon="6.5415">
        <ele>1047.97</ele>
        <time>2019-02-16T06:25:44Z</time>
      </trkpt>
      <trkpt lat="45.99951" lon="6.5415">
        <ele>1047.97</ele>
        <time>2019-02-16T06:25:45Z</time>
      </trkpt>
      <trkpt lat="45.9995" lon="6.54149">
        <ele>1047.97</ele>
        <time>2019-02-16T06:25:46Z</time>
      </trkpt>
      <trkpt lat="45.99949" lon="6.54149">
        <ele>1047.97</ele>
        <time>2019-02-16T06:25:47Z</time>
      </trkpt>
      <trkpt lat="45.99947" lon="6.54149">
        <ele>1047.97</ele>
        <time>2019-02-16T06:25:48Z</time>
      </trkpt>
      <trkpt lat="45.99945" lon="6.54149">
        <ele>1048.45</ele>
        <time>2019-02-16T06:25:49Z</time>
      </trkpt>
      <trkpt lat="45.99945" lon="6.54149">
        <ele>1048.45</ele>
        <time>2019-02-16T06:25:50Z</time>
      </trkpt>
      <trkpt lat="45.99943" lon="6.54149">
        <ele>1048.45</ele>
        <time>2019-02-16T06:25:51Z</time>
      </trkpt>
      <trkpt lat="45.99932" lon="6.54154">
        <ele>1049.9</ele>
        <time>2019-02-16T06:26:01Z</time>
      </trkpt>
      <trkpt lat="45.99931" lon="6.54152">
        <ele>1049.9</ele>
        <time>2019-02-16T06:26:03Z</time>
      </trkpt>
      <trkpt lat="45.99904" lon="6.5415">
        <ele>1050.86</ele>
        <time>2019-02-16T06:26:24Z</time>
      </trkpt>
      <trkpt lat="45.99891" lon="6.54144">
        <ele>1052.78</ele>
        <time>2019-02-16T06:26:39Z</time>
      </trkpt>
      <trkpt lat="45.99883" lon="6.54146">
        <ele>1053.26</ele>
        <time>2019-02-16T06:26:45Z</time>
      </trkpt>
      <trkpt lat="45.9988" lon="6.54147">
        <ele>1053.74</ele>
        <time>2019-02-16T06:26:50Z</time>
      </trkpt>
      <trkpt lat="45.99879" lon="6.54146">
        <ele>1054.22</ele>
        <time>2019-02-16T06:26:54Z</time>
      </trkpt>
      <trkpt lat="45.99877" lon="6.54146">
        <ele>1054.7</ele>
        <time>2019-02-16T06:26:55Z</time>
      </trkpt>
      <trkpt lat="45.99876" lon="6.54146">
        <ele>1054.7</ele>
        <time>2019-02-16T06:26:56Z</time>
      </trkpt>
      <trkpt lat="45.99863" lon="6.54141">
        <ele>1056.15</ele>
        <time>2019-02-16T06:27:04Z</time>
      </trkpt>
      <trkpt lat="45.99862" lon="6.54142">
        <ele>1056.63</ele>
        <time>2019-02-16T06:27:05Z</time>
      </trkpt>
      <trkpt lat="45.99855" lon="6.5414">
        <ele>1057.11</ele>
        <time>2019-02-16T06:27:10Z</time>
      </trkpt>
      <trkpt lat="45.99849" lon="6.54135">
        <ele>1057.59</ele>
        <time>2019-02-16T06:27:13Z</time>
      </trkpt>
      <trkpt lat="45.99848" lon="6.54134">
        <ele>1057.59</ele>
        <time>2019-02-16T06:27:14Z</time>
      </trkpt>
      <trkpt lat="45.99842" lon="6.54135">
        <ele>1058.55</ele>
        <time>2019-02-16T06:27:18Z</time>
      </trkpt>
      <trkpt lat="45.9984" lon="6.54136">
        <ele>1058.55</ele>
        <time>2019-02-16T06:27:19Z</time>
      </trkpt>
      <trkpt lat="45.99829" lon="6.54139">
        <ele>1059.51</ele>
        <time>2019-02-16T06:27:27Z</time>
      </trkpt>
      <trkpt lat="45.99827" lon="6.54139">
        <ele>1059.51</ele>
        <time>2019-02-16T06:27:28Z</time>
      </trkpt>
      <trkpt lat="45.99816" lon="6.54136">
        <ele>1060.47</ele>
        <time>2019-02-16T06:27:34Z</time>
      </trkpt>
      <trkpt lat="45.99799" lon="6.54136">
        <ele>1061.43</ele>
        <time>2019-02-16T06:27:44Z</time>
      </trkpt>
      <trkpt lat="45.99795" lon="6.54135">
        <ele>1061.43</ele>
        <time>2019-02-16T06:27:48Z</time>
      </trkpt>
      <trkpt lat="45.99786" lon="6.54136">
        <ele>1062.39</ele>
        <time>2019-02-16T06:27:54Z</time>
      </trkpt>
      <trkpt lat="45.99784" lon="6.54136">
        <ele>1062.39</ele>
        <time>2019-02-16T06:27:55Z</time>
      </trkpt>
      <trkpt lat="45.9978" lon="6.54134">
        <ele>1062.87</ele>
        <time>2019-02-16T06:27:58Z</time>
      </trkpt>
      <trkpt lat="45.99777" lon="6.54133">
        <ele>1062.87</ele>
        <time>2019-02-16T06:27:59Z</time>
      </trkpt>
      <trkpt lat="45.99769" lon="6.54131">
        <ele>1063.36</ele>
        <time>2019-02-16T06:28:05Z</time>
      </trkpt>
      <trkpt lat="45.99766" lon="6.54131">
        <ele>1063.84</ele>
        <time>2019-02-16T06:28:07Z</time>
      </trkpt>
      <trkpt lat="45.99765" lon="6.5413">
        <ele>1063.84</ele>
        <time>2019-02-16T06:28:08Z</time>
      </trkpt>
      <trkpt lat="45.99763" lon="6.54129">
        <ele>1063.84</ele>
        <time>2019-02-16T06:28:09Z</time>
      </trkpt>
      <trkpt lat="45.99762" lon="6.54128">
        <ele>1064.32</ele>
        <time>2019-02-16T06:28:10Z</time>
      </trkpt>
      <trkpt lat="45.99761" lon="6.54127">
        <ele>1064.32</ele>
        <time>2019-02-16T06:28:11Z</time>
      </trkpt>
      <trkpt lat="45.9976" lon="6.54128">
        <ele>1064.8</ele>
        <time>2019-02-16T06:28:12Z</time>
      </trkpt>
      <trkpt lat="45.99758" lon="6.54128">
        <ele>1064.8</ele>
        <time>2019-02-16T06:28:13Z</time>
      </trkpt>
      <trkpt lat="45.99757" lon="6.54129">
        <ele>1064.8</ele>
        <time>2019-02-16T06:28:14Z</time>
      </trkpt>
      <trkpt lat="45.99756" lon="6.54129">
        <ele>1065.28</ele>
        <time>2019-02-16T06:28:15Z</time>
      </trkpt>
      <trkpt lat="45.99753" lon="6.54132">
        <ele>1066.24</ele>
        <time>2019-02-16T06:28:18Z</time>
      </trkpt>
      <trkpt lat="45.99744" lon="6.54138">
        <ele>1067.2</ele>
        <time>2019-02-16T06:28:27Z</time>
      </trkpt>
      <trkpt lat="45.99741" lon="6.54138">
        <ele>1067.2</ele>
        <time>2019-02-16T06:28:30Z</time>
      </trkpt>
      <trkpt lat="45.9972" lon="6.54157">
        <ele>1070.08</ele>
        <time>2019-02-16T06:28:57Z</time>
      </trkpt>
      <trkpt lat="45.99719" lon="6.54156">
        <ele>1070.57</ele>
        <time>2019-02-16T06:28:59Z</time>
      </trkpt>
      <trkpt lat="45.99702" lon="6.54156">
        <ele>1071.53</ele>
        <time>2019-02-16T06:29:07Z</time>
      </trkpt>
      <trkpt lat="45.99689" lon="6.54155">
        <ele>1072.01</ele>
        <time>2019-02-16T06:29:12Z</time>
      </trkpt>
      <trkpt lat="45.99687" lon="6.54154">
        <ele>1072.01</ele>
        <time>2019-02-16T06:29:13Z</time>
      </trkpt>
      <trkpt lat="45.99686" lon="6.54154">
        <ele>1072.01</ele>
        <time>2019-02-16T06:29:14Z</time>
      </trkpt>
      <trkpt lat="45.99684" lon="6.54154">
        <ele>1072.49</ele>
        <time>2019-02-16T06:29:15Z</time>
      </trkpt>
      <trkpt lat="45.99684" lon="6.54154">
        <ele>1072.49</ele>
        <time>2019-02-16T06:29:16Z</time>
      </trkpt>
      <trkpt lat="45.99675" lon="6.5415">
        <ele>1072.97</ele>
        <time>2019-02-16T06:29:22Z</time>
      </trkpt>
      <trkpt lat="45.99673" lon="6.5415">
        <ele>1073.45</ele>
        <time>2019-02-16T06:29:23Z</time>
      </trkpt>
      <trkpt lat="45.99672" lon="6.5415">
        <ele>1073.45</ele>
        <time>2019-02-16T06:29:24Z</time>
      </trkpt>
      <trkpt lat="45.9967" lon="6.54149">
        <ele>1073.45</ele>
        <time>2019-02-16T06:29:25Z</time>
      </trkpt>
      <trkpt lat="45.99668" lon="6.54149">
        <ele>1073.45</ele>
        <time>2019-02-16T06:29:26Z</time>
      </trkpt>
      <trkpt lat="45.99666" lon="6.54148">
        <ele>1073.93</ele>
        <time>2019-02-16T06:29:27Z</time>
      </trkpt>
      <trkpt lat="45.99658" lon="6.54148">
        <ele>1074.41</ele>
        <time>2019-02-16T06:29:32Z</time>
      </trkpt>
      <trkpt lat="45.99657" lon="6.54146">
        <ele>1074.89</ele>
        <time>2019-02-16T06:29:33Z</time>
      </trkpt>
      <trkpt lat="45.99652" lon="6.54137">
        <ele>1075.85</ele>
        <time>2019-02-16T06:29:41Z</time>
      </trkpt>
      <trkpt lat="45.99652" lon="6.54136">
        <ele>1075.85</ele>
        <time>2019-02-16T06:29:42Z</time>
      </trkpt>
      <trkpt lat="45.99639" lon="6.5412">
        <ele>1078.74</ele>
        <time>2019-02-16T06:29:56Z</time>
      </trkpt>
      <trkpt lat="45.99638" lon="6.54118">
        <ele>1079.22</ele>
        <time>2019-02-16T06:29:57Z</time>
      </trkpt>
      <trkpt lat="45.99632" lon="6.54115">
        <ele>1080.18</ele>
        <time>2019-02-16T06:30:02Z</time>
      </trkpt>
      <trkpt lat="45.9963" lon="6.54115">
        <ele>1080.18</ele>
        <time>2019-02-16T06:30:03Z</time>
      </trkpt>
      <trkpt lat="45.99629" lon="6.54114">
        <ele>1080.66</ele>
        <time>2019-02-16T06:30:04Z</time>
      </trkpt>
      <trkpt lat="45.99614" lon="6.54097">
        <ele>1082.58</ele>
        <time>2019-02-16T06:30:23Z</time>
      </trkpt>
      <trkpt lat="45.99614" lon="6.54096">
        <ele>1082.58</ele>
        <time>2019-02-16T06:30:24Z</time>
      </trkpt>
      <trkpt lat="45.99613" lon="6.54095">
        <ele>1083.06</ele>
        <time>2019-02-16T06:30:25Z</time>
      </trkpt>
      <trkpt lat="45.99612" lon="6.54094">
        <ele>1083.06</ele>
        <time>2019-02-16T06:30:26Z</time>
      </trkpt>
      <trkpt lat="45.99611" lon="6.54093">
        <ele>1083.54</ele>
        <time>2019-02-16T06:30:27Z</time>
      </trkpt>
      <trkpt lat="45.99604" lon="6.54091">
        <ele>1084.02</ele>
        <time>2019-02-16T06:30:34Z</time>
      </trkpt>
      <trkpt lat="45.99603" lon="6.5409">
        <ele>1084.5</ele>
        <time>2019-02-16T06:30:35Z</time>
      </trkpt>
      <trkpt lat="45.99602" lon="6.5409">
        <ele>1084.5</ele>
        <time>2019-02-16T06:30:36Z</time>
      </trkpt>
      <trkpt lat="45.99601" lon="6.54089">
        <ele>1084.5</ele>
        <time>2019-02-16T06:30:37Z</time>
      </trkpt>
      <trkpt lat="45.99593" lon="6.54088">
        <ele>1085.95</ele>
        <time>2019-02-16T06:30:45Z</time>
      </trkpt>
      <trkpt lat="45.99591" lon="6.54088">
        <ele>1085.95</ele>
        <time>2019-02-16T06:30:46Z</time>
      </trkpt>
      <trkpt lat="45.9959" lon="6.54088">
        <ele>1085.95</ele>
        <time>2019-02-16T06:30:47Z</time>
      </trkpt>
      <trkpt lat="45.99589" lon="6.54089">
        <ele>1085.95</ele>
        <time>2019-02-16T06:30:48Z</time>
      </trkpt>
      <trkpt lat="45.99588" lon="6.5409">
        <ele>1085.95</ele>
        <time>2019-02-16T06:30:49Z</time>
      </trkpt>
      <trkpt lat="45.99579" lon="6.54092">
        <ele>1086.91</ele>
        <time>2019-02-16T06:30:55Z</time>
      </trkpt>
      <trkpt lat="45.99576" lon="6.54093">
        <ele>1087.39</ele>
        <time>2019-02-16T06:30:58Z</time>
      </trkpt>
      <trkpt lat="45.99535" lon="6.54098">
        <ele>1089.79</ele>
        <time>2019-02-16T06:31:24Z</time>
      </trkpt>
      <trkpt lat="45.99534" lon="6.54097">
        <ele>1089.79</ele>
        <time>2019-02-16T06:31:25Z</time>
      </trkpt>
      <trkpt lat="45.99533" lon="6.54097">
        <ele>1089.79</ele>
        <time>2019-02-16T06:31:26Z</time>
      </trkpt>
      <trkpt lat="45.99532" lon="6.54097">
        <ele>1090.27</ele>
        <time>2019-02-16T06:31:27Z</time>
      </trkpt>
      <trkpt lat="45.99531" lon="6.54096">
        <ele>1090.27</ele>
        <time>2019-02-16T06:31:28Z</time>
      </trkpt>
      <trkpt lat="45.99528" lon="6.54095">
        <ele>1090.75</ele>
        <time>2019-02-16T06:31:30Z</time>
      </trkpt>
      <trkpt lat="45.99527" lon="6.54094">
        <ele>1091.23</ele>
        <time>2019-02-16T06:31:31Z</time>
      </trkpt>
      <trkpt lat="45.99517" lon="6.54095">
        <ele>1092.2</ele>
        <time>2019-02-16T06:31:39Z</time>
      </trkpt>
      <trkpt lat="45.99497" lon="6.54091">
        <ele>1094.6</ele>
        <time>2019-02-16T06:31:55Z</time>
      </trkpt>
      <trkpt lat="45.99481" lon="6.5409">
        <ele>1096.52</ele>
        <time>2019-02-16T06:32:07Z</time>
      </trkpt>
      <trkpt lat="45.9948" lon="6.5409">
        <ele>1096.52</ele>
        <time>2019-02-16T06:32:08Z</time>
      </trkpt>
      <trkpt lat="45.99475" lon="6.54084">
        <ele>1097</ele>
        <time>2019-02-16T06:32:13Z</time>
      </trkpt>
      <trkpt lat="45.99475" lon="6.54081">
        <ele>1097.48</ele>
        <time>2019-02-16T06:32:14Z</time>
      </trkpt>
      <trkpt lat="45.99475" lon="6.5408">
        <ele>1097.48</ele>
        <time>2019-02-16T06:32:15Z</time>
      </trkpt>
      <trkpt lat="45.99474" lon="6.54078">
        <ele>1097.48</ele>
        <time>2019-02-16T06:32:16Z</time>
      </trkpt>
      <trkpt lat="45.99473" lon="6.54077">
        <ele>1097.96</ele>
        <time>2019-02-16T06:32:17Z</time>
      </trkpt>
      <trkpt lat="45.99472" lon="6.54076">
        <ele>1097.96</ele>
        <time>2019-02-16T06:32:18Z</time>
      </trkpt>
      <trkpt lat="45.99471" lon="6.54075">
        <ele>1097.96</ele>
        <time>2019-02-16T06:32:19Z</time>
      </trkpt>
      <trkpt lat="45.99461" lon="6.54066">
        <ele>1101.33</ele>
        <time>2019-02-16T06:32:34Z</time>
      </trkpt>
      <trkpt lat="45.99454" lon="6.54061">
        <ele>1103.25</ele>
        <time>2019-02-16T06:32:43Z</time>
      </trkpt>
      <trkpt lat="45.99452" lon="6.54059">
        <ele>1104.21</ele>
        <time>2019-02-16T06:32:45Z</time>
      </trkpt>
      <trkpt lat="45.99449" lon="6.54042">
        <ele>1107.1</ele>
        <time>2019-02-16T06:32:59Z</time>
      </trkpt>
      <trkpt lat="45.99452" lon="6.54035">
        <ele>1108.54</ele>
        <time>2019-02-16T06:33:07Z</time>
      </trkpt>
      <trkpt lat="45.99454" lon="6.5403">
        <ele>1109.02</ele>
        <time>2019-02-16T06:33:10Z</time>
      </trkpt>
      <trkpt lat="45.99457" lon="6.54022">
        <ele>1110.46</ele>
        <time>2019-02-16T06:33:15Z</time>
      </trkpt>
      <trkpt lat="45.99457" lon="6.54019">
        <ele>1110.94</ele>
        <time>2019-02-16T06:33:17Z</time>
      </trkpt>
      <trkpt lat="45.99458" lon="6.54016">
        <ele>1111.42</ele>
        <time>2019-02-16T06:33:19Z</time>
      </trkpt>
      <trkpt lat="45.99457" lon="6.5401">
        <ele>1111.9</ele>
        <time>2019-02-16T06:33:22Z</time>
      </trkpt>
      <trkpt lat="45.99457" lon="6.54009">
        <ele>1112.38</ele>
        <time>2019-02-16T06:33:23Z</time>
      </trkpt>
      <trkpt lat="45.99457" lon="6.54006">
        <ele>1112.86</ele>
        <time>2019-02-16T06:33:25Z</time>
      </trkpt>
      <trkpt lat="45.99457" lon="6.54002">
        <ele>1113.34</ele>
        <time>2019-02-16T06:33:27Z</time>
      </trkpt>
      <trkpt lat="45.99454" lon="6.53988">
        <ele>1114.79</ele>
        <time>2019-02-16T06:33:35Z</time>
      </trkpt>
      <trkpt lat="45.99449" lon="6.53977">
        <ele>1117.67</ele>
        <time>2019-02-16T06:33:47Z</time>
      </trkpt>
      <trkpt lat="45.99448" lon="6.53975">
        <ele>1118.15</ele>
        <time>2019-02-16T06:33:48Z</time>
      </trkpt>
      <trkpt lat="45.99447" lon="6.53971">
        <ele>1118.63</ele>
        <time>2019-02-16T06:33:50Z</time>
      </trkpt>
      <trkpt lat="45.99447" lon="6.53969">
        <ele>1118.63</ele>
        <time>2019-02-16T06:33:51Z</time>
      </trkpt>
      <trkpt lat="45.99446" lon="6.53967">
        <ele>1118.63</ele>
        <time>2019-02-16T06:33:52Z</time>
      </trkpt>
      <trkpt lat="45.99446" lon="6.53967">
        <ele>1119.11</ele>
        <time>2019-02-16T06:33:53Z</time>
      </trkpt>
      <trkpt lat="45.99444" lon="6.53963">
        <ele>1120.07</ele>
        <time>2019-02-16T06:33:56Z</time>
      </trkpt>
      <trkpt lat="45.99444" lon="6.53962">
        <ele>1120.07</ele>
        <time>2019-02-16T06:33:57Z</time>
      </trkpt>
      <trkpt lat="45.99436" lon="6.53952">
        <ele>1123.44</ele>
        <time>2019-02-16T06:34:10Z</time>
      </trkpt>
      <trkpt lat="45.99425" lon="6.53941">
        <ele>1126.32</ele>
        <time>2019-02-16T06:34:26Z</time>
      </trkpt>
      <trkpt lat="45.99414" lon="6.53936">
        <ele>1129.69</ele>
        <time>2019-02-16T06:34:41Z</time>
      </trkpt>
      <trkpt lat="45.99406" lon="6.53943">
        <ele>1132.57</ele>
        <time>2019-02-16T06:34:56Z</time>
      </trkpt>
      <trkpt lat="45.994" lon="6.53946">
        <ele>1133.53</ele>
        <time>2019-02-16T06:35:00Z</time>
      </trkpt>
      <trkpt lat="45.99381" lon="6.5395">
        <ele>1136.42</ele>
        <time>2019-02-16T06:35:17Z</time>
      </trkpt>
      <trkpt lat="45.99371" lon="6.53958">
        <ele>1138.82</ele>
        <time>2019-02-16T06:35:30Z</time>
      </trkpt>
      <trkpt lat="45.9937" lon="6.53959">
        <ele>1138.82</ele>
        <time>2019-02-16T06:35:31Z</time>
      </trkpt>
      <trkpt lat="45.99369" lon="6.5396">
        <ele>1139.3</ele>
        <time>2019-02-16T06:35:32Z</time>
      </trkpt>
      <trkpt lat="45.99368" lon="6.5396">
        <ele>1139.3</ele>
        <time>2019-02-16T06:35:33Z</time>
      </trkpt>
      <trkpt lat="45.99367" lon="6.5396">
        <ele>1139.78</ele>
        <time>2019-02-16T06:35:34Z</time>
      </trkpt>
      <trkpt lat="45.99365" lon="6.5396">
        <ele>1139.78</ele>
        <time>2019-02-16T06:35:35Z</time>
      </trkpt>
      <trkpt lat="45.99364" lon="6.53959">
        <ele>1139.78</ele>
        <time>2019-02-16T06:35:36Z</time>
      </trkpt>
      <trkpt lat="45.99363" lon="6.53959">
        <ele>1140.26</ele>
        <time>2019-02-16T06:35:37Z</time>
      </trkpt>
      <trkpt lat="45.99357" lon="6.53965">
        <ele>1141.7</ele>
        <time>2019-02-16T06:35:46Z</time>
      </trkpt>
      <trkpt lat="45.99343" lon="6.53978">
        <ele>1144.59</ele>
        <time>2019-02-16T06:36:02Z</time>
      </trkpt>
      <trkpt lat="45.99334" lon="6.53987">
        <ele>1146.99</ele>
        <time>2019-02-16T06:36:12Z</time>
      </trkpt>
      <trkpt lat="45.99334" lon="6.53989">
        <ele>1146.99</ele>
        <time>2019-02-16T06:36:13Z</time>
      </trkpt>
      <trkpt lat="45.99333" lon="6.5399">
        <ele>1147.47</ele>
        <time>2019-02-16T06:36:14Z</time>
      </trkpt>
      <trkpt lat="45.99333" lon="6.53992">
        <ele>1147.47</ele>
        <time>2019-02-16T06:36:15Z</time>
      </trkpt>
      <trkpt lat="45.99328" lon="6.53999">
        <ele>1148.43</ele>
        <time>2019-02-16T06:36:24Z</time>
      </trkpt>
      <trkpt lat="45.99328" lon="6.54">
        <ele>1148.91</ele>
        <time>2019-02-16T06:36:25Z</time>
      </trkpt>
      <trkpt lat="45.99327" lon="6.54001">
        <ele>1148.91</ele>
        <time>2019-02-16T06:36:26Z</time>
      </trkpt>
      <trkpt lat="45.99326" lon="6.54002">
        <ele>1148.91</ele>
        <time>2019-02-16T06:36:27Z</time>
      </trkpt>
      <trkpt lat="45.99326" lon="6.54004">
        <ele>1149.39</ele>
        <time>2019-02-16T06:36:28Z</time>
      </trkpt>
      <trkpt lat="45.99323" lon="6.54012">
        <ele>1150.84</ele>
        <time>2019-02-16T06:36:37Z</time>
      </trkpt>
      <trkpt lat="45.99321" lon="6.54015">
        <ele>1151.8</ele>
        <time>2019-02-16T06:36:40Z</time>
      </trkpt>
      <trkpt lat="45.99315" lon="6.54022">
        <ele>1152.76</ele>
        <time>2019-02-16T06:36:46Z</time>
      </trkpt>
      <trkpt lat="45.99314" lon="6.54023">
        <ele>1153.24</ele>
        <time>2019-02-16T06:36:47Z</time>
      </trkpt>
      <trkpt lat="45.99313" lon="6.54025">
        <ele>1153.24</ele>
        <time>2019-02-16T06:36:48Z</time>
      </trkpt>
      <trkpt lat="45.99304" lon="6.54032">
        <ele>1155.16</ele>
        <time>2019-02-16T06:36:59Z</time>
      </trkpt>
      <trkpt lat="45.99296" lon="6.54042">
        <ele>1158.53</ele>
        <time>2019-02-16T06:37:14Z</time>
      </trkpt>
      <trkpt lat="45.99294" lon="6.54046">
        <ele>1159.49</ele>
        <time>2019-02-16T06:37:18Z</time>
      </trkpt>
      <trkpt lat="45.99293" lon="6.54047">
        <ele>1159.97</ele>
        <time>2019-02-16T06:37:19Z</time>
      </trkpt>
      <trkpt lat="45.99293" lon="6.54048">
        <ele>1159.97</ele>
        <time>2019-02-16T06:37:20Z</time>
      </trkpt>
      <trkpt lat="45.99285" lon="6.54056">
        <ele>1161.41</ele>
        <time>2019-02-16T06:37:31Z</time>
      </trkpt>
      <trkpt lat="45.99272" lon="6.54069">
        <ele>1163.33</ele>
        <time>2019-02-16T06:37:44Z</time>
      </trkpt>
      <trkpt lat="45.99266" lon="6.54076">
        <ele>1164.29</ele>
        <time>2019-02-16T06:37:51Z</time>
      </trkpt>
      <trkpt lat="45.99265" lon="6.54077">
        <ele>1164.77</ele>
        <time>2019-02-16T06:37:52Z</time>
      </trkpt>
      <trkpt lat="45.99264" lon="6.54078">
        <ele>1164.77</ele>
        <time>2019-02-16T06:37:53Z</time>
      </trkpt>
      <trkpt lat="45.99263" lon="6.54078">
        <ele>1164.77</ele>
        <time>2019-02-16T06:37:54Z</time>
      </trkpt>
      <trkpt lat="45.99261" lon="6.54079">
        <ele>1165.74</ele>
        <time>2019-02-16T06:37:57Z</time>
      </trkpt>
      <trkpt lat="45.99259" lon="6.5408">
        <ele>1165.74</ele>
        <time>2019-02-16T06:37:58Z</time>
      </trkpt>
      <trkpt lat="45.99258" lon="6.54081">
        <ele>1166.22</ele>
        <time>2019-02-16T06:37:59Z</time>
      </trkpt>
      <trkpt lat="45.99258" lon="6.54082">
        <ele>1166.22</ele>
        <time>2019-02-16T06:38:00Z</time>
      </trkpt>
      <trkpt lat="45.99253" lon="6.54086">
        <ele>1167.66</ele>
        <time>2019-02-16T06:38:07Z</time>
      </trkpt>
      <trkpt lat="45.99248" lon="6.54096">
        <ele>1169.58</ele>
        <time>2019-02-16T06:38:20Z</time>
      </trkpt>
      <trkpt lat="45.99247" lon="6.54097">
        <ele>1169.58</ele>
        <time>2019-02-16T06:38:21Z</time>
      </trkpt>
      <trkpt lat="45.99241" lon="6.54103">
        <ele>1170.54</ele>
        <time>2019-02-16T06:38:25Z</time>
      </trkpt>
      <trkpt lat="45.99237" lon="6.54105">
        <ele>1170.54</ele>
        <time>2019-02-16T06:38:30Z</time>
      </trkpt>
      <trkpt lat="45.99231" lon="6.54108">
        <ele>1171.98</ele>
        <time>2019-02-16T06:38:35Z</time>
      </trkpt>
      <trkpt lat="45.99229" lon="6.54111">
        <ele>1173.43</ele>
        <time>2019-02-16T06:38:41Z</time>
      </trkpt>
      <trkpt lat="45.99228" lon="6.54113">
        <ele>1174.39</ele>
        <time>2019-02-16T06:38:44Z</time>
      </trkpt>
      <trkpt lat="45.99225" lon="6.54115">
        <ele>1174.87</ele>
        <time>2019-02-16T06:38:47Z</time>
      </trkpt>
      <trkpt lat="45.99223" lon="6.54115">
        <ele>1174.87</ele>
        <time>2019-02-16T06:38:50Z</time>
      </trkpt>
      <trkpt lat="45.99216" lon="6.54124">
        <ele>1175.83</ele>
        <time>2019-02-16T06:39:00Z</time>
      </trkpt>
      <trkpt lat="45.99215" lon="6.54125">
        <ele>1175.83</ele>
        <time>2019-02-16T06:39:01Z</time>
      </trkpt>
      <trkpt lat="45.99207" lon="6.54137">
        <ele>1177.27</ele>
        <time>2019-02-16T06:39:08Z</time>
      </trkpt>
      <trkpt lat="45.99204" lon="6.5414">
        <ele>1178.23</ele>
        <time>2019-02-16T06:39:11Z</time>
      </trkpt>
      <trkpt lat="45.99204" lon="6.54141">
        <ele>1178.23</ele>
        <time>2019-02-16T06:39:12Z</time>
      </trkpt>
      <trkpt lat="45.99188" lon="6.54154">
        <ele>1180.16</ele>
        <time>2019-02-16T06:39:21Z</time>
      </trkpt>
      <trkpt lat="45.99184" lon="6.54156">
        <ele>1180.16</ele>
        <time>2019-02-16T06:39:22Z</time>
      </trkpt>
      <trkpt lat="45.99182" lon="6.54158">
        <ele>1180.64</ele>
        <time>2019-02-16T06:39:23Z</time>
      </trkpt>
      <trkpt lat="45.9918" lon="6.54159">
        <ele>1180.64</ele>
        <time>2019-02-16T06:39:24Z</time>
      </trkpt>
      <trkpt lat="45.99177" lon="6.54161">
        <ele>1180.64</ele>
        <time>2019-02-16T06:39:25Z</time>
      </trkpt>
      <trkpt lat="45.99176" lon="6.54162">
        <ele>1181.12</ele>
        <time>2019-02-16T06:39:26Z</time>
      </trkpt>
      <trkpt lat="45.99174" lon="6.54164">
        <ele>1181.12</ele>
        <time>2019-02-16T06:39:27Z</time>
      </trkpt>
      <trkpt lat="45.99165" lon="6.54181">
        <ele>1182.08</ele>
        <time>2019-02-16T06:39:36Z</time>
      </trkpt>
      <trkpt lat="45.99165" lon="6.54183">
        <ele>1182.08</ele>
        <time>2019-02-16T06:39:37Z</time>
      </trkpt>
      <trkpt lat="45.99161" lon="6.54196">
        <ele>1184.48</ele>
        <time>2019-02-16T06:39:51Z</time>
      </trkpt>
      <trkpt lat="45.99157" lon="6.54209">
        <ele>1186.4</ele>
        <time>2019-02-16T06:40:02Z</time>
      </trkpt>
      <trkpt lat="45.99153" lon="6.54224">
        <ele>1188.81</ele>
        <time>2019-02-16T06:40:14Z</time>
      </trkpt>
      <trkpt lat="45.99147" lon="6.5423">
        <ele>1189.29</ele>
        <time>2019-02-16T06:40:17Z</time>
      </trkpt>
      <trkpt lat="45.99145" lon="6.54235">
        <ele>1190.25</ele>
        <time>2019-02-16T06:40:21Z</time>
      </trkpt>
      <trkpt lat="45.99144" lon="6.54236">
        <ele>1190.25</ele>
        <time>2019-02-16T06:40:22Z</time>
      </trkpt>
      <trkpt lat="45.99142" lon="6.54238">
        <ele>1190.73</ele>
        <time>2019-02-16T06:40:23Z</time>
      </trkpt>
      <trkpt lat="45.9914" lon="6.54239">
        <ele>1190.73</ele>
        <time>2019-02-16T06:40:24Z</time>
      </trkpt>
      <trkpt lat="45.9914" lon="6.54243">
        <ele>1191.21</ele>
        <time>2019-02-16T06:40:28Z</time>
      </trkpt>
      <trkpt lat="45.99136" lon="6.54245">
        <ele>1192.17</ele>
        <time>2019-02-16T06:40:31Z</time>
      </trkpt>
      <trkpt lat="45.99134" lon="6.54247">
        <ele>1192.17</ele>
        <time>2019-02-16T06:40:32Z</time>
      </trkpt>
      <trkpt lat="45.99134" lon="6.54248">
        <ele>1192.17</ele>
        <time>2019-02-16T06:40:33Z</time>
      </trkpt>
      <trkpt lat="45.9913" lon="6.54257">
        <ele>1194.58</ele>
        <time>2019-02-16T06:40:41Z</time>
      </trkpt>
      <trkpt lat="45.99129" lon="6.54259">
        <ele>1194.58</ele>
        <time>2019-02-16T06:40:42Z</time>
      </trkpt>
      <trkpt lat="45.99128" lon="6.5426">
        <ele>1194.58</ele>
        <time>2019-02-16T06:40:43Z</time>
      </trkpt>
      <trkpt lat="45.99126" lon="6.54263">
        <ele>1195.54</ele>
        <time>2019-02-16T06:40:46Z</time>
      </trkpt>
      <trkpt lat="45.99124" lon="6.54264">
        <ele>1195.54</ele>
        <time>2019-02-16T06:40:48Z</time>
      </trkpt>
      <trkpt lat="45.99122" lon="6.54265">
        <ele>1196.02</ele>
        <time>2019-02-16T06:40:49Z</time>
      </trkpt>
      <trkpt lat="45.9912" lon="6.54267">
        <ele>1196.5</ele>
        <time>2019-02-16T06:40:50Z</time>
      </trkpt>
      <trkpt lat="45.99119" lon="6.54267">
        <ele>1196.5</ele>
        <time>2019-02-16T06:40:51Z</time>
      </trkpt>
      <trkpt lat="45.99118" lon="6.54268">
        <ele>1196.98</ele>
        <time>2019-02-16T06:40:52Z</time>
      </trkpt>
      <trkpt lat="45.99118" lon="6.54269">
        <ele>1196.98</ele>
        <time>2019-02-16T06:40:53Z</time>
      </trkpt>
      <trkpt lat="45.99117" lon="6.5427">
        <ele>1196.98</ele>
        <time>2019-02-16T06:40:54Z</time>
      </trkpt>
      <trkpt lat="45.99117" lon="6.54271">
        <ele>1197.46</ele>
        <time>2019-02-16T06:40:55Z</time>
      </trkpt>
      <trkpt lat="45.99117" lon="6.54273">
        <ele>1197.94</ele>
        <time>2019-02-16T06:40:56Z</time>
      </trkpt>
      <trkpt lat="45.99114" lon="6.54279">
        <ele>1198.9</ele>
        <time>2019-02-16T06:41:01Z</time>
      </trkpt>
      <trkpt lat="45.99108" lon="6.54284">
        <ele>1200.34</ele>
        <time>2019-02-16T06:41:08Z</time>
      </trkpt>
      <trkpt lat="45.99107" lon="6.54285">
        <ele>1200.82</ele>
        <time>2019-02-16T06:41:09Z</time>
      </trkpt>
      <trkpt lat="45.99107" lon="6.54286">
        <ele>1201.3</ele>
        <time>2019-02-16T06:41:11Z</time>
      </trkpt>
      <trkpt lat="45.99108" lon="6.54287">
        <ele>1201.79</ele>
        <time>2019-02-16T06:41:13Z</time>
      </trkpt>
      <trkpt lat="45.99114" lon="6.54293">
        <ele>1202.75</ele>
        <time>2019-02-16T06:41:18Z</time>
      </trkpt>
      <trkpt lat="45.99112" lon="6.54295">
        <ele>1203.23</ele>
        <time>2019-02-16T06:41:21Z</time>
      </trkpt>
      <trkpt lat="45.99112" lon="6.54296">
        <ele>1203.23</ele>
        <time>2019-02-16T06:41:22Z</time>
      </trkpt>
      <trkpt lat="45.99112" lon="6.54297">
        <ele>1203.71</ele>
        <time>2019-02-16T06:41:23Z</time>
      </trkpt>
      <trkpt lat="45.99112" lon="6.54298">
        <ele>1203.71</ele>
        <time>2019-02-16T06:41:24Z</time>
      </trkpt>
      <trkpt lat="45.9911" lon="6.54303">
        <ele>1205.63</ele>
        <time>2019-02-16T06:41:31Z</time>
      </trkpt>
      <trkpt lat="45.99109" lon="6.54304">
        <ele>1205.63</ele>
        <time>2019-02-16T06:41:32Z</time>
      </trkpt>
      <trkpt lat="45.99106" lon="6.54308">
        <ele>1207.07</ele>
        <time>2019-02-16T06:41:36Z</time>
      </trkpt>
      <trkpt lat="45.99106" lon="6.5431">
        <ele>1207.55</ele>
        <time>2019-02-16T06:41:38Z</time>
      </trkpt>
      <trkpt lat="45.99107" lon="6.54311">
        <ele>1208.03</ele>
        <time>2019-02-16T06:41:39Z</time>
      </trkpt>
      <trkpt lat="45.99108" lon="6.54313">
        <ele>1208.03</ele>
        <time>2019-02-16T06:41:40Z</time>
      </trkpt>
      <trkpt lat="45.99107" lon="6.54315">
        <ele>1208.51</ele>
        <time>2019-02-16T06:41:41Z</time>
      </trkpt>
      <trkpt lat="45.99106" lon="6.54324">
        <ele>1209.96</ele>
        <time>2019-02-16T06:41:48Z</time>
      </trkpt>
      <trkpt lat="45.99105" lon="6.5433">
        <ele>1211.4</ele>
        <time>2019-02-16T06:41:55Z</time>
      </trkpt>
      <trkpt lat="45.99106" lon="6.54331">
        <ele>1211.88</ele>
        <time>2019-02-16T06:41:56Z</time>
      </trkpt>
      <trkpt lat="45.99105" lon="6.54332">
        <ele>1212.36</ele>
        <time>2019-02-16T06:41:57Z</time>
      </trkpt>
      <trkpt lat="45.99103" lon="6.54333">
        <ele>1212.36</ele>
        <time>2019-02-16T06:41:58Z</time>
      </trkpt>
      <trkpt lat="45.99101" lon="6.54339">
        <ele>1214.76</ele>
        <time>2019-02-16T06:42:09Z</time>
      </trkpt>
      <trkpt lat="45.99099" lon="6.54348">
        <ele>1218.13</ele>
        <time>2019-02-16T06:42:22Z</time>
      </trkpt>
      <trkpt lat="45.99091" lon="6.54356">
        <ele>1221.01</ele>
        <time>2019-02-16T06:42:36Z</time>
      </trkpt>
      <trkpt lat="45.9909" lon="6.54356">
        <ele>1221.01</ele>
        <time>2019-02-16T06:42:37Z</time>
      </trkpt>
      <trkpt lat="45.99085" lon="6.5437">
        <ele>1223.42</ele>
        <time>2019-02-16T06:42:51Z</time>
      </trkpt>
      <trkpt lat="45.99081" lon="6.54372">
        <ele>1223.9</ele>
        <time>2019-02-16T06:42:54Z</time>
      </trkpt>
      <trkpt lat="45.99075" lon="6.5438">
        <ele>1226.78</ele>
        <time>2019-02-16T06:43:05Z</time>
      </trkpt>
      <trkpt lat="45.99073" lon="6.54384">
        <ele>1227.26</ele>
        <time>2019-02-16T06:43:08Z</time>
      </trkpt>
      <trkpt lat="45.99057" lon="6.54391">
        <ele>1230.14</ele>
        <time>2019-02-16T06:43:23Z</time>
      </trkpt>
      <trkpt lat="45.99048" lon="6.54392">
        <ele>1233.51</ele>
        <time>2019-02-16T06:43:37Z</time>
      </trkpt>
      <trkpt lat="45.9904" lon="6.54391">
        <ele>1236.39</ele>
        <time>2019-02-16T06:43:52Z</time>
      </trkpt>
      <trkpt lat="45.99029" lon="6.54391">
        <ele>1239.76</ele>
        <time>2019-02-16T06:44:06Z</time>
      </trkpt>
      <trkpt lat="45.99028" lon="6.54388">
        <ele>1240.24</ele>
        <time>2019-02-16T06:44:07Z</time>
      </trkpt>
      <trkpt lat="45.99022" lon="6.54384">
        <ele>1241.68</ele>
        <time>2019-02-16T06:44:15Z</time>
      </trkpt>
      <trkpt lat="45.99021" lon="6.54383">
        <ele>1242.16</ele>
        <time>2019-02-16T06:44:16Z</time>
      </trkpt>
      <trkpt lat="45.9902" lon="6.54383">
        <ele>1242.16</ele>
        <time>2019-02-16T06:44:17Z</time>
      </trkpt>
      <trkpt lat="45.99006" lon="6.54391">
        <ele>1245.53</ele>
        <time>2019-02-16T06:44:32Z</time>
      </trkpt>
      <trkpt lat="45.98997" lon="6.54396">
        <ele>1248.41</ele>
        <time>2019-02-16T06:44:46Z</time>
      </trkpt>
      <trkpt lat="45.98991" lon="6.54402">
        <ele>1251.29</ele>
        <time>2019-02-16T06:44:57Z</time>
      </trkpt>
      <trkpt lat="45.98979" lon="6.54409">
        <ele>1254.66</ele>
        <time>2019-02-16T06:45:12Z</time>
      </trkpt>
      <trkpt lat="45.98972" lon="6.54411">
        <ele>1256.1</ele>
        <time>2019-02-16T06:45:18Z</time>
      </trkpt>
      <trkpt lat="45.98959" lon="6.54406">
        <ele>1258.98</ele>
        <time>2019-02-16T06:45:32Z</time>
      </trkpt>
      <trkpt lat="45.98952" lon="6.5441">
        <ele>1262.35</ele>
        <time>2019-02-16T06:45:43Z</time>
      </trkpt>
      <trkpt lat="45.98947" lon="6.54414">
        <ele>1263.31</ele>
        <time>2019-02-16T06:45:47Z</time>
      </trkpt>
      <trkpt lat="45.98946" lon="6.54415">
        <ele>1263.79</ele>
        <time>2019-02-16T06:45:48Z</time>
      </trkpt>
      <trkpt lat="45.98936" lon="6.54422">
        <ele>1265.23</ele>
        <time>2019-02-16T06:45:58Z</time>
      </trkpt>
      <trkpt lat="45.98935" lon="6.54424">
        <ele>1265.71</ele>
        <time>2019-02-16T06:45:59Z</time>
      </trkpt>
      <trkpt lat="45.98934" lon="6.54423">
        <ele>1265.71</ele>
        <time>2019-02-16T06:46:00Z</time>
      </trkpt>
      <trkpt lat="45.98933" lon="6.54422">
        <ele>1266.19</ele>
        <time>2019-02-16T06:46:01Z</time>
      </trkpt>
      <trkpt lat="45.98932" lon="6.54423">
        <ele>1266.67</ele>
        <time>2019-02-16T06:46:03Z</time>
      </trkpt>
      <trkpt lat="45.9893" lon="6.54424">
        <ele>1267.16</ele>
        <time>2019-02-16T06:46:05Z</time>
      </trkpt>
      <trkpt lat="45.98929" lon="6.54424">
        <ele>1267.16</ele>
        <time>2019-02-16T06:46:06Z</time>
      </trkpt>
      <trkpt lat="45.98928" lon="6.54425">
        <ele>1267.64</ele>
        <time>2019-02-16T06:46:07Z</time>
      </trkpt>
      <trkpt lat="45.98927" lon="6.54427">
        <ele>1267.64</ele>
        <time>2019-02-16T06:46:08Z</time>
      </trkpt>
      <trkpt lat="45.98926" lon="6.54428">
        <ele>1267.64</ele>
        <time>2019-02-16T06:46:09Z</time>
      </trkpt>
      <trkpt lat="45.98922" lon="6.54429">
        <ele>1268.6</ele>
        <time>2019-02-16T06:46:14Z</time>
      </trkpt>
      <trkpt lat="45.9892" lon="6.54428">
        <ele>1269.08</ele>
        <time>2019-02-16T06:46:16Z</time>
      </trkpt>
      <trkpt lat="45.98918" lon="6.54429">
        <ele>1269.56</ele>
        <time>2019-02-16T06:46:17Z</time>
      </trkpt>
      <trkpt lat="45.98897" lon="6.54432">
        <ele>1272.44</ele>
        <time>2019-02-16T06:46:37Z</time>
      </trkpt>
      <trkpt lat="45.98879" lon="6.54442">
        <ele>1275.81</ele>
        <time>2019-02-16T06:46:57Z</time>
      </trkpt>
      <trkpt lat="45.98873" lon="6.54438">
        <ele>1276.77</ele>
        <time>2019-02-16T06:47:04Z</time>
      </trkpt>
      <trkpt lat="45.98853" lon="6.54429">
        <ele>1279.65</ele>
        <time>2019-02-16T06:47:25Z</time>
      </trkpt>
      <trkpt lat="45.98825" lon="6.54432">
        <ele>1283.02</ele>
        <time>2019-02-16T06:47:47Z</time>
      </trkpt>
      <trkpt lat="45.98788" lon="6.54428">
        <ele>1285.9</ele>
        <time>2019-02-16T06:48:13Z</time>
      </trkpt>
      <trkpt lat="45.9875" lon="6.54412">
        <ele>1288.78</ele>
        <time>2019-02-16T06:48:46Z</time>
      </trkpt>
      <trkpt lat="45.98718" lon="6.54396">
        <ele>1292.15</ele>
        <time>2019-02-16T06:49:13Z</time>
      </trkpt>
      <trkpt lat="45.98681" lon="6.5439">
        <ele>1295.03</ele>
        <time>2019-02-16T06:49:44Z</time>
      </trkpt>
      <trkpt lat="45.98653" lon="6.54384">
        <ele>1298.4</ele>
        <time>2019-02-16T06:50:04Z</time>
      </trkpt>
      <trkpt lat="45.9864" lon="6.54388">
        <ele>1298.4</ele>
        <time>2019-02-16T06:50:13Z</time>
      </trkpt>
      <trkpt lat="45.98639" lon="6.54389">
        <ele>1298.4</ele>
        <time>2019-02-16T06:50:14Z</time>
      </trkpt>
      <trkpt lat="45.98637" lon="6.5439">
        <ele>1298.4</ele>
        <time>2019-02-16T06:50:15Z</time>
      </trkpt>
      <trkpt lat="45.98636" lon="6.5439">
        <ele>1298.88</ele>
        <time>2019-02-16T06:50:16Z</time>
      </trkpt>
      <trkpt lat="45.98635" lon="6.5439">
        <ele>1298.88</ele>
        <time>2019-02-16T06:50:17Z</time>
      </trkpt>
      <trkpt lat="45.98631" lon="6.54392">
        <ele>1299.84</ele>
        <time>2019-02-16T06:50:21Z</time>
      </trkpt>
      <trkpt lat="45.9863" lon="6.54393">
        <ele>1299.84</ele>
        <time>2019-02-16T06:50:22Z</time>
      </trkpt>
      <trkpt lat="45.98627" lon="6.54395">
        <ele>1301.28</ele>
        <time>2019-02-16T06:50:26Z</time>
      </trkpt>
      <trkpt lat="45.98622" lon="6.54397">
        <ele>1302.72</ele>
        <time>2019-02-16T06:50:31Z</time>
      </trkpt>
      <trkpt lat="45.9862" lon="6.54398">
        <ele>1303.2</ele>
        <time>2019-02-16T06:50:33Z</time>
      </trkpt>
      <trkpt lat="45.98618" lon="6.54399">
        <ele>1303.2</ele>
        <time>2019-02-16T06:50:34Z</time>
      </trkpt>
      <trkpt lat="45.98613" lon="6.54399">
        <ele>1304.65</ele>
        <time>2019-02-16T06:50:39Z</time>
      </trkpt>
      <trkpt lat="45.98611" lon="6.54397">
        <ele>1305.61</ele>
        <time>2019-02-16T06:50:43Z</time>
      </trkpt>
      <trkpt lat="45.9861" lon="6.54397">
        <ele>1305.61</ele>
        <time>2019-02-16T06:50:44Z</time>
      </trkpt>
      <trkpt lat="45.98592" lon="6.54389">
        <ele>1308.01</ele>
        <time>2019-02-16T06:50:58Z</time>
      </trkpt>
      <trkpt lat="45.98591" lon="6.54388">
        <ele>1308.01</ele>
        <time>2019-02-16T06:50:59Z</time>
      </trkpt>
      <trkpt lat="45.98591" lon="6.54388">
        <ele>1308.01</ele>
        <time>2019-02-16T06:51:00Z</time>
      </trkpt>
      <trkpt lat="45.9859" lon="6.54386">
        <ele>1308.01</ele>
        <time>2019-02-16T06:51:01Z</time>
      </trkpt>
      <trkpt lat="45.98589" lon="6.54385">
        <ele>1308.01</ele>
        <time>2019-02-16T06:51:02Z</time>
      </trkpt>
      <trkpt lat="45.98582" lon="6.54381">
        <ele>1308.97</ele>
        <time>2019-02-16T06:51:08Z</time>
      </trkpt>
      <trkpt lat="45.98582" lon="6.54381">
        <ele>1308.97</ele>
        <time>2019-02-16T06:51:09Z</time>
      </trkpt>
      <trkpt lat="45.9858" lon="6.5438">
        <ele>1308.97</ele>
        <time>2019-02-16T06:51:10Z</time>
      </trkpt>
      <trkpt lat="45.98579" lon="6.54379">
        <ele>1309.45</ele>
        <time>2019-02-16T06:51:11Z</time>
      </trkpt>
      <trkpt lat="45.98578" lon="6.54378">
        <ele>1309.45</ele>
        <time>2019-02-16T06:51:12Z</time>
      </trkpt>
      <trkpt lat="45.98577" lon="6.54377">
        <ele>1309.45</ele>
        <time>2019-02-16T06:51:13Z</time>
      </trkpt>
      <trkpt lat="45.98576" lon="6.54376">
        <ele>1309.93</ele>
        <time>2019-02-16T06:51:14Z</time>
      </trkpt>
      <trkpt lat="45.98536" lon="6.54357">
        <ele>1312.34</ele>
        <time>2019-02-16T06:51:47Z</time>
      </trkpt>
      <trkpt lat="45.98535" lon="6.54357">
        <ele>1312.34</ele>
        <time>2019-02-16T06:51:48Z</time>
      </trkpt>
      <trkpt lat="45.98534" lon="6.54357">
        <ele>1312.34</ele>
        <time>2019-02-16T06:51:49Z</time>
      </trkpt>
      <trkpt lat="45.98533" lon="6.54357">
        <ele>1312.34</ele>
        <time>2019-02-16T06:51:50Z</time>
      </trkpt>
      <trkpt lat="45.98532" lon="6.54357">
        <ele>1312.82</ele>
        <time>2019-02-16T06:51:51Z</time>
      </trkpt>
      <trkpt lat="45.98531" lon="6.54357">
        <ele>1312.82</ele>
        <time>2019-02-16T06:51:52Z</time>
      </trkpt>
      <trkpt lat="45.9853" lon="6.54357">
        <ele>1312.82</ele>
        <time>2019-02-16T06:51:53Z</time>
      </trkpt>
      <trkpt lat="45.98529" lon="6.54357">
        <ele>1312.82</ele>
        <time>2019-02-16T06:51:54Z</time>
      </trkpt>
      <trkpt lat="45.98485" lon="6.54336">
        <ele>1310.41</ele>
        <time>2019-02-16T06:52:24Z</time>
      </trkpt>
      <trkpt lat="45.98472" lon="6.54316">
        <ele>1309.45</ele>
        <time>2019-02-16T06:52:38Z</time>
      </trkpt>
      <trkpt lat="45.98471" lon="6.54316">
        <ele>1309.45</ele>
        <time>2019-02-16T06:52:39Z</time>
      </trkpt>
      <trkpt lat="45.98451" lon="6.54333">
        <ele>1306.57</ele>
        <time>2019-02-16T06:52:51Z</time>
      </trkpt>
      <trkpt lat="45.98412" lon="6.54369">
        <ele>1305.13</ele>
        <time>2019-02-16T06:53:22Z</time>
      </trkpt>
      <trkpt lat="45.98392" lon="6.54398">
        <ele>1301.76</ele>
        <time>2019-02-16T06:53:37Z</time>
      </trkpt>
      <trkpt lat="45.98384" lon="6.54413">
        <ele>1299.36</ele>
        <time>2019-02-16T06:53:43Z</time>
      </trkpt>
      <trkpt lat="45.9838" lon="6.54426">
        <ele>1298.88</ele>
        <time>2019-02-16T06:53:50Z</time>
      </trkpt>
      <trkpt lat="45.98379" lon="6.54428">
        <ele>1299.36</ele>
        <time>2019-02-16T06:53:51Z</time>
      </trkpt>
      <trkpt lat="45.98378" lon="6.5443">
        <ele>1299.36</ele>
        <time>2019-02-16T06:53:52Z</time>
      </trkpt>
      <trkpt lat="45.98369" lon="6.54461">
        <ele>1298.88</ele>
        <time>2019-02-16T06:54:08Z</time>
      </trkpt>
      <trkpt lat="45.98368" lon="6.54462">
        <ele>1298.88</ele>
        <time>2019-02-16T06:54:09Z</time>
      </trkpt>
      <trkpt lat="45.98368" lon="6.54464">
        <ele>1298.88</ele>
        <time>2019-02-16T06:54:10Z</time>
      </trkpt>
      <trkpt lat="45.98366" lon="6.54475">
        <ele>1298.88</ele>
        <time>2019-02-16T06:54:16Z</time>
      </trkpt>
      <trkpt lat="45.98365" lon="6.54477">
        <ele>1298.88</ele>
        <time>2019-02-16T06:54:17Z</time>
      </trkpt>
      <trkpt lat="45.98365" lon="6.54516">
        <ele>1301.76</ele>
        <time>2019-02-16T06:54:41Z</time>
      </trkpt>
      <trkpt lat="45.98366" lon="6.54521">
        <ele>1302.72</ele>
        <time>2019-02-16T06:54:44Z</time>
      </trkpt>
      <trkpt lat="45.98366" lon="6.54522">
        <ele>1302.72</ele>
        <time>2019-02-16T06:54:45Z</time>
      </trkpt>
      <trkpt lat="45.98366" lon="6.54525">
        <ele>1302.72</ele>
        <time>2019-02-16T06:54:47Z</time>
      </trkpt>
      <trkpt lat="45.98366" lon="6.54526">
        <ele>1303.2</ele>
        <time>2019-02-16T06:54:48Z</time>
      </trkpt>
      <trkpt lat="45.98367" lon="6.54537">
        <ele>1304.17</ele>
        <time>2019-02-16T06:54:56Z</time>
      </trkpt>
      <trkpt lat="45.98367" lon="6.54542">
        <ele>1305.13</ele>
        <time>2019-02-16T06:55:00Z</time>
      </trkpt>
      <trkpt lat="45.98367" lon="6.54544">
        <ele>1305.13</ele>
        <time>2019-02-16T06:55:01Z</time>
      </trkpt>
      <trkpt lat="45.98367" lon="6.54556">
        <ele>1306.57</ele>
        <time>2019-02-16T06:55:11Z</time>
      </trkpt>
      <trkpt lat="45.98367" lon="6.5456">
        <ele>1307.05</ele>
        <time>2019-02-16T06:55:14Z</time>
      </trkpt>
      <trkpt lat="45.98365" lon="6.5459">
        <ele>1309.93</ele>
        <time>2019-02-16T06:55:34Z</time>
      </trkpt>
      <trkpt lat="45.98365" lon="6.54592">
        <ele>1309.93</ele>
        <time>2019-02-16T06:55:35Z</time>
      </trkpt>
      <trkpt lat="45.98365" lon="6.54593">
        <ele>1309.93</ele>
        <time>2019-02-16T06:55:36Z</time>
      </trkpt>
      <trkpt lat="45.98365" lon="6.54622">
        <ele>1313.3</ele>
        <time>2019-02-16T06:55:57Z</time>
      </trkpt>
      <trkpt lat="45.98366" lon="6.54641">
        <ele>1316.18</ele>
        <time>2019-02-16T06:56:14Z</time>
      </trkpt>
      <trkpt lat="45.98366" lon="6.54658">
        <ele>1318.59</ele>
        <time>2019-02-16T06:56:27Z</time>
      </trkpt>
      <trkpt lat="45.98368" lon="6.54675">
        <ele>1321.47</ele>
        <time>2019-02-16T06:56:43Z</time>
      </trkpt>
      <trkpt lat="45.98367" lon="6.54691">
        <ele>1324.35</ele>
        <time>2019-02-16T06:56:56Z</time>
      </trkpt>
      <trkpt lat="45.98367" lon="6.54699">
        <ele>1325.8</ele>
        <time>2019-02-16T06:57:03Z</time>
      </trkpt>
      <trkpt lat="45.98369" lon="6.54703">
        <ele>1326.76</ele>
        <time>2019-02-16T06:57:06Z</time>
      </trkpt>
      <trkpt lat="45.98371" lon="6.54722">
        <ele>1329.64</ele>
        <time>2019-02-16T06:57:22Z</time>
      </trkpt>
      <trkpt lat="45.98371" lon="6.54728">
        <ele>1330.6</ele>
        <time>2019-02-16T06:57:27Z</time>
      </trkpt>
      <trkpt lat="45.98375" lon="6.54738">
        <ele>1333.97</ele>
        <time>2019-02-16T06:57:38Z</time>
      </trkpt>
      <trkpt lat="45.98375" lon="6.54739">
        <ele>1333.97</ele>
        <time>2019-02-16T06:57:39Z</time>
      </trkpt>
      <trkpt lat="45.98378" lon="6.54751">
        <ele>1336.85</ele>
        <time>2019-02-16T06:57:53Z</time>
      </trkpt>
      <trkpt lat="45.98384" lon="6.54758">
        <ele>1340.22</ele>
        <time>2019-02-16T06:58:07Z</time>
      </trkpt>
      <trkpt lat="45.98386" lon="6.54765">
        <ele>1342.62</ele>
        <time>2019-02-16T06:58:17Z</time>
      </trkpt>
      <trkpt lat="45.98387" lon="6.54779">
        <ele>1345.5</ele>
        <time>2019-02-16T06:58:30Z</time>
      </trkpt>
      <trkpt lat="45.98392" lon="6.54792">
        <ele>1348.87</ele>
        <time>2019-02-16T06:58:44Z</time>
      </trkpt>
      <trkpt lat="45.98399" lon="6.54799">
        <ele>1351.75</ele>
        <time>2019-02-16T06:58:57Z</time>
      </trkpt>
      <trkpt lat="45.98402" lon="6.54799">
        <ele>1352.23</ele>
        <time>2019-02-16T06:58:59Z</time>
      </trkpt>
      <trkpt lat="45.98404" lon="6.54802">
        <ele>1353.19</ele>
        <time>2019-02-16T06:59:03Z</time>
      </trkpt>
      <trkpt lat="45.98406" lon="6.5481">
        <ele>1355.6</ele>
        <time>2019-02-16T06:59:12Z</time>
      </trkpt>
      <trkpt lat="45.98407" lon="6.54811">
        <ele>1356.08</ele>
        <time>2019-02-16T06:59:14Z</time>
      </trkpt>
      <trkpt lat="45.98408" lon="6.54814">
        <ele>1357.04</ele>
        <time>2019-02-16T06:59:18Z</time>
      </trkpt>
      <trkpt lat="45.98411" lon="6.54827">
        <ele>1360.4</ele>
        <time>2019-02-16T06:59:32Z</time>
      </trkpt>
      <trkpt lat="45.98411" lon="6.54842">
        <ele>1363.29</ele>
        <time>2019-02-16T06:59:47Z</time>
      </trkpt>
      <trkpt lat="45.98415" lon="6.54849">
        <ele>1365.21</ele>
        <time>2019-02-16T06:59:56Z</time>
      </trkpt>
      <trkpt lat="45.98416" lon="6.54852">
        <ele>1366.17</ele>
        <time>2019-02-16T06:59:59Z</time>
      </trkpt>
      <trkpt lat="45.98422" lon="6.54868">
        <ele>1369.05</ele>
        <time>2019-02-16T07:00:16Z</time>
      </trkpt>
      <trkpt lat="45.98428" lon="6.54874">
        <ele>1371.94</ele>
        <time>2019-02-16T07:00:26Z</time>
      </trkpt>
      <trkpt lat="45.9843" lon="6.54873">
        <ele>1372.42</ele>
        <time>2019-02-16T07:00:28Z</time>
      </trkpt>
      <trkpt lat="45.98431" lon="6.54873">
        <ele>1372.42</ele>
        <time>2019-02-16T07:00:29Z</time>
      </trkpt>
      <trkpt lat="45.98444" lon="6.54874">
        <ele>1375.78</ele>
        <time>2019-02-16T07:00:45Z</time>
      </trkpt>
      <trkpt lat="45.98457" lon="6.54877">
        <ele>1378.67</ele>
        <time>2019-02-16T07:01:03Z</time>
      </trkpt>
      <trkpt lat="45.9846" lon="6.54869">
        <ele>1381.07</ele>
        <time>2019-02-16T07:01:13Z</time>
      </trkpt>
      <trkpt lat="45.98504" lon="6.5485">
        <ele>1381.07</ele>
        <time>2019-02-16T07:01:51Z</time>
      </trkpt>
      <trkpt lat="45.98505" lon="6.54849">
        <ele>1381.07</ele>
        <time>2019-02-16T07:01:52Z</time>
      </trkpt>
      <trkpt lat="45.98506" lon="6.54848">
        <ele>1380.59</ele>
        <time>2019-02-16T07:01:53Z</time>
      </trkpt>
      <trkpt lat="45.98506" lon="6.54848">
        <ele>1380.59</ele>
        <time>2019-02-16T07:01:54Z</time>
      </trkpt>
      <trkpt lat="45.98507" lon="6.54847">
        <ele>1381.07</ele>
        <time>2019-02-16T07:01:55Z</time>
      </trkpt>
      <trkpt lat="45.98508" lon="6.54846">
        <ele>1381.07</ele>
        <time>2019-02-16T07:01:56Z</time>
      </trkpt>
      <trkpt lat="45.98509" lon="6.54845">
        <ele>1381.07</ele>
        <time>2019-02-16T07:01:57Z</time>
      </trkpt>
      <trkpt lat="45.9851" lon="6.54845">
        <ele>1381.55</ele>
        <time>2019-02-16T07:01:58Z</time>
      </trkpt>
      <trkpt lat="45.98511" lon="6.54845">
        <ele>1381.55</ele>
        <time>2019-02-16T07:01:59Z</time>
      </trkpt>
      <trkpt lat="45.98522" lon="6.54837">
        <ele>1381.55</ele>
        <time>2019-02-16T07:02:11Z</time>
      </trkpt>
      <trkpt lat="45.98523" lon="6.54836">
        <ele>1381.55</ele>
        <time>2019-02-16T07:02:12Z</time>
      </trkpt>
      <trkpt lat="45.98524" lon="6.54836">
        <ele>1381.55</ele>
        <time>2019-02-16T07:02:13Z</time>
      </trkpt>
      <trkpt lat="45.98525" lon="6.54835">
        <ele>1381.55</ele>
        <time>2019-02-16T07:02:14Z</time>
      </trkpt>
      <trkpt lat="45.98527" lon="6.54834">
        <ele>1381.55</ele>
        <time>2019-02-16T07:02:15Z</time>
      </trkpt>
      <trkpt lat="45.98529" lon="6.54832">
        <ele>1381.07</ele>
        <time>2019-02-16T07:02:16Z</time>
      </trkpt>
      <trkpt lat="45.9853" lon="6.54832">
        <ele>1381.07</ele>
        <time>2019-02-16T07:02:17Z</time>
      </trkpt>
      <trkpt lat="45.98532" lon="6.54831">
        <ele>1380.59</ele>
        <time>2019-02-16T07:02:18Z</time>
      </trkpt>
      <trkpt lat="45.98533" lon="6.54829">
        <ele>1380.59</ele>
        <time>2019-02-16T07:02:19Z</time>
      </trkpt>
      <trkpt lat="45.98534" lon="6.54828">
        <ele>1380.59</ele>
        <time>2019-02-16T07:02:20Z</time>
      </trkpt>
      <trkpt lat="45.98535" lon="6.54827">
        <ele>1380.59</ele>
        <time>2019-02-16T07:02:21Z</time>
      </trkpt>
      <trkpt lat="45.98545" lon="6.54814">
        <ele>1380.11</ele>
        <time>2019-02-16T07:02:28Z</time>
      </trkpt>
      <trkpt lat="45.98546" lon="6.54813">
        <ele>1380.11</ele>
        <time>2019-02-16T07:02:29Z</time>
      </trkpt>
      <trkpt lat="45.98548" lon="6.54811">
        <ele>1379.63</ele>
        <time>2019-02-16T07:02:31Z</time>
      </trkpt>
      <trkpt lat="45.98549" lon="6.54811">
        <ele>1379.63</ele>
        <time>2019-02-16T07:02:32Z</time>
      </trkpt>
      <trkpt lat="45.98551" lon="6.54811">
        <ele>1380.11</ele>
        <time>2019-02-16T07:02:33Z</time>
      </trkpt>
      <trkpt lat="45.98556" lon="6.5481">
        <ele>1379.63</ele>
        <time>2019-02-16T07:02:45Z</time>
      </trkpt>
      <trkpt lat="45.98557" lon="6.5481">
        <ele>1379.63</ele>
        <time>2019-02-16T07:02:46Z</time>
      </trkpt>
      <trkpt lat="45.98558" lon="6.5481">
        <ele>1380.59</ele>
        <time>2019-02-16T07:02:51Z</time>
      </trkpt>
      <trkpt lat="45.98563" lon="6.54813">
        <ele>1379.63</ele>
        <time>2019-02-16T07:03:32Z</time>
      </trkpt>
      <trkpt lat="45.98564" lon="6.54813">
        <ele>1380.11</ele>
        <time>2019-02-16T07:03:41Z</time>
      </trkpt>
      <trkpt lat="45.9857" lon="6.54815">
        <ele>1383.47</ele>
        <time>2019-02-16T07:04:18Z</time>
      </trkpt>
      <trkpt lat="45.98581" lon="6.54814">
        <ele>1386.36</ele>
        <time>2019-02-16T07:04:32Z</time>
      </trkpt>
      <trkpt lat="45.98591" lon="6.54814">
        <ele>1389.72</ele>
        <time>2019-02-16T07:04:45Z</time>
      </trkpt>
      <trkpt lat="45.98601" lon="6.54812">
        <ele>1392.61</ele>
        <time>2019-02-16T07:04:57Z</time>
      </trkpt>
      <trkpt lat="45.98609" lon="6.54811">
        <ele>1395.97</ele>
        <time>2019-02-16T07:05:10Z</time>
      </trkpt>
      <trkpt lat="45.98626" lon="6.54816">
        <ele>1398.86</ele>
        <time>2019-02-16T07:05:27Z</time>
      </trkpt>
      <trkpt lat="45.98637" lon="6.54812">
        <ele>1400.78</ele>
        <time>2019-02-16T07:05:40Z</time>
      </trkpt>
      <trkpt lat="45.98638" lon="6.54812">
        <ele>1400.78</ele>
        <time>2019-02-16T07:05:42Z</time>
      </trkpt>
      <trkpt lat="45.98655" lon="6.54806">
        <ele>1404.14</ele>
        <time>2019-02-16T07:05:59Z</time>
      </trkpt>
      <trkpt lat="45.98664" lon="6.54805">
        <ele>1405.58</ele>
        <time>2019-02-16T07:06:09Z</time>
      </trkpt>
      <trkpt lat="45.98683" lon="6.54792">
        <ele>1408.47</ele>
        <time>2019-02-16T07:06:33Z</time>
      </trkpt>
      <trkpt lat="45.98694" lon="6.54784">
        <ele>1411.35</ele>
        <time>2019-02-16T07:06:47Z</time>
      </trkpt>
      <trkpt lat="45.98715" lon="6.54784">
        <ele>1414.24</ele>
        <time>2019-02-16T07:07:05Z</time>
      </trkpt>
      <trkpt lat="45.9873" lon="6.54787">
        <ele>1417.6</ele>
        <time>2019-02-16T07:07:19Z</time>
      </trkpt>
      <trkpt lat="45.98731" lon="6.54787">
        <ele>1417.6</ele>
        <time>2019-02-16T07:07:20Z</time>
      </trkpt>
      <trkpt lat="45.98748" lon="6.54779">
        <ele>1420.49</ele>
        <time>2019-02-16T07:07:39Z</time>
      </trkpt>
      <trkpt lat="45.9876" lon="6.54779">
        <ele>1423.85</ele>
        <time>2019-02-16T07:07:53Z</time>
      </trkpt>
      <trkpt lat="45.98778" lon="6.54768">
        <ele>1424.81</ele>
        <time>2019-02-16T07:08:11Z</time>
      </trkpt>
      <trkpt lat="45.98779" lon="6.54768">
        <ele>1424.81</ele>
        <time>2019-02-16T07:08:12Z</time>
      </trkpt>
      <trkpt lat="45.9878" lon="6.54767">
        <ele>1424.81</ele>
        <time>2019-02-16T07:08:13Z</time>
      </trkpt>
      <trkpt lat="45.98781" lon="6.54767">
        <ele>1424.81</ele>
        <time>2019-02-16T07:08:14Z</time>
      </trkpt>
      <trkpt lat="45.98782" lon="6.54765">
        <ele>1424.81</ele>
        <time>2019-02-16T07:08:15Z</time>
      </trkpt>
      <trkpt lat="45.98783" lon="6.54764">
        <ele>1425.29</ele>
        <time>2019-02-16T07:08:16Z</time>
      </trkpt>
      <trkpt lat="45.98784" lon="6.54763">
        <ele>1425.29</ele>
        <time>2019-02-16T07:08:17Z</time>
      </trkpt>
      <trkpt lat="45.98785" lon="6.54763">
        <ele>1425.29</ele>
        <time>2019-02-16T07:08:18Z</time>
      </trkpt>
      <trkpt lat="45.98791" lon="6.5476">
        <ele>1425.77</ele>
        <time>2019-02-16T07:08:23Z</time>
      </trkpt>
      <trkpt lat="45.98792" lon="6.5476">
        <ele>1425.77</ele>
        <time>2019-02-16T07:08:24Z</time>
      </trkpt>
      <trkpt lat="45.98794" lon="6.54759">
        <ele>1425.77</ele>
        <time>2019-02-16T07:08:26Z</time>
      </trkpt>
      <trkpt lat="45.98796" lon="6.54759">
        <ele>1425.77</ele>
        <time>2019-02-16T07:08:28Z</time>
      </trkpt>
      <trkpt lat="45.98798" lon="6.54758">
        <ele>1425.77</ele>
        <time>2019-02-16T07:08:29Z</time>
      </trkpt>
      <trkpt lat="45.98812" lon="6.54758">
        <ele>1428.66</ele>
        <time>2019-02-16T07:08:47Z</time>
      </trkpt>
      <trkpt lat="45.98821" lon="6.54764">
        <ele>1431.54</ele>
        <time>2019-02-16T07:09:00Z</time>
      </trkpt>
      <trkpt lat="45.98823" lon="6.54765">
        <ele>1432.5</ele>
        <time>2019-02-16T07:09:03Z</time>
      </trkpt>
      <trkpt lat="45.98824" lon="6.54766">
        <ele>1432.98</ele>
        <time>2019-02-16T07:09:05Z</time>
      </trkpt>
      <trkpt lat="45.98831" lon="6.5477">
        <ele>1435.87</ele>
        <time>2019-02-16T07:09:18Z</time>
      </trkpt>
      <trkpt lat="45.9884" lon="6.54771">
        <ele>1438.75</ele>
        <time>2019-02-16T07:09:31Z</time>
      </trkpt>
      <trkpt lat="45.98847" lon="6.54773">
        <ele>1441.63</ele>
        <time>2019-02-16T07:09:44Z</time>
      </trkpt>
      <trkpt lat="45.98852" lon="6.54774">
        <ele>1443.56</ele>
        <time>2019-02-16T07:09:51Z</time>
      </trkpt>
      <trkpt lat="45.98862" lon="6.54778">
        <ele>1446.44</ele>
        <time>2019-02-16T07:10:03Z</time>
      </trkpt>
      <trkpt lat="45.98868" lon="6.54783">
        <ele>1449.81</ele>
        <time>2019-02-16T07:10:14Z</time>
      </trkpt>
      <trkpt lat="45.98869" lon="6.54783">
        <ele>1449.81</ele>
        <time>2019-02-16T07:10:15Z</time>
      </trkpt>
      <trkpt lat="45.98874" lon="6.54783">
        <ele>1453.17</ele>
        <time>2019-02-16T07:10:26Z</time>
      </trkpt>
      <trkpt lat="45.98882" lon="6.54787">
        <ele>1456.05</ele>
        <time>2019-02-16T07:10:41Z</time>
      </trkpt>
      <trkpt lat="45.98888" lon="6.54789">
        <ele>1459.42</ele>
        <time>2019-02-16T07:10:55Z</time>
      </trkpt>
      <trkpt lat="45.98896" lon="6.54793">
        <ele>1462.78</ele>
        <time>2019-02-16T07:11:06Z</time>
      </trkpt>
      <trkpt lat="45.98908" lon="6.54798">
        <ele>1465.67</ele>
        <time>2019-02-16T07:11:24Z</time>
      </trkpt>
      <trkpt lat="45.98926" lon="6.54809">
        <ele>1468.55</ele>
        <time>2019-02-16T07:11:46Z</time>
      </trkpt>
      <trkpt lat="45.98936" lon="6.54812">
        <ele>1471.44</ele>
        <time>2019-02-16T07:11:58Z</time>
      </trkpt>
      <trkpt lat="45.98944" lon="6.54814">
        <ele>1474.32</ele>
        <time>2019-02-16T07:12:09Z</time>
      </trkpt>
      <trkpt lat="45.98948" lon="6.54815">
        <ele>1475.76</ele>
        <time>2019-02-16T07:12:14Z</time>
      </trkpt>
      <trkpt lat="45.98953" lon="6.54817">
        <ele>1477.2</ele>
        <time>2019-02-16T07:12:21Z</time>
      </trkpt>
      <trkpt lat="45.98956" lon="6.54816">
        <ele>1477.68</ele>
        <time>2019-02-16T07:12:24Z</time>
      </trkpt>
      <trkpt lat="45.98956" lon="6.54816">
        <ele>1477.68</ele>
        <time>2019-02-16T07:12:25Z</time>
      </trkpt>
      <trkpt lat="45.98957" lon="6.54816">
        <ele>1478.16</ele>
        <time>2019-02-16T07:12:26Z</time>
      </trkpt>
      <trkpt lat="45.98969" lon="6.54814">
        <ele>1481.05</ele>
        <time>2019-02-16T07:12:40Z</time>
      </trkpt>
      <trkpt lat="45.9899" lon="6.54817">
        <ele>1483.93</ele>
        <time>2019-02-16T07:13:04Z</time>
      </trkpt>
      <trkpt lat="45.98997" lon="6.54817">
        <ele>1485.85</ele>
        <time>2019-02-16T07:13:12Z</time>
      </trkpt>
      <trkpt lat="45.98998" lon="6.54817">
        <ele>1486.34</ele>
        <time>2019-02-16T07:13:13Z</time>
      </trkpt>
      <trkpt lat="45.99002" lon="6.54818">
        <ele>1487.3</ele>
        <time>2019-02-16T07:13:17Z</time>
      </trkpt>
      <trkpt lat="45.99003" lon="6.54819">
        <ele>1487.78</ele>
        <time>2019-02-16T07:13:19Z</time>
      </trkpt>
      <trkpt lat="45.99007" lon="6.54824">
        <ele>1490.18</ele>
        <time>2019-02-16T07:13:28Z</time>
      </trkpt>
      <trkpt lat="45.99016" lon="6.54831">
        <ele>1493.06</ele>
        <time>2019-02-16T07:13:42Z</time>
      </trkpt>
      <trkpt lat="45.99021" lon="6.54837">
        <ele>1496.43</ele>
        <time>2019-02-16T07:13:53Z</time>
      </trkpt>
      <trkpt lat="45.99015" lon="6.54847">
        <ele>1499.31</ele>
        <time>2019-02-16T07:14:11Z</time>
      </trkpt>
      <trkpt lat="45.99007" lon="6.54851">
        <ele>1502.2</ele>
        <time>2019-02-16T07:14:26Z</time>
      </trkpt>
      <trkpt lat="45.99003" lon="6.54865">
        <ele>1504.6</ele>
        <time>2019-02-16T07:14:38Z</time>
      </trkpt>
      <trkpt lat="45.98992" lon="6.54872">
        <ele>1507.97</ele>
        <time>2019-02-16T07:14:53Z</time>
      </trkpt>
      <trkpt lat="45.98991" lon="6.54872">
        <ele>1507.97</ele>
        <time>2019-02-16T07:14:54Z</time>
      </trkpt>
      <trkpt lat="45.9899" lon="6.54872">
        <ele>1507.97</ele>
        <time>2019-02-16T07:14:55Z</time>
      </trkpt>
      <trkpt lat="45.98978" lon="6.54877">
        <ele>1511.33</ele>
        <time>2019-02-16T07:15:11Z</time>
      </trkpt>
      <trkpt lat="45.98977" lon="6.54881">
        <ele>1514.69</ele>
        <time>2019-02-16T07:15:25Z</time>
      </trkpt>
      <trkpt lat="45.98982" lon="6.54884">
        <ele>1516.14</ele>
        <time>2019-02-16T07:15:32Z</time>
      </trkpt>
      <trkpt lat="45.99014" lon="6.54897">
        <ele>1519.02</ele>
        <time>2019-02-16T07:16:07Z</time>
      </trkpt>
      <trkpt lat="45.99027" lon="6.549">
        <ele>1522.39</ele>
        <time>2019-02-16T07:16:27Z</time>
      </trkpt>
      <trkpt lat="45.99036" lon="6.54906">
        <ele>1525.27</ele>
        <time>2019-02-16T07:16:40Z</time>
      </trkpt>
      <trkpt lat="45.99044" lon="6.54918">
        <ele>1528.15</ele>
        <time>2019-02-16T07:16:54Z</time>
      </trkpt>
      <trkpt lat="45.9905" lon="6.54926">
        <ele>1531.52</ele>
        <time>2019-02-16T07:17:08Z</time>
      </trkpt>
      <trkpt lat="45.99052" lon="6.54928">
        <ele>1532</ele>
        <time>2019-02-16T07:17:11Z</time>
      </trkpt>
      <trkpt lat="45.99053" lon="6.5493">
        <ele>1532.48</ele>
        <time>2019-02-16T07:17:13Z</time>
      </trkpt>
      <trkpt lat="45.99054" lon="6.54933">
        <ele>1532.96</ele>
        <time>2019-02-16T07:17:15Z</time>
      </trkpt>
      <trkpt lat="45.99055" lon="6.54934">
        <ele>1533.44</ele>
        <time>2019-02-16T07:17:16Z</time>
      </trkpt>
      <trkpt lat="45.99055" lon="6.54935">
        <ele>1533.44</ele>
        <time>2019-02-16T07:17:17Z</time>
      </trkpt>
      <trkpt lat="45.99056" lon="6.54936">
        <ele>1533.44</ele>
        <time>2019-02-16T07:17:18Z</time>
      </trkpt>
      <trkpt lat="45.99058" lon="6.54939">
        <ele>1534.4</ele>
        <time>2019-02-16T07:17:22Z</time>
      </trkpt>
      <trkpt lat="45.9906" lon="6.5494">
        <ele>1534.88</ele>
        <time>2019-02-16T07:17:24Z</time>
      </trkpt>
      <trkpt lat="45.99061" lon="6.54942">
        <ele>1535.36</ele>
        <time>2019-02-16T07:17:26Z</time>
      </trkpt>
      <trkpt lat="45.99062" lon="6.54943">
        <ele>1535.36</ele>
        <time>2019-02-16T07:17:27Z</time>
      </trkpt>
      <trkpt lat="45.9907" lon="6.54956">
        <ele>1537.77</ele>
        <time>2019-02-16T07:17:42Z</time>
      </trkpt>
      <trkpt lat="45.99073" lon="6.5496">
        <ele>1538.73</ele>
        <time>2019-02-16T07:17:47Z</time>
      </trkpt>
      <trkpt lat="45.99077" lon="6.54968">
        <ele>1541.13</ele>
        <time>2019-02-16T07:17:58Z</time>
      </trkpt>
      <trkpt lat="45.99078" lon="6.54971">
        <ele>1541.61</ele>
        <time>2019-02-16T07:18:00Z</time>
      </trkpt>
      <trkpt lat="45.99088" lon="6.54977">
        <ele>1544.5</ele>
        <time>2019-02-16T07:18:16Z</time>
      </trkpt>
      <trkpt lat="45.99093" lon="6.54979">
        <ele>1547.38</ele>
        <time>2019-02-16T07:18:28Z</time>
      </trkpt>
      <trkpt lat="45.99097" lon="6.54985">
        <ele>1550.74</ele>
        <time>2019-02-16T07:18:44Z</time>
      </trkpt>
      <trkpt lat="45.99104" lon="6.54989">
        <ele>1553.63</ele>
        <time>2019-02-16T07:19:07Z</time>
      </trkpt>
      <trkpt lat="45.99109" lon="6.5499">
        <ele>1556.03</ele>
        <time>2019-02-16T07:19:48Z</time>
      </trkpt>
      <trkpt lat="45.9911" lon="6.54991">
        <ele>1556.03</ele>
        <time>2019-02-16T07:19:49Z</time>
      </trkpt>
      <trkpt lat="45.99138" lon="6.54999">
        <ele>1556.03</ele>
        <time>2019-02-16T07:20:25Z</time>
      </trkpt>
      <trkpt lat="45.99139" lon="6.55">
        <ele>1556.03</ele>
        <time>2019-02-16T07:20:26Z</time>
      </trkpt>
      <trkpt lat="45.99156" lon="6.55011">
        <ele>1558.92</ele>
        <time>2019-02-16T07:20:48Z</time>
      </trkpt>
      <trkpt lat="45.99166" lon="6.55014">
        <ele>1561.8</ele>
        <time>2019-02-16T07:21:01Z</time>
      </trkpt>
      <trkpt lat="45.99169" lon="6.55015">
        <ele>1562.28</ele>
        <time>2019-02-16T07:21:04Z</time>
      </trkpt>
      <trkpt lat="45.99177" lon="6.55019">
        <ele>1564.2</ele>
        <time>2019-02-16T07:21:14Z</time>
      </trkpt>
      <trkpt lat="45.99183" lon="6.55019">
        <ele>1565.16</ele>
        <time>2019-02-16T07:21:20Z</time>
      </trkpt>
      <trkpt lat="45.99184" lon="6.55019">
        <ele>1565.64</ele>
        <time>2019-02-16T07:21:21Z</time>
      </trkpt>
      <trkpt lat="45.99188" lon="6.55025">
        <ele>1566.61</ele>
        <time>2019-02-16T07:21:28Z</time>
      </trkpt>
      <trkpt lat="45.9919" lon="6.55046">
        <ele>1569.49</ele>
        <time>2019-02-16T07:21:45Z</time>
      </trkpt>
      <trkpt lat="45.99191" lon="6.55054">
        <ele>1572.85</ele>
        <time>2019-02-16T07:21:57Z</time>
      </trkpt>
      <trkpt lat="45.99187" lon="6.55062">
        <ele>1573.82</ele>
        <time>2019-02-16T07:22:05Z</time>
      </trkpt>
      <trkpt lat="45.99186" lon="6.55063">
        <ele>1573.82</ele>
        <time>2019-02-16T07:22:06Z</time>
      </trkpt>
      <trkpt lat="45.99185" lon="6.55063">
        <ele>1573.82</ele>
        <time>2019-02-16T07:22:07Z</time>
      </trkpt>
      <trkpt lat="45.99175" lon="6.55065">
        <ele>1577.18</ele>
        <time>2019-02-16T07:22:21Z</time>
      </trkpt>
      <trkpt lat="45.99173" lon="6.55064">
        <ele>1577.18</ele>
        <time>2019-02-16T07:22:22Z</time>
      </trkpt>
      <trkpt lat="45.99172" lon="6.55064">
        <ele>1577.18</ele>
        <time>2019-02-16T07:22:23Z</time>
      </trkpt>
      <trkpt lat="45.99169" lon="6.5507">
        <ele>1580.54</ele>
        <time>2019-02-16T07:22:35Z</time>
      </trkpt>
      <trkpt lat="45.99167" lon="6.55083">
        <ele>1583.43</ele>
        <time>2019-02-16T07:22:52Z</time>
      </trkpt>
      <trkpt lat="45.99167" lon="6.55095">
        <ele>1586.79</ele>
        <time>2019-02-16T07:23:05Z</time>
      </trkpt>
      <trkpt lat="45.99172" lon="6.55099">
        <ele>1589.68</ele>
        <time>2019-02-16T07:23:14Z</time>
      </trkpt>
      <trkpt lat="45.99177" lon="6.551">
        <ele>1591.12</ele>
        <time>2019-02-16T07:23:19Z</time>
      </trkpt>
      <trkpt lat="45.99183" lon="6.55102">
        <ele>1592.08</ele>
        <time>2019-02-16T07:23:26Z</time>
      </trkpt>
      <trkpt lat="45.99184" lon="6.55103">
        <ele>1592.56</ele>
        <time>2019-02-16T07:23:28Z</time>
      </trkpt>
      <trkpt lat="45.99185" lon="6.5511">
        <ele>1592.56</ele>
        <time>2019-02-16T07:23:35Z</time>
      </trkpt>
      <trkpt lat="45.99184" lon="6.55112">
        <ele>1592.56</ele>
        <time>2019-02-16T07:23:36Z</time>
      </trkpt>
      <trkpt lat="45.99179" lon="6.55126">
        <ele>1595.45</ele>
        <time>2019-02-16T07:23:49Z</time>
      </trkpt>
      <trkpt lat="45.99178" lon="6.55133">
        <ele>1598.81</ele>
        <time>2019-02-16T07:23:56Z</time>
      </trkpt>
      <trkpt lat="45.99179" lon="6.55135">
        <ele>1599.77</ele>
        <time>2019-02-16T07:23:58Z</time>
      </trkpt>
      <trkpt lat="45.9918" lon="6.55137">
        <ele>1599.77</ele>
        <time>2019-02-16T07:24:00Z</time>
      </trkpt>
      <trkpt lat="45.99181" lon="6.55141">
        <ele>1600.73</ele>
        <time>2019-02-16T07:24:04Z</time>
      </trkpt>
      <trkpt lat="45.99191" lon="6.55159">
        <ele>1603.62</ele>
        <time>2019-02-16T07:24:28Z</time>
      </trkpt>
      <trkpt lat="45.99194" lon="6.55171">
        <ele>1606.5</ele>
        <time>2019-02-16T07:24:39Z</time>
      </trkpt>
      <trkpt lat="45.99196" lon="6.55175">
        <ele>1608.9</ele>
        <time>2019-02-16T07:24:45Z</time>
      </trkpt>
      <trkpt lat="45.99203" lon="6.55175">
        <ele>1610.83</ele>
        <time>2019-02-16T07:24:55Z</time>
      </trkpt>
      <trkpt lat="45.99209" lon="6.55174">
        <ele>1612.27</ele>
        <time>2019-02-16T07:25:02Z</time>
      </trkpt>
      <trkpt lat="45.99213" lon="6.55179">
        <ele>1614.67</ele>
        <time>2019-02-16T07:25:11Z</time>
      </trkpt>
      <trkpt lat="45.99212" lon="6.55183">
        <ele>1613.71</ele>
        <time>2019-02-16T07:25:14Z</time>
      </trkpt>
      <trkpt lat="45.99213" lon="6.55188">
        <ele>1614.19</ele>
        <time>2019-02-16T07:25:46Z</time>
      </trkpt>
      <trkpt lat="45.99213" lon="6.5519">
        <ele>1614.19</ele>
        <time>2019-02-16T07:25:48Z</time>
      </trkpt>
      <trkpt lat="45.99211" lon="6.55193">
        <ele>1614.67</ele>
        <time>2019-02-16T07:26:30Z</time>
      </trkpt>
      <trkpt lat="45.99211" lon="6.55195">
        <ele>1615.15</ele>
        <time>2019-02-16T07:26:43Z</time>
      </trkpt>
      <trkpt lat="45.99211" lon="6.55197">
        <ele>1614.67</ele>
        <time>2019-02-16T07:26:45Z</time>
      </trkpt>
      <trkpt lat="45.99211" lon="6.55199">
        <ele>1614.67</ele>
        <time>2019-02-16T07:26:46Z</time>
      </trkpt>
      <trkpt lat="45.99207" lon="6.55221">
        <ele>1617.56</ele>
        <time>2019-02-16T07:27:01Z</time>
      </trkpt>
      <trkpt lat="45.99207" lon="6.55223">
        <ele>1618.04</ele>
        <time>2019-02-16T07:27:02Z</time>
      </trkpt>
      <trkpt lat="45.99206" lon="6.55228">
        <ele>1618.04</ele>
        <time>2019-02-16T07:27:05Z</time>
      </trkpt>
      <trkpt lat="45.99202" lon="6.55253">
        <ele>1620.92</ele>
        <time>2019-02-16T07:27:25Z</time>
      </trkpt>
      <trkpt lat="45.99202" lon="6.55256">
        <ele>1621.88</ele>
        <time>2019-02-16T07:27:27Z</time>
      </trkpt>
      <trkpt lat="45.99198" lon="6.5527">
        <ele>1624.77</ele>
        <time>2019-02-16T07:27:40Z</time>
      </trkpt>
      <trkpt lat="45.99199" lon="6.55273">
        <ele>1626.69</ele>
        <time>2019-02-16T07:27:45Z</time>
      </trkpt>
      <trkpt lat="45.99207" lon="6.55277">
        <ele>1629.09</ele>
        <time>2019-02-16T07:27:56Z</time>
      </trkpt>
      <trkpt lat="45.99218" lon="6.55277">
        <ele>1632.46</ele>
        <time>2019-02-16T07:28:10Z</time>
      </trkpt>
      <trkpt lat="45.99226" lon="6.55282">
        <ele>1635.34</ele>
        <time>2019-02-16T07:28:22Z</time>
      </trkpt>
      <trkpt lat="45.99227" lon="6.55282">
        <ele>1634.38</ele>
        <time>2019-02-16T07:28:23Z</time>
      </trkpt>
      <trkpt lat="45.99231" lon="6.55285">
        <ele>1636.78</ele>
        <time>2019-02-16T07:28:28Z</time>
      </trkpt>
      <trkpt lat="45.99238" lon="6.55294">
        <ele>1639.19</ele>
        <time>2019-02-16T07:28:41Z</time>
      </trkpt>
      <trkpt lat="45.99245" lon="6.55308">
        <ele>1642.55</ele>
        <time>2019-02-16T07:28:57Z</time>
      </trkpt>
      <trkpt lat="45.99242" lon="6.55324">
        <ele>1644.47</ele>
        <time>2019-02-16T07:29:15Z</time>
      </trkpt>
      <trkpt lat="45.99232" lon="6.55334">
        <ele>1647.36</ele>
        <time>2019-02-16T07:29:30Z</time>
      </trkpt>
      <trkpt lat="45.99225" lon="6.55346">
        <ele>1651.2</ele>
        <time>2019-02-16T07:29:45Z</time>
      </trkpt>
      <trkpt lat="45.99225" lon="6.55347">
        <ele>1651.2</ele>
        <time>2019-02-16T07:29:46Z</time>
      </trkpt>
      <trkpt lat="45.99219" lon="6.55357">
        <ele>1654.09</ele>
        <time>2019-02-16T07:29:59Z</time>
      </trkpt>
      <trkpt lat="45.99218" lon="6.55361">
        <ele>1657.45</ele>
        <time>2019-02-16T07:30:05Z</time>
      </trkpt>
      <trkpt lat="45.9922" lon="6.55363">
        <ele>1658.41</ele>
        <time>2019-02-16T07:30:07Z</time>
      </trkpt>
      <trkpt lat="45.99221" lon="6.55364">
        <ele>1658.89</ele>
        <time>2019-02-16T07:30:09Z</time>
      </trkpt>
      <trkpt lat="45.99227" lon="6.55372">
        <ele>1660.33</ele>
        <time>2019-02-16T07:30:17Z</time>
      </trkpt>
      <trkpt lat="45.99225" lon="6.55378">
        <ele>1658.89</ele>
        <time>2019-02-16T07:30:23Z</time>
      </trkpt>
      <trkpt lat="45.99216" lon="6.55388">
        <ele>1661.78</ele>
        <time>2019-02-16T07:30:36Z</time>
      </trkpt>
      <trkpt lat="45.99207" lon="6.55396">
        <ele>1664.66</ele>
        <time>2019-02-16T07:30:48Z</time>
      </trkpt>
      <trkpt lat="45.99205" lon="6.554">
        <ele>1666.1</ele>
        <time>2019-02-16T07:30:52Z</time>
      </trkpt>
      <trkpt lat="45.99204" lon="6.55402">
        <ele>1666.58</ele>
        <time>2019-02-16T07:30:53Z</time>
      </trkpt>
      <trkpt lat="45.99204" lon="6.55403">
        <ele>1666.58</ele>
        <time>2019-02-16T07:30:54Z</time>
      </trkpt>
      <trkpt lat="45.99203" lon="6.55405">
        <ele>1667.06</ele>
        <time>2019-02-16T07:30:55Z</time>
      </trkpt>
      <trkpt lat="45.99201" lon="6.55412">
        <ele>1667.54</ele>
        <time>2019-02-16T07:31:00Z</time>
      </trkpt>
      <trkpt lat="45.992" lon="6.55413">
        <ele>1667.54</ele>
        <time>2019-02-16T07:31:01Z</time>
      </trkpt>
      <trkpt lat="45.99193" lon="6.55431">
        <ele>1670.43</ele>
        <time>2019-02-16T07:31:18Z</time>
      </trkpt>
      <trkpt lat="45.9919" lon="6.55436">
        <ele>1671.39</ele>
        <time>2019-02-16T07:31:23Z</time>
      </trkpt>
      <trkpt lat="45.9919" lon="6.55437">
        <ele>1671.39</ele>
        <time>2019-02-16T07:31:24Z</time>
      </trkpt>
      <trkpt lat="45.99189" lon="6.55437">
        <ele>1671.39</ele>
        <time>2019-02-16T07:31:25Z</time>
      </trkpt>
      <trkpt lat="45.99189" lon="6.55438">
        <ele>1671.87</ele>
        <time>2019-02-16T07:31:26Z</time>
      </trkpt>
      <trkpt lat="45.99189" lon="6.55439">
        <ele>1671.87</ele>
        <time>2019-02-16T07:31:27Z</time>
      </trkpt>
      <trkpt lat="45.99188" lon="6.5544">
        <ele>1672.35</ele>
        <time>2019-02-16T07:31:28Z</time>
      </trkpt>
      <trkpt lat="45.9918" lon="6.5545">
        <ele>1675.23</ele>
        <time>2019-02-16T07:31:43Z</time>
      </trkpt>
      <trkpt lat="45.99174" lon="6.5546">
        <ele>1678.6</ele>
        <time>2019-02-16T07:31:55Z</time>
      </trkpt>
      <trkpt lat="45.9918" lon="6.55468">
        <ele>1681.96</ele>
        <time>2019-02-16T07:32:08Z</time>
      </trkpt>
      <trkpt lat="45.99182" lon="6.55471">
        <ele>1682.44</ele>
        <time>2019-02-16T07:32:11Z</time>
      </trkpt>
      <trkpt lat="45.9919" lon="6.55478">
        <ele>1685.33</ele>
        <time>2019-02-16T07:32:27Z</time>
      </trkpt>
      <trkpt lat="45.99188" lon="6.55481">
        <ele>1684.85</ele>
        <time>2019-02-16T07:32:30Z</time>
      </trkpt>
      <trkpt lat="45.9918" lon="6.55496">
        <ele>1688.21</ele>
        <time>2019-02-16T07:32:45Z</time>
      </trkpt>
      <trkpt lat="45.99172" lon="6.55512">
        <ele>1691.1</ele>
        <time>2019-02-16T07:33:00Z</time>
      </trkpt>
      <trkpt lat="45.9917" lon="6.55516">
        <ele>1691.58</ele>
        <time>2019-02-16T07:33:04Z</time>
      </trkpt>
      <trkpt lat="45.99169" lon="6.55517">
        <ele>1691.58</ele>
        <time>2019-02-16T07:33:05Z</time>
      </trkpt>
      <trkpt lat="45.99169" lon="6.5552">
        <ele>1693.02</ele>
        <time>2019-02-16T07:33:09Z</time>
      </trkpt>
      <trkpt lat="45.9917" lon="6.55524">
        <ele>1694.46</ele>
        <time>2019-02-16T07:33:13Z</time>
      </trkpt>
      <trkpt lat="45.99169" lon="6.55527">
        <ele>1694.46</ele>
        <time>2019-02-16T07:33:18Z</time>
      </trkpt>
      <trkpt lat="45.99167" lon="6.55529">
        <ele>1694.46</ele>
        <time>2019-02-16T07:33:20Z</time>
      </trkpt>
      <trkpt lat="45.99152" lon="6.55533">
        <ele>1697.83</ele>
        <time>2019-02-16T07:33:39Z</time>
      </trkpt>
      <trkpt lat="45.99147" lon="6.55536">
        <ele>1701.19</ele>
        <time>2019-02-16T07:33:48Z</time>
      </trkpt>
      <trkpt lat="45.99146" lon="6.55538">
        <ele>1701.19</ele>
        <time>2019-02-16T07:33:50Z</time>
      </trkpt>
      <trkpt lat="45.99145" lon="6.55544">
        <ele>1703.11</ele>
        <time>2019-02-16T07:33:55Z</time>
      </trkpt>
      <trkpt lat="45.99145" lon="6.55546">
        <ele>1703.59</ele>
        <time>2019-02-16T07:33:58Z</time>
      </trkpt>
      <trkpt lat="45.9914" lon="6.55566">
        <ele>1706</ele>
        <time>2019-02-16T07:34:17Z</time>
      </trkpt>
      <trkpt lat="45.99139" lon="6.55569">
        <ele>1707.44</ele>
        <time>2019-02-16T07:34:20Z</time>
      </trkpt>
      <trkpt lat="45.99138" lon="6.55573">
        <ele>1707.44</ele>
        <time>2019-02-16T07:34:24Z</time>
      </trkpt>
      <trkpt lat="45.99147" lon="6.55582">
        <ele>1710.8</ele>
        <time>2019-02-16T07:34:43Z</time>
      </trkpt>
      <trkpt lat="45.99159" lon="6.55586">
        <ele>1713.69</ele>
        <time>2019-02-16T07:34:58Z</time>
      </trkpt>
      <trkpt lat="45.99165" lon="6.55592">
        <ele>1716.57</ele>
        <time>2019-02-16T07:35:09Z</time>
      </trkpt>
      <trkpt lat="45.99166" lon="6.55592">
        <ele>1716.57</ele>
        <time>2019-02-16T07:35:10Z</time>
      </trkpt>
      <trkpt lat="45.99174" lon="6.55605">
        <ele>1719.94</ele>
        <time>2019-02-16T07:35:26Z</time>
      </trkpt>
      <trkpt lat="45.99185" lon="6.55615">
        <ele>1722.82</ele>
        <time>2019-02-16T07:35:42Z</time>
      </trkpt>
      <trkpt lat="45.9919" lon="6.55632">
        <ele>1726.18</ele>
        <time>2019-02-16T07:36:00Z</time>
      </trkpt>
      <trkpt lat="45.99193" lon="6.55639">
        <ele>1727.15</ele>
        <time>2019-02-16T07:36:05Z</time>
      </trkpt>
      <trkpt lat="45.99193" lon="6.5564">
        <ele>1727.63</ele>
        <time>2019-02-16T07:36:06Z</time>
      </trkpt>
      <trkpt lat="45.99194" lon="6.55644">
        <ele>1727.63</ele>
        <time>2019-02-16T07:36:10Z</time>
      </trkpt>
      <trkpt lat="45.99195" lon="6.55646">
        <ele>1728.11</ele>
        <time>2019-02-16T07:36:12Z</time>
      </trkpt>
      <trkpt lat="45.992" lon="6.5566">
        <ele>1730.51</ele>
        <time>2019-02-16T07:36:26Z</time>
      </trkpt>
      <trkpt lat="45.99198" lon="6.55669">
        <ele>1731.95</ele>
        <time>2019-02-16T07:36:32Z</time>
      </trkpt>
      <trkpt lat="45.99198" lon="6.5567">
        <ele>1731.95</ele>
        <time>2019-02-16T07:36:33Z</time>
      </trkpt>
      <trkpt lat="45.99194" lon="6.55678">
        <ele>1733.39</ele>
        <time>2019-02-16T07:36:40Z</time>
      </trkpt>
      <trkpt lat="45.99194" lon="6.5568">
        <ele>1733.39</ele>
        <time>2019-02-16T07:36:41Z</time>
      </trkpt>
      <trkpt lat="45.99193" lon="6.55682">
        <ele>1733.39</ele>
        <time>2019-02-16T07:36:43Z</time>
      </trkpt>
      <trkpt lat="45.99192" lon="6.55683">
        <ele>1733.88</ele>
        <time>2019-02-16T07:36:44Z</time>
      </trkpt>
      <trkpt lat="45.99183" lon="6.55708">
        <ele>1736.28</ele>
        <time>2019-02-16T07:37:05Z</time>
      </trkpt>
      <trkpt lat="45.99183" lon="6.55709">
        <ele>1736.28</ele>
        <time>2019-02-16T07:37:06Z</time>
      </trkpt>
      <trkpt lat="45.99178" lon="6.5572">
        <ele>1739.16</ele>
        <time>2019-02-16T07:37:19Z</time>
      </trkpt>
      <trkpt lat="45.99177" lon="6.55721">
        <ele>1739.64</ele>
        <time>2019-02-16T07:37:20Z</time>
      </trkpt>
      <trkpt lat="45.99177" lon="6.55723">
        <ele>1739.64</ele>
        <time>2019-02-16T07:37:21Z</time>
      </trkpt>
      <trkpt lat="45.99174" lon="6.55737">
        <ele>1742.05</ele>
        <time>2019-02-16T07:37:35Z</time>
      </trkpt>
      <trkpt lat="45.99173" lon="6.55738">
        <ele>1742.53</ele>
        <time>2019-02-16T07:37:36Z</time>
      </trkpt>
      <trkpt lat="45.99172" lon="6.55741">
        <ele>1743.01</ele>
        <time>2019-02-16T07:37:40Z</time>
      </trkpt>
      <trkpt lat="45.99171" lon="6.55743">
        <ele>1743.49</ele>
        <time>2019-02-16T07:37:42Z</time>
      </trkpt>
      <trkpt lat="45.9917" lon="6.55744">
        <ele>1743.97</ele>
        <time>2019-02-16T07:37:43Z</time>
      </trkpt>
      <trkpt lat="45.99169" lon="6.55748">
        <ele>1744.93</ele>
        <time>2019-02-16T07:37:47Z</time>
      </trkpt>
      <trkpt lat="45.99169" lon="6.55749">
        <ele>1745.41</ele>
        <time>2019-02-16T07:37:48Z</time>
      </trkpt>
      <trkpt lat="45.99167" lon="6.55757">
        <ele>1746.37</ele>
        <time>2019-02-16T07:37:54Z</time>
      </trkpt>
      <trkpt lat="45.99167" lon="6.5576">
        <ele>1746.37</ele>
        <time>2019-02-16T07:37:57Z</time>
      </trkpt>
      <trkpt lat="45.99169" lon="6.55767">
        <ele>1747.81</ele>
        <time>2019-02-16T07:38:04Z</time>
      </trkpt>
      <trkpt lat="45.9917" lon="6.55768">
        <ele>1747.81</ele>
        <time>2019-02-16T07:38:05Z</time>
      </trkpt>
      <trkpt lat="45.99182" lon="6.55778">
        <ele>1751.18</ele>
        <time>2019-02-16T07:38:21Z</time>
      </trkpt>
      <trkpt lat="45.99188" lon="6.55779">
        <ele>1752.14</ele>
        <time>2019-02-16T07:38:29Z</time>
      </trkpt>
      <trkpt lat="45.99189" lon="6.55779">
        <ele>1752.62</ele>
        <time>2019-02-16T07:38:30Z</time>
      </trkpt>
      <trkpt lat="45.99201" lon="6.55787">
        <ele>1755.5</ele>
        <time>2019-02-16T07:38:46Z</time>
      </trkpt>
      <trkpt lat="45.99211" lon="6.55792">
        <ele>1758.87</ele>
        <time>2019-02-16T07:38:59Z</time>
      </trkpt>
      <trkpt lat="45.99217" lon="6.55799">
        <ele>1761.27</ele>
        <time>2019-02-16T07:39:09Z</time>
      </trkpt>
      <trkpt lat="45.99218" lon="6.55801">
        <ele>1761.27</ele>
        <time>2019-02-16T07:39:11Z</time>
      </trkpt>
      <trkpt lat="45.99218" lon="6.55802">
        <ele>1761.75</ele>
        <time>2019-02-16T07:39:12Z</time>
      </trkpt>
      <trkpt lat="45.99219" lon="6.55806">
        <ele>1762.23</ele>
        <time>2019-02-16T07:39:16Z</time>
      </trkpt>
      <trkpt lat="45.9922" lon="6.55809">
        <ele>1763.2</ele>
        <time>2019-02-16T07:39:19Z</time>
      </trkpt>
      <trkpt lat="45.99223" lon="6.55815">
        <ele>1765.12</ele>
        <time>2019-02-16T07:39:26Z</time>
      </trkpt>
      <trkpt lat="45.99227" lon="6.5582">
        <ele>1765.6</ele>
        <time>2019-02-16T07:39:31Z</time>
      </trkpt>
      <trkpt lat="45.99228" lon="6.55821">
        <ele>1766.08</ele>
        <time>2019-02-16T07:39:33Z</time>
      </trkpt>
      <trkpt lat="45.9923" lon="6.55825">
        <ele>1767.52</ele>
        <time>2019-02-16T07:39:38Z</time>
      </trkpt>
      <trkpt lat="45.99231" lon="6.55827">
        <ele>1768</ele>
        <time>2019-02-16T07:39:40Z</time>
      </trkpt>
      <trkpt lat="45.99234" lon="6.55832">
        <ele>1768.96</ele>
        <time>2019-02-16T07:39:45Z</time>
      </trkpt>
      <trkpt lat="45.99235" lon="6.55833">
        <ele>1768.96</ele>
        <time>2019-02-16T07:39:47Z</time>
      </trkpt>
      <trkpt lat="45.99236" lon="6.55847">
        <ele>1771.37</ele>
        <time>2019-02-16T07:39:59Z</time>
      </trkpt>
      <trkpt lat="45.99228" lon="6.55863">
        <ele>1774.73</ele>
        <time>2019-02-16T07:40:14Z</time>
      </trkpt>
      <trkpt lat="45.9923" lon="6.5588">
        <ele>1776.65</ele>
        <time>2019-02-16T07:40:29Z</time>
      </trkpt>
      <trkpt lat="45.99227" lon="6.55889">
        <ele>1777.13</ele>
        <time>2019-02-16T07:40:36Z</time>
      </trkpt>
      <trkpt lat="45.99226" lon="6.5589">
        <ele>1777.61</ele>
        <time>2019-02-16T07:40:37Z</time>
      </trkpt>
      <trkpt lat="45.99223" lon="6.55894">
        <ele>1777.61</ele>
        <time>2019-02-16T07:40:41Z</time>
      </trkpt>
      <trkpt lat="45.99222" lon="6.55895">
        <ele>1777.61</ele>
        <time>2019-02-16T07:40:42Z</time>
      </trkpt>
      <trkpt lat="45.99217" lon="6.55905">
        <ele>1780.5</ele>
        <time>2019-02-16T07:40:54Z</time>
      </trkpt>
      <trkpt lat="45.99217" lon="6.55905">
        <ele>1780.98</ele>
        <time>2019-02-16T07:40:55Z</time>
      </trkpt>
      <trkpt lat="45.99218" lon="6.55912">
        <ele>1782.42</ele>
        <time>2019-02-16T07:41:01Z</time>
      </trkpt>
      <trkpt lat="45.9922" lon="6.55916">
        <ele>1783.38</ele>
        <time>2019-02-16T07:41:06Z</time>
      </trkpt>
      <trkpt lat="45.99227" lon="6.5592">
        <ele>1785.31</ele>
        <time>2019-02-16T07:41:16Z</time>
      </trkpt>
      <trkpt lat="45.99228" lon="6.5592">
        <ele>1785.79</ele>
        <time>2019-02-16T07:41:18Z</time>
      </trkpt>
      <trkpt lat="45.9923" lon="6.5592">
        <ele>1786.75</ele>
        <time>2019-02-16T07:41:20Z</time>
      </trkpt>
      <trkpt lat="45.99231" lon="6.55921">
        <ele>1786.75</ele>
        <time>2019-02-16T07:41:21Z</time>
      </trkpt>
      <trkpt lat="45.99241" lon="6.5593">
        <ele>1790.11</ele>
        <time>2019-02-16T07:41:37Z</time>
      </trkpt>
      <trkpt lat="45.99247" lon="6.55937">
        <ele>1792.03</ele>
        <time>2019-02-16T07:41:48Z</time>
      </trkpt>
      <trkpt lat="45.99251" lon="6.55945">
        <ele>1794.44</ele>
        <time>2019-02-16T07:41:59Z</time>
      </trkpt>
      <trkpt lat="45.99249" lon="6.55949">
        <ele>1793.96</ele>
        <time>2019-02-16T07:42:03Z</time>
      </trkpt>
      <trkpt lat="45.99245" lon="6.5596">
        <ele>1795.88</ele>
        <time>2019-02-16T07:42:14Z</time>
      </trkpt>
      <trkpt lat="45.99245" lon="6.55964">
        <ele>1797.32</ele>
        <time>2019-02-16T07:42:18Z</time>
      </trkpt>
      <trkpt lat="45.99242" lon="6.5598">
        <ele>1799.24</ele>
        <time>2019-02-16T07:42:32Z</time>
      </trkpt>
      <trkpt lat="45.99241" lon="6.55981">
        <ele>1799.73</ele>
        <time>2019-02-16T07:42:33Z</time>
      </trkpt>
      <trkpt lat="45.99237" lon="6.55986">
        <ele>1800.21</ele>
        <time>2019-02-16T07:42:38Z</time>
      </trkpt>
      <trkpt lat="45.99236" lon="6.55988">
        <ele>1800.69</ele>
        <time>2019-02-16T07:42:40Z</time>
      </trkpt>
      <trkpt lat="45.99235" lon="6.55989">
        <ele>1801.17</ele>
        <time>2019-02-16T07:42:41Z</time>
      </trkpt>
      <trkpt lat="45.99232" lon="6.55992">
        <ele>1802.13</ele>
        <time>2019-02-16T07:42:45Z</time>
      </trkpt>
      <trkpt lat="45.99231" lon="6.55992">
        <ele>1802.13</ele>
        <time>2019-02-16T07:42:46Z</time>
      </trkpt>
      <trkpt lat="45.99228" lon="6.55995">
        <ele>1802.61</ele>
        <time>2019-02-16T07:42:50Z</time>
      </trkpt>
      <trkpt lat="45.99227" lon="6.55997">
        <ele>1803.57</ele>
        <time>2019-02-16T07:42:52Z</time>
      </trkpt>
      <trkpt lat="45.99226" lon="6.55997">
        <ele>1804.05</ele>
        <time>2019-02-16T07:42:53Z</time>
      </trkpt>
      <trkpt lat="45.99216" lon="6.56013">
        <ele>1807.42</ele>
        <time>2019-02-16T07:43:08Z</time>
      </trkpt>
      <trkpt lat="45.99215" lon="6.56023">
        <ele>1810.3</ele>
        <time>2019-02-16T07:43:20Z</time>
      </trkpt>
      <trkpt lat="45.99216" lon="6.56025">
        <ele>1810.78</ele>
        <time>2019-02-16T07:43:22Z</time>
      </trkpt>
      <trkpt lat="45.99218" lon="6.56027">
        <ele>1811.74</ele>
        <time>2019-02-16T07:43:25Z</time>
      </trkpt>
      <trkpt lat="45.99219" lon="6.56029">
        <ele>1812.22</ele>
        <time>2019-02-16T07:43:27Z</time>
      </trkpt>
      <trkpt lat="45.9922" lon="6.56029">
        <ele>1812.22</ele>
        <time>2019-02-16T07:43:28Z</time>
      </trkpt>
      <trkpt lat="45.9922" lon="6.5603">
        <ele>1812.22</ele>
        <time>2019-02-16T07:43:29Z</time>
      </trkpt>
      <trkpt lat="45.99225" lon="6.56036">
        <ele>1813.18</ele>
        <time>2019-02-16T07:43:35Z</time>
      </trkpt>
      <trkpt lat="45.99226" lon="6.56037">
        <ele>1813.66</ele>
        <time>2019-02-16T07:43:37Z</time>
      </trkpt>
      <trkpt lat="45.99227" lon="6.56038">
        <ele>1814.15</ele>
        <time>2019-02-16T07:43:38Z</time>
      </trkpt>
      <trkpt lat="45.99228" lon="6.56038">
        <ele>1814.15</ele>
        <time>2019-02-16T07:43:39Z</time>
      </trkpt>
      <trkpt lat="45.99229" lon="6.56039">
        <ele>1814.15</ele>
        <time>2019-02-16T07:43:40Z</time>
      </trkpt>
      <trkpt lat="45.99229" lon="6.5604">
        <ele>1814.63</ele>
        <time>2019-02-16T07:43:41Z</time>
      </trkpt>
      <trkpt lat="45.9923" lon="6.56041">
        <ele>1814.63</ele>
        <time>2019-02-16T07:43:42Z</time>
      </trkpt>
      <trkpt lat="45.99242" lon="6.56054">
        <ele>1817.51</ele>
        <time>2019-02-16T07:43:59Z</time>
      </trkpt>
      <trkpt lat="45.99246" lon="6.56055">
        <ele>1818.47</ele>
        <time>2019-02-16T07:44:04Z</time>
      </trkpt>
      <trkpt lat="45.99247" lon="6.56055">
        <ele>1818.47</ele>
        <time>2019-02-16T07:44:05Z</time>
      </trkpt>
      <trkpt lat="45.99258" lon="6.56062">
        <ele>1821.84</ele>
        <time>2019-02-16T07:44:20Z</time>
      </trkpt>
      <trkpt lat="45.99262" lon="6.56066">
        <ele>1823.28</ele>
        <time>2019-02-16T07:44:26Z</time>
      </trkpt>
      <trkpt lat="45.99262" lon="6.56067">
        <ele>1823.28</ele>
        <time>2019-02-16T07:44:27Z</time>
      </trkpt>
      <trkpt lat="45.99263" lon="6.56067">
        <ele>1823.76</ele>
        <time>2019-02-16T07:44:28Z</time>
      </trkpt>
      <trkpt lat="45.99264" lon="6.56067">
        <ele>1823.76</ele>
        <time>2019-02-16T07:44:29Z</time>
      </trkpt>
      <trkpt lat="45.99269" lon="6.5607">
        <ele>1825.2</ele>
        <time>2019-02-16T07:44:36Z</time>
      </trkpt>
      <trkpt lat="45.99268" lon="6.56081">
        <ele>1826.16</ele>
        <time>2019-02-16T07:44:45Z</time>
      </trkpt>
      <trkpt lat="45.99267" lon="6.56082">
        <ele>1826.64</ele>
        <time>2019-02-16T07:44:46Z</time>
      </trkpt>
      <trkpt lat="45.99266" lon="6.56084">
        <ele>1826.64</ele>
        <time>2019-02-16T07:44:48Z</time>
      </trkpt>
      <trkpt lat="45.99266" lon="6.56086">
        <ele>1827.12</ele>
        <time>2019-02-16T07:44:50Z</time>
      </trkpt>
      <trkpt lat="45.99265" lon="6.56088">
        <ele>1827.6</ele>
        <time>2019-02-16T07:44:51Z</time>
      </trkpt>
      <trkpt lat="45.99265" lon="6.56091">
        <ele>1828.08</ele>
        <time>2019-02-16T07:44:53Z</time>
      </trkpt>
      <trkpt lat="45.99264" lon="6.56092">
        <ele>1828.56</ele>
        <time>2019-02-16T07:44:54Z</time>
      </trkpt>
      <trkpt lat="45.99262" lon="6.56099">
        <ele>1829.53</ele>
        <time>2019-02-16T07:44:59Z</time>
      </trkpt>
      <trkpt lat="45.99261" lon="6.56101">
        <ele>1830.01</ele>
        <time>2019-02-16T07:45:01Z</time>
      </trkpt>
      <trkpt lat="45.9926" lon="6.56105">
        <ele>1830.49</ele>
        <time>2019-02-16T07:45:04Z</time>
      </trkpt>
      <trkpt lat="45.99259" lon="6.56106">
        <ele>1830.97</ele>
        <time>2019-02-16T07:45:05Z</time>
      </trkpt>
      <trkpt lat="45.9925" lon="6.56119">
        <ele>1833.85</ele>
        <time>2019-02-16T07:45:23Z</time>
      </trkpt>
      <trkpt lat="45.9925" lon="6.5612">
        <ele>1836.26</ele>
        <time>2019-02-16T07:45:27Z</time>
      </trkpt>
      <trkpt lat="45.99254" lon="6.56122">
        <ele>1838.18</ele>
        <time>2019-02-16T07:45:33Z</time>
      </trkpt>
      <trkpt lat="45.99258" lon="6.56124">
        <ele>1839.14</ele>
        <time>2019-02-16T07:45:38Z</time>
      </trkpt>
      <trkpt lat="45.99268" lon="6.5613">
        <ele>1842.02</ele>
        <time>2019-02-16T07:45:54Z</time>
      </trkpt>
      <trkpt lat="45.99266" lon="6.56139">
        <ele>1842.98</ele>
        <time>2019-02-16T07:46:06Z</time>
      </trkpt>
      <trkpt lat="45.99258" lon="6.56149">
        <ele>1846.35</ele>
        <time>2019-02-16T07:46:21Z</time>
      </trkpt>
      <trkpt lat="45.99256" lon="6.5615">
        <ele>1846.83</ele>
        <time>2019-02-16T07:46:23Z</time>
      </trkpt>
      <trkpt lat="45.99255" lon="6.56152">
        <ele>1849.23</ele>
        <time>2019-02-16T07:46:29Z</time>
      </trkpt>
      <trkpt lat="45.99257" lon="6.56154">
        <ele>1850.19</ele>
        <time>2019-02-16T07:46:32Z</time>
      </trkpt>
      <trkpt lat="45.99258" lon="6.56156">
        <ele>1850.68</ele>
        <time>2019-02-16T07:46:34Z</time>
      </trkpt>
      <trkpt lat="45.99257" lon="6.56161">
        <ele>1852.6</ele>
        <time>2019-02-16T07:46:48Z</time>
      </trkpt>
      <trkpt lat="45.99249" lon="6.56165">
        <ele>1855.48</ele>
        <time>2019-02-16T07:47:01Z</time>
      </trkpt>
      <trkpt lat="45.99244" lon="6.56171">
        <ele>1857.4</ele>
        <time>2019-02-16T07:47:11Z</time>
      </trkpt>
      <trkpt lat="45.99236" lon="6.56179">
        <ele>1860.77</ele>
        <time>2019-02-16T07:47:24Z</time>
      </trkpt>
      <trkpt lat="45.9923" lon="6.56188">
        <ele>1863.65</ele>
        <time>2019-02-16T07:47:37Z</time>
      </trkpt>
      <trkpt lat="45.9922" lon="6.56202">
        <ele>1867.02</ele>
        <time>2019-02-16T07:47:55Z</time>
      </trkpt>
      <trkpt lat="45.99216" lon="6.56208">
        <ele>1868.94</ele>
        <time>2019-02-16T07:48:04Z</time>
      </trkpt>
      <trkpt lat="45.99209" lon="6.5622">
        <ele>1871.82</ele>
        <time>2019-02-16T07:48:17Z</time>
      </trkpt>
      <trkpt lat="45.99203" lon="6.56231">
        <ele>1874.23</ele>
        <time>2019-02-16T07:48:28Z</time>
      </trkpt>
      <trkpt lat="45.99202" lon="6.56232">
        <ele>1874.23</ele>
        <time>2019-02-16T07:48:29Z</time>
      </trkpt>
      <trkpt lat="45.99193" lon="6.56242">
        <ele>1877.11</ele>
        <time>2019-02-16T07:48:43Z</time>
      </trkpt>
      <trkpt lat="45.99191" lon="6.56244">
        <ele>1877.59</ele>
        <time>2019-02-16T07:48:45Z</time>
      </trkpt>
      <trkpt lat="45.99189" lon="6.56246">
        <ele>1878.55</ele>
        <time>2019-02-16T07:48:48Z</time>
      </trkpt>
      <trkpt lat="45.99188" lon="6.56248">
        <ele>1879.03</ele>
        <time>2019-02-16T07:48:50Z</time>
      </trkpt>
      <trkpt lat="45.99187" lon="6.56249">
        <ele>1879.51</ele>
        <time>2019-02-16T07:48:52Z</time>
      </trkpt>
      <trkpt lat="45.9918" lon="6.56261">
        <ele>1882.4</ele>
        <time>2019-02-16T07:49:07Z</time>
      </trkpt>
      <trkpt lat="45.9918" lon="6.56267">
        <ele>1884.8</ele>
        <time>2019-02-16T07:49:14Z</time>
      </trkpt>
      <trkpt lat="45.99187" lon="6.56276">
        <ele>1888.17</ele>
        <time>2019-02-16T07:49:27Z</time>
      </trkpt>
      <trkpt lat="45.99197" lon="6.56288">
        <ele>1891.53</ele>
        <time>2019-02-16T07:49:41Z</time>
      </trkpt>
      <trkpt lat="45.99197" lon="6.5629">
        <ele>1892.01</ele>
        <time>2019-02-16T07:49:43Z</time>
      </trkpt>
      <trkpt lat="45.99206" lon="6.56297">
        <ele>1894.42</ele>
        <time>2019-02-16T07:49:55Z</time>
      </trkpt>
      <trkpt lat="45.99214" lon="6.56307">
        <ele>1897.3</ele>
        <time>2019-02-16T07:50:10Z</time>
      </trkpt>
      <trkpt lat="45.99212" lon="6.56318">
        <ele>1900.66</ele>
        <time>2019-02-16T07:50:29Z</time>
      </trkpt>
      <trkpt lat="45.99208" lon="6.56323">
        <ele>1901.63</ele>
        <time>2019-02-16T07:50:35Z</time>
      </trkpt>
      <trkpt lat="45.99208" lon="6.56324">
        <ele>1901.63</ele>
        <time>2019-02-16T07:50:36Z</time>
      </trkpt>
      <trkpt lat="45.99207" lon="6.56325">
        <ele>1901.63</ele>
        <time>2019-02-16T07:50:37Z</time>
      </trkpt>
      <trkpt lat="45.992" lon="6.56334">
        <ele>1904.51</ele>
        <time>2019-02-16T07:50:50Z</time>
      </trkpt>
      <trkpt lat="45.99199" lon="6.56335">
        <ele>1904.99</ele>
        <time>2019-02-16T07:50:51Z</time>
      </trkpt>
      <trkpt lat="45.9919" lon="6.56345">
        <ele>1907.87</ele>
        <time>2019-02-16T07:51:06Z</time>
      </trkpt>
      <trkpt lat="45.99187" lon="6.56347">
        <ele>1908.83</ele>
        <time>2019-02-16T07:51:10Z</time>
      </trkpt>
      <trkpt lat="45.99183" lon="6.56349">
        <ele>1909.8</ele>
        <time>2019-02-16T07:51:15Z</time>
      </trkpt>
      <trkpt lat="45.99181" lon="6.5635">
        <ele>1910.28</ele>
        <time>2019-02-16T07:51:19Z</time>
      </trkpt>
      <trkpt lat="45.99177" lon="6.56353">
        <ele>1912.2</ele>
        <time>2019-02-16T07:51:26Z</time>
      </trkpt>
      <trkpt lat="45.99175" lon="6.5636">
        <ele>1915.56</ele>
        <time>2019-02-16T07:51:36Z</time>
      </trkpt>
      <trkpt lat="45.99176" lon="6.56361">
        <ele>1915.56</ele>
        <time>2019-02-16T07:51:37Z</time>
      </trkpt>
      <trkpt lat="45.9918" lon="6.56366">
        <ele>1917.01</ele>
        <time>2019-02-16T07:51:44Z</time>
      </trkpt>
      <trkpt lat="45.99185" lon="6.56372">
        <ele>1917.97</ele>
        <time>2019-02-16T07:51:51Z</time>
      </trkpt>
      <trkpt lat="45.99191" lon="6.56375">
        <ele>1919.89</ele>
        <time>2019-02-16T07:52:00Z</time>
      </trkpt>
      <trkpt lat="45.99197" lon="6.56376">
        <ele>1920.85</ele>
        <time>2019-02-16T07:52:07Z</time>
      </trkpt>
      <trkpt lat="45.99209" lon="6.56382">
        <ele>1924.22</ele>
        <time>2019-02-16T07:52:23Z</time>
      </trkpt>
      <trkpt lat="45.99216" lon="6.56385">
        <ele>1925.66</ele>
        <time>2019-02-16T07:52:31Z</time>
      </trkpt>
      <trkpt lat="45.99222" lon="6.5639">
        <ele>1927.58</ele>
        <time>2019-02-16T07:52:41Z</time>
      </trkpt>
      <trkpt lat="45.99228" lon="6.56393">
        <ele>1929.02</ele>
        <time>2019-02-16T07:52:49Z</time>
      </trkpt>
      <trkpt lat="45.99237" lon="6.56399">
        <ele>1932.39</ele>
        <time>2019-02-16T07:53:03Z</time>
      </trkpt>
      <trkpt lat="45.99241" lon="6.56402">
        <ele>1933.83</ele>
        <time>2019-02-16T07:53:10Z</time>
      </trkpt>
      <trkpt lat="45.99247" lon="6.56409">
        <ele>1936.23</ele>
        <time>2019-02-16T07:53:21Z</time>
      </trkpt>
      <trkpt lat="45.9925" lon="6.56411">
        <ele>1937.19</ele>
        <time>2019-02-16T07:53:25Z</time>
      </trkpt>
      <trkpt lat="45.99251" lon="6.56412">
        <ele>1937.67</ele>
        <time>2019-02-16T07:53:27Z</time>
      </trkpt>
      <trkpt lat="45.99259" lon="6.56422">
        <ele>1940.56</ele>
        <time>2019-02-16T07:53:41Z</time>
      </trkpt>
      <trkpt lat="45.99258" lon="6.56424">
        <ele>1941.04</ele>
        <time>2019-02-16T07:53:42Z</time>
      </trkpt>
      <trkpt lat="45.99256" lon="6.56426">
        <ele>1941.52</ele>
        <time>2019-02-16T07:53:46Z</time>
      </trkpt>
      <trkpt lat="45.99255" lon="6.56428">
        <ele>1942</ele>
        <time>2019-02-16T07:53:48Z</time>
      </trkpt>
      <trkpt lat="45.99249" lon="6.56436">
        <ele>1943.92</ele>
        <time>2019-02-16T07:53:59Z</time>
      </trkpt>
      <trkpt lat="45.99245" lon="6.56441">
        <ele>1945.85</ele>
        <time>2019-02-16T07:54:06Z</time>
      </trkpt>
      <trkpt lat="45.99237" lon="6.56453">
        <ele>1948.73</ele>
        <time>2019-02-16T07:54:21Z</time>
      </trkpt>
      <trkpt lat="45.99237" lon="6.56453">
        <ele>1949.21</ele>
        <time>2019-02-16T07:54:22Z</time>
      </trkpt>
      <trkpt lat="45.99235" lon="6.56463">
        <ele>1952.09</ele>
        <time>2019-02-16T07:54:36Z</time>
      </trkpt>
      <trkpt lat="45.99236" lon="6.56464">
        <ele>1952.57</ele>
        <time>2019-02-16T07:54:37Z</time>
      </trkpt>
      <trkpt lat="45.99246" lon="6.56472">
        <ele>1955.46</ele>
        <time>2019-02-16T07:54:52Z</time>
      </trkpt>
      <trkpt lat="45.99249" lon="6.56475">
        <ele>1956.42</ele>
        <time>2019-02-16T07:54:57Z</time>
      </trkpt>
      <trkpt lat="45.99253" lon="6.56481">
        <ele>1957.86</ele>
        <time>2019-02-16T07:55:04Z</time>
      </trkpt>
      <trkpt lat="45.99255" lon="6.56483">
        <ele>1958.82</ele>
        <time>2019-02-16T07:55:07Z</time>
      </trkpt>
      <trkpt lat="45.99256" lon="6.56484">
        <ele>1958.82</ele>
        <time>2019-02-16T07:55:08Z</time>
      </trkpt>
      <trkpt lat="45.99256" lon="6.56485">
        <ele>1958.82</ele>
        <time>2019-02-16T07:55:09Z</time>
      </trkpt>
      <trkpt lat="45.99264" lon="6.56496">
        <ele>1962.19</ele>
        <time>2019-02-16T07:55:23Z</time>
      </trkpt>
      <trkpt lat="45.99272" lon="6.56512">
        <ele>1965.07</ele>
        <time>2019-02-16T07:55:38Z</time>
      </trkpt>
      <trkpt lat="45.99277" lon="6.56525">
        <ele>1967.96</ele>
        <time>2019-02-16T07:55:50Z</time>
      </trkpt>
      <trkpt lat="45.99277" lon="6.56527">
        <ele>1968.44</ele>
        <time>2019-02-16T07:55:52Z</time>
      </trkpt>
      <trkpt lat="45.99277" lon="6.56528">
        <ele>1968.44</ele>
        <time>2019-02-16T07:55:53Z</time>
      </trkpt>
      <trkpt lat="45.99277" lon="6.56546">
        <ele>1971.8</ele>
        <time>2019-02-16T07:56:09Z</time>
      </trkpt>
      <trkpt lat="45.99274" lon="6.56564">
        <ele>1974.69</ele>
        <time>2019-02-16T07:56:23Z</time>
      </trkpt>
      <trkpt lat="45.99272" lon="6.56579">
        <ele>1977.09</ele>
        <time>2019-02-16T07:56:36Z</time>
      </trkpt>
      <trkpt lat="45.99272" lon="6.5658">
        <ele>1977.57</ele>
        <time>2019-02-16T07:56:37Z</time>
      </trkpt>
      <trkpt lat="45.99271" lon="6.56582">
        <ele>1977.57</ele>
        <time>2019-02-16T07:56:39Z</time>
      </trkpt>
      <trkpt lat="45.99269" lon="6.56592">
        <ele>1979.49</ele>
        <time>2019-02-16T07:56:47Z</time>
      </trkpt>
      <trkpt lat="45.99268" lon="6.56593">
        <ele>1979.97</ele>
        <time>2019-02-16T07:56:48Z</time>
      </trkpt>
      <trkpt lat="45.99267" lon="6.56611">
        <ele>1982.86</ele>
        <time>2019-02-16T07:57:03Z</time>
      </trkpt>
      <trkpt lat="45.99274" lon="6.56627">
        <ele>1985.74</ele>
        <time>2019-02-16T07:57:19Z</time>
      </trkpt>
      <trkpt lat="45.99275" lon="6.56628">
        <ele>1986.22</ele>
        <time>2019-02-16T07:57:21Z</time>
      </trkpt>
      <trkpt lat="45.99276" lon="6.56629">
        <ele>1986.7</ele>
        <time>2019-02-16T07:57:23Z</time>
      </trkpt>
      <trkpt lat="45.99284" lon="6.5664">
        <ele>1989.59</ele>
        <time>2019-02-16T07:57:37Z</time>
      </trkpt>
      <trkpt lat="45.9929" lon="6.56654">
        <ele>1992.95</ele>
        <time>2019-02-16T07:57:52Z</time>
      </trkpt>
      <trkpt lat="45.9929" lon="6.56654">
        <ele>1993.43</ele>
        <time>2019-02-16T07:57:53Z</time>
      </trkpt>
      <trkpt lat="45.99299" lon="6.56667">
        <ele>1995.83</ele>
        <time>2019-02-16T07:58:08Z</time>
      </trkpt>
      <trkpt lat="45.99301" lon="6.56668">
        <ele>1996.8</ele>
        <time>2019-02-16T07:58:11Z</time>
      </trkpt>
      <trkpt lat="45.99305" lon="6.56673">
        <ele>1998.24</ele>
        <time>2019-02-16T07:58:19Z</time>
      </trkpt>
      <trkpt lat="45.99307" lon="6.56674">
        <ele>1999.2</ele>
        <time>2019-02-16T07:58:21Z</time>
      </trkpt>
      <trkpt lat="45.99312" lon="6.56678">
        <ele>2000.64</ele>
        <time>2019-02-16T07:58:30Z</time>
      </trkpt>
      <trkpt lat="45.99317" lon="6.56681">
        <ele>2002.08</ele>
        <time>2019-02-16T07:58:36Z</time>
      </trkpt>
      <trkpt lat="45.99319" lon="6.56686">
        <ele>2004.01</ele>
        <time>2019-02-16T07:58:43Z</time>
      </trkpt>
      <trkpt lat="45.99318" lon="6.56688">
        <ele>2004.01</ele>
        <time>2019-02-16T07:58:45Z</time>
      </trkpt>
      <trkpt lat="45.99313" lon="6.56694">
        <ele>2005.45</ele>
        <time>2019-02-16T07:58:52Z</time>
      </trkpt>
      <trkpt lat="45.99313" lon="6.56695">
        <ele>2005.45</ele>
        <time>2019-02-16T07:58:53Z</time>
      </trkpt>
      <trkpt lat="45.99312" lon="6.56696">
        <ele>2005.93</ele>
        <time>2019-02-16T07:58:54Z</time>
      </trkpt>
      <trkpt lat="45.99311" lon="6.56697">
        <ele>2005.93</ele>
        <time>2019-02-16T07:58:55Z</time>
      </trkpt>
      <trkpt lat="45.99311" lon="6.56697">
        <ele>2006.41</ele>
        <time>2019-02-16T07:58:56Z</time>
      </trkpt>
      <trkpt lat="45.99307" lon="6.56702">
        <ele>2006.89</ele>
        <time>2019-02-16T07:59:01Z</time>
      </trkpt>
      <trkpt lat="45.99307" lon="6.56703">
        <ele>2007.37</ele>
        <time>2019-02-16T07:59:02Z</time>
      </trkpt>
      <trkpt lat="45.99307" lon="6.56704">
        <ele>2007.37</ele>
        <time>2019-02-16T07:59:03Z</time>
      </trkpt>
      <trkpt lat="45.99301" lon="6.56716">
        <ele>2010.73</ele>
        <time>2019-02-16T07:59:15Z</time>
      </trkpt>
      <trkpt lat="45.993" lon="6.56719">
        <ele>2010.73</ele>
        <time>2019-02-16T07:59:18Z</time>
      </trkpt>
      <trkpt lat="45.993" lon="6.5672">
        <ele>2010.73</ele>
        <time>2019-02-16T07:59:19Z</time>
      </trkpt>
      <trkpt lat="45.99292" lon="6.56737">
        <ele>2014.1</ele>
        <time>2019-02-16T07:59:36Z</time>
      </trkpt>
      <trkpt lat="45.99284" lon="6.5675">
        <ele>2016.98</ele>
        <time>2019-02-16T07:59:51Z</time>
      </trkpt>
      <trkpt lat="45.99282" lon="6.56754">
        <ele>2018.43</ele>
        <time>2019-02-16T07:59:56Z</time>
      </trkpt>
      <trkpt lat="45.99273" lon="6.56764">
        <ele>2021.31</ele>
        <time>2019-02-16T08:00:12Z</time>
      </trkpt>
      <trkpt lat="45.99276" lon="6.56769">
        <ele>2023.23</ele>
        <time>2019-02-16T08:00:20Z</time>
      </trkpt>
      <trkpt lat="45.99277" lon="6.5677">
        <ele>2023.23</ele>
        <time>2019-02-16T08:00:21Z</time>
      </trkpt>
      <trkpt lat="45.99278" lon="6.56771">
        <ele>2023.71</ele>
        <time>2019-02-16T08:00:22Z</time>
      </trkpt>
      <trkpt lat="45.99288" lon="6.56776">
        <ele>2026.6</ele>
        <time>2019-02-16T08:00:36Z</time>
      </trkpt>
      <trkpt lat="45.99291" lon="6.56777">
        <ele>2027.56</ele>
        <time>2019-02-16T08:00:39Z</time>
      </trkpt>
      <trkpt lat="45.99292" lon="6.56777">
        <ele>2028.04</ele>
        <time>2019-02-16T08:00:40Z</time>
      </trkpt>
      <trkpt lat="45.99297" lon="6.56779">
        <ele>2029</ele>
        <time>2019-02-16T08:00:46Z</time>
      </trkpt>
      <trkpt lat="45.99298" lon="6.5678">
        <ele>2029</ele>
        <time>2019-02-16T08:00:48Z</time>
      </trkpt>
      <trkpt lat="45.99299" lon="6.5678">
        <ele>2029.48</ele>
        <time>2019-02-16T08:00:49Z</time>
      </trkpt>
      <trkpt lat="45.99301" lon="6.56786">
        <ele>2031.4</ele>
        <time>2019-02-16T08:00:59Z</time>
      </trkpt>
      <trkpt lat="45.993" lon="6.56787">
        <ele>2031.4</ele>
        <time>2019-02-16T08:01:00Z</time>
      </trkpt>
      <trkpt lat="45.99298" lon="6.56791">
        <ele>2032.36</ele>
        <time>2019-02-16T08:01:04Z</time>
      </trkpt>
      <trkpt lat="45.99297" lon="6.56793">
        <ele>2032.84</ele>
        <time>2019-02-16T08:01:06Z</time>
      </trkpt>
      <trkpt lat="45.99296" lon="6.56794">
        <ele>2033.33</ele>
        <time>2019-02-16T08:01:07Z</time>
      </trkpt>
      <trkpt lat="45.99293" lon="6.56803">
        <ele>2035.25</ele>
        <time>2019-02-16T08:01:16Z</time>
      </trkpt>
      <trkpt lat="45.99292" lon="6.56805">
        <ele>2035.73</ele>
        <time>2019-02-16T08:01:18Z</time>
      </trkpt>
      <trkpt lat="45.9929" lon="6.56809">
        <ele>2036.69</ele>
        <time>2019-02-16T08:01:23Z</time>
      </trkpt>
      <trkpt lat="45.99286" lon="6.56818">
        <ele>2039.57</ele>
        <time>2019-02-16T08:01:43Z</time>
      </trkpt>
      <trkpt lat="45.99294" lon="6.56821">
        <ele>2042.46</ele>
        <time>2019-02-16T08:01:57Z</time>
      </trkpt>
      <trkpt lat="45.99295" lon="6.56821">
        <ele>2042.94</ele>
        <time>2019-02-16T08:01:58Z</time>
      </trkpt>
      <trkpt lat="45.993" lon="6.56823">
        <ele>2044.38</ele>
        <time>2019-02-16T08:02:06Z</time>
      </trkpt>
      <trkpt lat="45.99302" lon="6.56824">
        <ele>2044.86</ele>
        <time>2019-02-16T08:02:08Z</time>
      </trkpt>
      <trkpt lat="45.99303" lon="6.56826">
        <ele>2045.82</ele>
        <time>2019-02-16T08:02:10Z</time>
      </trkpt>
      <trkpt lat="45.99301" lon="6.56829">
        <ele>2046.3</ele>
        <time>2019-02-16T08:02:14Z</time>
      </trkpt>
      <trkpt lat="45.99296" lon="6.56836">
        <ele>2047.26</ele>
        <time>2019-02-16T08:02:21Z</time>
      </trkpt>
      <trkpt lat="45.99295" lon="6.56837">
        <ele>2047.75</ele>
        <time>2019-02-16T08:02:23Z</time>
      </trkpt>
      <trkpt lat="45.99285" lon="6.56854">
        <ele>2051.11</ele>
        <time>2019-02-16T08:02:41Z</time>
      </trkpt>
      <trkpt lat="45.99276" lon="6.56865">
        <ele>2053.99</ele>
        <time>2019-02-16T08:02:57Z</time>
      </trkpt>
      <trkpt lat="45.99269" lon="6.56868">
        <ele>2057.36</ele>
        <time>2019-02-16T08:03:09Z</time>
      </trkpt>
      <trkpt lat="45.99273" lon="6.56874">
        <ele>2058.32</ele>
        <time>2019-02-16T08:03:16Z</time>
      </trkpt>
      <trkpt lat="45.99279" lon="6.56881">
        <ele>2059.76</ele>
        <time>2019-02-16T08:03:25Z</time>
      </trkpt>
      <trkpt lat="45.99276" lon="6.56882">
        <ele>2060.72</ele>
        <time>2019-02-16T08:03:29Z</time>
      </trkpt>
      <trkpt lat="45.99263" lon="6.56887">
        <ele>2063.61</ele>
        <time>2019-02-16T08:03:46Z</time>
      </trkpt>
      <trkpt lat="45.99254" lon="6.56888">
        <ele>2066.97</ele>
        <time>2019-02-16T08:03:59Z</time>
      </trkpt>
      <trkpt lat="45.99251" lon="6.56891">
        <ele>2069.86</ele>
        <time>2019-02-16T08:04:14Z</time>
      </trkpt>
      <trkpt lat="45.99252" lon="6.56892">
        <ele>2070.34</ele>
        <time>2019-02-16T08:04:15Z</time>
      </trkpt>
      <trkpt lat="45.99253" lon="6.56893">
        <ele>2070.34</ele>
        <time>2019-02-16T08:04:16Z</time>
      </trkpt>
      <trkpt lat="45.99254" lon="6.56894">
        <ele>2070.82</ele>
        <time>2019-02-16T08:04:17Z</time>
      </trkpt>
      <trkpt lat="45.99266" lon="6.56908">
        <ele>2073.7</ele>
        <time>2019-02-16T08:04:36Z</time>
      </trkpt>
      <trkpt lat="45.99278" lon="6.56924">
        <ele>2076.59</ele>
        <time>2019-02-16T08:04:54Z</time>
      </trkpt>
      <trkpt lat="45.99289" lon="6.56937">
        <ele>2079.47</ele>
        <time>2019-02-16T08:05:08Z</time>
      </trkpt>
      <trkpt lat="45.9929" lon="6.56939">
        <ele>2079.95</ele>
        <time>2019-02-16T08:05:10Z</time>
      </trkpt>
      <trkpt lat="45.99292" lon="6.5694">
        <ele>2080.43</ele>
        <time>2019-02-16T08:05:12Z</time>
      </trkpt>
      <trkpt lat="45.99292" lon="6.56941">
        <ele>2080.43</ele>
        <time>2019-02-16T08:05:13Z</time>
      </trkpt>
      <trkpt lat="45.99293" lon="6.56942">
        <ele>2080.91</ele>
        <time>2019-02-16T08:05:14Z</time>
      </trkpt>
      <trkpt lat="45.99294" lon="6.56943">
        <ele>2080.91</ele>
        <time>2019-02-16T08:05:15Z</time>
      </trkpt>
      <trkpt lat="45.99296" lon="6.56955">
        <ele>2082.83</ele>
        <time>2019-02-16T08:05:23Z</time>
      </trkpt>
      <trkpt lat="45.99296" lon="6.56956">
        <ele>2083.31</ele>
        <time>2019-02-16T08:05:24Z</time>
      </trkpt>
      <trkpt lat="45.99297" lon="6.56964">
        <ele>2083.79</ele>
        <time>2019-02-16T08:05:29Z</time>
      </trkpt>
      <trkpt lat="45.99297" lon="6.56966">
        <ele>2084.28</ele>
        <time>2019-02-16T08:05:30Z</time>
      </trkpt>
      <trkpt lat="45.99298" lon="6.56968">
        <ele>2084.76</ele>
        <time>2019-02-16T08:05:32Z</time>
      </trkpt>
      <trkpt lat="45.99298" lon="6.56969">
        <ele>2084.76</ele>
        <time>2019-02-16T08:05:56Z</time>
      </trkpt>
      <trkpt lat="45.99296" lon="6.5697">
        <ele>2084.76</ele>
        <time>2019-02-16T08:06:09Z</time>
      </trkpt>
      <trkpt lat="45.99297" lon="6.56967">
        <ele>2084.76</ele>
        <time>2019-02-16T08:06:28Z</time>
      </trkpt>
      <trkpt lat="45.99296" lon="6.56968">
        <ele>2085.24</ele>
        <time>2019-02-16T08:06:53Z</time>
      </trkpt>
      <trkpt lat="45.99296" lon="6.56969">
        <ele>2084.76</ele>
        <time>2019-02-16T08:07:17Z</time>
      </trkpt>
      <trkpt lat="45.99294" lon="6.56972">
        <ele>2085.24</ele>
        <time>2019-02-16T08:07:24Z</time>
      </trkpt>
      <trkpt lat="45.99294" lon="6.56973">
        <ele>2085.72</ele>
        <time>2019-02-16T08:07:25Z</time>
      </trkpt>
      <trkpt lat="45.99293" lon="6.56974">
        <ele>2086.2</ele>
        <time>2019-02-16T08:07:26Z</time>
      </trkpt>
      <trkpt lat="45.99289" lon="6.56978">
        <ele>2086.68</ele>
        <time>2019-02-16T08:07:31Z</time>
      </trkpt>
      <trkpt lat="45.99288" lon="6.56979">
        <ele>2087.16</ele>
        <time>2019-02-16T08:07:32Z</time>
      </trkpt>
      <trkpt lat="45.99287" lon="6.5698">
        <ele>2087.16</ele>
        <time>2019-02-16T08:07:33Z</time>
      </trkpt>
      <trkpt lat="45.99286" lon="6.56981">
        <ele>2087.16</ele>
        <time>2019-02-16T08:07:34Z</time>
      </trkpt>
      <trkpt lat="45.99284" lon="6.56981">
        <ele>2087.64</ele>
        <time>2019-02-16T08:07:36Z</time>
      </trkpt>
      <trkpt lat="45.99282" lon="6.56981">
        <ele>2088.12</ele>
        <time>2019-02-16T08:07:38Z</time>
      </trkpt>
      <trkpt lat="45.99281" lon="6.56981">
        <ele>2088.6</ele>
        <time>2019-02-16T08:07:39Z</time>
      </trkpt>
      <trkpt lat="45.9928" lon="6.56981">
        <ele>2088.6</ele>
        <time>2019-02-16T08:07:40Z</time>
      </trkpt>
      <trkpt lat="45.99279" lon="6.56981">
        <ele>2088.6</ele>
        <time>2019-02-16T08:07:41Z</time>
      </trkpt>
      <trkpt lat="45.99278" lon="6.56981">
        <ele>2089.08</ele>
        <time>2019-02-16T08:07:42Z</time>
      </trkpt>
      <trkpt lat="45.99276" lon="6.56981">
        <ele>2089.08</ele>
        <time>2019-02-16T08:07:44Z</time>
      </trkpt>
      <trkpt lat="45.99276" lon="6.56981">
        <ele>2089.56</ele>
        <time>2019-02-16T08:07:45Z</time>
      </trkpt>
      <trkpt lat="45.9927" lon="6.56981">
        <ele>2091</ele>
        <time>2019-02-16T08:07:52Z</time>
      </trkpt>
      <trkpt lat="45.99268" lon="6.56981">
        <ele>2091.49</ele>
        <time>2019-02-16T08:07:53Z</time>
      </trkpt>
      <trkpt lat="45.99267" lon="6.56981">
        <ele>2091.49</ele>
        <time>2019-02-16T08:07:54Z</time>
      </trkpt>
      <trkpt lat="45.99266" lon="6.5698">
        <ele>2091.97</ele>
        <time>2019-02-16T08:07:56Z</time>
      </trkpt>
      <trkpt lat="45.99265" lon="6.5698">
        <ele>2092.45</ele>
        <time>2019-02-16T08:07:57Z</time>
      </trkpt>
      <trkpt lat="45.99264" lon="6.5698">
        <ele>2092.93</ele>
        <time>2019-02-16T08:07:58Z</time>
      </trkpt>
      <trkpt lat="45.99261" lon="6.56979">
        <ele>2093.41</ele>
        <time>2019-02-16T08:08:01Z</time>
      </trkpt>
      <trkpt lat="45.9926" lon="6.56978">
        <ele>2093.89</ele>
        <time>2019-02-16T08:08:02Z</time>
      </trkpt>
      <trkpt lat="45.99259" lon="6.56978">
        <ele>2094.37</ele>
        <time>2019-02-16T08:08:03Z</time>
      </trkpt>
      <trkpt lat="45.99243" lon="6.56974">
        <ele>2097.25</ele>
        <time>2019-02-16T08:08:20Z</time>
      </trkpt>
      <trkpt lat="45.99242" lon="6.56974">
        <ele>2097.25</ele>
        <time>2019-02-16T08:08:22Z</time>
      </trkpt>
      <trkpt lat="45.99235" lon="6.56974">
        <ele>2098.7</ele>
        <time>2019-02-16T08:08:28Z</time>
      </trkpt>
      <trkpt lat="45.99234" lon="6.56977">
        <ele>2099.66</ele>
        <time>2019-02-16T08:08:32Z</time>
      </trkpt>
      <trkpt lat="45.99234" lon="6.56978">
        <ele>2100.14</ele>
        <time>2019-02-16T08:08:33Z</time>
      </trkpt>
      <trkpt lat="45.99234" lon="6.56983">
        <ele>2101.58</ele>
        <time>2019-02-16T08:08:38Z</time>
      </trkpt>
      <trkpt lat="45.99235" lon="6.56985">
        <ele>2101.58</ele>
        <time>2019-02-16T08:08:40Z</time>
      </trkpt>
      <trkpt lat="45.99236" lon="6.5699">
        <ele>2103.02</ele>
        <time>2019-02-16T08:08:45Z</time>
      </trkpt>
      <trkpt lat="45.99237" lon="6.56995">
        <ele>2103.98</ele>
        <time>2019-02-16T08:08:50Z</time>
      </trkpt>
      <trkpt lat="45.99236" lon="6.56997">
        <ele>2103.98</ele>
        <time>2019-02-16T08:08:52Z</time>
      </trkpt>
      <trkpt lat="45.99236" lon="6.57">
        <ele>2104.94</ele>
        <time>2019-02-16T08:08:56Z</time>
      </trkpt>
      <trkpt lat="45.99236" lon="6.57009">
        <ele>2106.87</ele>
        <time>2019-02-16T08:09:04Z</time>
      </trkpt>
      <trkpt lat="45.99235" lon="6.57012">
        <ele>2107.35</ele>
        <time>2019-02-16T08:09:07Z</time>
      </trkpt>
      <trkpt lat="45.99235" lon="6.57014">
        <ele>2107.83</ele>
        <time>2019-02-16T08:09:09Z</time>
      </trkpt>
      <trkpt lat="45.99233" lon="6.57026">
        <ele>2110.23</ele>
        <time>2019-02-16T08:09:20Z</time>
      </trkpt>
      <trkpt lat="45.99231" lon="6.5703">
        <ele>2111.67</ele>
        <time>2019-02-16T08:09:25Z</time>
      </trkpt>
      <trkpt lat="45.99226" lon="6.57038">
        <ele>2114.56</ele>
        <time>2019-02-16T08:09:37Z</time>
      </trkpt>
      <trkpt lat="45.99225" lon="6.5704">
        <ele>2115.04</ele>
        <time>2019-02-16T08:09:38Z</time>
      </trkpt>
      <trkpt lat="45.99219" lon="6.57046">
        <ele>2117.44</ele>
        <time>2019-02-16T08:09:49Z</time>
      </trkpt>
      <trkpt lat="45.99212" lon="6.57036">
        <ele>2120.32</ele>
        <time>2019-02-16T08:10:04Z</time>
      </trkpt>
      <trkpt lat="45.992" lon="6.5703">
        <ele>2123.69</ele>
        <time>2019-02-16T08:10:23Z</time>
      </trkpt>
      <trkpt lat="45.99198" lon="6.57029">
        <ele>2124.17</ele>
        <time>2019-02-16T08:10:26Z</time>
      </trkpt>
      <trkpt lat="45.99197" lon="6.57028">
        <ele>2124.65</ele>
        <time>2019-02-16T08:10:28Z</time>
      </trkpt>
      <trkpt lat="45.99188" lon="6.57023">
        <ele>2127.05</ele>
        <time>2019-02-16T08:10:42Z</time>
      </trkpt>
      <trkpt lat="45.99186" lon="6.57022">
        <ele>2128.98</ele>
        <time>2019-02-16T08:10:48Z</time>
      </trkpt>
      <trkpt lat="45.99186" lon="6.57028">
        <ele>2130.42</ele>
        <time>2019-02-16T08:10:56Z</time>
      </trkpt>
      <trkpt lat="45.99186" lon="6.5704">
        <ele>2133.3</ele>
        <time>2019-02-16T08:11:08Z</time>
      </trkpt>
      <trkpt lat="45.99179" lon="6.57039">
        <ele>2135.23</ele>
        <time>2019-02-16T08:11:20Z</time>
      </trkpt>
      <trkpt lat="45.99176" lon="6.57038">
        <ele>2136.19</ele>
        <time>2019-02-16T08:11:24Z</time>
      </trkpt>
      <trkpt lat="45.99174" lon="6.57036">
        <ele>2136.19</ele>
        <time>2019-02-16T08:11:27Z</time>
      </trkpt>
      <trkpt lat="45.99171" lon="6.57035">
        <ele>2136.67</ele>
        <time>2019-02-16T08:11:31Z</time>
      </trkpt>
      <trkpt lat="45.9917" lon="6.57034">
        <ele>2137.15</ele>
        <time>2019-02-16T08:11:33Z</time>
      </trkpt>
      <trkpt lat="45.99169" lon="6.57034">
        <ele>2137.63</ele>
        <time>2019-02-16T08:11:34Z</time>
      </trkpt>
      <trkpt lat="45.99168" lon="6.57033">
        <ele>2138.11</ele>
        <time>2019-02-16T08:11:36Z</time>
      </trkpt>
      <trkpt lat="45.99167" lon="6.57032">
        <ele>2138.59</ele>
        <time>2019-02-16T08:11:38Z</time>
      </trkpt>
      <trkpt lat="45.99165" lon="6.57031">
        <ele>2138.59</ele>
        <time>2019-02-16T08:11:40Z</time>
      </trkpt>
      <trkpt lat="45.99163" lon="6.5703">
        <ele>2139.07</ele>
        <time>2019-02-16T08:11:43Z</time>
      </trkpt>
      <trkpt lat="45.99151" lon="6.57018">
        <ele>2142.44</ele>
        <time>2019-02-16T08:12:01Z</time>
      </trkpt>
      <trkpt lat="45.9915" lon="6.57017">
        <ele>2142.44</ele>
        <time>2019-02-16T08:12:02Z</time>
      </trkpt>
      <trkpt lat="45.99136" lon="6.57009">
        <ele>2145.32</ele>
        <time>2019-02-16T08:12:19Z</time>
      </trkpt>
      <trkpt lat="45.99133" lon="6.57007">
        <ele>2146.28</ele>
        <time>2019-02-16T08:12:24Z</time>
      </trkpt>
      <trkpt lat="45.99133" lon="6.57007">
        <ele>2146.76</ele>
        <time>2019-02-16T08:12:25Z</time>
      </trkpt>
      <trkpt lat="45.99131" lon="6.57005">
        <ele>2146.76</ele>
        <time>2019-02-16T08:12:27Z</time>
      </trkpt>
      <trkpt lat="45.99126" lon="6.57003">
        <ele>2148.68</ele>
        <time>2019-02-16T08:12:34Z</time>
      </trkpt>
      <trkpt lat="45.99124" lon="6.57001">
        <ele>2149.16</ele>
        <time>2019-02-16T08:12:37Z</time>
      </trkpt>
      <trkpt lat="45.99123" lon="6.57">
        <ele>2149.65</ele>
        <time>2019-02-16T08:12:39Z</time>
      </trkpt>
      <trkpt lat="45.99121" lon="6.57">
        <ele>2150.13</ele>
        <time>2019-02-16T08:12:41Z</time>
      </trkpt>
      <trkpt lat="45.99119" lon="6.56999">
        <ele>2150.61</ele>
        <time>2019-02-16T08:12:44Z</time>
      </trkpt>
      <trkpt lat="45.99113" lon="6.56997">
        <ele>2153.01</ele>
        <time>2019-02-16T08:12:53Z</time>
      </trkpt>
      <trkpt lat="45.99112" lon="6.56996">
        <ele>2153.01</ele>
        <time>2019-02-16T08:12:55Z</time>
      </trkpt>
      <trkpt lat="45.9911" lon="6.56996">
        <ele>2153.49</ele>
        <time>2019-02-16T08:12:57Z</time>
      </trkpt>
      <trkpt lat="45.99103" lon="6.56994">
        <ele>2155.41</ele>
        <time>2019-02-16T08:13:06Z</time>
      </trkpt>
      <trkpt lat="45.99102" lon="6.56993">
        <ele>2155.41</ele>
        <time>2019-02-16T08:13:08Z</time>
      </trkpt>
      <trkpt lat="45.99093" lon="6.56987">
        <ele>2157.82</ele>
        <time>2019-02-16T08:13:20Z</time>
      </trkpt>
      <trkpt lat="45.99089" lon="6.56984">
        <ele>2159.26</ele>
        <time>2019-02-16T08:13:27Z</time>
      </trkpt>
      <trkpt lat="45.99088" lon="6.56984">
        <ele>2159.26</ele>
        <time>2019-02-16T08:13:28Z</time>
      </trkpt>
      <trkpt lat="45.99087" lon="6.56984">
        <ele>2160.22</ele>
        <time>2019-02-16T08:13:30Z</time>
      </trkpt>
      <trkpt lat="45.99084" lon="6.56983">
        <ele>2161.18</ele>
        <time>2019-02-16T08:13:34Z</time>
      </trkpt>
      <trkpt lat="45.99079" lon="6.56983">
        <ele>2162.62</ele>
        <time>2019-02-16T08:13:42Z</time>
      </trkpt>
      <trkpt lat="45.99077" lon="6.56982">
        <ele>2163.58</ele>
        <time>2019-02-16T08:13:45Z</time>
      </trkpt>
      <trkpt lat="45.99075" lon="6.56986">
        <ele>2165.51</ele>
        <time>2019-02-16T08:13:55Z</time>
      </trkpt>
      <trkpt lat="45.99076" lon="6.56989">
        <ele>2165.99</ele>
        <time>2019-02-16T08:13:58Z</time>
      </trkpt>
      <trkpt lat="45.99077" lon="6.57003">
        <ele>2169.35</ele>
        <time>2019-02-16T08:14:13Z</time>
      </trkpt>
      <trkpt lat="45.99074" lon="6.57003">
        <ele>2169.83</ele>
        <time>2019-02-16T08:14:17Z</time>
      </trkpt>
      <trkpt lat="45.99073" lon="6.57003">
        <ele>2170.31</ele>
        <time>2019-02-16T08:14:19Z</time>
      </trkpt>
      <trkpt lat="45.99072" lon="6.57003">
        <ele>2170.31</ele>
        <time>2019-02-16T08:14:20Z</time>
      </trkpt>
      <trkpt lat="45.9906" lon="6.57001">
        <ele>2172.72</ele>
        <time>2019-02-16T08:14:34Z</time>
      </trkpt>
      <trkpt lat="45.99059" lon="6.57001">
        <ele>2173.2</ele>
        <time>2019-02-16T08:14:35Z</time>
      </trkpt>
      <trkpt lat="45.99058" lon="6.57001">
        <ele>2173.68</ele>
        <time>2019-02-16T08:14:36Z</time>
      </trkpt>
      <trkpt lat="45.99057" lon="6.57001">
        <ele>2173.68</ele>
        <time>2019-02-16T08:14:37Z</time>
      </trkpt>
      <trkpt lat="45.99056" lon="6.57002">
        <ele>2174.16</ele>
        <time>2019-02-16T08:14:38Z</time>
      </trkpt>
      <trkpt lat="45.99056" lon="6.57001">
        <ele>2174.16</ele>
        <time>2019-02-16T08:14:39Z</time>
      </trkpt>
      <trkpt lat="45.99055" lon="6.57001">
        <ele>2174.64</ele>
        <time>2019-02-16T08:14:40Z</time>
      </trkpt>
      <trkpt lat="45.99054" lon="6.57002">
        <ele>2174.64</ele>
        <time>2019-02-16T08:14:42Z</time>
      </trkpt>
      <trkpt lat="45.99052" lon="6.57001">
        <ele>2175.12</ele>
        <time>2019-02-16T08:14:43Z</time>
      </trkpt>
      <trkpt lat="45.99038" lon="6.56997">
        <ele>2178</ele>
        <time>2019-02-16T08:15:01Z</time>
      </trkpt>
      <trkpt lat="45.99025" lon="6.56995">
        <ele>2181.37</ele>
        <time>2019-02-16T08:15:16Z</time>
      </trkpt>
      <trkpt lat="45.99004" lon="6.56984">
        <ele>2184.25</ele>
        <time>2019-02-16T08:15:39Z</time>
      </trkpt>
      <trkpt lat="45.98992" lon="6.56981">
        <ele>2186.18</ele>
        <time>2019-02-16T08:15:51Z</time>
      </trkpt>
      <trkpt lat="45.98983" lon="6.56979">
        <ele>2188.1</ele>
        <time>2019-02-16T08:16:01Z</time>
      </trkpt>
      <trkpt lat="45.98982" lon="6.56979">
        <ele>2188.1</ele>
        <time>2019-02-16T08:16:02Z</time>
      </trkpt>
      <trkpt lat="45.98981" lon="6.56979">
        <ele>2188.1</ele>
        <time>2019-02-16T08:16:03Z</time>
      </trkpt>
      <trkpt lat="45.9898" lon="6.56979">
        <ele>2188.58</ele>
        <time>2019-02-16T08:16:04Z</time>
      </trkpt>
      <trkpt lat="45.98967" lon="6.56976">
        <ele>2191.46</ele>
        <time>2019-02-16T08:16:19Z</time>
      </trkpt>
      <trkpt lat="45.98958" lon="6.56974">
        <ele>2192.9</ele>
        <time>2019-02-16T08:16:28Z</time>
      </trkpt>
      <trkpt lat="45.98957" lon="6.56973">
        <ele>2193.39</ele>
        <time>2019-02-16T08:16:30Z</time>
      </trkpt>
      <trkpt lat="45.98956" lon="6.56973">
        <ele>2193.39</ele>
        <time>2019-02-16T08:16:31Z</time>
      </trkpt>
      <trkpt lat="45.98955" lon="6.56973">
        <ele>2193.39</ele>
        <time>2019-02-16T08:16:32Z</time>
      </trkpt>
      <trkpt lat="45.98954" lon="6.56973">
        <ele>2193.87</ele>
        <time>2019-02-16T08:16:33Z</time>
      </trkpt>
      <trkpt lat="45.98953" lon="6.56972">
        <ele>2194.35</ele>
        <time>2019-02-16T08:16:35Z</time>
      </trkpt>
      <trkpt lat="45.98952" lon="6.56973">
        <ele>2194.83</ele>
        <time>2019-02-16T08:16:36Z</time>
      </trkpt>
      <trkpt lat="45.98948" lon="6.56973">
        <ele>2195.79</ele>
        <time>2019-02-16T08:16:40Z</time>
      </trkpt>
      <trkpt lat="45.98947" lon="6.56973">
        <ele>2195.79</ele>
        <time>2019-02-16T08:16:41Z</time>
      </trkpt>
      <trkpt lat="45.98941" lon="6.56974">
        <ele>2196.75</ele>
        <time>2019-02-16T08:16:48Z</time>
      </trkpt>
      <trkpt lat="45.9894" lon="6.56974">
        <ele>2197.23</ele>
        <time>2019-02-16T08:16:49Z</time>
      </trkpt>
      <trkpt lat="45.98939" lon="6.56974">
        <ele>2197.23</ele>
        <time>2019-02-16T08:16:50Z</time>
      </trkpt>
      <trkpt lat="45.98917" lon="6.56976">
        <ele>2199.15</ele>
        <time>2019-02-16T08:17:13Z</time>
      </trkpt>
      <trkpt lat="45.98916" lon="6.56976">
        <ele>2199.63</ele>
        <time>2019-02-16T08:17:14Z</time>
      </trkpt>
      <trkpt lat="45.98915" lon="6.56976">
        <ele>2199.63</ele>
        <time>2019-02-16T08:17:15Z</time>
      </trkpt>
      <trkpt lat="45.98915" lon="6.56977">
        <ele>2199.63</ele>
        <time>2019-02-16T08:17:16Z</time>
      </trkpt>
      <trkpt lat="45.98914" lon="6.56977">
        <ele>2199.63</ele>
        <time>2019-02-16T08:17:17Z</time>
      </trkpt>
      <trkpt lat="45.98881" lon="6.56982">
        <ele>2200.59</ele>
        <time>2019-02-16T08:17:46Z</time>
      </trkpt>
      <trkpt lat="45.98866" lon="6.56985">
        <ele>2202.04</ele>
        <time>2019-02-16T08:18:00Z</time>
      </trkpt>
      <trkpt lat="45.98865" lon="6.56985">
        <ele>2202.04</ele>
        <time>2019-02-16T08:18:01Z</time>
      </trkpt>
      <trkpt lat="45.98864" lon="6.56985">
        <ele>2202.04</ele>
        <time>2019-02-16T08:18:02Z</time>
      </trkpt>
      <trkpt lat="45.98863" lon="6.56985">
        <ele>2202.04</ele>
        <time>2019-02-16T08:18:03Z</time>
      </trkpt>
      <trkpt lat="45.98862" lon="6.56985">
        <ele>2202.04</ele>
        <time>2019-02-16T08:18:04Z</time>
      </trkpt>
      <trkpt lat="45.98846" lon="6.56987">
        <ele>2203.96</ele>
        <time>2019-02-16T08:18:20Z</time>
      </trkpt>
      <trkpt lat="45.98829" lon="6.56983">
        <ele>2205.88</ele>
        <time>2019-02-16T08:18:36Z</time>
      </trkpt>
      <trkpt lat="45.98812" lon="6.56978">
        <ele>2207.81</ele>
        <time>2019-02-16T08:18:52Z</time>
      </trkpt>
      <trkpt lat="45.98809" lon="6.56977">
        <ele>2207.81</ele>
        <time>2019-02-16T08:18:55Z</time>
      </trkpt>
      <trkpt lat="45.98808" lon="6.56977">
        <ele>2207.81</ele>
        <time>2019-02-16T08:18:56Z</time>
      </trkpt>
      <trkpt lat="45.98803" lon="6.56976">
        <ele>2208.77</ele>
        <time>2019-02-16T08:19:02Z</time>
      </trkpt>
      <trkpt lat="45.98802" lon="6.56976">
        <ele>2208.77</ele>
        <time>2019-02-16T08:19:03Z</time>
      </trkpt>
      <trkpt lat="45.98787" lon="6.56973">
        <ele>2212.13</ele>
        <time>2019-02-16T08:19:20Z</time>
      </trkpt>
      <trkpt lat="45.98786" lon="6.56973">
        <ele>2212.13</ele>
        <time>2019-02-16T08:19:21Z</time>
      </trkpt>
      <trkpt lat="45.98783" lon="6.56972">
        <ele>2212.61</ele>
        <time>2019-02-16T08:19:24Z</time>
      </trkpt>
      <trkpt lat="45.98782" lon="6.56972">
        <ele>2212.61</ele>
        <time>2019-02-16T08:19:25Z</time>
      </trkpt>
      <trkpt lat="45.98781" lon="6.56972">
        <ele>2212.61</ele>
        <time>2019-02-16T08:19:26Z</time>
      </trkpt>
      <trkpt lat="45.98781" lon="6.56971">
        <ele>2213.09</ele>
        <time>2019-02-16T08:19:27Z</time>
      </trkpt>
      <trkpt lat="45.98779" lon="6.5697">
        <ele>2213.57</ele>
        <time>2019-02-16T08:19:29Z</time>
      </trkpt>
      <trkpt lat="45.98779" lon="6.5697">
        <ele>2213.57</ele>
        <time>2019-02-16T08:19:30Z</time>
      </trkpt>
      <trkpt lat="45.98771" lon="6.56968">
        <ele>2215.98</ele>
        <time>2019-02-16T08:19:40Z</time>
      </trkpt>
      <trkpt lat="45.98766" lon="6.56963">
        <ele>2217.9</ele>
        <time>2019-02-16T08:19:48Z</time>
      </trkpt>
      <trkpt lat="45.98763" lon="6.56964">
        <ele>2218.38</ele>
        <time>2019-02-16T08:19:52Z</time>
      </trkpt>
      <trkpt lat="45.98762" lon="6.56964">
        <ele>2218.38</ele>
        <time>2019-02-16T08:19:53Z</time>
      </trkpt>
      <trkpt lat="45.98758" lon="6.56964">
        <ele>2220.3</ele>
        <time>2019-02-16T08:20:00Z</time>
      </trkpt>
      <trkpt lat="45.98751" lon="6.56958">
        <ele>2222.22</ele>
        <time>2019-02-16T08:20:11Z</time>
      </trkpt>
      <trkpt lat="45.9875" lon="6.56957">
        <ele>2223.19</ele>
        <time>2019-02-16T08:20:13Z</time>
      </trkpt>
      <trkpt lat="45.98748" lon="6.56953">
        <ele>2223.19</ele>
        <time>2019-02-16T08:20:17Z</time>
      </trkpt>
      <trkpt lat="45.98745" lon="6.56949">
        <ele>2224.15</ele>
        <time>2019-02-16T08:20:21Z</time>
      </trkpt>
      <trkpt lat="45.98741" lon="6.56949">
        <ele>2225.59</ele>
        <time>2019-02-16T08:20:27Z</time>
      </trkpt>
      <trkpt lat="45.98738" lon="6.5695">
        <ele>2226.55</ele>
        <time>2019-02-16T08:20:32Z</time>
      </trkpt>
      <trkpt lat="45.98736" lon="6.5695">
        <ele>2227.03</ele>
        <time>2019-02-16T08:20:34Z</time>
      </trkpt>
      <trkpt lat="45.98732" lon="6.56949">
        <ele>2227.99</ele>
        <time>2019-02-16T08:20:39Z</time>
      </trkpt>
      <trkpt lat="45.98731" lon="6.56949">
        <ele>2227.99</ele>
        <time>2019-02-16T08:20:40Z</time>
      </trkpt>
      <trkpt lat="45.98731" lon="6.56948">
        <ele>2228.47</ele>
        <time>2019-02-16T08:20:41Z</time>
      </trkpt>
      <trkpt lat="45.98727" lon="6.56943">
        <ele>2229.92</ele>
        <time>2019-02-16T08:20:49Z</time>
      </trkpt>
      <trkpt lat="45.9872" lon="6.5694">
        <ele>2232.8</ele>
        <time>2019-02-16T08:20:59Z</time>
      </trkpt>
      <trkpt lat="45.98711" lon="6.56941">
        <ele>2235.68</ele>
        <time>2019-02-16T08:21:14Z</time>
      </trkpt>
      <trkpt lat="45.98708" lon="6.56941">
        <ele>2236.16</ele>
        <time>2019-02-16T08:21:18Z</time>
      </trkpt>
      <trkpt lat="45.98699" lon="6.56935">
        <ele>2239.53</ele>
        <time>2019-02-16T08:21:33Z</time>
      </trkpt>
      <trkpt lat="45.98696" lon="6.56935">
        <ele>2240.49</ele>
        <time>2019-02-16T08:21:37Z</time>
      </trkpt>
      <trkpt lat="45.98695" lon="6.56935">
        <ele>2240.97</ele>
        <time>2019-02-16T08:21:39Z</time>
      </trkpt>
      <trkpt lat="45.98691" lon="6.56932">
        <ele>2242.41</ele>
        <time>2019-02-16T08:21:46Z</time>
      </trkpt>
      <trkpt lat="45.98688" lon="6.56931">
        <ele>2243.85</ele>
        <time>2019-02-16T08:21:51Z</time>
      </trkpt>
      <trkpt lat="45.9868" lon="6.56929">
        <ele>2245.78</ele>
        <time>2019-02-16T08:22:01Z</time>
      </trkpt>
      <trkpt lat="45.98679" lon="6.56929">
        <ele>2246.26</ele>
        <time>2019-02-16T08:22:03Z</time>
      </trkpt>
      <trkpt lat="45.98676" lon="6.56929">
        <ele>2247.22</ele>
        <time>2019-02-16T08:22:06Z</time>
      </trkpt>
      <trkpt lat="45.98675" lon="6.56928">
        <ele>2247.22</ele>
        <time>2019-02-16T08:22:08Z</time>
      </trkpt>
      <trkpt lat="45.98673" lon="6.56928">
        <ele>2248.66</ele>
        <time>2019-02-16T08:22:11Z</time>
      </trkpt>
      <trkpt lat="45.98665" lon="6.56928">
        <ele>2251.54</ele>
        <time>2019-02-16T08:22:25Z</time>
      </trkpt>
      <trkpt lat="45.98658" lon="6.56927">
        <ele>2253.47</ele>
        <time>2019-02-16T08:22:35Z</time>
      </trkpt>
      <trkpt lat="45.98657" lon="6.56927">
        <ele>2254.43</ele>
        <time>2019-02-16T08:22:37Z</time>
      </trkpt>
      <trkpt lat="45.98648" lon="6.56926">
        <ele>2257.31</ele>
        <time>2019-02-16T08:22:51Z</time>
      </trkpt>
      <trkpt lat="45.98644" lon="6.5693">
        <ele>2258.27</ele>
        <time>2019-02-16T08:22:58Z</time>
      </trkpt>
      <trkpt lat="45.98628" lon="6.56939">
        <ele>2260.2</ele>
        <time>2019-02-16T08:23:17Z</time>
      </trkpt>
      <trkpt lat="45.98612" lon="6.56943">
        <ele>2261.16</ele>
        <time>2019-02-16T08:23:34Z</time>
      </trkpt>
      <trkpt lat="45.98591" lon="6.56952">
        <ele>2262.12</ele>
        <time>2019-02-16T08:23:53Z</time>
      </trkpt>
      <trkpt lat="45.98563" lon="6.56972">
        <ele>2261.64</ele>
        <time>2019-02-16T08:24:15Z</time>
      </trkpt>
      <trkpt lat="45.98542" lon="6.56995">
        <ele>2258.27</ele>
        <time>2019-02-16T08:24:29Z</time>
      </trkpt>
      <trkpt lat="45.98514" lon="6.57016">
        <ele>2255.39</ele>
        <time>2019-02-16T08:24:48Z</time>
      </trkpt>
      <trkpt lat="45.98498" lon="6.5703">
        <ele>2254.43</ele>
        <time>2019-02-16T08:25:01Z</time>
      </trkpt>
      <trkpt lat="45.98484" lon="6.57042">
        <ele>2253.95</ele>
        <time>2019-02-16T08:25:13Z</time>
      </trkpt>
      <trkpt lat="45.98468" lon="6.57056">
        <ele>2252.99</ele>
        <time>2019-02-16T08:25:26Z</time>
      </trkpt>
      <trkpt lat="45.98455" lon="6.5707">
        <ele>2253.47</ele>
        <time>2019-02-16T08:25:39Z</time>
      </trkpt>
      <trkpt lat="45.9844" lon="6.57081">
        <ele>2253.95</ele>
        <time>2019-02-16T08:25:53Z</time>
      </trkpt>
      <trkpt lat="45.98433" lon="6.57087">
        <ele>2254.43</ele>
        <time>2019-02-16T08:26:00Z</time>
      </trkpt>
      <trkpt lat="45.98419" lon="6.57102">
        <ele>2255.87</ele>
        <time>2019-02-16T08:26:17Z</time>
      </trkpt>
      <trkpt lat="45.98398" lon="6.57115">
        <ele>2258.27</ele>
        <time>2019-02-16T08:26:38Z</time>
      </trkpt>
      <trkpt lat="45.98393" lon="6.5712">
        <ele>2259.24</ele>
        <time>2019-02-16T08:26:45Z</time>
      </trkpt>
      <trkpt lat="45.98391" lon="6.57121">
        <ele>2259.24</ele>
        <time>2019-02-16T08:26:47Z</time>
      </trkpt>
      <trkpt lat="45.9839" lon="6.57122">
        <ele>2259.72</ele>
        <time>2019-02-16T08:26:48Z</time>
      </trkpt>
      <trkpt lat="45.98376" lon="6.57131">
        <ele>2261.16</ele>
        <time>2019-02-16T08:27:05Z</time>
      </trkpt>
      <trkpt lat="45.98375" lon="6.57131">
        <ele>2261.64</ele>
        <time>2019-02-16T08:27:06Z</time>
      </trkpt>
      <trkpt lat="45.98374" lon="6.57132">
        <ele>2261.64</ele>
        <time>2019-02-16T08:27:07Z</time>
      </trkpt>
      <trkpt lat="45.98372" lon="6.57133">
        <ele>2261.64</ele>
        <time>2019-02-16T08:27:08Z</time>
      </trkpt>
      <trkpt lat="45.98371" lon="6.57133">
        <ele>2261.64</ele>
        <time>2019-02-16T08:27:09Z</time>
      </trkpt>
      <trkpt lat="45.98371" lon="6.57134">
        <ele>2261.64</ele>
        <time>2019-02-16T08:27:10Z</time>
      </trkpt>
      <trkpt lat="45.98365" lon="6.57136">
        <ele>2262.6</ele>
        <time>2019-02-16T08:27:17Z</time>
      </trkpt>
      <trkpt lat="45.98364" lon="6.57137">
        <ele>2262.6</ele>
        <time>2019-02-16T08:27:18Z</time>
      </trkpt>
      <trkpt lat="45.98356" lon="6.57142">
        <ele>2264.04</ele>
        <time>2019-02-16T08:27:28Z</time>
      </trkpt>
      <trkpt lat="45.98355" lon="6.57143">
        <ele>2264.52</ele>
        <time>2019-02-16T08:27:29Z</time>
      </trkpt>
      <trkpt lat="45.98354" lon="6.57143">
        <ele>2264.52</ele>
        <time>2019-02-16T08:27:30Z</time>
      </trkpt>
      <trkpt lat="45.98353" lon="6.57144">
        <ele>2264.52</ele>
        <time>2019-02-16T08:27:31Z</time>
      </trkpt>
      <trkpt lat="45.98348" lon="6.57147">
        <ele>2265.48</ele>
        <time>2019-02-16T08:27:37Z</time>
      </trkpt>
      <trkpt lat="45.98347" lon="6.57148">
        <ele>2265.48</ele>
        <time>2019-02-16T08:27:39Z</time>
      </trkpt>
      <trkpt lat="45.98346" lon="6.57148">
        <ele>2265.48</ele>
        <time>2019-02-16T08:27:40Z</time>
      </trkpt>
      <trkpt lat="45.98345" lon="6.57149">
        <ele>2265.96</ele>
        <time>2019-02-16T08:27:41Z</time>
      </trkpt>
      <trkpt lat="45.98344" lon="6.57149">
        <ele>2265.96</ele>
        <time>2019-02-16T08:27:42Z</time>
      </trkpt>
      <trkpt lat="45.98343" lon="6.5715">
        <ele>2265.96</ele>
        <time>2019-02-16T08:27:43Z</time>
      </trkpt>
      <trkpt lat="45.98332" lon="6.57158">
        <ele>2267.41</ele>
        <time>2019-02-16T08:27:56Z</time>
      </trkpt>
      <trkpt lat="45.98331" lon="6.57159">
        <ele>2267.89</ele>
        <time>2019-02-16T08:27:57Z</time>
      </trkpt>
      <trkpt lat="45.98291" lon="6.57182">
        <ele>2267.89</ele>
        <time>2019-02-16T08:29:44Z</time>
      </trkpt>
      <trkpt lat="45.98281" lon="6.57197">
        <ele>2268.37</ele>
        <time>2019-02-16T08:30:09Z</time>
      </trkpt>
      <trkpt lat="45.9828" lon="6.57203">
        <ele>2269.81</ele>
        <time>2019-02-16T08:30:15Z</time>
      </trkpt>
      <trkpt lat="45.98278" lon="6.57213">
        <ele>2271.25</ele>
        <time>2019-02-16T08:30:25Z</time>
      </trkpt>
      <trkpt lat="45.98268" lon="6.5723">
        <ele>2274.62</ele>
        <time>2019-02-16T08:30:44Z</time>
      </trkpt>
      <trkpt lat="45.98267" lon="6.57234">
        <ele>2274.62</ele>
        <time>2019-02-16T08:30:47Z</time>
      </trkpt>
      <trkpt lat="45.98266" lon="6.57236">
        <ele>2275.1</ele>
        <time>2019-02-16T08:30:49Z</time>
      </trkpt>
      <trkpt lat="45.98266" lon="6.57237">
        <ele>2275.1</ele>
        <time>2019-02-16T08:30:50Z</time>
      </trkpt>
      <trkpt lat="45.98242" lon="6.57268">
        <ele>2277.98</ele>
        <time>2019-02-16T08:31:22Z</time>
      </trkpt>
      <trkpt lat="45.98222" lon="6.57287">
        <ele>2280.38</ele>
        <time>2019-02-16T08:31:43Z</time>
      </trkpt>
      <trkpt lat="45.98212" lon="6.57301">
        <ele>2280.87</ele>
        <time>2019-02-16T08:31:55Z</time>
      </trkpt>
      <trkpt lat="45.98212" lon="6.57305">
        <ele>2281.35</ele>
        <time>2019-02-16T08:31:58Z</time>
      </trkpt>
      <trkpt lat="45.98212" lon="6.57306">
        <ele>2281.83</ele>
        <time>2019-02-16T08:31:59Z</time>
      </trkpt>
      <trkpt lat="45.98205" lon="6.57322">
        <ele>2281.83</ele>
        <time>2019-02-16T08:32:10Z</time>
      </trkpt>
      <trkpt lat="45.98204" lon="6.57323">
        <ele>2281.83</ele>
        <time>2019-02-16T08:32:11Z</time>
      </trkpt>
      <trkpt lat="45.98204" lon="6.57324">
        <ele>2281.83</ele>
        <time>2019-02-16T08:32:12Z</time>
      </trkpt>
      <trkpt lat="45.98203" lon="6.57325">
        <ele>2281.83</ele>
        <time>2019-02-16T08:32:13Z</time>
      </trkpt>
      <trkpt lat="45.98202" lon="6.57326">
        <ele>2281.83</ele>
        <time>2019-02-16T08:32:14Z</time>
      </trkpt>
      <trkpt lat="45.98201" lon="6.57328">
        <ele>2282.31</ele>
        <time>2019-02-16T08:32:16Z</time>
      </trkpt>
      <trkpt lat="45.98199" lon="6.57334">
        <ele>2283.27</ele>
        <time>2019-02-16T08:32:21Z</time>
      </trkpt>
      <trkpt lat="45.98198" lon="6.57335">
        <ele>2283.27</ele>
        <time>2019-02-16T08:32:22Z</time>
      </trkpt>
      <trkpt lat="45.98187" lon="6.57351">
        <ele>2286.63</ele>
        <time>2019-02-16T08:32:38Z</time>
      </trkpt>
      <trkpt lat="45.98173" lon="6.5736">
        <ele>2289.52</ele>
        <time>2019-02-16T08:32:53Z</time>
      </trkpt>
      <trkpt lat="45.98161" lon="6.57365">
        <ele>2292.88</ele>
        <time>2019-02-16T08:33:09Z</time>
      </trkpt>
      <trkpt lat="45.9816" lon="6.57371">
        <ele>2293.36</ele>
        <time>2019-02-16T08:33:12Z</time>
      </trkpt>
      <trkpt lat="45.9816" lon="6.57372">
        <ele>2293.84</ele>
        <time>2019-02-16T08:33:14Z</time>
      </trkpt>
      <trkpt lat="45.98166" lon="6.57376">
        <ele>2297.21</ele>
        <time>2019-02-16T08:33:28Z</time>
      </trkpt>
      <trkpt lat="45.98168" lon="6.57378">
        <ele>2300.09</ele>
        <time>2019-02-16T08:33:46Z</time>
      </trkpt>
      <trkpt lat="45.98154" lon="6.57382">
        <ele>2302.49</ele>
        <time>2019-02-16T08:34:03Z</time>
      </trkpt>
      <trkpt lat="45.98154" lon="6.57382">
        <ele>2302.49</ele>
        <time>2019-02-16T08:34:04Z</time>
      </trkpt>
      <trkpt lat="45.98152" lon="6.57382">
        <ele>2302.98</ele>
        <time>2019-02-16T08:34:05Z</time>
      </trkpt>
      <trkpt lat="45.98149" lon="6.57382">
        <ele>2302.98</ele>
        <time>2019-02-16T08:34:09Z</time>
      </trkpt>
      <trkpt lat="45.98147" lon="6.57383">
        <ele>2303.46</ele>
        <time>2019-02-16T08:34:10Z</time>
      </trkpt>
      <trkpt lat="45.98133" lon="6.57394">
        <ele>2306.82</ele>
        <time>2019-02-16T08:34:30Z</time>
      </trkpt>
      <trkpt lat="45.98128" lon="6.57406">
        <ele>2307.3</ele>
        <time>2019-02-16T08:34:52Z</time>
      </trkpt>
      <trkpt lat="45.98126" lon="6.57403">
        <ele>2306.82</ele>
        <time>2019-02-16T08:35:06Z</time>
      </trkpt>
      <trkpt lat="45.98124" lon="6.57406">
        <ele>2306.82</ele>
        <time>2019-02-16T08:35:16Z</time>
      </trkpt>
      <trkpt lat="45.98122" lon="6.5741">
        <ele>2306.82</ele>
        <time>2019-02-16T08:35:28Z</time>
      </trkpt>
      <trkpt lat="45.98123" lon="6.5741">
        <ele>2306.82</ele>
        <time>2019-02-16T08:35:36Z</time>
      </trkpt>
      <trkpt lat="45.98127" lon="6.57404">
        <ele>2306.34</ele>
        <time>2019-02-16T08:35:46Z</time>
      </trkpt>
      <trkpt lat="45.98127" lon="6.57401">
        <ele>2306.82</ele>
        <time>2019-02-16T08:36:00Z</time>
      </trkpt>
      <trkpt lat="45.98127" lon="6.57399">
        <ele>2306.82</ele>
        <time>2019-02-16T08:36:28Z</time>
      </trkpt>
      <trkpt lat="45.98125" lon="6.57393">
        <ele>2306.82</ele>
        <time>2019-02-16T08:36:37Z</time>
      </trkpt>
      <trkpt lat="45.98123" lon="6.57395">
        <ele>2306.82</ele>
        <time>2019-02-16T08:37:36Z</time>
      </trkpt>
      <trkpt lat="45.9813" lon="6.57399">
        <ele>2306.82</ele>
        <time>2019-02-16T08:39:00Z</time>
      </trkpt>
      <trkpt lat="45.9813" lon="6.574">
        <ele>2306.82</ele>
        <time>2019-02-16T08:39:01Z</time>
      </trkpt>
      <trkpt lat="45.98137" lon="6.57408">
        <ele>2306.34</ele>
        <time>2019-02-16T08:39:27Z</time>
      </trkpt>
      <trkpt lat="45.98136" lon="6.57404">
        <ele>2306.82</ele>
        <time>2019-02-16T08:39:49Z</time>
      </trkpt>
      <trkpt lat="45.98135" lon="6.57405">
        <ele>2306.82</ele>
        <time>2019-02-16T08:39:59Z</time>
      </trkpt>
      <trkpt lat="45.98137" lon="6.57406">
        <ele>2306.82</ele>
        <time>2019-02-16T08:40:40Z</time>
      </trkpt>
      <trkpt lat="45.98128" lon="6.5741">
        <ele>2306.82</ele>
        <time>2019-02-16T08:41:17Z</time>
      </trkpt>
      <trkpt lat="45.98127" lon="6.57411">
        <ele>2306.82</ele>
        <time>2019-02-16T08:41:18Z</time>
      </trkpt>
      <trkpt lat="45.98125" lon="6.57413">
        <ele>2306.82</ele>
        <time>2019-02-16T08:41:19Z</time>
      </trkpt>
      <trkpt lat="45.9812" lon="6.57432">
        <ele>2305.38</ele>
        <time>2019-02-16T08:41:24Z</time>
      </trkpt>
      <trkpt lat="45.98116" lon="6.57445">
        <ele>2302.98</ele>
        <time>2019-02-16T08:41:27Z</time>
      </trkpt>
      <trkpt lat="45.98117" lon="6.5745">
        <ele>2302.49</ele>
        <time>2019-02-16T08:41:28Z</time>
      </trkpt>
      <trkpt lat="45.98118" lon="6.57455">
        <ele>2302.01</ele>
        <time>2019-02-16T08:41:29Z</time>
      </trkpt>
      <trkpt lat="45.98118" lon="6.57459">
        <ele>2301.53</ele>
        <time>2019-02-16T08:41:30Z</time>
      </trkpt>
      <trkpt lat="45.98121" lon="6.57463">
        <ele>2301.05</ele>
        <time>2019-02-16T08:41:31Z</time>
      </trkpt>
      <trkpt lat="45.98122" lon="6.57468">
        <ele>2300.57</ele>
        <time>2019-02-16T08:41:32Z</time>
      </trkpt>
      <trkpt lat="45.98121" lon="6.57473">
        <ele>2300.09</ele>
        <time>2019-02-16T08:41:33Z</time>
      </trkpt>
      <trkpt lat="45.98119" lon="6.57476">
        <ele>2298.65</ele>
        <time>2019-02-16T08:41:34Z</time>
      </trkpt>
      <trkpt lat="45.98118" lon="6.5748">
        <ele>2297.21</ele>
        <time>2019-02-16T08:41:35Z</time>
      </trkpt>
      <trkpt lat="45.98118" lon="6.57484">
        <ele>2296.25</ele>
        <time>2019-02-16T08:41:36Z</time>
      </trkpt>
      <trkpt lat="45.98119" lon="6.57487">
        <ele>2294.8</ele>
        <time>2019-02-16T08:41:37Z</time>
      </trkpt>
      <trkpt lat="45.98118" lon="6.57489">
        <ele>2293.84</ele>
        <time>2019-02-16T08:41:38Z</time>
      </trkpt>
      <trkpt lat="45.98118" lon="6.57492">
        <ele>2293.36</ele>
        <time>2019-02-16T08:41:39Z</time>
      </trkpt>
      <trkpt lat="45.98114" lon="6.57494">
        <ele>2292.4</ele>
        <time>2019-02-16T08:41:40Z</time>
      </trkpt>
      <trkpt lat="45.9811" lon="6.57495">
        <ele>2290.96</ele>
        <time>2019-02-16T08:41:41Z</time>
      </trkpt>
      <trkpt lat="45.98107" lon="6.57496">
        <ele>2289.04</ele>
        <time>2019-02-16T08:41:42Z</time>
      </trkpt>
      <trkpt lat="45.98106" lon="6.575">
        <ele>2287.59</ele>
        <time>2019-02-16T08:41:43Z</time>
      </trkpt>
      <trkpt lat="45.98101" lon="6.57503">
        <ele>2285.19</ele>
        <time>2019-02-16T08:41:44Z</time>
      </trkpt>
      <trkpt lat="45.98098" lon="6.57504">
        <ele>2282.79</ele>
        <time>2019-02-16T08:41:45Z</time>
      </trkpt>
      <trkpt lat="45.98096" lon="6.57507">
        <ele>2279.9</ele>
        <time>2019-02-16T08:41:46Z</time>
      </trkpt>
      <trkpt lat="45.98092" lon="6.57512">
        <ele>2277.02</ele>
        <time>2019-02-16T08:41:47Z</time>
      </trkpt>
      <trkpt lat="45.9809" lon="6.57515">
        <ele>2274.14</ele>
        <time>2019-02-16T08:41:48Z</time>
      </trkpt>
      <trkpt lat="45.98088" lon="6.57518">
        <ele>2270.77</ele>
        <time>2019-02-16T08:41:49Z</time>
      </trkpt>
      <trkpt lat="45.98087" lon="6.57524">
        <ele>2268.37</ele>
        <time>2019-02-16T08:41:50Z</time>
      </trkpt>
      <trkpt lat="45.98084" lon="6.57526">
        <ele>2265</ele>
        <time>2019-02-16T08:41:51Z</time>
      </trkpt>
      <trkpt lat="45.98081" lon="6.57528">
        <ele>2262.12</ele>
        <time>2019-02-16T08:41:52Z</time>
      </trkpt>
      <trkpt lat="45.98081" lon="6.57534">
        <ele>2260.2</ele>
        <time>2019-02-16T08:41:53Z</time>
      </trkpt>
      <trkpt lat="45.98079" lon="6.57539">
        <ele>2257.79</ele>
        <time>2019-02-16T08:41:54Z</time>
      </trkpt>
      <trkpt lat="45.98075" lon="6.5754">
        <ele>2252.99</ele>
        <time>2019-02-16T08:41:55Z</time>
      </trkpt>
      <trkpt lat="45.98073" lon="6.57542">
        <ele>2251.54</ele>
        <time>2019-02-16T08:41:56Z</time>
      </trkpt>
      <trkpt lat="45.98073" lon="6.57545">
        <ele>2249.14</ele>
        <time>2019-02-16T08:41:57Z</time>
      </trkpt>
      <trkpt lat="45.98072" lon="6.57549">
        <ele>2248.18</ele>
        <time>2019-02-16T08:41:58Z</time>
      </trkpt>
      <trkpt lat="45.98069" lon="6.57551">
        <ele>2245.3</ele>
        <time>2019-02-16T08:41:59Z</time>
      </trkpt>
      <trkpt lat="45.98066" lon="6.57554">
        <ele>2241.93</ele>
        <time>2019-02-16T08:42:00Z</time>
      </trkpt>
      <trkpt lat="45.98065" lon="6.57559">
        <ele>2239.05</ele>
        <time>2019-02-16T08:42:01Z</time>
      </trkpt>
      <trkpt lat="45.98062" lon="6.57563">
        <ele>2236.16</ele>
        <time>2019-02-16T08:42:02Z</time>
      </trkpt>
      <trkpt lat="45.98059" lon="6.57563">
        <ele>2233.28</ele>
        <time>2019-02-16T08:42:03Z</time>
      </trkpt>
      <trkpt lat="45.98056" lon="6.57566">
        <ele>2230.88</ele>
        <time>2019-02-16T08:42:04Z</time>
      </trkpt>
      <trkpt lat="45.98057" lon="6.57571">
        <ele>2228.95</ele>
        <time>2019-02-16T08:42:05Z</time>
      </trkpt>
      <trkpt lat="45.98055" lon="6.57577">
        <ele>2227.51</ele>
        <time>2019-02-16T08:42:06Z</time>
      </trkpt>
      <trkpt lat="45.98052" lon="6.5758">
        <ele>2223.67</ele>
        <time>2019-02-16T08:42:07Z</time>
      </trkpt>
      <trkpt lat="45.98046" lon="6.57581">
        <ele>2220.78</ele>
        <time>2019-02-16T08:42:08Z</time>
      </trkpt>
      <trkpt lat="45.9804" lon="6.57583">
        <ele>2218.38</ele>
        <time>2019-02-16T08:42:09Z</time>
      </trkpt>
      <trkpt lat="45.98038" lon="6.57587">
        <ele>2216.94</ele>
        <time>2019-02-16T08:42:10Z</time>
      </trkpt>
      <trkpt lat="45.98036" lon="6.57593">
        <ele>2215.5</ele>
        <time>2019-02-16T08:42:11Z</time>
      </trkpt>
      <trkpt lat="45.98032" lon="6.57596">
        <ele>2211.65</ele>
        <time>2019-02-16T08:42:12Z</time>
      </trkpt>
      <trkpt lat="45.98029" lon="6.57599">
        <ele>2208.29</ele>
        <time>2019-02-16T08:42:13Z</time>
      </trkpt>
      <trkpt lat="45.98028" lon="6.57605">
        <ele>2205.88</ele>
        <time>2019-02-16T08:42:14Z</time>
      </trkpt>
      <trkpt lat="45.98023" lon="6.57611">
        <ele>2203</ele>
        <time>2019-02-16T08:42:15Z</time>
      </trkpt>
      <trkpt lat="45.98019" lon="6.57613">
        <ele>2200.59</ele>
        <time>2019-02-16T08:42:16Z</time>
      </trkpt>
      <trkpt lat="45.98014" lon="6.57614">
        <ele>2199.15</ele>
        <time>2019-02-16T08:42:17Z</time>
      </trkpt>
      <trkpt lat="45.9801" lon="6.57619">
        <ele>2196.27</ele>
        <time>2019-02-16T08:42:18Z</time>
      </trkpt>
      <trkpt lat="45.98013" lon="6.57622">
        <ele>2194.83</ele>
        <time>2019-02-16T08:42:19Z</time>
      </trkpt>
      <trkpt lat="45.98015" lon="6.57628">
        <ele>2193.39</ele>
        <time>2019-02-16T08:42:20Z</time>
      </trkpt>
      <trkpt lat="45.9802" lon="6.57629">
        <ele>2191.94</ele>
        <time>2019-02-16T08:42:21Z</time>
      </trkpt>
      <trkpt lat="45.98023" lon="6.57631">
        <ele>2190.5</ele>
        <time>2019-02-16T08:42:22Z</time>
      </trkpt>
      <trkpt lat="45.98025" lon="6.57636">
        <ele>2188.58</ele>
        <time>2019-02-16T08:42:24Z</time>
      </trkpt>
      <trkpt lat="45.98023" lon="6.57635">
        <ele>2187.62</ele>
        <time>2019-02-16T08:42:25Z</time>
      </trkpt>
      <trkpt lat="45.9802" lon="6.57634">
        <ele>2186.18</ele>
        <time>2019-02-16T08:42:26Z</time>
      </trkpt>
      <trkpt lat="45.98017" lon="6.57634">
        <ele>2184.25</ele>
        <time>2019-02-16T08:42:27Z</time>
      </trkpt>
      <trkpt lat="45.98015" lon="6.57637">
        <ele>2182.81</ele>
        <time>2019-02-16T08:42:28Z</time>
      </trkpt>
      <trkpt lat="45.98012" lon="6.57637">
        <ele>2181.85</ele>
        <time>2019-02-16T08:42:29Z</time>
      </trkpt>
      <trkpt lat="45.98008" lon="6.57637">
        <ele>2178.97</ele>
        <time>2019-02-16T08:42:30Z</time>
      </trkpt>
      <trkpt lat="45.98003" lon="6.57636">
        <ele>2177.04</ele>
        <time>2019-02-16T08:42:31Z</time>
      </trkpt>
      <trkpt lat="45.97985" lon="6.57629">
        <ele>2174.16</ele>
        <time>2019-02-16T08:42:35Z</time>
      </trkpt>
      <trkpt lat="45.97977" lon="6.57634">
        <ele>2172.24</ele>
        <time>2019-02-16T08:42:37Z</time>
      </trkpt>
      <trkpt lat="45.97975" lon="6.57638">
        <ele>2170.31</ele>
        <time>2019-02-16T08:42:38Z</time>
      </trkpt>
      <trkpt lat="45.97973" lon="6.57641">
        <ele>2167.43</ele>
        <time>2019-02-16T08:42:39Z</time>
      </trkpt>
      <trkpt lat="45.97971" lon="6.57644">
        <ele>2165.51</ele>
        <time>2019-02-16T08:42:40Z</time>
      </trkpt>
      <trkpt lat="45.97975" lon="6.57644">
        <ele>2164.55</ele>
        <time>2019-02-16T08:42:41Z</time>
      </trkpt>
      <trkpt lat="45.97972" lon="6.57651">
        <ele>2163.1</ele>
        <time>2019-02-16T08:42:42Z</time>
      </trkpt>
      <trkpt lat="45.97969" lon="6.57655">
        <ele>2160.7</ele>
        <time>2019-02-16T08:42:43Z</time>
      </trkpt>
      <trkpt lat="45.97967" lon="6.57656">
        <ele>2158.78</ele>
        <time>2019-02-16T08:42:44Z</time>
      </trkpt>
      <trkpt lat="45.97963" lon="6.57657">
        <ele>2156.86</ele>
        <time>2019-02-16T08:42:45Z</time>
      </trkpt>
      <trkpt lat="45.9796" lon="6.57658">
        <ele>2155.89</ele>
        <time>2019-02-16T08:42:46Z</time>
      </trkpt>
      <trkpt lat="45.97958" lon="6.57658">
        <ele>2155.41</ele>
        <time>2019-02-16T08:42:47Z</time>
      </trkpt>
      <trkpt lat="45.97955" lon="6.5766">
        <ele>2154.93</ele>
        <time>2019-02-16T08:42:48Z</time>
      </trkpt>
      <trkpt lat="45.97948" lon="6.57669">
        <ele>2154.45</ele>
        <time>2019-02-16T08:42:49Z</time>
      </trkpt>
      <trkpt lat="45.97947" lon="6.57672">
        <ele>2153.97</ele>
        <time>2019-02-16T08:42:50Z</time>
      </trkpt>
      <trkpt lat="45.97947" lon="6.57677">
        <ele>2152.53</ele>
        <time>2019-02-16T08:42:51Z</time>
      </trkpt>
      <trkpt lat="45.97947" lon="6.57681">
        <ele>2151.57</ele>
        <time>2019-02-16T08:42:52Z</time>
      </trkpt>
      <trkpt lat="45.97943" lon="6.57687">
        <ele>2150.61</ele>
        <time>2019-02-16T08:42:53Z</time>
      </trkpt>
      <trkpt lat="45.97939" lon="6.57691">
        <ele>2148.68</ele>
        <time>2019-02-16T08:42:54Z</time>
      </trkpt>
      <trkpt lat="45.97936" lon="6.57691">
        <ele>2147.24</ele>
        <time>2019-02-16T08:42:55Z</time>
      </trkpt>
      <trkpt lat="45.97932" lon="6.57691">
        <ele>2146.28</ele>
        <time>2019-02-16T08:42:56Z</time>
      </trkpt>
      <trkpt lat="45.97925" lon="6.57697">
        <ele>2145.32</ele>
        <time>2019-02-16T08:42:57Z</time>
      </trkpt>
      <trkpt lat="45.97918" lon="6.57708">
        <ele>2144.36</ele>
        <time>2019-02-16T08:42:58Z</time>
      </trkpt>
      <trkpt lat="45.97919" lon="6.57712">
        <ele>2143.4</ele>
        <time>2019-02-16T08:42:59Z</time>
      </trkpt>
      <trkpt lat="45.97919" lon="6.57719">
        <ele>2141.95</ele>
        <time>2019-02-16T08:43:00Z</time>
      </trkpt>
      <trkpt lat="45.97915" lon="6.57724">
        <ele>2140.51</ele>
        <time>2019-02-16T08:43:01Z</time>
      </trkpt>
      <trkpt lat="45.97913" lon="6.57725">
        <ele>2139.07</ele>
        <time>2019-02-16T08:43:02Z</time>
      </trkpt>
      <trkpt lat="45.97911" lon="6.57728">
        <ele>2136.67</ele>
        <time>2019-02-16T08:43:03Z</time>
      </trkpt>
      <trkpt lat="45.97912" lon="6.57731">
        <ele>2134.74</ele>
        <time>2019-02-16T08:43:04Z</time>
      </trkpt>
      <trkpt lat="45.9791" lon="6.57735">
        <ele>2132.82</ele>
        <time>2019-02-16T08:43:05Z</time>
      </trkpt>
      <trkpt lat="45.97906" lon="6.57738">
        <ele>2131.38</ele>
        <time>2019-02-16T08:43:06Z</time>
      </trkpt>
      <trkpt lat="45.97906" lon="6.57741">
        <ele>2129.46</ele>
        <time>2019-02-16T08:43:07Z</time>
      </trkpt>
      <trkpt lat="45.97907" lon="6.57744">
        <ele>2127.05</ele>
        <time>2019-02-16T08:43:08Z</time>
      </trkpt>
      <trkpt lat="45.97905" lon="6.57747">
        <ele>2126.09</ele>
        <time>2019-02-16T08:43:09Z</time>
      </trkpt>
      <trkpt lat="45.97911" lon="6.57745">
        <ele>2124.17</ele>
        <time>2019-02-16T08:43:10Z</time>
      </trkpt>
      <trkpt lat="45.97912" lon="6.57746">
        <ele>2122.73</ele>
        <time>2019-02-16T08:43:11Z</time>
      </trkpt>
      <trkpt lat="45.9791" lon="6.57747">
        <ele>2118.4</ele>
        <time>2019-02-16T08:43:14Z</time>
      </trkpt>
      <trkpt lat="45.97909" lon="6.57745">
        <ele>2117.44</ele>
        <time>2019-02-16T08:43:15Z</time>
      </trkpt>
      <trkpt lat="45.97899" lon="6.57742">
        <ele>2114.56</ele>
        <time>2019-02-16T08:43:18Z</time>
      </trkpt>
      <trkpt lat="45.97889" lon="6.57748">
        <ele>2112.63</ele>
        <time>2019-02-16T08:43:21Z</time>
      </trkpt>
      <trkpt lat="45.97888" lon="6.57753">
        <ele>2111.19</ele>
        <time>2019-02-16T08:43:22Z</time>
      </trkpt>
      <trkpt lat="45.97889" lon="6.57759">
        <ele>2109.75</ele>
        <time>2019-02-16T08:43:23Z</time>
      </trkpt>
      <trkpt lat="45.97884" lon="6.57766">
        <ele>2108.31</ele>
        <time>2019-02-16T08:43:24Z</time>
      </trkpt>
      <trkpt lat="45.97883" lon="6.57768">
        <ele>2105.91</ele>
        <time>2019-02-16T08:43:25Z</time>
      </trkpt>
      <trkpt lat="45.97883" lon="6.57772">
        <ele>2103.98</ele>
        <time>2019-02-16T08:43:26Z</time>
      </trkpt>
      <trkpt lat="45.97883" lon="6.57777">
        <ele>2101.58</ele>
        <time>2019-02-16T08:43:27Z</time>
      </trkpt>
      <trkpt lat="45.97884" lon="6.57777">
        <ele>2099.18</ele>
        <time>2019-02-16T08:43:28Z</time>
      </trkpt>
      <trkpt lat="45.97886" lon="6.57777">
        <ele>2096.29</ele>
        <time>2019-02-16T08:43:29Z</time>
      </trkpt>
      <trkpt lat="45.97885" lon="6.57783">
        <ele>2093.89</ele>
        <time>2019-02-16T08:43:30Z</time>
      </trkpt>
      <trkpt lat="45.97883" lon="6.57784">
        <ele>2091</ele>
        <time>2019-02-16T08:43:31Z</time>
      </trkpt>
      <trkpt lat="45.9789" lon="6.57775">
        <ele>2088.6</ele>
        <time>2019-02-16T08:43:32Z</time>
      </trkpt>
      <trkpt lat="45.97894" lon="6.57773">
        <ele>2084.28</ele>
        <time>2019-02-16T08:43:34Z</time>
      </trkpt>
      <trkpt lat="45.97892" lon="6.57773">
        <ele>2081.87</ele>
        <time>2019-02-16T08:43:35Z</time>
      </trkpt>
      <trkpt lat="45.97895" lon="6.57769">
        <ele>2078.99</ele>
        <time>2019-02-16T08:43:36Z</time>
      </trkpt>
      <trkpt lat="45.97896" lon="6.57769">
        <ele>2077.07</ele>
        <time>2019-02-16T08:43:37Z</time>
      </trkpt>
      <trkpt lat="45.97897" lon="6.57773">
        <ele>2074.66</ele>
        <time>2019-02-16T08:43:38Z</time>
      </trkpt>
      <trkpt lat="45.97898" lon="6.57778">
        <ele>2073.22</ele>
        <time>2019-02-16T08:43:39Z</time>
      </trkpt>
      <trkpt lat="45.97895" lon="6.5778">
        <ele>2072.26</ele>
        <time>2019-02-16T08:43:40Z</time>
      </trkpt>
      <trkpt lat="45.97891" lon="6.5778">
        <ele>2069.38</ele>
        <time>2019-02-16T08:43:41Z</time>
      </trkpt>
      <trkpt lat="45.97888" lon="6.57778">
        <ele>2068.41</ele>
        <time>2019-02-16T08:43:42Z</time>
      </trkpt>
      <trkpt lat="45.97885" lon="6.57777">
        <ele>2067.45</ele>
        <time>2019-02-16T08:43:43Z</time>
      </trkpt>
      <trkpt lat="45.97884" lon="6.5778">
        <ele>2066.49</ele>
        <time>2019-02-16T08:43:44Z</time>
      </trkpt>
      <trkpt lat="45.97884" lon="6.57785">
        <ele>2065.53</ele>
        <time>2019-02-16T08:43:45Z</time>
      </trkpt>
      <trkpt lat="45.97881" lon="6.5779">
        <ele>2063.13</ele>
        <time>2019-02-16T08:43:46Z</time>
      </trkpt>
      <trkpt lat="45.97879" lon="6.57793">
        <ele>2061.2</ele>
        <time>2019-02-16T08:43:47Z</time>
      </trkpt>
      <trkpt lat="45.9788" lon="6.57797">
        <ele>2059.28</ele>
        <time>2019-02-16T08:43:48Z</time>
      </trkpt>
      <trkpt lat="45.97879" lon="6.57801">
        <ele>2058.32</ele>
        <time>2019-02-16T08:43:49Z</time>
      </trkpt>
      <trkpt lat="45.97877" lon="6.57804">
        <ele>2055.92</ele>
        <time>2019-02-16T08:43:50Z</time>
      </trkpt>
      <trkpt lat="45.97875" lon="6.57806">
        <ele>2053.99</ele>
        <time>2019-02-16T08:43:51Z</time>
      </trkpt>
      <trkpt lat="45.97873" lon="6.57808">
        <ele>2052.55</ele>
        <time>2019-02-16T08:43:52Z</time>
      </trkpt>
      <trkpt lat="45.97871" lon="6.5781">
        <ele>2050.63</ele>
        <time>2019-02-16T08:43:53Z</time>
      </trkpt>
      <trkpt lat="45.9787" lon="6.57815">
        <ele>2048.23</ele>
        <time>2019-02-16T08:43:54Z</time>
      </trkpt>
      <trkpt lat="45.97869" lon="6.57819">
        <ele>2046.3</ele>
        <time>2019-02-16T08:43:55Z</time>
      </trkpt>
      <trkpt lat="45.97865" lon="6.57822">
        <ele>2044.86</ele>
        <time>2019-02-16T08:43:56Z</time>
      </trkpt>
      <trkpt lat="45.97861" lon="6.57821">
        <ele>2042.94</ele>
        <time>2019-02-16T08:43:57Z</time>
      </trkpt>
      <trkpt lat="45.97859" lon="6.57822">
        <ele>2041.02</ele>
        <time>2019-02-16T08:43:58Z</time>
      </trkpt>
      <trkpt lat="45.97856" lon="6.57826">
        <ele>2039.09</ele>
        <time>2019-02-16T08:43:59Z</time>
      </trkpt>
      <trkpt lat="45.97853" lon="6.57832">
        <ele>2036.69</ele>
        <time>2019-02-16T08:44:00Z</time>
      </trkpt>
      <trkpt lat="45.9785" lon="6.57837">
        <ele>2035.25</ele>
        <time>2019-02-16T08:44:01Z</time>
      </trkpt>
      <trkpt lat="45.9785" lon="6.57842">
        <ele>2031.88</ele>
        <time>2019-02-16T08:44:02Z</time>
      </trkpt>
      <trkpt lat="45.97846" lon="6.57846">
        <ele>2029.96</ele>
        <time>2019-02-16T08:44:03Z</time>
      </trkpt>
      <trkpt lat="45.97842" lon="6.57847">
        <ele>2028.04</ele>
        <time>2019-02-16T08:44:04Z</time>
      </trkpt>
      <trkpt lat="45.97839" lon="6.57849">
        <ele>2026.12</ele>
        <time>2019-02-16T08:44:05Z</time>
      </trkpt>
      <trkpt lat="45.97837" lon="6.57852">
        <ele>2024.19</ele>
        <time>2019-02-16T08:44:06Z</time>
      </trkpt>
      <trkpt lat="45.97837" lon="6.57858">
        <ele>2022.27</ele>
        <time>2019-02-16T08:44:07Z</time>
      </trkpt>
      <trkpt lat="45.97834" lon="6.57862">
        <ele>2020.83</ele>
        <time>2019-02-16T08:44:08Z</time>
      </trkpt>
      <trkpt lat="45.97831" lon="6.57864">
        <ele>2018.91</ele>
        <time>2019-02-16T08:44:09Z</time>
      </trkpt>
      <trkpt lat="45.97829" lon="6.57868">
        <ele>2016.98</ele>
        <time>2019-02-16T08:44:10Z</time>
      </trkpt>
      <trkpt lat="45.97829" lon="6.57874">
        <ele>2016.02</ele>
        <time>2019-02-16T08:44:11Z</time>
      </trkpt>
      <trkpt lat="45.97829" lon="6.57879">
        <ele>2014.58</ele>
        <time>2019-02-16T08:44:12Z</time>
      </trkpt>
      <trkpt lat="45.97827" lon="6.57884">
        <ele>2013.62</ele>
        <time>2019-02-16T08:44:13Z</time>
      </trkpt>
      <trkpt lat="45.97824" lon="6.57887">
        <ele>2011.7</ele>
        <time>2019-02-16T08:44:14Z</time>
      </trkpt>
      <trkpt lat="45.97823" lon="6.57892">
        <ele>2009.77</ele>
        <time>2019-02-16T08:44:15Z</time>
      </trkpt>
      <trkpt lat="45.97823" lon="6.57899">
        <ele>2007.85</ele>
        <time>2019-02-16T08:44:16Z</time>
      </trkpt>
      <trkpt lat="45.97823" lon="6.57905">
        <ele>2006.89</ele>
        <time>2019-02-16T08:44:17Z</time>
      </trkpt>
      <trkpt lat="45.97822" lon="6.57911">
        <ele>2005.93</ele>
        <time>2019-02-16T08:44:18Z</time>
      </trkpt>
      <trkpt lat="45.97819" lon="6.57915">
        <ele>2004.01</ele>
        <time>2019-02-16T08:44:19Z</time>
      </trkpt>
      <trkpt lat="45.97816" lon="6.57918">
        <ele>2002.56</ele>
        <time>2019-02-16T08:44:20Z</time>
      </trkpt>
      <trkpt lat="45.97812" lon="6.57921">
        <ele>2000.64</ele>
        <time>2019-02-16T08:44:21Z</time>
      </trkpt>
      <trkpt lat="45.97796" lon="6.57922">
        <ele>1999.2</ele>
        <time>2019-02-16T08:44:22Z</time>
      </trkpt>
      <trkpt lat="45.97791" lon="6.57926">
        <ele>1996.8</ele>
        <time>2019-02-16T08:44:23Z</time>
      </trkpt>
      <trkpt lat="45.97788" lon="6.5793">
        <ele>1994.87</ele>
        <time>2019-02-16T08:44:24Z</time>
      </trkpt>
      <trkpt lat="45.97785" lon="6.57935">
        <ele>1992.47</ele>
        <time>2019-02-16T08:44:25Z</time>
      </trkpt>
      <trkpt lat="45.97778" lon="6.57938">
        <ele>1990.07</ele>
        <time>2019-02-16T08:44:26Z</time>
      </trkpt>
      <trkpt lat="45.9776" lon="6.57937">
        <ele>1988.14</ele>
        <time>2019-02-16T08:44:27Z</time>
      </trkpt>
      <trkpt lat="45.97746" lon="6.57938">
        <ele>1984.78</ele>
        <time>2019-02-16T08:44:28Z</time>
      </trkpt>
      <trkpt lat="45.97739" lon="6.57937">
        <ele>1982.38</ele>
        <time>2019-02-16T08:44:29Z</time>
      </trkpt>
      <trkpt lat="45.97736" lon="6.5794">
        <ele>1980.93</ele>
        <time>2019-02-16T08:44:30Z</time>
      </trkpt>
      <trkpt lat="45.97734" lon="6.57946">
        <ele>1978.53</ele>
        <time>2019-02-16T08:44:31Z</time>
      </trkpt>
      <trkpt lat="45.9773" lon="6.5795">
        <ele>1976.61</ele>
        <time>2019-02-16T08:44:32Z</time>
      </trkpt>
      <trkpt lat="45.97725" lon="6.57952">
        <ele>1974.2</ele>
        <time>2019-02-16T08:44:33Z</time>
      </trkpt>
      <trkpt lat="45.9772" lon="6.57951">
        <ele>1973.24</ele>
        <time>2019-02-16T08:44:34Z</time>
      </trkpt>
      <trkpt lat="45.97716" lon="6.5795">
        <ele>1971.8</ele>
        <time>2019-02-16T08:44:35Z</time>
      </trkpt>
      <trkpt lat="45.97699" lon="6.57949">
        <ele>1969.4</ele>
        <time>2019-02-16T08:44:39Z</time>
      </trkpt>
      <trkpt lat="45.97692" lon="6.5795">
        <ele>1968.44</ele>
        <time>2019-02-16T08:44:41Z</time>
      </trkpt>
      <trkpt lat="45.97662" lon="6.57956">
        <ele>1965.55</ele>
        <time>2019-02-16T08:44:53Z</time>
      </trkpt>
      <trkpt lat="45.97647" lon="6.57963">
        <ele>1962.19</ele>
        <time>2019-02-16T08:45:01Z</time>
      </trkpt>
      <trkpt lat="45.97643" lon="6.57967">
        <ele>1961.71</ele>
        <time>2019-02-16T08:45:02Z</time>
      </trkpt>
      <trkpt lat="45.9764" lon="6.57973">
        <ele>1959.78</ele>
        <time>2019-02-16T08:45:03Z</time>
      </trkpt>
      <trkpt lat="45.97637" lon="6.57977">
        <ele>1957.86</ele>
        <time>2019-02-16T08:45:04Z</time>
      </trkpt>
      <trkpt lat="45.97634" lon="6.57978">
        <ele>1955.46</ele>
        <time>2019-02-16T08:45:05Z</time>
      </trkpt>
      <trkpt lat="45.97631" lon="6.57981">
        <ele>1954.02</ele>
        <time>2019-02-16T08:45:06Z</time>
      </trkpt>
      <trkpt lat="45.97629" lon="6.57987">
        <ele>1951.13</ele>
        <time>2019-02-16T08:45:07Z</time>
      </trkpt>
      <trkpt lat="45.97624" lon="6.57989">
        <ele>1948.25</ele>
        <time>2019-02-16T08:45:08Z</time>
      </trkpt>
      <trkpt lat="45.97607" lon="6.57992">
        <ele>1942.96</ele>
        <time>2019-02-16T08:45:10Z</time>
      </trkpt>
      <trkpt lat="45.97597" lon="6.57996">
        <ele>1941.04</ele>
        <time>2019-02-16T08:45:11Z</time>
      </trkpt>
      <trkpt lat="45.97591" lon="6.57999">
        <ele>1939.12</ele>
        <time>2019-02-16T08:45:12Z</time>
      </trkpt>
      <trkpt lat="45.97586" lon="6.58002">
        <ele>1934.79</ele>
        <time>2019-02-16T08:45:13Z</time>
      </trkpt>
      <trkpt lat="45.97581" lon="6.58008">
        <ele>1932.39</ele>
        <time>2019-02-16T08:45:14Z</time>
      </trkpt>
      <trkpt lat="45.97575" lon="6.58012">
        <ele>1929.02</ele>
        <time>2019-02-16T08:45:15Z</time>
      </trkpt>
      <trkpt lat="45.97571" lon="6.58017">
        <ele>1925.66</ele>
        <time>2019-02-16T08:45:16Z</time>
      </trkpt>
      <trkpt lat="45.97569" lon="6.58025">
        <ele>1922.77</ele>
        <time>2019-02-16T08:45:17Z</time>
      </trkpt>
      <trkpt lat="45.97566" lon="6.58031">
        <ele>1918.93</ele>
        <time>2019-02-16T08:45:18Z</time>
      </trkpt>
      <trkpt lat="45.97564" lon="6.58037">
        <ele>1916.53</ele>
        <time>2019-02-16T08:45:19Z</time>
      </trkpt>
      <trkpt lat="45.97559" lon="6.58044">
        <ele>1912.2</ele>
        <time>2019-02-16T08:45:20Z</time>
      </trkpt>
      <trkpt lat="45.97554" lon="6.58049">
        <ele>1908.35</ele>
        <time>2019-02-16T08:45:21Z</time>
      </trkpt>
      <trkpt lat="45.97549" lon="6.58053">
        <ele>1904.99</ele>
        <time>2019-02-16T08:45:22Z</time>
      </trkpt>
      <trkpt lat="45.97544" lon="6.58059">
        <ele>1901.14</ele>
        <time>2019-02-16T08:45:23Z</time>
      </trkpt>
      <trkpt lat="45.97541" lon="6.58067">
        <ele>1896.82</ele>
        <time>2019-02-16T08:45:24Z</time>
      </trkpt>
      <trkpt lat="45.97537" lon="6.58075">
        <ele>1892.49</ele>
        <time>2019-02-16T08:45:25Z</time>
      </trkpt>
      <trkpt lat="45.97533" lon="6.58083">
        <ele>1889.13</ele>
        <time>2019-02-16T08:45:26Z</time>
      </trkpt>
      <trkpt lat="45.97528" lon="6.58089">
        <ele>1885.76</ele>
        <time>2019-02-16T08:45:27Z</time>
      </trkpt>
      <trkpt lat="45.97522" lon="6.58093">
        <ele>1882.88</ele>
        <time>2019-02-16T08:45:28Z</time>
      </trkpt>
      <trkpt lat="45.97517" lon="6.58095">
        <ele>1878.55</ele>
        <time>2019-02-16T08:45:29Z</time>
      </trkpt>
      <trkpt lat="45.97513" lon="6.58099">
        <ele>1875.19</ele>
        <time>2019-02-16T08:45:30Z</time>
      </trkpt>
      <trkpt lat="45.97511" lon="6.581">
        <ele>1872.79</ele>
        <time>2019-02-16T08:45:31Z</time>
      </trkpt>
      <trkpt lat="45.97508" lon="6.58099">
        <ele>1870.38</ele>
        <time>2019-02-16T08:45:32Z</time>
      </trkpt>
      <trkpt lat="45.97506" lon="6.58096">
        <ele>1868.46</ele>
        <time>2019-02-16T08:45:33Z</time>
      </trkpt>
      <trkpt lat="45.97504" lon="6.58092">
        <ele>1867.02</ele>
        <time>2019-02-16T08:45:34Z</time>
      </trkpt>
      <trkpt lat="45.97503" lon="6.58091">
        <ele>1865.09</ele>
        <time>2019-02-16T08:45:37Z</time>
      </trkpt>
      <trkpt lat="45.97503" lon="6.58089">
        <ele>1865.09</ele>
        <time>2019-02-16T08:45:39Z</time>
      </trkpt>
      <trkpt lat="45.97502" lon="6.58088">
        <ele>1864.61</ele>
        <time>2019-02-16T08:45:40Z</time>
      </trkpt>
      <trkpt lat="45.975" lon="6.58088">
        <ele>1864.13</ele>
        <time>2019-02-16T08:45:41Z</time>
      </trkpt>
      <trkpt lat="45.97498" lon="6.58091">
        <ele>1862.69</ele>
        <time>2019-02-16T08:45:42Z</time>
      </trkpt>
      <trkpt lat="45.97496" lon="6.58093">
        <ele>1861.73</ele>
        <time>2019-02-16T08:45:43Z</time>
      </trkpt>
      <trkpt lat="45.97493" lon="6.58094">
        <ele>1858.85</ele>
        <time>2019-02-16T08:45:44Z</time>
      </trkpt>
      <trkpt lat="45.97491" lon="6.58095">
        <ele>1857.4</ele>
        <time>2019-02-16T08:45:45Z</time>
      </trkpt>
      <trkpt lat="45.9749" lon="6.58099">
        <ele>1855</ele>
        <time>2019-02-16T08:45:46Z</time>
      </trkpt>
      <trkpt lat="45.97489" lon="6.58104">
        <ele>1853.08</ele>
        <time>2019-02-16T08:45:47Z</time>
      </trkpt>
      <trkpt lat="45.97487" lon="6.58107">
        <ele>1851.64</ele>
        <time>2019-02-16T08:45:48Z</time>
      </trkpt>
      <trkpt lat="45.97483" lon="6.58108">
        <ele>1849.23</ele>
        <time>2019-02-16T08:45:49Z</time>
      </trkpt>
      <trkpt lat="45.97479" lon="6.5811">
        <ele>1847.79</ele>
        <time>2019-02-16T08:45:50Z</time>
      </trkpt>
      <trkpt lat="45.97475" lon="6.58111">
        <ele>1844.43</ele>
        <time>2019-02-16T08:45:51Z</time>
      </trkpt>
      <trkpt lat="45.9747" lon="6.58113">
        <ele>1842.02</ele>
        <time>2019-02-16T08:45:52Z</time>
      </trkpt>
      <trkpt lat="45.97467" lon="6.58113">
        <ele>1839.14</ele>
        <time>2019-02-16T08:45:53Z</time>
      </trkpt>
      <trkpt lat="45.97464" lon="6.58115">
        <ele>1836.74</ele>
        <time>2019-02-16T08:45:54Z</time>
      </trkpt>
      <trkpt lat="45.97458" lon="6.58119">
        <ele>1833.85</ele>
        <time>2019-02-16T08:45:55Z</time>
      </trkpt>
      <trkpt lat="45.97454" lon="6.58122">
        <ele>1831.93</ele>
        <time>2019-02-16T08:45:56Z</time>
      </trkpt>
      <trkpt lat="45.97452" lon="6.58126">
        <ele>1828.08</ele>
        <time>2019-02-16T08:45:57Z</time>
      </trkpt>
      <trkpt lat="45.97448" lon="6.58131">
        <ele>1825.2</ele>
        <time>2019-02-16T08:45:58Z</time>
      </trkpt>
      <trkpt lat="45.97445" lon="6.58135">
        <ele>1821.84</ele>
        <time>2019-02-16T08:45:59Z</time>
      </trkpt>
      <trkpt lat="45.97444" lon="6.58141">
        <ele>1818.47</ele>
        <time>2019-02-16T08:46:00Z</time>
      </trkpt>
      <trkpt lat="45.97445" lon="6.58147">
        <ele>1816.07</ele>
        <time>2019-02-16T08:46:01Z</time>
      </trkpt>
      <trkpt lat="45.97447" lon="6.58153">
        <ele>1815.11</ele>
        <time>2019-02-16T08:46:02Z</time>
      </trkpt>
      <trkpt lat="45.97449" lon="6.5816">
        <ele>1813.18</ele>
        <time>2019-02-16T08:46:03Z</time>
      </trkpt>
      <trkpt lat="45.9745" lon="6.58174">
        <ele>1809.82</ele>
        <time>2019-02-16T08:46:05Z</time>
      </trkpt>
      <trkpt lat="45.97448" lon="6.58178">
        <ele>1807.9</ele>
        <time>2019-02-16T08:46:06Z</time>
      </trkpt>
      <trkpt lat="45.97444" lon="6.58178">
        <ele>1805.49</ele>
        <time>2019-02-16T08:46:07Z</time>
      </trkpt>
      <trkpt lat="45.9744" lon="6.58177">
        <ele>1803.09</ele>
        <time>2019-02-16T08:46:08Z</time>
      </trkpt>
      <trkpt lat="45.97437" lon="6.5818">
        <ele>1801.17</ele>
        <time>2019-02-16T08:46:09Z</time>
      </trkpt>
      <trkpt lat="45.97433" lon="6.58184">
        <ele>1797.8</ele>
        <time>2019-02-16T08:46:10Z</time>
      </trkpt>
      <trkpt lat="45.97429" lon="6.58189">
        <ele>1794.92</ele>
        <time>2019-02-16T08:46:11Z</time>
      </trkpt>
      <trkpt lat="45.97426" lon="6.58195">
        <ele>1791.55</ele>
        <time>2019-02-16T08:46:12Z</time>
      </trkpt>
      <trkpt lat="45.97422" lon="6.58199">
        <ele>1788.19</ele>
        <time>2019-02-16T08:46:13Z</time>
      </trkpt>
      <trkpt lat="45.97418" lon="6.582">
        <ele>1785.31</ele>
        <time>2019-02-16T08:46:14Z</time>
      </trkpt>
      <trkpt lat="45.97415" lon="6.58204">
        <ele>1782.9</ele>
        <time>2019-02-16T08:46:15Z</time>
      </trkpt>
      <trkpt lat="45.97412" lon="6.58207">
        <ele>1780.02</ele>
        <time>2019-02-16T08:46:16Z</time>
      </trkpt>
      <trkpt lat="45.97407" lon="6.58206">
        <ele>1777.13</ele>
        <time>2019-02-16T08:46:17Z</time>
      </trkpt>
      <trkpt lat="45.97403" lon="6.58204">
        <ele>1774.73</ele>
        <time>2019-02-16T08:46:18Z</time>
      </trkpt>
      <trkpt lat="45.97398" lon="6.58199">
        <ele>1772.81</ele>
        <time>2019-02-16T08:46:19Z</time>
      </trkpt>
      <trkpt lat="45.97393" lon="6.58195">
        <ele>1771.85</ele>
        <time>2019-02-16T08:46:20Z</time>
      </trkpt>
      <trkpt lat="45.97382" lon="6.5818">
        <ele>1768.96</ele>
        <time>2019-02-16T08:46:23Z</time>
      </trkpt>
      <trkpt lat="45.97378" lon="6.5817">
        <ele>1768.48</ele>
        <time>2019-02-16T08:46:25Z</time>
      </trkpt>
      <trkpt lat="45.97352" lon="6.58142">
        <ele>1765.12</ele>
        <time>2019-02-16T08:46:39Z</time>
      </trkpt>
      <trkpt lat="45.97344" lon="6.58137">
        <ele>1764.64</ele>
        <time>2019-02-16T08:46:44Z</time>
      </trkpt>
      <trkpt lat="45.97342" lon="6.58136">
        <ele>1764.16</ele>
        <time>2019-02-16T08:46:45Z</time>
      </trkpt>
      <trkpt lat="45.97328" lon="6.58128">
        <ele>1760.79</ele>
        <time>2019-02-16T08:46:53Z</time>
      </trkpt>
      <trkpt lat="45.97297" lon="6.58111">
        <ele>1757.91</ele>
        <time>2019-02-16T08:47:29Z</time>
      </trkpt>
      <trkpt lat="45.9729" lon="6.58105">
        <ele>1756.47</ele>
        <time>2019-02-16T08:47:59Z</time>
      </trkpt>
      <trkpt lat="45.97288" lon="6.58103">
        <ele>1756.95</ele>
        <time>2019-02-16T08:48:04Z</time>
      </trkpt>
      <trkpt lat="45.97287" lon="6.58102">
        <ele>1756.47</ele>
        <time>2019-02-16T08:48:05Z</time>
      </trkpt>
      <trkpt lat="45.97252" lon="6.58082">
        <ele>1753.1</ele>
        <time>2019-02-16T08:48:15Z</time>
      </trkpt>
      <trkpt lat="45.97245" lon="6.58082">
        <ele>1751.66</ele>
        <time>2019-02-16T08:48:17Z</time>
      </trkpt>
      <trkpt lat="45.97241" lon="6.58086">
        <ele>1750.22</ele>
        <time>2019-02-16T08:48:18Z</time>
      </trkpt>
      <trkpt lat="45.97235" lon="6.58085">
        <ele>1747.81</ele>
        <time>2019-02-16T08:48:19Z</time>
      </trkpt>
      <trkpt lat="45.9723" lon="6.58085">
        <ele>1745.41</ele>
        <time>2019-02-16T08:48:20Z</time>
      </trkpt>
      <trkpt lat="45.97226" lon="6.58086">
        <ele>1743.49</ele>
        <time>2019-02-16T08:48:21Z</time>
      </trkpt>
      <trkpt lat="45.97223" lon="6.58086">
        <ele>1741.57</ele>
        <time>2019-02-16T08:48:22Z</time>
      </trkpt>
      <trkpt lat="45.97221" lon="6.58084">
        <ele>1739.16</ele>
        <time>2019-02-16T08:48:23Z</time>
      </trkpt>
      <trkpt lat="45.9722" lon="6.58082">
        <ele>1738.2</ele>
        <time>2019-02-16T08:48:24Z</time>
      </trkpt>
      <trkpt lat="45.97221" lon="6.5808">
        <ele>1736.76</ele>
        <time>2019-02-16T08:48:27Z</time>
      </trkpt>
      <trkpt lat="45.97219" lon="6.58077">
        <ele>1736.76</ele>
        <time>2019-02-16T08:48:30Z</time>
      </trkpt>
      <trkpt lat="45.97218" lon="6.58074">
        <ele>1736.28</ele>
        <time>2019-02-16T08:48:31Z</time>
      </trkpt>
      <trkpt lat="45.97217" lon="6.5807">
        <ele>1736.28</ele>
        <time>2019-02-16T08:48:32Z</time>
      </trkpt>
      <trkpt lat="45.97217" lon="6.58069">
        <ele>1735.8</ele>
        <time>2019-02-16T08:48:34Z</time>
      </trkpt>
      <trkpt lat="45.97217" lon="6.5807">
        <ele>1735.32</ele>
        <time>2019-02-16T08:48:35Z</time>
      </trkpt>
      <trkpt lat="45.97216" lon="6.58071">
        <ele>1734.84</ele>
        <time>2019-02-16T08:48:36Z</time>
      </trkpt>
      <trkpt lat="45.97215" lon="6.5807">
        <ele>1734.84</ele>
        <time>2019-02-16T08:48:37Z</time>
      </trkpt>
      <trkpt lat="45.97214" lon="6.58069">
        <ele>1733.88</ele>
        <time>2019-02-16T08:48:38Z</time>
      </trkpt>
      <trkpt lat="45.97214" lon="6.58067">
        <ele>1733.39</ele>
        <time>2019-02-16T08:48:39Z</time>
      </trkpt>
      <trkpt lat="45.97213" lon="6.58066">
        <ele>1732.43</ele>
        <time>2019-02-16T08:48:40Z</time>
      </trkpt>
      <trkpt lat="45.97209" lon="6.58065">
        <ele>1732.43</ele>
        <time>2019-02-16T08:48:47Z</time>
      </trkpt>
      <trkpt lat="45.97208" lon="6.58065">
        <ele>1731.95</ele>
        <time>2019-02-16T08:48:48Z</time>
      </trkpt>
      <trkpt lat="45.97208" lon="6.58065">
        <ele>1731.47</ele>
        <time>2019-02-16T08:48:49Z</time>
      </trkpt>
      <trkpt lat="45.97208" lon="6.58066">
        <ele>1730.99</ele>
        <time>2019-02-16T08:48:50Z</time>
      </trkpt>
      <trkpt lat="45.97205" lon="6.58071">
        <ele>1728.59</ele>
        <time>2019-02-16T08:49:12Z</time>
      </trkpt>
      <trkpt lat="45.97204" lon="6.58071">
        <ele>1728.11</ele>
        <time>2019-02-16T08:49:13Z</time>
      </trkpt>
      <trkpt lat="45.972" lon="6.5807">
        <ele>1726.18</ele>
        <time>2019-02-16T08:49:21Z</time>
      </trkpt>
      <trkpt lat="45.97199" lon="6.58069">
        <ele>1725.7</ele>
        <time>2019-02-16T08:49:22Z</time>
      </trkpt>
      <trkpt lat="45.97198" lon="6.58068">
        <ele>1725.7</ele>
        <time>2019-02-16T08:49:23Z</time>
      </trkpt>
      <trkpt lat="45.97196" lon="6.58068">
        <ele>1725.7</ele>
        <time>2019-02-16T08:49:25Z</time>
      </trkpt>
      <trkpt lat="45.97194" lon="6.58067">
        <ele>1725.22</ele>
        <time>2019-02-16T08:49:26Z</time>
      </trkpt>
      <trkpt lat="45.97193" lon="6.58066">
        <ele>1725.22</ele>
        <time>2019-02-16T08:49:27Z</time>
      </trkpt>
      <trkpt lat="45.97191" lon="6.58065">
        <ele>1725.22</ele>
        <time>2019-02-16T08:49:28Z</time>
      </trkpt>
      <trkpt lat="45.97189" lon="6.58065">
        <ele>1724.74</ele>
        <time>2019-02-16T08:49:29Z</time>
      </trkpt>
      <trkpt lat="45.97183" lon="6.58062">
        <ele>1724.26</ele>
        <time>2019-02-16T08:49:31Z</time>
      </trkpt>
      <trkpt lat="45.9718" lon="6.5806">
        <ele>1723.78</ele>
        <time>2019-02-16T08:49:32Z</time>
      </trkpt>
      <trkpt lat="45.97177" lon="6.58057">
        <ele>1723.78</ele>
        <time>2019-02-16T08:49:33Z</time>
      </trkpt>
      <trkpt lat="45.97175" lon="6.58054">
        <ele>1723.3</ele>
        <time>2019-02-16T08:49:34Z</time>
      </trkpt>
      <trkpt lat="45.97173" lon="6.58052">
        <ele>1722.82</ele>
        <time>2019-02-16T08:49:35Z</time>
      </trkpt>
      <trkpt lat="45.97171" lon="6.5805">
        <ele>1722.82</ele>
        <time>2019-02-16T08:49:36Z</time>
      </trkpt>
      <trkpt lat="45.97168" lon="6.58045">
        <ele>1721.86</ele>
        <time>2019-02-16T08:49:39Z</time>
      </trkpt>
      <trkpt lat="45.97165" lon="6.58049">
        <ele>1721.38</ele>
        <time>2019-02-16T08:49:43Z</time>
      </trkpt>
      <trkpt lat="45.97163" lon="6.58052">
        <ele>1720.9</ele>
        <time>2019-02-16T08:49:44Z</time>
      </trkpt>
      <trkpt lat="45.97159" lon="6.58058">
        <ele>1718.97</ele>
        <time>2019-02-16T08:49:45Z</time>
      </trkpt>
      <trkpt lat="45.97154" lon="6.58064">
        <ele>1717.05</ele>
        <time>2019-02-16T08:49:46Z</time>
      </trkpt>
      <trkpt lat="45.9715" lon="6.5807">
        <ele>1714.17</ele>
        <time>2019-02-16T08:49:47Z</time>
      </trkpt>
      <trkpt lat="45.97145" lon="6.58077">
        <ele>1710.8</ele>
        <time>2019-02-16T08:49:48Z</time>
      </trkpt>
      <trkpt lat="45.97141" lon="6.58085">
        <ele>1707.44</ele>
        <time>2019-02-16T08:49:49Z</time>
      </trkpt>
      <trkpt lat="45.97137" lon="6.58093">
        <ele>1704.07</ele>
        <time>2019-02-16T08:49:50Z</time>
      </trkpt>
      <trkpt lat="45.97135" lon="6.581">
        <ele>1700.71</ele>
        <time>2019-02-16T08:49:51Z</time>
      </trkpt>
      <trkpt lat="45.97133" lon="6.58105">
        <ele>1697.83</ele>
        <time>2019-02-16T08:49:52Z</time>
      </trkpt>
      <trkpt lat="45.97134" lon="6.58109">
        <ele>1695.42</ele>
        <time>2019-02-16T08:49:53Z</time>
      </trkpt>
      <trkpt lat="45.97135" lon="6.5811">
        <ele>1693.5</ele>
        <time>2019-02-16T08:49:54Z</time>
      </trkpt>
      <trkpt lat="45.97137" lon="6.5811">
        <ele>1692.06</ele>
        <time>2019-02-16T08:49:57Z</time>
      </trkpt>
      <trkpt lat="45.97155" lon="6.58124">
        <ele>1689.17</ele>
        <time>2019-02-16T08:50:19Z</time>
      </trkpt>
      <trkpt lat="45.97164" lon="6.58137">
        <ele>1686.29</ele>
        <time>2019-02-16T08:51:01Z</time>
      </trkpt>
      <trkpt lat="45.97158" lon="6.58165">
        <ele>1682.93</ele>
        <time>2019-02-16T08:51:10Z</time>
      </trkpt>
      <trkpt lat="45.97156" lon="6.5818">
        <ele>1679.56</ele>
        <time>2019-02-16T08:51:12Z</time>
      </trkpt>
      <trkpt lat="45.97155" lon="6.58187">
        <ele>1678.12</ele>
        <time>2019-02-16T08:51:13Z</time>
      </trkpt>
      <trkpt lat="45.97151" lon="6.5819">
        <ele>1676.68</ele>
        <time>2019-02-16T08:51:14Z</time>
      </trkpt>
      <trkpt lat="45.97147" lon="6.58193">
        <ele>1675.23</ele>
        <time>2019-02-16T08:51:15Z</time>
      </trkpt>
      <trkpt lat="45.97145" lon="6.58198">
        <ele>1673.79</ele>
        <time>2019-02-16T08:51:16Z</time>
      </trkpt>
      <trkpt lat="45.97145" lon="6.58204">
        <ele>1672.35</ele>
        <time>2019-02-16T08:51:17Z</time>
      </trkpt>
      <trkpt lat="45.97143" lon="6.58209">
        <ele>1670.43</ele>
        <time>2019-02-16T08:51:18Z</time>
      </trkpt>
      <trkpt lat="45.97139" lon="6.58215">
        <ele>1667.54</ele>
        <time>2019-02-16T08:51:19Z</time>
      </trkpt>
      <trkpt lat="45.97134" lon="6.58221">
        <ele>1664.18</ele>
        <time>2019-02-16T08:51:20Z</time>
      </trkpt>
      <trkpt lat="45.9713" lon="6.58228">
        <ele>1660.81</ele>
        <time>2019-02-16T08:51:21Z</time>
      </trkpt>
      <trkpt lat="45.97128" lon="6.58234">
        <ele>1656.97</ele>
        <time>2019-02-16T08:51:22Z</time>
      </trkpt>
      <trkpt lat="45.97124" lon="6.58238">
        <ele>1653.6</ele>
        <time>2019-02-16T08:51:23Z</time>
      </trkpt>
      <trkpt lat="45.9712" lon="6.5824">
        <ele>1651.2</ele>
        <time>2019-02-16T08:51:24Z</time>
      </trkpt>
      <trkpt lat="45.97114" lon="6.58243">
        <ele>1648.32</ele>
        <time>2019-02-16T08:51:25Z</time>
      </trkpt>
      <trkpt lat="45.97113" lon="6.58252">
        <ele>1645.43</ele>
        <time>2019-02-16T08:51:26Z</time>
      </trkpt>
      <trkpt lat="45.97112" lon="6.58258">
        <ele>1642.55</ele>
        <time>2019-02-16T08:51:27Z</time>
      </trkpt>
      <trkpt lat="45.97109" lon="6.58265">
        <ele>1640.63</ele>
        <time>2019-02-16T08:51:28Z</time>
      </trkpt>
      <trkpt lat="45.97106" lon="6.58272">
        <ele>1637.74</ele>
        <time>2019-02-16T08:51:29Z</time>
      </trkpt>
      <trkpt lat="45.97102" lon="6.58277">
        <ele>1634.38</ele>
        <time>2019-02-16T08:51:30Z</time>
      </trkpt>
      <trkpt lat="45.97099" lon="6.5828">
        <ele>1631.98</ele>
        <time>2019-02-16T08:51:31Z</time>
      </trkpt>
      <trkpt lat="45.97099" lon="6.58286">
        <ele>1630.05</ele>
        <time>2019-02-16T08:51:32Z</time>
      </trkpt>
      <trkpt lat="45.971" lon="6.58294">
        <ele>1627.65</ele>
        <time>2019-02-16T08:51:33Z</time>
      </trkpt>
      <trkpt lat="45.971" lon="6.58301">
        <ele>1626.21</ele>
        <time>2019-02-16T08:51:34Z</time>
      </trkpt>
      <trkpt lat="45.97099" lon="6.58306">
        <ele>1624.77</ele>
        <time>2019-02-16T08:51:35Z</time>
      </trkpt>
      <trkpt lat="45.97096" lon="6.58306">
        <ele>1623.32</ele>
        <time>2019-02-16T08:51:36Z</time>
      </trkpt>
      <trkpt lat="45.97093" lon="6.58308">
        <ele>1621.4</ele>
        <time>2019-02-16T08:51:37Z</time>
      </trkpt>
      <trkpt lat="45.97089" lon="6.5831">
        <ele>1619</ele>
        <time>2019-02-16T08:51:38Z</time>
      </trkpt>
      <trkpt lat="45.97085" lon="6.58309">
        <ele>1617.07</ele>
        <time>2019-02-16T08:51:39Z</time>
      </trkpt>
      <trkpt lat="45.97082" lon="6.58308">
        <ele>1613.71</ele>
        <time>2019-02-16T08:51:40Z</time>
      </trkpt>
      <trkpt lat="45.97078" lon="6.58307">
        <ele>1610.35</ele>
        <time>2019-02-16T08:51:41Z</time>
      </trkpt>
      <trkpt lat="45.97074" lon="6.58306">
        <ele>1607.46</ele>
        <time>2019-02-16T08:51:42Z</time>
      </trkpt>
      <trkpt lat="45.97069" lon="6.58309">
        <ele>1603.62</ele>
        <time>2019-02-16T08:51:43Z</time>
      </trkpt>
      <trkpt lat="45.97064" lon="6.58311">
        <ele>1600.73</ele>
        <time>2019-02-16T08:51:44Z</time>
      </trkpt>
      <trkpt lat="45.9706" lon="6.58314">
        <ele>1597.37</ele>
        <time>2019-02-16T08:51:45Z</time>
      </trkpt>
      <trkpt lat="45.97058" lon="6.5832">
        <ele>1594.96</ele>
        <time>2019-02-16T08:51:46Z</time>
      </trkpt>
      <trkpt lat="45.97055" lon="6.58327">
        <ele>1590.64</ele>
        <time>2019-02-16T08:51:47Z</time>
      </trkpt>
      <trkpt lat="45.9705" lon="6.58333">
        <ele>1588.24</ele>
        <time>2019-02-16T08:51:48Z</time>
      </trkpt>
      <trkpt lat="45.97048" lon="6.5834">
        <ele>1584.39</ele>
        <time>2019-02-16T08:51:49Z</time>
      </trkpt>
      <trkpt lat="45.97044" lon="6.58346">
        <ele>1581.03</ele>
        <time>2019-02-16T08:51:50Z</time>
      </trkpt>
      <trkpt lat="45.97038" lon="6.58351">
        <ele>1578.62</ele>
        <time>2019-02-16T08:51:51Z</time>
      </trkpt>
      <trkpt lat="45.9703" lon="6.58357">
        <ele>1575.74</ele>
        <time>2019-02-16T08:51:52Z</time>
      </trkpt>
      <trkpt lat="45.97019" lon="6.58359">
        <ele>1569.97</ele>
        <time>2019-02-16T08:51:53Z</time>
      </trkpt>
      <trkpt lat="45.97012" lon="6.58357">
        <ele>1566.12</ele>
        <time>2019-02-16T08:51:54Z</time>
      </trkpt>
      <trkpt lat="45.97005" lon="6.58352">
        <ele>1564.2</ele>
        <time>2019-02-16T08:51:55Z</time>
      </trkpt>
      <trkpt lat="45.96999" lon="6.58347">
        <ele>1561.8</ele>
        <time>2019-02-16T08:51:56Z</time>
      </trkpt>
      <trkpt lat="45.96987" lon="6.5834">
        <ele>1560.84</ele>
        <time>2019-02-16T08:51:58Z</time>
      </trkpt>
      <trkpt lat="45.96982" lon="6.58341">
        <ele>1560.36</ele>
        <time>2019-02-16T08:51:59Z</time>
      </trkpt>
      <trkpt lat="45.96976" lon="6.58342">
        <ele>1559.88</ele>
        <time>2019-02-16T08:52:00Z</time>
      </trkpt>
      <trkpt lat="45.9697" lon="6.58345">
        <ele>1558.92</ele>
        <time>2019-02-16T08:52:01Z</time>
      </trkpt>
      <trkpt lat="45.96964" lon="6.5835">
        <ele>1557.47</ele>
        <time>2019-02-16T08:52:02Z</time>
      </trkpt>
      <trkpt lat="45.96961" lon="6.58358">
        <ele>1556.03</ele>
        <time>2019-02-16T08:52:03Z</time>
      </trkpt>
      <trkpt lat="45.96958" lon="6.58368">
        <ele>1555.55</ele>
        <time>2019-02-16T08:52:04Z</time>
      </trkpt>
      <trkpt lat="45.96956" lon="6.58379">
        <ele>1554.59</ele>
        <time>2019-02-16T08:52:05Z</time>
      </trkpt>
      <trkpt lat="45.96956" lon="6.5839">
        <ele>1553.15</ele>
        <time>2019-02-16T08:52:06Z</time>
      </trkpt>
      <trkpt lat="45.96957" lon="6.584">
        <ele>1552.19</ele>
        <time>2019-02-16T08:52:07Z</time>
      </trkpt>
      <trkpt lat="45.96959" lon="6.5841">
        <ele>1550.74</ele>
        <time>2019-02-16T08:52:08Z</time>
      </trkpt>
      <trkpt lat="45.9696" lon="6.5842">
        <ele>1549.78</ele>
        <time>2019-02-16T08:52:09Z</time>
      </trkpt>
      <trkpt lat="45.96961" lon="6.58431">
        <ele>1549.3</ele>
        <time>2019-02-16T08:52:10Z</time>
      </trkpt>
      <trkpt lat="45.96961" lon="6.58441">
        <ele>1548.34</ele>
        <time>2019-02-16T08:52:11Z</time>
      </trkpt>
      <trkpt lat="45.96959" lon="6.58451">
        <ele>1547.38</ele>
        <time>2019-02-16T08:52:12Z</time>
      </trkpt>
      <trkpt lat="45.96957" lon="6.5846">
        <ele>1546.9</ele>
        <time>2019-02-16T08:52:13Z</time>
      </trkpt>
      <trkpt lat="45.9695" lon="6.58472">
        <ele>1545.46</ele>
        <time>2019-02-16T08:52:16Z</time>
      </trkpt>
      <trkpt lat="45.96946" lon="6.58471">
        <ele>1544.98</ele>
        <time>2019-02-16T08:52:17Z</time>
      </trkpt>
      <trkpt lat="45.96943" lon="6.58469">
        <ele>1544.5</ele>
        <time>2019-02-16T08:52:18Z</time>
      </trkpt>
      <trkpt lat="45.96939" lon="6.58466">
        <ele>1544.5</ele>
        <time>2019-02-16T08:52:19Z</time>
      </trkpt>
      <trkpt lat="45.96936" lon="6.58464">
        <ele>1544.01</ele>
        <time>2019-02-16T08:52:20Z</time>
      </trkpt>
      <trkpt lat="45.96932" lon="6.58465">
        <ele>1543.05</ele>
        <time>2019-02-16T08:52:21Z</time>
      </trkpt>
      <trkpt lat="45.96929" lon="6.58468">
        <ele>1542.09</ele>
        <time>2019-02-16T08:52:22Z</time>
      </trkpt>
      <trkpt lat="45.96927" lon="6.58473">
        <ele>1540.17</ele>
        <time>2019-02-16T08:52:23Z</time>
      </trkpt>
      <trkpt lat="45.96925" lon="6.5848">
        <ele>1538.25</ele>
        <time>2019-02-16T08:52:24Z</time>
      </trkpt>
      <trkpt lat="45.96922" lon="6.58486">
        <ele>1535.36</ele>
        <time>2019-02-16T08:52:25Z</time>
      </trkpt>
      <trkpt lat="45.96918" lon="6.58488">
        <ele>1532</ele>
        <time>2019-02-16T08:52:26Z</time>
      </trkpt>
      <trkpt lat="45.96913" lon="6.58486">
        <ele>1528.15</ele>
        <time>2019-02-16T08:52:27Z</time>
      </trkpt>
      <trkpt lat="45.96909" lon="6.58484">
        <ele>1525.27</ele>
        <time>2019-02-16T08:52:28Z</time>
      </trkpt>
      <trkpt lat="45.96906" lon="6.58481">
        <ele>1523.83</ele>
        <time>2019-02-16T08:52:29Z</time>
      </trkpt>
      <trkpt lat="45.96902" lon="6.58477">
        <ele>1522.87</ele>
        <time>2019-02-16T08:52:30Z</time>
      </trkpt>
      <trkpt lat="45.96898" lon="6.58474">
        <ele>1521.9</ele>
        <time>2019-02-16T08:52:31Z</time>
      </trkpt>
      <trkpt lat="45.96887" lon="6.58464">
        <ele>1519.02</ele>
        <time>2019-02-16T08:52:34Z</time>
      </trkpt>
      <trkpt lat="45.96875" lon="6.58457">
        <ele>1515.18</ele>
        <time>2019-02-16T08:52:37Z</time>
      </trkpt>
      <trkpt lat="45.9686" lon="6.58448">
        <ele>1511.33</ele>
        <time>2019-02-16T08:52:40Z</time>
      </trkpt>
      <trkpt lat="45.96851" lon="6.58439">
        <ele>1508.93</ele>
        <time>2019-02-16T08:52:42Z</time>
      </trkpt>
      <trkpt lat="45.96847" lon="6.58436">
        <ele>1508.93</ele>
        <time>2019-02-16T08:52:43Z</time>
      </trkpt>
      <trkpt lat="45.96843" lon="6.58436">
        <ele>1507.97</ele>
        <time>2019-02-16T08:52:44Z</time>
      </trkpt>
      <trkpt lat="45.9684" lon="6.5844">
        <ele>1507.48</ele>
        <time>2019-02-16T08:52:45Z</time>
      </trkpt>
      <trkpt lat="45.96834" lon="6.58445">
        <ele>1506.04</ele>
        <time>2019-02-16T08:52:46Z</time>
      </trkpt>
      <trkpt lat="45.96827" lon="6.58452">
        <ele>1504.6</ele>
        <time>2019-02-16T08:52:47Z</time>
      </trkpt>
      <trkpt lat="45.96821" lon="6.58459">
        <ele>1502.68</ele>
        <time>2019-02-16T08:52:48Z</time>
      </trkpt>
      <trkpt lat="45.96815" lon="6.58466">
        <ele>1501.24</ele>
        <time>2019-02-16T08:52:49Z</time>
      </trkpt>
      <trkpt lat="45.9681" lon="6.58475">
        <ele>1500.76</ele>
        <time>2019-02-16T08:52:50Z</time>
      </trkpt>
      <trkpt lat="45.96808" lon="6.58483">
        <ele>1500.27</ele>
        <time>2019-02-16T08:52:51Z</time>
      </trkpt>
      <trkpt lat="45.96807" lon="6.58489">
        <ele>1499.79</ele>
        <time>2019-02-16T08:52:52Z</time>
      </trkpt>
      <trkpt lat="45.96804" lon="6.58498">
        <ele>1500.27</ele>
        <time>2019-02-16T08:52:54Z</time>
      </trkpt>
      <trkpt lat="45.96804" lon="6.585">
        <ele>1500.76</ele>
        <time>2019-02-16T08:52:55Z</time>
      </trkpt>
      <trkpt lat="45.96796" lon="6.58517">
        <ele>1500.76</ele>
        <time>2019-02-16T08:53:04Z</time>
      </trkpt>
      <trkpt lat="45.96797" lon="6.58519">
        <ele>1500.76</ele>
        <time>2019-02-16T08:53:11Z</time>
      </trkpt>
      <trkpt lat="45.96799" lon="6.5852">
        <ele>1501.24</ele>
        <time>2019-02-16T08:53:14Z</time>
      </trkpt>
      <trkpt lat="45.96798" lon="6.58521">
        <ele>1501.24</ele>
        <time>2019-02-16T08:53:27Z</time>
      </trkpt>
      <trkpt lat="45.96797" lon="6.58521">
        <ele>1500.76</ele>
        <time>2019-02-16T08:53:38Z</time>
      </trkpt>
      <trkpt lat="45.96797" lon="6.5852">
        <ele>1500.76</ele>
        <time>2019-02-16T08:53:40Z</time>
      </trkpt>
      <trkpt lat="45.96797" lon="6.58521">
        <ele>1500.76</ele>
        <time>2019-02-16T08:53:49Z</time>
      </trkpt>
      <trkpt lat="45.96801" lon="6.58518">
        <ele>1500.76</ele>
        <time>2019-02-16T08:54:28Z</time>
      </trkpt>
      <trkpt lat="45.96802" lon="6.58517">
        <ele>1500.76</ele>
        <time>2019-02-16T08:54:29Z</time>
      </trkpt>
      <trkpt lat="45.96803" lon="6.58517">
        <ele>1500.76</ele>
        <time>2019-02-16T08:54:51Z</time>
      </trkpt>
      <trkpt lat="45.96803" lon="6.58515">
        <ele>1500.76</ele>
        <time>2019-02-16T08:55:09Z</time>
      </trkpt>
      <trkpt lat="45.96801" lon="6.58519">
        <ele>1500.76</ele>
        <time>2019-02-16T08:55:31Z</time>
      </trkpt>
      <trkpt lat="45.96797" lon="6.58524">
        <ele>1500.76</ele>
        <time>2019-02-16T08:55:44Z</time>
      </trkpt>
      <trkpt lat="45.96802" lon="6.58519">
        <ele>1500.76</ele>
        <time>2019-02-16T08:55:53Z</time>
      </trkpt>
      <trkpt lat="45.96805" lon="6.58515">
        <ele>1500.27</ele>
        <time>2019-02-16T08:56:05Z</time>
      </trkpt>
      <trkpt lat="45.96806" lon="6.58514">
        <ele>1500.76</ele>
        <time>2019-02-16T08:56:06Z</time>
      </trkpt>
      <trkpt lat="45.96805" lon="6.58518">
        <ele>1500.76</ele>
        <time>2019-02-16T08:56:33Z</time>
      </trkpt>
      <trkpt lat="45.968" lon="6.58517">
        <ele>1500.76</ele>
        <time>2019-02-16T08:57:04Z</time>
      </trkpt>
      <trkpt lat="45.968" lon="6.58516">
        <ele>1500.27</ele>
        <time>2019-02-16T08:57:15Z</time>
      </trkpt>
      <trkpt lat="45.96803" lon="6.58515">
        <ele>1500.76</ele>
        <time>2019-02-16T08:57:27Z</time>
      </trkpt>
      <trkpt lat="45.96802" lon="6.58514">
        <ele>1500.76</ele>
        <time>2019-02-16T08:57:48Z</time>
      </trkpt>
      <trkpt lat="45.968" lon="6.58515">
        <ele>1500.76</ele>
        <time>2019-02-16T08:57:51Z</time>
      </trkpt>
      <trkpt lat="45.96793" lon="6.5852">
        <ele>1500.76</ele>
        <time>2019-02-16T08:57:59Z</time>
      </trkpt>
      <trkpt lat="45.96794" lon="6.58521">
        <ele>1500.76</ele>
        <time>2019-02-16T08:58:03Z</time>
      </trkpt>
      <trkpt lat="45.96801" lon="6.58517">
        <ele>1501.24</ele>
        <time>2019-02-16T08:58:10Z</time>
      </trkpt>
      <trkpt lat="45.96803" lon="6.58514">
        <ele>1501.24</ele>
        <time>2019-02-16T08:58:23Z</time>
      </trkpt>
      <trkpt lat="45.968" lon="6.58513">
        <ele>1502.2</ele>
        <time>2019-02-16T08:58:26Z</time>
      </trkpt>
      <trkpt lat="45.96775" lon="6.58501">
        <ele>1502.68</ele>
        <time>2019-02-16T08:58:48Z</time>
      </trkpt>
      <trkpt lat="45.96771" lon="6.58495">
        <ele>1503.64</ele>
        <time>2019-02-16T08:58:53Z</time>
      </trkpt>
      <trkpt lat="45.9677" lon="6.58494">
        <ele>1504.12</ele>
        <time>2019-02-16T08:58:54Z</time>
      </trkpt>
      <trkpt lat="45.96769" lon="6.58492">
        <ele>1504.12</ele>
        <time>2019-02-16T08:58:56Z</time>
      </trkpt>
      <trkpt lat="45.96769" lon="6.58491">
        <ele>1504.6</ele>
        <time>2019-02-16T08:58:57Z</time>
      </trkpt>
      <trkpt lat="45.96769" lon="6.5849">
        <ele>1504.6</ele>
        <time>2019-02-16T08:58:58Z</time>
      </trkpt>
      <trkpt lat="45.96769" lon="6.58488">
        <ele>1504.6</ele>
        <time>2019-02-16T08:58:59Z</time>
      </trkpt>
      <trkpt lat="45.96768" lon="6.58487">
        <ele>1504.6</ele>
        <time>2019-02-16T08:59:00Z</time>
      </trkpt>
      <trkpt lat="45.96767" lon="6.58485">
        <ele>1504.6</ele>
        <time>2019-02-16T08:59:01Z</time>
      </trkpt>
      <trkpt lat="45.96767" lon="6.58484">
        <ele>1505.08</ele>
        <time>2019-02-16T08:59:02Z</time>
      </trkpt>
      <trkpt lat="45.96766" lon="6.58483">
        <ele>1505.56</ele>
        <time>2019-02-16T08:59:03Z</time>
      </trkpt>
      <trkpt lat="45.96765" lon="6.58482">
        <ele>1505.56</ele>
        <time>2019-02-16T08:59:04Z</time>
      </trkpt>
      <trkpt lat="45.96764" lon="6.58481">
        <ele>1505.56</ele>
        <time>2019-02-16T08:59:05Z</time>
      </trkpt>
      <trkpt lat="45.96763" lon="6.58479">
        <ele>1505.56</ele>
        <time>2019-02-16T08:59:06Z</time>
      </trkpt>
      <trkpt lat="45.96762" lon="6.58478">
        <ele>1505.56</ele>
        <time>2019-02-16T08:59:07Z</time>
      </trkpt>
      <trkpt lat="45.96759" lon="6.58475">
        <ele>1506.04</ele>
        <time>2019-02-16T08:59:10Z</time>
      </trkpt>
      <trkpt lat="45.96757" lon="6.58474">
        <ele>1506.52</ele>
        <time>2019-02-16T08:59:11Z</time>
      </trkpt>
      <trkpt lat="45.96757" lon="6.58472">
        <ele>1507</ele>
        <time>2019-02-16T08:59:12Z</time>
      </trkpt>
      <trkpt lat="45.96756" lon="6.5847">
        <ele>1507</ele>
        <time>2019-02-16T08:59:13Z</time>
      </trkpt>
      <trkpt lat="45.96756" lon="6.58469">
        <ele>1506.52</ele>
        <time>2019-02-16T08:59:14Z</time>
      </trkpt>
      <trkpt lat="45.96747" lon="6.58447">
        <ele>1506.04</ele>
        <time>2019-02-16T08:59:26Z</time>
      </trkpt>
      <trkpt lat="45.96747" lon="6.58446">
        <ele>1506.04</ele>
        <time>2019-02-16T08:59:27Z</time>
      </trkpt>
      <trkpt lat="45.96746" lon="6.58445">
        <ele>1506.52</ele>
        <time>2019-02-16T08:59:28Z</time>
      </trkpt>
      <trkpt lat="45.96746" lon="6.58443">
        <ele>1506.52</ele>
        <time>2019-02-16T08:59:29Z</time>
      </trkpt>
      <trkpt lat="45.96745" lon="6.58441">
        <ele>1506.52</ele>
        <time>2019-02-16T08:59:30Z</time>
      </trkpt>
      <trkpt lat="45.96744" lon="6.5844">
        <ele>1507</ele>
        <time>2019-02-16T08:59:31Z</time>
      </trkpt>
      <trkpt lat="45.96743" lon="6.58439">
        <ele>1507</ele>
        <time>2019-02-16T08:59:32Z</time>
      </trkpt>
      <trkpt lat="45.96742" lon="6.58438">
        <ele>1507</ele>
        <time>2019-02-16T08:59:33Z</time>
      </trkpt>
      <trkpt lat="45.96741" lon="6.58437">
        <ele>1507.48</ele>
        <time>2019-02-16T08:59:34Z</time>
      </trkpt>
      <trkpt lat="45.96741" lon="6.58436">
        <ele>1507.48</ele>
        <time>2019-02-16T08:59:35Z</time>
      </trkpt>
      <trkpt lat="45.96741" lon="6.58435">
        <ele>1507.48</ele>
        <time>2019-02-16T08:59:36Z</time>
      </trkpt>
      <trkpt lat="45.9674" lon="6.58434">
        <ele>1507.97</ele>
        <time>2019-02-16T08:59:37Z</time>
      </trkpt>
      <trkpt lat="45.96739" lon="6.58432">
        <ele>1507.97</ele>
        <time>2019-02-16T08:59:38Z</time>
      </trkpt>
      <trkpt lat="45.96738" lon="6.5843">
        <ele>1508.45</ele>
        <time>2019-02-16T08:59:40Z</time>
      </trkpt>
      <trkpt lat="45.96738" lon="6.58428">
        <ele>1508.45</ele>
        <time>2019-02-16T08:59:41Z</time>
      </trkpt>
      <trkpt lat="45.96735" lon="6.58422">
        <ele>1509.41</ele>
        <time>2019-02-16T08:59:46Z</time>
      </trkpt>
      <trkpt lat="45.96735" lon="6.5842">
        <ele>1509.41</ele>
        <time>2019-02-16T08:59:47Z</time>
      </trkpt>
      <trkpt lat="45.96733" lon="6.58397">
        <ele>1512.29</ele>
        <time>2019-02-16T09:00:00Z</time>
      </trkpt>
      <trkpt lat="45.96731" lon="6.58388">
        <ele>1513.25</ele>
        <time>2019-02-16T09:00:06Z</time>
      </trkpt>
      <trkpt lat="45.96731" lon="6.58387">
        <ele>1513.73</ele>
        <time>2019-02-16T09:00:07Z</time>
      </trkpt>
      <trkpt lat="45.9673" lon="6.58385">
        <ele>1513.73</ele>
        <time>2019-02-16T09:00:08Z</time>
      </trkpt>
      <trkpt lat="45.96729" lon="6.58383">
        <ele>1514.21</ele>
        <time>2019-02-16T09:00:09Z</time>
      </trkpt>
      <trkpt lat="45.96728" lon="6.58382">
        <ele>1514.21</ele>
        <time>2019-02-16T09:00:10Z</time>
      </trkpt>
      <trkpt lat="45.96728" lon="6.5838">
        <ele>1514.21</ele>
        <time>2019-02-16T09:00:11Z</time>
      </trkpt>
      <trkpt lat="45.96727" lon="6.58378">
        <ele>1514.21</ele>
        <time>2019-02-16T09:00:12Z</time>
      </trkpt>
      <trkpt lat="45.96726" lon="6.58373">
        <ele>1514.69</ele>
        <time>2019-02-16T09:00:15Z</time>
      </trkpt>
      <trkpt lat="45.96719" lon="6.58339">
        <ele>1516.14</ele>
        <time>2019-02-16T09:00:34Z</time>
      </trkpt>
      <trkpt lat="45.96719" lon="6.58338">
        <ele>1516.14</ele>
        <time>2019-02-16T09:00:35Z</time>
      </trkpt>
      <trkpt lat="45.96719" lon="6.58336">
        <ele>1516.62</ele>
        <time>2019-02-16T09:00:36Z</time>
      </trkpt>
      <trkpt lat="45.96719" lon="6.58334">
        <ele>1516.62</ele>
        <time>2019-02-16T09:00:37Z</time>
      </trkpt>
      <trkpt lat="45.96718" lon="6.58331">
        <ele>1517.58</ele>
        <time>2019-02-16T09:00:39Z</time>
      </trkpt>
      <trkpt lat="45.96719" lon="6.58329">
        <ele>1517.58</ele>
        <time>2019-02-16T09:00:40Z</time>
      </trkpt>
      <trkpt lat="45.96718" lon="6.58327">
        <ele>1517.58</ele>
        <time>2019-02-16T09:00:41Z</time>
      </trkpt>
      <trkpt lat="45.96718" lon="6.58326">
        <ele>1517.58</ele>
        <time>2019-02-16T09:00:42Z</time>
      </trkpt>
      <trkpt lat="45.96718" lon="6.58324">
        <ele>1518.06</ele>
        <time>2019-02-16T09:00:43Z</time>
      </trkpt>
      <trkpt lat="45.96717" lon="6.58322">
        <ele>1518.06</ele>
        <time>2019-02-16T09:00:44Z</time>
      </trkpt>
      <trkpt lat="45.96717" lon="6.58319">
        <ele>1518.54</ele>
        <time>2019-02-16T09:00:46Z</time>
      </trkpt>
      <trkpt lat="45.96717" lon="6.58317">
        <ele>1518.54</ele>
        <time>2019-02-16T09:00:47Z</time>
      </trkpt>
      <trkpt lat="45.96717" lon="6.58316">
        <ele>1519.02</ele>
        <time>2019-02-16T09:00:48Z</time>
      </trkpt>
      <trkpt lat="45.96716" lon="6.58314">
        <ele>1519.02</ele>
        <time>2019-02-16T09:00:49Z</time>
      </trkpt>
      <trkpt lat="45.96716" lon="6.58312">
        <ele>1519.02</ele>
        <time>2019-02-16T09:00:50Z</time>
      </trkpt>
      <trkpt lat="45.9671" lon="6.58293">
        <ele>1521.9</ele>
        <time>2019-02-16T09:01:06Z</time>
      </trkpt>
      <trkpt lat="45.96709" lon="6.58291">
        <ele>1521.9</ele>
        <time>2019-02-16T09:01:07Z</time>
      </trkpt>
      <trkpt lat="45.96708" lon="6.58289">
        <ele>1521.9</ele>
        <time>2019-02-16T09:01:08Z</time>
      </trkpt>
      <trkpt lat="45.96708" lon="6.58288">
        <ele>1522.39</ele>
        <time>2019-02-16T09:01:09Z</time>
      </trkpt>
      <trkpt lat="45.96707" lon="6.58287">
        <ele>1522.39</ele>
        <time>2019-02-16T09:01:10Z</time>
      </trkpt>
      <trkpt lat="45.96706" lon="6.58286">
        <ele>1522.39</ele>
        <time>2019-02-16T09:01:11Z</time>
      </trkpt>
      <trkpt lat="45.96706" lon="6.58284">
        <ele>1522.39</ele>
        <time>2019-02-16T09:01:12Z</time>
      </trkpt>
      <trkpt lat="45.96705" lon="6.58282">
        <ele>1522.39</ele>
        <time>2019-02-16T09:01:13Z</time>
      </trkpt>
      <trkpt lat="45.96704" lon="6.58276">
        <ele>1523.35</ele>
        <time>2019-02-16T09:01:17Z</time>
      </trkpt>
      <trkpt lat="45.96703" lon="6.58275">
        <ele>1523.35</ele>
        <time>2019-02-16T09:01:18Z</time>
      </trkpt>
      <trkpt lat="45.96703" lon="6.58273">
        <ele>1523.35</ele>
        <time>2019-02-16T09:01:19Z</time>
      </trkpt>
      <trkpt lat="45.96704" lon="6.58272">
        <ele>1523.35</ele>
        <time>2019-02-16T09:01:20Z</time>
      </trkpt>
      <trkpt lat="45.96704" lon="6.5827">
        <ele>1523.35</ele>
        <time>2019-02-16T09:01:21Z</time>
      </trkpt>
      <trkpt lat="45.96703" lon="6.58269">
        <ele>1523.83</ele>
        <time>2019-02-16T09:01:22Z</time>
      </trkpt>
      <trkpt lat="45.96703" lon="6.58268">
        <ele>1523.83</ele>
        <time>2019-02-16T09:01:23Z</time>
      </trkpt>
      <trkpt lat="45.967" lon="6.58263">
        <ele>1524.79</ele>
        <time>2019-02-16T09:01:27Z</time>
      </trkpt>
      <trkpt lat="45.96699" lon="6.58262">
        <ele>1524.79</ele>
        <time>2019-02-16T09:01:28Z</time>
      </trkpt>
      <trkpt lat="45.96699" lon="6.5826">
        <ele>1524.79</ele>
        <time>2019-02-16T09:01:30Z</time>
      </trkpt>
      <trkpt lat="45.96699" lon="6.58257">
        <ele>1525.27</ele>
        <time>2019-02-16T09:01:31Z</time>
      </trkpt>
      <trkpt lat="45.967" lon="6.58255">
        <ele>1525.27</ele>
        <time>2019-02-16T09:01:32Z</time>
      </trkpt>
      <trkpt lat="45.96699" lon="6.58254">
        <ele>1525.27</ele>
        <time>2019-02-16T09:01:33Z</time>
      </trkpt>
      <trkpt lat="45.96699" lon="6.58251">
        <ele>1525.75</ele>
        <time>2019-02-16T09:01:34Z</time>
      </trkpt>
      <trkpt lat="45.96699" lon="6.5825">
        <ele>1525.75</ele>
        <time>2019-02-16T09:01:35Z</time>
      </trkpt>
      <trkpt lat="45.96699" lon="6.58248">
        <ele>1525.75</ele>
        <time>2019-02-16T09:01:36Z</time>
      </trkpt>
      <trkpt lat="45.96698" lon="6.58246">
        <ele>1526.23</ele>
        <time>2019-02-16T09:01:37Z</time>
      </trkpt>
      <trkpt lat="45.96698" lon="6.58245">
        <ele>1526.23</ele>
        <time>2019-02-16T09:01:38Z</time>
      </trkpt>
      <trkpt lat="45.96698" lon="6.58243">
        <ele>1526.71</ele>
        <time>2019-02-16T09:01:39Z</time>
      </trkpt>
      <trkpt lat="45.96698" lon="6.58242">
        <ele>1526.71</ele>
        <time>2019-02-16T09:01:40Z</time>
      </trkpt>
      <trkpt lat="45.96697" lon="6.5824">
        <ele>1526.71</ele>
        <time>2019-02-16T09:01:41Z</time>
      </trkpt>
      <trkpt lat="45.96696" lon="6.58239">
        <ele>1527.19</ele>
        <time>2019-02-16T09:01:42Z</time>
      </trkpt>
      <trkpt lat="45.96695" lon="6.58237">
        <ele>1527.19</ele>
        <time>2019-02-16T09:01:44Z</time>
      </trkpt>
      <trkpt lat="45.96694" lon="6.58235">
        <ele>1527.19</ele>
        <time>2019-02-16T09:01:45Z</time>
      </trkpt>
      <trkpt lat="45.96693" lon="6.58234">
        <ele>1527.19</ele>
        <time>2019-02-16T09:01:46Z</time>
      </trkpt>
      <trkpt lat="45.96692" lon="6.58232">
        <ele>1527.67</ele>
        <time>2019-02-16T09:01:48Z</time>
      </trkpt>
      <trkpt lat="45.96691" lon="6.58231">
        <ele>1528.15</ele>
        <time>2019-02-16T09:01:49Z</time>
      </trkpt>
      <trkpt lat="45.96691" lon="6.5823">
        <ele>1528.15</ele>
        <time>2019-02-16T09:01:50Z</time>
      </trkpt>
      <trkpt lat="45.9669" lon="6.58229">
        <ele>1528.63</ele>
        <time>2019-02-16T09:01:51Z</time>
      </trkpt>
      <trkpt lat="45.9669" lon="6.58228">
        <ele>1528.63</ele>
        <time>2019-02-16T09:01:52Z</time>
      </trkpt>
      <trkpt lat="45.9669" lon="6.58227">
        <ele>1528.63</ele>
        <time>2019-02-16T09:01:53Z</time>
      </trkpt>
      <trkpt lat="45.96689" lon="6.58225">
        <ele>1529.11</ele>
        <time>2019-02-16T09:01:54Z</time>
      </trkpt>
      <trkpt lat="45.96689" lon="6.58224">
        <ele>1529.11</ele>
        <time>2019-02-16T09:01:55Z</time>
      </trkpt>
      <trkpt lat="45.96688" lon="6.58222">
        <ele>1529.59</ele>
        <time>2019-02-16T09:01:56Z</time>
      </trkpt>
      <trkpt lat="45.96688" lon="6.5822">
        <ele>1529.59</ele>
        <time>2019-02-16T09:01:57Z</time>
      </trkpt>
      <trkpt lat="45.96687" lon="6.58216">
        <ele>1530.56</ele>
        <time>2019-02-16T09:02:00Z</time>
      </trkpt>
      <trkpt lat="45.96684" lon="6.5821">
        <ele>1531.52</ele>
        <time>2019-02-16T09:02:05Z</time>
      </trkpt>
      <trkpt lat="45.96684" lon="6.58209">
        <ele>1531.52</ele>
        <time>2019-02-16T09:02:06Z</time>
      </trkpt>
      <trkpt lat="45.96683" lon="6.58208">
        <ele>1532</ele>
        <time>2019-02-16T09:02:07Z</time>
      </trkpt>
      <trkpt lat="45.96682" lon="6.58206">
        <ele>1532</ele>
        <time>2019-02-16T09:02:08Z</time>
      </trkpt>
      <trkpt lat="45.96681" lon="6.58205">
        <ele>1532</ele>
        <time>2019-02-16T09:02:09Z</time>
      </trkpt>
      <trkpt lat="45.9668" lon="6.58204">
        <ele>1532</ele>
        <time>2019-02-16T09:02:10Z</time>
      </trkpt>
      <trkpt lat="45.96678" lon="6.58202">
        <ele>1532</ele>
        <time>2019-02-16T09:02:11Z</time>
      </trkpt>
      <trkpt lat="45.96678" lon="6.58201">
        <ele>1532.48</ele>
        <time>2019-02-16T09:02:12Z</time>
      </trkpt>
      <trkpt lat="45.96678" lon="6.582">
        <ele>1532.48</ele>
        <time>2019-02-16T09:02:13Z</time>
      </trkpt>
      <trkpt lat="45.96677" lon="6.58198">
        <ele>1532.96</ele>
        <time>2019-02-16T09:02:14Z</time>
      </trkpt>
      <trkpt lat="45.96676" lon="6.58196">
        <ele>1533.44</ele>
        <time>2019-02-16T09:02:16Z</time>
      </trkpt>
      <trkpt lat="45.96675" lon="6.58195">
        <ele>1533.44</ele>
        <time>2019-02-16T09:02:17Z</time>
      </trkpt>
      <trkpt lat="45.96674" lon="6.58194">
        <ele>1533.44</ele>
        <time>2019-02-16T09:02:18Z</time>
      </trkpt>
      <trkpt lat="45.96674" lon="6.58192">
        <ele>1533.44</ele>
        <time>2019-02-16T09:02:19Z</time>
      </trkpt>
      <trkpt lat="45.96672" lon="6.58191">
        <ele>1533.92</ele>
        <time>2019-02-16T09:02:20Z</time>
      </trkpt>
      <trkpt lat="45.96672" lon="6.58191">
        <ele>1533.92</ele>
        <time>2019-02-16T09:02:21Z</time>
      </trkpt>
      <trkpt lat="45.96671" lon="6.58189">
        <ele>1533.92</ele>
        <time>2019-02-16T09:02:22Z</time>
      </trkpt>
      <trkpt lat="45.96671" lon="6.58188">
        <ele>1533.92</ele>
        <time>2019-02-16T09:02:23Z</time>
      </trkpt>
      <trkpt lat="45.9667" lon="6.58187">
        <ele>1533.92</ele>
        <time>2019-02-16T09:02:24Z</time>
      </trkpt>
      <trkpt lat="45.9667" lon="6.58185">
        <ele>1534.4</ele>
        <time>2019-02-16T09:02:25Z</time>
      </trkpt>
      <trkpt lat="45.96669" lon="6.58183">
        <ele>1534.4</ele>
        <time>2019-02-16T09:02:27Z</time>
      </trkpt>
      <trkpt lat="45.96669" lon="6.58182">
        <ele>1534.88</ele>
        <time>2019-02-16T09:02:28Z</time>
      </trkpt>
      <trkpt lat="45.96668" lon="6.58181">
        <ele>1534.88</ele>
        <time>2019-02-16T09:02:29Z</time>
      </trkpt>
      <trkpt lat="45.96668" lon="6.5818">
        <ele>1535.36</ele>
        <time>2019-02-16T09:02:30Z</time>
      </trkpt>
      <trkpt lat="45.96668" lon="6.58178">
        <ele>1535.36</ele>
        <time>2019-02-16T09:02:31Z</time>
      </trkpt>
      <trkpt lat="45.96667" lon="6.58174">
        <ele>1536.32</ele>
        <time>2019-02-16T09:02:34Z</time>
      </trkpt>
      <trkpt lat="45.96666" lon="6.58173">
        <ele>1536.32</ele>
        <time>2019-02-16T09:02:35Z</time>
      </trkpt>
      <trkpt lat="45.96665" lon="6.58171">
        <ele>1536.32</ele>
        <time>2019-02-16T09:02:37Z</time>
      </trkpt>
      <trkpt lat="45.96664" lon="6.5817">
        <ele>1536.32</ele>
        <time>2019-02-16T09:02:38Z</time>
      </trkpt>
      <trkpt lat="45.96663" lon="6.58168">
        <ele>1536.8</ele>
        <time>2019-02-16T09:02:39Z</time>
      </trkpt>
      <trkpt lat="45.96661" lon="6.58166">
        <ele>1537.29</ele>
        <time>2019-02-16T09:02:41Z</time>
      </trkpt>
      <trkpt lat="45.96656" lon="6.58159">
        <ele>1538.25</ele>
        <time>2019-02-16T09:02:47Z</time>
      </trkpt>
      <trkpt lat="45.96655" lon="6.58158">
        <ele>1538.73</ele>
        <time>2019-02-16T09:02:49Z</time>
      </trkpt>
      <trkpt lat="45.96654" lon="6.58157">
        <ele>1538.73</ele>
        <time>2019-02-16T09:02:50Z</time>
      </trkpt>
      <trkpt lat="45.96654" lon="6.58156">
        <ele>1539.21</ele>
        <time>2019-02-16T09:02:51Z</time>
      </trkpt>
      <trkpt lat="45.96654" lon="6.58152">
        <ele>1539.21</ele>
        <time>2019-02-16T09:02:54Z</time>
      </trkpt>
      <trkpt lat="45.96654" lon="6.5815">
        <ele>1539.69</ele>
        <time>2019-02-16T09:02:56Z</time>
      </trkpt>
      <trkpt lat="45.96651" lon="6.58137">
        <ele>1542.09</ele>
        <time>2019-02-16T09:03:10Z</time>
      </trkpt>
      <trkpt lat="45.96648" lon="6.58128">
        <ele>1543.05</ele>
        <time>2019-02-16T09:03:17Z</time>
      </trkpt>
      <trkpt lat="45.96648" lon="6.58127">
        <ele>1543.53</ele>
        <time>2019-02-16T09:03:18Z</time>
      </trkpt>
      <trkpt lat="45.96647" lon="6.58125">
        <ele>1544.01</ele>
        <time>2019-02-16T09:03:20Z</time>
      </trkpt>
      <trkpt lat="45.96647" lon="6.58124">
        <ele>1544.01</ele>
        <time>2019-02-16T09:03:21Z</time>
      </trkpt>
      <trkpt lat="45.96647" lon="6.58122">
        <ele>1544.01</ele>
        <time>2019-02-16T09:03:22Z</time>
      </trkpt>
      <trkpt lat="45.96646" lon="6.5812">
        <ele>1544.5</ele>
        <time>2019-02-16T09:03:23Z</time>
      </trkpt>
      <trkpt lat="45.96646" lon="6.58119">
        <ele>1544.98</ele>
        <time>2019-02-16T09:03:24Z</time>
      </trkpt>
      <trkpt lat="45.96645" lon="6.58117">
        <ele>1544.98</ele>
        <time>2019-02-16T09:03:25Z</time>
      </trkpt>
      <trkpt lat="45.96645" lon="6.58115">
        <ele>1544.98</ele>
        <time>2019-02-16T09:03:26Z</time>
      </trkpt>
      <trkpt lat="45.96644" lon="6.58113">
        <ele>1545.46</ele>
        <time>2019-02-16T09:03:27Z</time>
      </trkpt>
      <trkpt lat="45.96643" lon="6.58108">
        <ele>1545.94</ele>
        <time>2019-02-16T09:03:30Z</time>
      </trkpt>
      <trkpt lat="45.96643" lon="6.58107">
        <ele>1546.42</ele>
        <time>2019-02-16T09:03:31Z</time>
      </trkpt>
      <trkpt lat="45.96643" lon="6.58105">
        <ele>1546.42</ele>
        <time>2019-02-16T09:03:32Z</time>
      </trkpt>
      <trkpt lat="45.96642" lon="6.58102">
        <ele>1546.9</ele>
        <time>2019-02-16T09:03:34Z</time>
      </trkpt>
      <trkpt lat="45.96641" lon="6.581">
        <ele>1547.38</ele>
        <time>2019-02-16T09:03:35Z</time>
      </trkpt>
      <trkpt lat="45.96641" lon="6.58098">
        <ele>1547.38</ele>
        <time>2019-02-16T09:03:36Z</time>
      </trkpt>
      <trkpt lat="45.9664" lon="6.58097">
        <ele>1547.38</ele>
        <time>2019-02-16T09:03:37Z</time>
      </trkpt>
      <trkpt lat="45.96639" lon="6.58094">
        <ele>1547.86</ele>
        <time>2019-02-16T09:03:39Z</time>
      </trkpt>
      <trkpt lat="45.96639" lon="6.58093">
        <ele>1548.34</ele>
        <time>2019-02-16T09:03:40Z</time>
      </trkpt>
      <trkpt lat="45.96639" lon="6.58091">
        <ele>1548.34</ele>
        <time>2019-02-16T09:03:41Z</time>
      </trkpt>
      <trkpt lat="45.96639" lon="6.5809">
        <ele>1548.34</ele>
        <time>2019-02-16T09:03:42Z</time>
      </trkpt>
      <trkpt lat="45.96639" lon="6.58088">
        <ele>1548.34</ele>
        <time>2019-02-16T09:03:43Z</time>
      </trkpt>
      <trkpt lat="45.96638" lon="6.58077">
        <ele>1549.78</ele>
        <time>2019-02-16T09:03:51Z</time>
      </trkpt>
      <trkpt lat="45.96636" lon="6.58075">
        <ele>1549.78</ele>
        <time>2019-02-16T09:03:54Z</time>
      </trkpt>
      <trkpt lat="45.96634" lon="6.58073">
        <ele>1550.26</ele>
        <time>2019-02-16T09:03:55Z</time>
      </trkpt>
      <trkpt lat="45.96632" lon="6.58072">
        <ele>1550.74</ele>
        <time>2019-02-16T09:03:57Z</time>
      </trkpt>
      <trkpt lat="45.96631" lon="6.58071">
        <ele>1551.22</ele>
        <time>2019-02-16T09:03:58Z</time>
      </trkpt>
      <trkpt lat="45.96631" lon="6.58069">
        <ele>1551.22</ele>
        <time>2019-02-16T09:04:00Z</time>
      </trkpt>
      <trkpt lat="45.9663" lon="6.58067">
        <ele>1551.22</ele>
        <time>2019-02-16T09:04:01Z</time>
      </trkpt>
      <trkpt lat="45.9663" lon="6.58066">
        <ele>1551.71</ele>
        <time>2019-02-16T09:04:02Z</time>
      </trkpt>
      <trkpt lat="45.96629" lon="6.58064">
        <ele>1552.19</ele>
        <time>2019-02-16T09:04:03Z</time>
      </trkpt>
      <trkpt lat="45.96629" lon="6.58063">
        <ele>1552.19</ele>
        <time>2019-02-16T09:04:04Z</time>
      </trkpt>
      <trkpt lat="45.96629" lon="6.58062">
        <ele>1552.19</ele>
        <time>2019-02-16T09:04:05Z</time>
      </trkpt>
      <trkpt lat="45.96629" lon="6.58062">
        <ele>1552.67</ele>
        <time>2019-02-16T09:04:06Z</time>
      </trkpt>
      <trkpt lat="45.96627" lon="6.58057">
        <ele>1553.63</ele>
        <time>2019-02-16T09:04:10Z</time>
      </trkpt>
      <trkpt lat="45.96626" lon="6.58056">
        <ele>1553.63</ele>
        <time>2019-02-16T09:04:11Z</time>
      </trkpt>
      <trkpt lat="45.96625" lon="6.58055">
        <ele>1554.11</ele>
        <time>2019-02-16T09:04:12Z</time>
      </trkpt>
      <trkpt lat="45.96624" lon="6.58051">
        <ele>1554.59</ele>
        <time>2019-02-16T09:04:14Z</time>
      </trkpt>
      <trkpt lat="45.96623" lon="6.58049">
        <ele>1554.59</ele>
        <time>2019-02-16T09:04:16Z</time>
      </trkpt>
      <trkpt lat="45.96622" lon="6.58047">
        <ele>1554.59</ele>
        <time>2019-02-16T09:04:17Z</time>
      </trkpt>
      <trkpt lat="45.96622" lon="6.58046">
        <ele>1554.59</ele>
        <time>2019-02-16T09:04:18Z</time>
      </trkpt>
      <trkpt lat="45.9662" lon="6.58045">
        <ele>1555.07</ele>
        <time>2019-02-16T09:04:19Z</time>
      </trkpt>
      <trkpt lat="45.96619" lon="6.58043">
        <ele>1555.55</ele>
        <time>2019-02-16T09:04:20Z</time>
      </trkpt>
      <trkpt lat="45.96618" lon="6.58042">
        <ele>1556.03</ele>
        <time>2019-02-16T09:04:22Z</time>
      </trkpt>
      <trkpt lat="45.96618" lon="6.58041">
        <ele>1556.03</ele>
        <time>2019-02-16T09:04:23Z</time>
      </trkpt>
      <trkpt lat="45.96615" lon="6.58039">
        <ele>1556.51</ele>
        <time>2019-02-16T09:04:26Z</time>
      </trkpt>
      <trkpt lat="45.9661" lon="6.58026">
        <ele>1558.43</ele>
        <time>2019-02-16T09:04:39Z</time>
      </trkpt>
      <trkpt lat="45.9661" lon="6.58025">
        <ele>1558.92</ele>
        <time>2019-02-16T09:04:40Z</time>
      </trkpt>
      <trkpt lat="45.9661" lon="6.58024">
        <ele>1558.92</ele>
        <time>2019-02-16T09:04:41Z</time>
      </trkpt>
      <trkpt lat="45.96609" lon="6.58022">
        <ele>1559.4</ele>
        <time>2019-02-16T09:04:42Z</time>
      </trkpt>
      <trkpt lat="45.96608" lon="6.5802">
        <ele>1559.4</ele>
        <time>2019-02-16T09:04:43Z</time>
      </trkpt>
      <trkpt lat="45.966" lon="6.57988">
        <ele>1562.76</ele>
        <time>2019-02-16T09:05:09Z</time>
      </trkpt>
      <trkpt lat="45.96596" lon="6.5798">
        <ele>1564.2</ele>
        <time>2019-02-16T09:05:15Z</time>
      </trkpt>
      <trkpt lat="45.96595" lon="6.57978">
        <ele>1564.2</ele>
        <time>2019-02-16T09:05:17Z</time>
      </trkpt>
      <trkpt lat="45.96595" lon="6.57976">
        <ele>1564.2</ele>
        <time>2019-02-16T09:05:18Z</time>
      </trkpt>
      <trkpt lat="45.96595" lon="6.57973">
        <ele>1565.16</ele>
        <time>2019-02-16T09:05:21Z</time>
      </trkpt>
      <trkpt lat="45.96594" lon="6.57972">
        <ele>1565.16</ele>
        <time>2019-02-16T09:05:22Z</time>
      </trkpt>
      <trkpt lat="45.96593" lon="6.5797">
        <ele>1565.64</ele>
        <time>2019-02-16T09:05:23Z</time>
      </trkpt>
      <trkpt lat="45.96593" lon="6.57969">
        <ele>1565.64</ele>
        <time>2019-02-16T09:05:24Z</time>
      </trkpt>
      <trkpt lat="45.96593" lon="6.57968">
        <ele>1566.12</ele>
        <time>2019-02-16T09:05:25Z</time>
      </trkpt>
      <trkpt lat="45.96592" lon="6.57966">
        <ele>1566.61</ele>
        <time>2019-02-16T09:05:26Z</time>
      </trkpt>
      <trkpt lat="45.96591" lon="6.57962">
        <ele>1566.61</ele>
        <time>2019-02-16T09:05:29Z</time>
      </trkpt>
      <trkpt lat="45.96591" lon="6.57961">
        <ele>1566.61</ele>
        <time>2019-02-16T09:05:30Z</time>
      </trkpt>
      <trkpt lat="45.96591" lon="6.57961">
        <ele>1567.09</ele>
        <time>2019-02-16T09:05:31Z</time>
      </trkpt>
      <trkpt lat="45.96591" lon="6.5796">
        <ele>1567.09</ele>
        <time>2019-02-16T09:05:32Z</time>
      </trkpt>
      <trkpt lat="45.96592" lon="6.57959">
        <ele>1567.57</ele>
        <time>2019-02-16T09:05:33Z</time>
      </trkpt>
      <trkpt lat="45.96593" lon="6.57958">
        <ele>1568.05</ele>
        <time>2019-02-16T09:05:34Z</time>
      </trkpt>
      <trkpt lat="45.96593" lon="6.57956">
        <ele>1568.53</ele>
        <time>2019-02-16T09:05:36Z</time>
      </trkpt>
      <trkpt lat="45.96592" lon="6.57955">
        <ele>1568.53</ele>
        <time>2019-02-16T09:05:37Z</time>
      </trkpt>
      <trkpt lat="45.96588" lon="6.57939">
        <ele>1569.97</ele>
        <time>2019-02-16T09:05:49Z</time>
      </trkpt>
      <trkpt lat="45.96587" lon="6.57938">
        <ele>1570.45</ele>
        <time>2019-02-16T09:05:50Z</time>
      </trkpt>
      <trkpt lat="45.96587" lon="6.57936">
        <ele>1570.45</ele>
        <time>2019-02-16T09:05:51Z</time>
      </trkpt>
      <trkpt lat="45.96587" lon="6.57934">
        <ele>1570.45</ele>
        <time>2019-02-16T09:05:52Z</time>
      </trkpt>
      <trkpt lat="45.96586" lon="6.57932">
        <ele>1570.93</ele>
        <time>2019-02-16T09:05:53Z</time>
      </trkpt>
      <trkpt lat="45.96585" lon="6.57929">
        <ele>1571.41</ele>
        <time>2019-02-16T09:05:55Z</time>
      </trkpt>
      <trkpt lat="45.96585" lon="6.57927">
        <ele>1571.89</ele>
        <time>2019-02-16T09:05:56Z</time>
      </trkpt>
      <trkpt lat="45.96579" lon="6.57911">
        <ele>1573.82</ele>
        <time>2019-02-16T09:06:08Z</time>
      </trkpt>
      <trkpt lat="45.96579" lon="6.57909">
        <ele>1574.78</ele>
        <time>2019-02-16T09:06:10Z</time>
      </trkpt>
      <trkpt lat="45.96579" lon="6.57905">
        <ele>1574.78</ele>
        <time>2019-02-16T09:06:13Z</time>
      </trkpt>
      <trkpt lat="45.96578" lon="6.57904">
        <ele>1575.26</ele>
        <time>2019-02-16T09:06:14Z</time>
      </trkpt>
      <trkpt lat="45.96578" lon="6.57903">
        <ele>1575.26</ele>
        <time>2019-02-16T09:06:15Z</time>
      </trkpt>
      <trkpt lat="45.96577" lon="6.57902">
        <ele>1575.26</ele>
        <time>2019-02-16T09:06:16Z</time>
      </trkpt>
      <trkpt lat="45.96574" lon="6.57897">
        <ele>1576.22</ele>
        <time>2019-02-16T09:06:22Z</time>
      </trkpt>
      <trkpt lat="45.96574" lon="6.57894">
        <ele>1577.18</ele>
        <time>2019-02-16T09:06:24Z</time>
      </trkpt>
      <trkpt lat="45.96572" lon="6.57891">
        <ele>1577.66</ele>
        <time>2019-02-16T09:06:27Z</time>
      </trkpt>
      <trkpt lat="45.96571" lon="6.57891">
        <ele>1577.66</ele>
        <time>2019-02-16T09:06:28Z</time>
      </trkpt>
      <trkpt lat="45.9657" lon="6.57889">
        <ele>1578.14</ele>
        <time>2019-02-16T09:06:29Z</time>
      </trkpt>
      <trkpt lat="45.96569" lon="6.57888">
        <ele>1578.14</ele>
        <time>2019-02-16T09:06:30Z</time>
      </trkpt>
      <trkpt lat="45.96569" lon="6.57887">
        <ele>1578.62</ele>
        <time>2019-02-16T09:06:31Z</time>
      </trkpt>
      <trkpt lat="45.96567" lon="6.57885">
        <ele>1578.62</ele>
        <time>2019-02-16T09:06:33Z</time>
      </trkpt>
      <trkpt lat="45.96559" lon="6.57867">
        <ele>1580.54</ele>
        <time>2019-02-16T09:06:46Z</time>
      </trkpt>
      <trkpt lat="45.96559" lon="6.57866">
        <ele>1580.54</ele>
        <time>2019-02-16T09:06:47Z</time>
      </trkpt>
      <trkpt lat="45.96559" lon="6.57865">
        <ele>1580.54</ele>
        <time>2019-02-16T09:06:48Z</time>
      </trkpt>
      <trkpt lat="45.96558" lon="6.57863">
        <ele>1580.54</ele>
        <time>2019-02-16T09:06:49Z</time>
      </trkpt>
      <trkpt lat="45.96558" lon="6.57862">
        <ele>1581.03</ele>
        <time>2019-02-16T09:06:50Z</time>
      </trkpt>
      <trkpt lat="45.96558" lon="6.57861">
        <ele>1581.03</ele>
        <time>2019-02-16T09:06:51Z</time>
      </trkpt>
      <trkpt lat="45.96559" lon="6.57856">
        <ele>1581.51</ele>
        <time>2019-02-16T09:06:56Z</time>
      </trkpt>
      <trkpt lat="45.96558" lon="6.57855">
        <ele>1581.99</ele>
        <time>2019-02-16T09:06:57Z</time>
      </trkpt>
      <trkpt lat="45.96558" lon="6.57854">
        <ele>1581.99</ele>
        <time>2019-02-16T09:06:58Z</time>
      </trkpt>
      <trkpt lat="45.96558" lon="6.57852">
        <ele>1581.99</ele>
        <time>2019-02-16T09:06:59Z</time>
      </trkpt>
      <trkpt lat="45.96558" lon="6.57851">
        <ele>1582.95</ele>
        <time>2019-02-16T09:07:01Z</time>
      </trkpt>
      <trkpt lat="45.96556" lon="6.57847">
        <ele>1583.43</ele>
        <time>2019-02-16T09:07:04Z</time>
      </trkpt>
      <trkpt lat="45.96554" lon="6.57844">
        <ele>1583.91</ele>
        <time>2019-02-16T09:07:07Z</time>
      </trkpt>
      <trkpt lat="45.96554" lon="6.57843">
        <ele>1583.91</ele>
        <time>2019-02-16T09:07:08Z</time>
      </trkpt>
      <trkpt lat="45.96548" lon="6.57816">
        <ele>1587.27</ele>
        <time>2019-02-16T09:07:27Z</time>
      </trkpt>
      <trkpt lat="45.96548" lon="6.57815">
        <ele>1587.27</ele>
        <time>2019-02-16T09:07:28Z</time>
      </trkpt>
      <trkpt lat="45.96548" lon="6.57813">
        <ele>1587.75</ele>
        <time>2019-02-16T09:07:29Z</time>
      </trkpt>
      <trkpt lat="45.96547" lon="6.57806">
        <ele>1588.24</ele>
        <time>2019-02-16T09:07:35Z</time>
      </trkpt>
      <trkpt lat="45.96548" lon="6.57804">
        <ele>1588.72</ele>
        <time>2019-02-16T09:07:37Z</time>
      </trkpt>
      <trkpt lat="45.96547" lon="6.57803">
        <ele>1589.2</ele>
        <time>2019-02-16T09:07:38Z</time>
      </trkpt>
      <trkpt lat="45.96546" lon="6.57802">
        <ele>1589.2</ele>
        <time>2019-02-16T09:07:39Z</time>
      </trkpt>
      <trkpt lat="45.96548" lon="6.578">
        <ele>1589.2</ele>
        <time>2019-02-16T09:07:40Z</time>
      </trkpt>
      <trkpt lat="45.96548" lon="6.57797">
        <ele>1590.16</ele>
        <time>2019-02-16T09:07:43Z</time>
      </trkpt>
      <trkpt lat="45.96547" lon="6.57795">
        <ele>1590.64</ele>
        <time>2019-02-16T09:07:45Z</time>
      </trkpt>
      <trkpt lat="45.96545" lon="6.57793">
        <ele>1591.12</ele>
        <time>2019-02-16T09:07:47Z</time>
      </trkpt>
      <trkpt lat="45.96544" lon="6.5779">
        <ele>1591.6</ele>
        <time>2019-02-16T09:07:50Z</time>
      </trkpt>
      <trkpt lat="45.96544" lon="6.57787">
        <ele>1592.56</ele>
        <time>2019-02-16T09:07:53Z</time>
      </trkpt>
      <trkpt lat="45.96539" lon="6.5778">
        <ele>1594.96</ele>
        <time>2019-02-16T09:08:02Z</time>
      </trkpt>
      <trkpt lat="45.96538" lon="6.57779">
        <ele>1594.96</ele>
        <time>2019-02-16T09:08:03Z</time>
      </trkpt>
      <trkpt lat="45.96538" lon="6.57779">
        <ele>1594.96</ele>
        <time>2019-02-16T09:08:04Z</time>
      </trkpt>
      <trkpt lat="45.96537" lon="6.57777">
        <ele>1595.45</ele>
        <time>2019-02-16T09:08:05Z</time>
      </trkpt>
      <trkpt lat="45.96536" lon="6.57773">
        <ele>1596.41</ele>
        <time>2019-02-16T09:08:09Z</time>
      </trkpt>
      <trkpt lat="45.96535" lon="6.57772">
        <ele>1596.89</ele>
        <time>2019-02-16T09:08:10Z</time>
      </trkpt>
      <trkpt lat="45.96532" lon="6.57758">
        <ele>1599.77</ele>
        <time>2019-02-16T09:08:24Z</time>
      </trkpt>
      <trkpt lat="45.96532" lon="6.57757">
        <ele>1599.77</ele>
        <time>2019-02-16T09:08:25Z</time>
      </trkpt>
      <trkpt lat="45.96528" lon="6.57753">
        <ele>1600.73</ele>
        <time>2019-02-16T09:08:29Z</time>
      </trkpt>
      <trkpt lat="45.96528" lon="6.57753">
        <ele>1600.73</ele>
        <time>2019-02-16T09:08:30Z</time>
      </trkpt>
      <trkpt lat="45.96527" lon="6.57752">
        <ele>1601.21</ele>
        <time>2019-02-16T09:08:31Z</time>
      </trkpt>
      <trkpt lat="45.96526" lon="6.57751">
        <ele>1601.21</ele>
        <time>2019-02-16T09:08:32Z</time>
      </trkpt>
      <trkpt lat="45.96525" lon="6.5775">
        <ele>1601.69</ele>
        <time>2019-02-16T09:08:33Z</time>
      </trkpt>
      <trkpt lat="45.96525" lon="6.57749">
        <ele>1602.17</ele>
        <time>2019-02-16T09:08:34Z</time>
      </trkpt>
      <trkpt lat="45.96523" lon="6.57744">
        <ele>1602.66</ele>
        <time>2019-02-16T09:08:38Z</time>
      </trkpt>
      <trkpt lat="45.96524" lon="6.57743">
        <ele>1603.14</ele>
        <time>2019-02-16T09:08:39Z</time>
      </trkpt>
      <trkpt lat="45.96523" lon="6.5774">
        <ele>1603.62</ele>
        <time>2019-02-16T09:08:41Z</time>
      </trkpt>
      <trkpt lat="45.96522" lon="6.57739">
        <ele>1603.62</ele>
        <time>2019-02-16T09:08:42Z</time>
      </trkpt>
      <trkpt lat="45.96521" lon="6.57738">
        <ele>1604.1</ele>
        <time>2019-02-16T09:08:43Z</time>
      </trkpt>
      <trkpt lat="45.9652" lon="6.57735">
        <ele>1604.58</ele>
        <time>2019-02-16T09:08:46Z</time>
      </trkpt>
      <trkpt lat="45.9652" lon="6.57731">
        <ele>1605.54</ele>
        <time>2019-02-16T09:08:49Z</time>
      </trkpt>
      <trkpt lat="45.96519" lon="6.5773">
        <ele>1605.54</ele>
        <time>2019-02-16T09:08:50Z</time>
      </trkpt>
      <trkpt lat="45.96519" lon="6.57728">
        <ele>1605.54</ele>
        <time>2019-02-16T09:08:51Z</time>
      </trkpt>
      <trkpt lat="45.96517" lon="6.57726">
        <ele>1606.02</ele>
        <time>2019-02-16T09:08:53Z</time>
      </trkpt>
      <trkpt lat="45.96516" lon="6.57725">
        <ele>1606.02</ele>
        <time>2019-02-16T09:08:54Z</time>
      </trkpt>
      <trkpt lat="45.96514" lon="6.57719">
        <ele>1606.98</ele>
        <time>2019-02-16T09:08:59Z</time>
      </trkpt>
      <trkpt lat="45.96515" lon="6.57716">
        <ele>1607.46</ele>
        <time>2019-02-16T09:09:01Z</time>
      </trkpt>
      <trkpt lat="45.96515" lon="6.57714">
        <ele>1607.46</ele>
        <time>2019-02-16T09:09:02Z</time>
      </trkpt>
      <trkpt lat="45.96508" lon="6.57699">
        <ele>1609.86</ele>
        <time>2019-02-16T09:09:16Z</time>
      </trkpt>
      <trkpt lat="45.96508" lon="6.57698">
        <ele>1610.35</ele>
        <time>2019-02-16T09:09:17Z</time>
      </trkpt>
      <trkpt lat="45.96507" lon="6.57697">
        <ele>1610.35</ele>
        <time>2019-02-16T09:09:18Z</time>
      </trkpt>
      <trkpt lat="45.96506" lon="6.57695">
        <ele>1610.35</ele>
        <time>2019-02-16T09:09:19Z</time>
      </trkpt>
      <trkpt lat="45.96506" lon="6.57694">
        <ele>1610.83</ele>
        <time>2019-02-16T09:09:21Z</time>
      </trkpt>
      <trkpt lat="45.96503" lon="6.57689">
        <ele>1612.27</ele>
        <time>2019-02-16T09:09:27Z</time>
      </trkpt>
      <trkpt lat="45.96501" lon="6.57684">
        <ele>1613.71</ele>
        <time>2019-02-16T09:09:32Z</time>
      </trkpt>
      <trkpt lat="45.96501" lon="6.57683">
        <ele>1613.71</ele>
        <time>2019-02-16T09:09:33Z</time>
      </trkpt>
      <trkpt lat="45.965" lon="6.57681">
        <ele>1613.71</ele>
        <time>2019-02-16T09:09:34Z</time>
      </trkpt>
      <trkpt lat="45.96498" lon="6.57678">
        <ele>1614.19</ele>
        <time>2019-02-16T09:09:37Z</time>
      </trkpt>
      <trkpt lat="45.96497" lon="6.57675">
        <ele>1614.67</ele>
        <time>2019-02-16T09:09:40Z</time>
      </trkpt>
      <trkpt lat="45.96496" lon="6.57673">
        <ele>1614.67</ele>
        <time>2019-02-16T09:09:42Z</time>
      </trkpt>
      <trkpt lat="45.96496" lon="6.57672">
        <ele>1615.15</ele>
        <time>2019-02-16T09:09:43Z</time>
      </trkpt>
      <trkpt lat="45.96492" lon="6.57656">
        <ele>1616.59</ele>
        <time>2019-02-16T09:09:57Z</time>
      </trkpt>
      <trkpt lat="45.96491" lon="6.57655">
        <ele>1617.07</ele>
        <time>2019-02-16T09:09:58Z</time>
      </trkpt>
      <trkpt lat="45.96491" lon="6.57654">
        <ele>1617.07</ele>
        <time>2019-02-16T09:09:59Z</time>
      </trkpt>
      <trkpt lat="45.9649" lon="6.5765">
        <ele>1618.04</ele>
        <time>2019-02-16T09:10:02Z</time>
      </trkpt>
      <trkpt lat="45.9649" lon="6.57649">
        <ele>1618.04</ele>
        <time>2019-02-16T09:10:03Z</time>
      </trkpt>
      <trkpt lat="45.96489" lon="6.57647">
        <ele>1618.04</ele>
        <time>2019-02-16T09:10:04Z</time>
      </trkpt>
      <trkpt lat="45.96488" lon="6.57641">
        <ele>1619</ele>
        <time>2019-02-16T09:10:09Z</time>
      </trkpt>
      <trkpt lat="45.96488" lon="6.57639">
        <ele>1619</ele>
        <time>2019-02-16T09:10:11Z</time>
      </trkpt>
      <trkpt lat="45.96484" lon="6.57617">
        <ele>1622.36</ele>
        <time>2019-02-16T09:10:29Z</time>
      </trkpt>
      <trkpt lat="45.96481" lon="6.57605">
        <ele>1624.28</ele>
        <time>2019-02-16T09:10:40Z</time>
      </trkpt>
      <trkpt lat="45.96481" lon="6.57603">
        <ele>1624.77</ele>
        <time>2019-02-16T09:10:41Z</time>
      </trkpt>
      <trkpt lat="45.9648" lon="6.57602">
        <ele>1624.77</ele>
        <time>2019-02-16T09:10:43Z</time>
      </trkpt>
      <trkpt lat="45.9648" lon="6.57599">
        <ele>1625.25</ele>
        <time>2019-02-16T09:10:45Z</time>
      </trkpt>
      <trkpt lat="45.96479" lon="6.57598">
        <ele>1625.73</ele>
        <time>2019-02-16T09:10:46Z</time>
      </trkpt>
      <trkpt lat="45.96479" lon="6.57597">
        <ele>1625.73</ele>
        <time>2019-02-16T09:10:47Z</time>
      </trkpt>
      <trkpt lat="45.96478" lon="6.57596">
        <ele>1626.21</ele>
        <time>2019-02-16T09:10:48Z</time>
      </trkpt>
      <trkpt lat="45.96476" lon="6.5759">
        <ele>1626.69</ele>
        <time>2019-02-16T09:10:53Z</time>
      </trkpt>
      <trkpt lat="45.96476" lon="6.57589">
        <ele>1626.69</ele>
        <time>2019-02-16T09:10:54Z</time>
      </trkpt>
      <trkpt lat="45.96475" lon="6.57584">
        <ele>1627.65</ele>
        <time>2019-02-16T09:10:58Z</time>
      </trkpt>
      <trkpt lat="45.96474" lon="6.57582">
        <ele>1627.65</ele>
        <time>2019-02-16T09:11:00Z</time>
      </trkpt>
      <trkpt lat="45.96466" lon="6.57568">
        <ele>1630.53</ele>
        <time>2019-02-16T09:11:19Z</time>
      </trkpt>
      <trkpt lat="45.96456" lon="6.57561">
        <ele>1633.42</ele>
        <time>2019-02-16T09:11:37Z</time>
      </trkpt>
      <trkpt lat="45.96456" lon="6.57554">
        <ele>1634.38</ele>
        <time>2019-02-16T09:11:54Z</time>
      </trkpt>
      <trkpt lat="45.9645" lon="6.57562">
        <ele>1634.86</ele>
        <time>2019-02-16T09:11:59Z</time>
      </trkpt>
      <trkpt lat="45.96448" lon="6.57565">
        <ele>1634.38</ele>
        <time>2019-02-16T09:12:01Z</time>
      </trkpt>
      <trkpt lat="45.96442" lon="6.57562">
        <ele>1634.38</ele>
        <time>2019-02-16T09:12:18Z</time>
      </trkpt>
      <trkpt lat="45.9644" lon="6.57562">
        <ele>1634.86</ele>
        <time>2019-02-16T09:12:28Z</time>
      </trkpt>
      <trkpt lat="45.96442" lon="6.57562">
        <ele>1634.38</ele>
        <time>2019-02-16T09:12:29Z</time>
      </trkpt>
      <trkpt lat="45.96441" lon="6.57565">
        <ele>1634.86</ele>
        <time>2019-02-16T09:12:32Z</time>
      </trkpt>
      <trkpt lat="45.96441" lon="6.57566">
        <ele>1634.86</ele>
        <time>2019-02-16T09:12:33Z</time>
      </trkpt>
      <trkpt lat="45.96439" lon="6.57569">
        <ele>1634.86</ele>
        <time>2019-02-16T09:12:41Z</time>
      </trkpt>
      <trkpt lat="45.96445" lon="6.57555">
        <ele>1635.34</ele>
        <time>2019-02-16T09:12:50Z</time>
      </trkpt>
      <trkpt lat="45.96443" lon="6.57535">
        <ele>1638.22</ele>
        <time>2019-02-16T09:13:13Z</time>
      </trkpt>
      <trkpt lat="45.96437" lon="6.57514">
        <ele>1641.59</ele>
        <time>2019-02-16T09:13:33Z</time>
      </trkpt>
      <trkpt lat="45.96437" lon="6.5749">
        <ele>1643.99</ele>
        <time>2019-02-16T09:13:46Z</time>
      </trkpt>
      <trkpt lat="45.96436" lon="6.57488">
        <ele>1643.99</ele>
        <time>2019-02-16T09:13:47Z</time>
      </trkpt>
      <trkpt lat="45.96435" lon="6.57486">
        <ele>1644.47</ele>
        <time>2019-02-16T09:13:48Z</time>
      </trkpt>
      <trkpt lat="45.96435" lon="6.57483">
        <ele>1645.43</ele>
        <time>2019-02-16T09:13:50Z</time>
      </trkpt>
      <trkpt lat="45.96429" lon="6.57458">
        <ele>1648.32</ele>
        <time>2019-02-16T09:14:07Z</time>
      </trkpt>
      <trkpt lat="45.96428" lon="6.57443">
        <ele>1651.2</ele>
        <time>2019-02-16T09:14:20Z</time>
      </trkpt>
      <trkpt lat="45.96429" lon="6.5744">
        <ele>1651.68</ele>
        <time>2019-02-16T09:14:21Z</time>
      </trkpt>
      <trkpt lat="45.96426" lon="6.57427">
        <ele>1653.6</ele>
        <time>2019-02-16T09:14:32Z</time>
      </trkpt>
      <trkpt lat="45.96426" lon="6.57425">
        <ele>1654.09</ele>
        <time>2019-02-16T09:14:33Z</time>
      </trkpt>
      <trkpt lat="45.96425" lon="6.57424">
        <ele>1654.09</ele>
        <time>2019-02-16T09:14:34Z</time>
      </trkpt>
      <trkpt lat="45.96422" lon="6.57418">
        <ele>1654.57</ele>
        <time>2019-02-16T09:14:38Z</time>
      </trkpt>
      <trkpt lat="45.96421" lon="6.57417">
        <ele>1655.05</ele>
        <time>2019-02-16T09:14:39Z</time>
      </trkpt>
      <trkpt lat="45.96421" lon="6.57416">
        <ele>1655.05</ele>
        <time>2019-02-16T09:14:40Z</time>
      </trkpt>
      <trkpt lat="45.96407" lon="6.57395">
        <ele>1658.41</ele>
        <time>2019-02-16T09:14:57Z</time>
      </trkpt>
      <trkpt lat="45.96406" lon="6.57392">
        <ele>1659.37</ele>
        <time>2019-02-16T09:15:00Z</time>
      </trkpt>
      <trkpt lat="45.96406" lon="6.57391">
        <ele>1659.37</ele>
        <time>2019-02-16T09:15:01Z</time>
      </trkpt>
      <trkpt lat="45.96404" lon="6.5739">
        <ele>1659.85</ele>
        <time>2019-02-16T09:15:02Z</time>
      </trkpt>
      <trkpt lat="45.96403" lon="6.57388">
        <ele>1659.85</ele>
        <time>2019-02-16T09:15:03Z</time>
      </trkpt>
      <trkpt lat="45.96403" lon="6.57386">
        <ele>1660.33</ele>
        <time>2019-02-16T09:15:05Z</time>
      </trkpt>
      <trkpt lat="45.96403" lon="6.57383">
        <ele>1660.81</ele>
        <time>2019-02-16T09:15:08Z</time>
      </trkpt>
      <trkpt lat="45.96404" lon="6.57382">
        <ele>1660.81</ele>
        <time>2019-02-16T09:15:09Z</time>
      </trkpt>
      <trkpt lat="45.96404" lon="6.57381">
        <ele>1661.3</ele>
        <time>2019-02-16T09:15:10Z</time>
      </trkpt>
      <trkpt lat="45.96404" lon="6.57379">
        <ele>1661.3</ele>
        <time>2019-02-16T09:15:11Z</time>
      </trkpt>
      <trkpt lat="45.96403" lon="6.57378">
        <ele>1661.3</ele>
        <time>2019-02-16T09:15:12Z</time>
      </trkpt>
      <trkpt lat="45.96403" lon="6.57377">
        <ele>1661.78</ele>
        <time>2019-02-16T09:15:13Z</time>
      </trkpt>
      <trkpt lat="45.96402" lon="6.57376">
        <ele>1661.78</ele>
        <time>2019-02-16T09:15:14Z</time>
      </trkpt>
      <trkpt lat="45.96401" lon="6.57375">
        <ele>1661.78</ele>
        <time>2019-02-16T09:15:15Z</time>
      </trkpt>
      <trkpt lat="45.96401" lon="6.57374">
        <ele>1662.26</ele>
        <time>2019-02-16T09:15:16Z</time>
      </trkpt>
      <trkpt lat="45.96401" lon="6.57373">
        <ele>1662.74</ele>
        <time>2019-02-16T09:15:17Z</time>
      </trkpt>
      <trkpt lat="45.964" lon="6.57372">
        <ele>1662.74</ele>
        <time>2019-02-16T09:15:18Z</time>
      </trkpt>
      <trkpt lat="45.96399" lon="6.57367">
        <ele>1664.18</ele>
        <time>2019-02-16T09:15:22Z</time>
      </trkpt>
      <trkpt lat="45.964" lon="6.57365">
        <ele>1664.18</ele>
        <time>2019-02-16T09:15:24Z</time>
      </trkpt>
      <trkpt lat="45.96399" lon="6.57364">
        <ele>1664.18</ele>
        <time>2019-02-16T09:15:25Z</time>
      </trkpt>
      <trkpt lat="45.96397" lon="6.57359">
        <ele>1665.62</ele>
        <time>2019-02-16T09:15:30Z</time>
      </trkpt>
      <trkpt lat="45.96396" lon="6.57357">
        <ele>1665.62</ele>
        <time>2019-02-16T09:15:32Z</time>
      </trkpt>
      <trkpt lat="45.96395" lon="6.57356">
        <ele>1666.1</ele>
        <time>2019-02-16T09:15:33Z</time>
      </trkpt>
      <trkpt lat="45.96395" lon="6.57355">
        <ele>1666.1</ele>
        <time>2019-02-16T09:15:34Z</time>
      </trkpt>
      <trkpt lat="45.96394" lon="6.57354">
        <ele>1666.58</ele>
        <time>2019-02-16T09:15:35Z</time>
      </trkpt>
      <trkpt lat="45.96394" lon="6.57352">
        <ele>1667.06</ele>
        <time>2019-02-16T09:15:37Z</time>
      </trkpt>
      <trkpt lat="45.96393" lon="6.57351">
        <ele>1667.54</ele>
        <time>2019-02-16T09:15:38Z</time>
      </trkpt>
      <trkpt lat="45.96392" lon="6.5735">
        <ele>1667.54</ele>
        <time>2019-02-16T09:15:39Z</time>
      </trkpt>
      <trkpt lat="45.96391" lon="6.57348">
        <ele>1668.02</ele>
        <time>2019-02-16T09:15:40Z</time>
      </trkpt>
      <trkpt lat="45.96391" lon="6.57348">
        <ele>1668.02</ele>
        <time>2019-02-16T09:15:41Z</time>
      </trkpt>
      <trkpt lat="45.96391" lon="6.57346">
        <ele>1668.51</ele>
        <time>2019-02-16T09:15:42Z</time>
      </trkpt>
      <trkpt lat="45.96391" lon="6.57345">
        <ele>1668.51</ele>
        <time>2019-02-16T09:15:43Z</time>
      </trkpt>
      <trkpt lat="45.96391" lon="6.57344">
        <ele>1668.99</ele>
        <time>2019-02-16T09:15:44Z</time>
      </trkpt>
      <trkpt lat="45.9639" lon="6.57342">
        <ele>1668.99</ele>
        <time>2019-02-16T09:15:45Z</time>
      </trkpt>
      <trkpt lat="45.9639" lon="6.5734">
        <ele>1669.95</ele>
        <time>2019-02-16T09:15:47Z</time>
      </trkpt>
      <trkpt lat="45.96389" lon="6.57338">
        <ele>1669.95</ele>
        <time>2019-02-16T09:15:48Z</time>
      </trkpt>
      <trkpt lat="45.96389" lon="6.57338">
        <ele>1669.95</ele>
        <time>2019-02-16T09:15:49Z</time>
      </trkpt>
      <trkpt lat="45.96389" lon="6.57336">
        <ele>1670.43</ele>
        <time>2019-02-16T09:15:50Z</time>
      </trkpt>
      <trkpt lat="45.96388" lon="6.57334">
        <ele>1670.43</ele>
        <time>2019-02-16T09:15:52Z</time>
      </trkpt>
      <trkpt lat="45.96387" lon="6.57333">
        <ele>1670.91</ele>
        <time>2019-02-16T09:15:53Z</time>
      </trkpt>
      <trkpt lat="45.96385" lon="6.57327">
        <ele>1672.35</ele>
        <time>2019-02-16T09:15:58Z</time>
      </trkpt>
      <trkpt lat="45.96385" lon="6.57325">
        <ele>1672.35</ele>
        <time>2019-02-16T09:15:59Z</time>
      </trkpt>
      <trkpt lat="45.96384" lon="6.57324">
        <ele>1672.83</ele>
        <time>2019-02-16T09:16:00Z</time>
      </trkpt>
      <trkpt lat="45.96382" lon="6.57323">
        <ele>1672.83</ele>
        <time>2019-02-16T09:16:01Z</time>
      </trkpt>
      <trkpt lat="45.96381" lon="6.57322">
        <ele>1672.83</ele>
        <time>2019-02-16T09:16:02Z</time>
      </trkpt>
      <trkpt lat="45.9638" lon="6.57322">
        <ele>1672.83</ele>
        <time>2019-02-16T09:16:03Z</time>
      </trkpt>
      <trkpt lat="45.96379" lon="6.5732">
        <ele>1673.31</ele>
        <time>2019-02-16T09:16:04Z</time>
      </trkpt>
      <trkpt lat="45.96375" lon="6.57312">
        <ele>1675.23</ele>
        <time>2019-02-16T09:16:12Z</time>
      </trkpt>
      <trkpt lat="45.96373" lon="6.57309">
        <ele>1676.2</ele>
        <time>2019-02-16T09:16:17Z</time>
      </trkpt>
      <trkpt lat="45.96372" lon="6.57308">
        <ele>1676.68</ele>
        <time>2019-02-16T09:16:19Z</time>
      </trkpt>
      <trkpt lat="45.9637" lon="6.57307">
        <ele>1677.16</ele>
        <time>2019-02-16T09:16:20Z</time>
      </trkpt>
      <trkpt lat="45.96369" lon="6.57306">
        <ele>1677.16</ele>
        <time>2019-02-16T09:16:21Z</time>
      </trkpt>
      <trkpt lat="45.96368" lon="6.57306">
        <ele>1677.64</ele>
        <time>2019-02-16T09:16:22Z</time>
      </trkpt>
      <trkpt lat="45.96367" lon="6.57305">
        <ele>1677.64</ele>
        <time>2019-02-16T09:16:23Z</time>
      </trkpt>
      <trkpt lat="45.96365" lon="6.57304">
        <ele>1677.64</ele>
        <time>2019-02-16T09:16:24Z</time>
      </trkpt>
      <trkpt lat="45.96364" lon="6.57304">
        <ele>1677.64</ele>
        <time>2019-02-16T09:16:25Z</time>
      </trkpt>
      <trkpt lat="45.96364" lon="6.57303">
        <ele>1677.64</ele>
        <time>2019-02-16T09:16:26Z</time>
      </trkpt>
      <trkpt lat="45.96363" lon="6.57303">
        <ele>1677.64</ele>
        <time>2019-02-16T09:16:27Z</time>
      </trkpt>
      <trkpt lat="45.96363" lon="6.57302">
        <ele>1678.12</ele>
        <time>2019-02-16T09:16:28Z</time>
      </trkpt>
      <trkpt lat="45.96362" lon="6.57301">
        <ele>1678.6</ele>
        <time>2019-02-16T09:16:30Z</time>
      </trkpt>
      <trkpt lat="45.96361" lon="6.57299">
        <ele>1679.08</ele>
        <time>2019-02-16T09:16:32Z</time>
      </trkpt>
      <trkpt lat="45.96356" lon="6.57295">
        <ele>1680.04</ele>
        <time>2019-02-16T09:16:38Z</time>
      </trkpt>
      <trkpt lat="45.96356" lon="6.57295">
        <ele>1680.04</ele>
        <time>2019-02-16T09:16:39Z</time>
      </trkpt>
      <trkpt lat="45.96356" lon="6.57293">
        <ele>1680.52</ele>
        <time>2019-02-16T09:16:40Z</time>
      </trkpt>
      <trkpt lat="45.96356" lon="6.57291">
        <ele>1681</ele>
        <time>2019-02-16T09:16:41Z</time>
      </trkpt>
      <trkpt lat="45.96356" lon="6.57289">
        <ele>1681</ele>
        <time>2019-02-16T09:16:43Z</time>
      </trkpt>
      <trkpt lat="45.96355" lon="6.57288">
        <ele>1681.48</ele>
        <time>2019-02-16T09:16:44Z</time>
      </trkpt>
      <trkpt lat="45.96353" lon="6.57287">
        <ele>1681.48</ele>
        <time>2019-02-16T09:16:45Z</time>
      </trkpt>
      <trkpt lat="45.96352" lon="6.57286">
        <ele>1681.48</ele>
        <time>2019-02-16T09:16:46Z</time>
      </trkpt>
      <trkpt lat="45.96352" lon="6.57285">
        <ele>1681.48</ele>
        <time>2019-02-16T09:16:47Z</time>
      </trkpt>
      <trkpt lat="45.96351" lon="6.57284">
        <ele>1681.96</ele>
        <time>2019-02-16T09:16:48Z</time>
      </trkpt>
      <trkpt lat="45.96351" lon="6.57283">
        <ele>1681.96</ele>
        <time>2019-02-16T09:16:49Z</time>
      </trkpt>
      <trkpt lat="45.96347" lon="6.57277">
        <ele>1683.41</ele>
        <time>2019-02-16T09:16:55Z</time>
      </trkpt>
      <trkpt lat="45.96346" lon="6.57276">
        <ele>1683.41</ele>
        <time>2019-02-16T09:16:56Z</time>
      </trkpt>
      <trkpt lat="45.96344" lon="6.57272">
        <ele>1684.37</ele>
        <time>2019-02-16T09:17:00Z</time>
      </trkpt>
      <trkpt lat="45.96343" lon="6.57271">
        <ele>1684.37</ele>
        <time>2019-02-16T09:17:01Z</time>
      </trkpt>
      <trkpt lat="45.96343" lon="6.5727">
        <ele>1684.85</ele>
        <time>2019-02-16T09:17:02Z</time>
      </trkpt>
      <trkpt lat="45.96343" lon="6.5727">
        <ele>1684.85</ele>
        <time>2019-02-16T09:17:03Z</time>
      </trkpt>
      <trkpt lat="45.96343" lon="6.57268">
        <ele>1685.33</ele>
        <time>2019-02-16T09:17:04Z</time>
      </trkpt>
      <trkpt lat="45.96343" lon="6.57268">
        <ele>1685.33</ele>
        <time>2019-02-16T09:17:05Z</time>
      </trkpt>
      <trkpt lat="45.96342" lon="6.57267">
        <ele>1685.33</ele>
        <time>2019-02-16T09:17:06Z</time>
      </trkpt>
      <trkpt lat="45.96336" lon="6.57255">
        <ele>1688.69</ele>
        <time>2019-02-16T09:17:19Z</time>
      </trkpt>
      <trkpt lat="45.96336" lon="6.57249">
        <ele>1689.65</ele>
        <time>2019-02-16T09:17:25Z</time>
      </trkpt>
      <trkpt lat="45.96336" lon="6.57248">
        <ele>1690.14</ele>
        <time>2019-02-16T09:17:26Z</time>
      </trkpt>
      <trkpt lat="45.96333" lon="6.57242">
        <ele>1691.1</ele>
        <time>2019-02-16T09:17:32Z</time>
      </trkpt>
      <trkpt lat="45.96331" lon="6.57241">
        <ele>1691.58</ele>
        <time>2019-02-16T09:17:33Z</time>
      </trkpt>
      <trkpt lat="45.96331" lon="6.57239">
        <ele>1691.58</ele>
        <time>2019-02-16T09:17:35Z</time>
      </trkpt>
      <trkpt lat="45.96331" lon="6.57235">
        <ele>1693.02</ele>
        <time>2019-02-16T09:17:39Z</time>
      </trkpt>
      <trkpt lat="45.96331" lon="6.57234">
        <ele>1693.02</ele>
        <time>2019-02-16T09:17:40Z</time>
      </trkpt>
      <trkpt lat="45.9633" lon="6.57215">
        <ele>1696.38</ele>
        <time>2019-02-16T09:17:57Z</time>
      </trkpt>
      <trkpt lat="45.96327" lon="6.57209">
        <ele>1696.86</ele>
        <time>2019-02-16T09:18:04Z</time>
      </trkpt>
      <trkpt lat="45.96319" lon="6.57194">
        <ele>1700.23</ele>
        <time>2019-02-16T09:18:20Z</time>
      </trkpt>
      <trkpt lat="45.96311" lon="6.5718">
        <ele>1703.59</ele>
        <time>2019-02-16T09:18:34Z</time>
      </trkpt>
      <trkpt lat="45.9631" lon="6.5718">
        <ele>1703.59</ele>
        <time>2019-02-16T09:18:35Z</time>
      </trkpt>
      <trkpt lat="45.9631" lon="6.5718">
        <ele>1703.59</ele>
        <time>2019-02-16T09:18:36Z</time>
      </trkpt>
      <trkpt lat="45.96308" lon="6.57178">
        <ele>1704.55</ele>
        <time>2019-02-16T09:18:38Z</time>
      </trkpt>
      <trkpt lat="45.96308" lon="6.57177">
        <ele>1704.55</ele>
        <time>2019-02-16T09:18:39Z</time>
      </trkpt>
      <trkpt lat="45.96307" lon="6.57174">
        <ele>1704.55</ele>
        <time>2019-02-16T09:18:41Z</time>
      </trkpt>
      <trkpt lat="45.96307" lon="6.57173">
        <ele>1704.55</ele>
        <time>2019-02-16T09:18:42Z</time>
      </trkpt>
      <trkpt lat="45.96304" lon="6.57162">
        <ele>1707.92</ele>
        <time>2019-02-16T09:18:54Z</time>
      </trkpt>
      <trkpt lat="45.96298" lon="6.57145">
        <ele>1710.8</ele>
        <time>2019-02-16T09:19:09Z</time>
      </trkpt>
      <trkpt lat="45.96298" lon="6.57143">
        <ele>1711.28</ele>
        <time>2019-02-16T09:19:11Z</time>
      </trkpt>
      <trkpt lat="45.96298" lon="6.57142">
        <ele>1711.76</ele>
        <time>2019-02-16T09:19:12Z</time>
      </trkpt>
      <trkpt lat="45.96297" lon="6.5714">
        <ele>1712.25</ele>
        <time>2019-02-16T09:19:14Z</time>
      </trkpt>
      <trkpt lat="45.96295" lon="6.57139">
        <ele>1712.73</ele>
        <time>2019-02-16T09:19:16Z</time>
      </trkpt>
      <trkpt lat="45.96295" lon="6.57137">
        <ele>1712.73</ele>
        <time>2019-02-16T09:19:17Z</time>
      </trkpt>
      <trkpt lat="45.96295" lon="6.57135">
        <ele>1713.21</ele>
        <time>2019-02-16T09:19:19Z</time>
      </trkpt>
      <trkpt lat="45.96292" lon="6.57119">
        <ele>1716.57</ele>
        <time>2019-02-16T09:19:35Z</time>
      </trkpt>
      <trkpt lat="45.9629" lon="6.57115">
        <ele>1717.53</ele>
        <time>2019-02-16T09:19:40Z</time>
      </trkpt>
      <trkpt lat="45.96288" lon="6.57112">
        <ele>1718.01</ele>
        <time>2019-02-16T09:19:43Z</time>
      </trkpt>
      <trkpt lat="45.96284" lon="6.57101">
        <ele>1720.42</ele>
        <time>2019-02-16T09:19:54Z</time>
      </trkpt>
      <trkpt lat="45.96279" lon="6.57098">
        <ele>1720.9</ele>
        <time>2019-02-16T09:19:57Z</time>
      </trkpt>
      <trkpt lat="45.96278" lon="6.57096">
        <ele>1721.38</ele>
        <time>2019-02-16T09:19:58Z</time>
      </trkpt>
      <trkpt lat="45.96277" lon="6.57095">
        <ele>1721.38</ele>
        <time>2019-02-16T09:19:59Z</time>
      </trkpt>
      <trkpt lat="45.96276" lon="6.57094">
        <ele>1721.38</ele>
        <time>2019-02-16T09:20:00Z</time>
      </trkpt>
      <trkpt lat="45.96275" lon="6.57093">
        <ele>1721.38</ele>
        <time>2019-02-16T09:20:01Z</time>
      </trkpt>
      <trkpt lat="45.96272" lon="6.57085">
        <ele>1722.82</ele>
        <time>2019-02-16T09:20:08Z</time>
      </trkpt>
      <trkpt lat="45.96272" lon="6.57084">
        <ele>1722.82</ele>
        <time>2019-02-16T09:20:09Z</time>
      </trkpt>
      <trkpt lat="45.96269" lon="6.57069">
        <ele>1726.18</ele>
        <time>2019-02-16T09:20:23Z</time>
      </trkpt>
      <trkpt lat="45.96259" lon="6.57052">
        <ele>1729.55</ele>
        <time>2019-02-16T09:20:40Z</time>
      </trkpt>
      <trkpt lat="45.96259" lon="6.5705">
        <ele>1729.55</ele>
        <time>2019-02-16T09:20:41Z</time>
      </trkpt>
      <trkpt lat="45.96258" lon="6.57048">
        <ele>1730.03</ele>
        <time>2019-02-16T09:20:43Z</time>
      </trkpt>
      <trkpt lat="45.96257" lon="6.57048">
        <ele>1730.03</ele>
        <time>2019-02-16T09:20:44Z</time>
      </trkpt>
      <trkpt lat="45.96256" lon="6.57047">
        <ele>1730.51</ele>
        <time>2019-02-16T09:20:45Z</time>
      </trkpt>
      <trkpt lat="45.96255" lon="6.57044">
        <ele>1730.99</ele>
        <time>2019-02-16T09:20:48Z</time>
      </trkpt>
      <trkpt lat="45.96254" lon="6.57041">
        <ele>1731.47</ele>
        <time>2019-02-16T09:20:51Z</time>
      </trkpt>
      <trkpt lat="45.96253" lon="6.57039">
        <ele>1732.43</ele>
        <time>2019-02-16T09:20:53Z</time>
      </trkpt>
      <trkpt lat="45.96251" lon="6.57037">
        <ele>1732.43</ele>
        <time>2019-02-16T09:20:55Z</time>
      </trkpt>
      <trkpt lat="45.96249" lon="6.57033">
        <ele>1733.88</ele>
        <time>2019-02-16T09:21:01Z</time>
      </trkpt>
      <trkpt lat="45.96247" lon="6.57032">
        <ele>1734.84</ele>
        <time>2019-02-16T09:21:03Z</time>
      </trkpt>
      <trkpt lat="45.96245" lon="6.57029">
        <ele>1735.32</ele>
        <time>2019-02-16T09:21:06Z</time>
      </trkpt>
      <trkpt lat="45.96242" lon="6.57017">
        <ele>1738.2</ele>
        <time>2019-02-16T09:21:20Z</time>
      </trkpt>
      <trkpt lat="45.9624" lon="6.57011">
        <ele>1740.12</ele>
        <time>2019-02-16T09:21:28Z</time>
      </trkpt>
      <trkpt lat="45.96238" lon="6.57008">
        <ele>1740.6</ele>
        <time>2019-02-16T09:21:31Z</time>
      </trkpt>
      <trkpt lat="45.96229" lon="6.57002">
        <ele>1743.97</ele>
        <time>2019-02-16T09:21:45Z</time>
      </trkpt>
      <trkpt lat="45.96224" lon="6.56999">
        <ele>1745.41</ele>
        <time>2019-02-16T09:21:52Z</time>
      </trkpt>
      <trkpt lat="45.96221" lon="6.56994">
        <ele>1746.37</ele>
        <time>2019-02-16T09:21:59Z</time>
      </trkpt>
      <trkpt lat="45.96214" lon="6.56991">
        <ele>1748.78</ele>
        <time>2019-02-16T09:22:09Z</time>
      </trkpt>
      <trkpt lat="45.96202" lon="6.56989">
        <ele>1752.14</ele>
        <time>2019-02-16T09:22:22Z</time>
      </trkpt>
      <trkpt lat="45.96192" lon="6.56981">
        <ele>1755.02</ele>
        <time>2019-02-16T09:22:36Z</time>
      </trkpt>
      <trkpt lat="45.96181" lon="6.56971">
        <ele>1758.39</ele>
        <time>2019-02-16T09:22:53Z</time>
      </trkpt>
      <trkpt lat="45.96172" lon="6.56966">
        <ele>1761.27</ele>
        <time>2019-02-16T09:23:06Z</time>
      </trkpt>
      <trkpt lat="45.96159" lon="6.56959">
        <ele>1764.64</ele>
        <time>2019-02-16T09:23:24Z</time>
      </trkpt>
      <trkpt lat="45.96147" lon="6.56953">
        <ele>1768</ele>
        <time>2019-02-16T09:23:35Z</time>
      </trkpt>
      <trkpt lat="45.96137" lon="6.56949">
        <ele>1770.41</ele>
        <time>2019-02-16T09:23:47Z</time>
      </trkpt>
      <trkpt lat="45.9613" lon="6.56947">
        <ele>1772.33</ele>
        <time>2019-02-16T09:23:54Z</time>
      </trkpt>
      <trkpt lat="45.96128" lon="6.56947">
        <ele>1772.81</ele>
        <time>2019-02-16T09:23:56Z</time>
      </trkpt>
      <trkpt lat="45.96126" lon="6.56947">
        <ele>1773.29</ele>
        <time>2019-02-16T09:24:00Z</time>
      </trkpt>
      <trkpt lat="45.96125" lon="6.56948">
        <ele>1773.77</ele>
        <time>2019-02-16T09:24:01Z</time>
      </trkpt>
      <trkpt lat="45.96124" lon="6.56948">
        <ele>1773.77</ele>
        <time>2019-02-16T09:24:02Z</time>
      </trkpt>
      <trkpt lat="45.96121" lon="6.56947">
        <ele>1774.73</ele>
        <time>2019-02-16T09:24:07Z</time>
      </trkpt>
      <trkpt lat="45.96117" lon="6.56946">
        <ele>1776.17</ele>
        <time>2019-02-16T09:24:13Z</time>
      </trkpt>
      <trkpt lat="45.96108" lon="6.56947">
        <ele>1779.06</ele>
        <time>2019-02-16T09:24:25Z</time>
      </trkpt>
      <trkpt lat="45.96097" lon="6.56943">
        <ele>1782.42</ele>
        <time>2019-02-16T09:24:40Z</time>
      </trkpt>
      <trkpt lat="45.96088" lon="6.56942">
        <ele>1783.86</ele>
        <time>2019-02-16T09:24:49Z</time>
      </trkpt>
      <trkpt lat="45.96086" lon="6.56942">
        <ele>1784.34</ele>
        <time>2019-02-16T09:24:52Z</time>
      </trkpt>
      <trkpt lat="45.96085" lon="6.56942">
        <ele>1784.82</ele>
        <time>2019-02-16T09:24:54Z</time>
      </trkpt>
      <trkpt lat="45.96084" lon="6.56942">
        <ele>1785.31</ele>
        <time>2019-02-16T09:24:55Z</time>
      </trkpt>
      <trkpt lat="45.96083" lon="6.56942">
        <ele>1785.79</ele>
        <time>2019-02-16T09:24:56Z</time>
      </trkpt>
      <trkpt lat="45.9608" lon="6.56941">
        <ele>1786.27</ele>
        <time>2019-02-16T09:24:59Z</time>
      </trkpt>
      <trkpt lat="45.96079" lon="6.56941">
        <ele>1786.27</ele>
        <time>2019-02-16T09:25:00Z</time>
      </trkpt>
      <trkpt lat="45.96078" lon="6.56941">
        <ele>1786.75</ele>
        <time>2019-02-16T09:25:01Z</time>
      </trkpt>
      <trkpt lat="45.96078" lon="6.5694">
        <ele>1786.75</ele>
        <time>2019-02-16T09:25:02Z</time>
      </trkpt>
      <trkpt lat="45.96077" lon="6.5694">
        <ele>1787.23</ele>
        <time>2019-02-16T09:25:03Z</time>
      </trkpt>
      <trkpt lat="45.96077" lon="6.5694">
        <ele>1787.23</ele>
        <time>2019-02-16T09:25:04Z</time>
      </trkpt>
      <trkpt lat="45.96076" lon="6.56939">
        <ele>1787.23</ele>
        <time>2019-02-16T09:25:05Z</time>
      </trkpt>
      <trkpt lat="45.96075" lon="6.56939">
        <ele>1787.71</ele>
        <time>2019-02-16T09:25:06Z</time>
      </trkpt>
      <trkpt lat="45.96074" lon="6.56938">
        <ele>1788.19</ele>
        <time>2019-02-16T09:25:09Z</time>
      </trkpt>
      <trkpt lat="45.96072" lon="6.56936">
        <ele>1789.15</ele>
        <time>2019-02-16T09:25:12Z</time>
      </trkpt>
      <trkpt lat="45.96072" lon="6.56936">
        <ele>1789.63</ele>
        <time>2019-02-16T09:25:13Z</time>
      </trkpt>
      <trkpt lat="45.9607" lon="6.56935">
        <ele>1789.63</ele>
        <time>2019-02-16T09:25:14Z</time>
      </trkpt>
      <trkpt lat="45.96069" lon="6.56935">
        <ele>1789.63</ele>
        <time>2019-02-16T09:25:15Z</time>
      </trkpt>
      <trkpt lat="45.96067" lon="6.56935">
        <ele>1790.11</ele>
        <time>2019-02-16T09:25:16Z</time>
      </trkpt>
      <trkpt lat="45.96065" lon="6.56935">
        <ele>1790.59</ele>
        <time>2019-02-16T09:25:17Z</time>
      </trkpt>
      <trkpt lat="45.96065" lon="6.56934">
        <ele>1790.59</ele>
        <time>2019-02-16T09:25:18Z</time>
      </trkpt>
      <trkpt lat="45.96064" lon="6.56933">
        <ele>1791.07</ele>
        <time>2019-02-16T09:25:21Z</time>
      </trkpt>
      <trkpt lat="45.96064" lon="6.56933">
        <ele>1791.55</ele>
        <time>2019-02-16T09:25:23Z</time>
      </trkpt>
      <trkpt lat="45.96063" lon="6.56933">
        <ele>1792.03</ele>
        <time>2019-02-16T09:25:24Z</time>
      </trkpt>
      <trkpt lat="45.96057" lon="6.56932">
        <ele>1794.92</ele>
        <time>2019-02-16T09:25:36Z</time>
      </trkpt>
      <trkpt lat="45.96052" lon="6.5693">
        <ele>1797.8</ele>
        <time>2019-02-16T09:25:50Z</time>
      </trkpt>
      <trkpt lat="45.96043" lon="6.56925">
        <ele>1800.69</ele>
        <time>2019-02-16T09:26:07Z</time>
      </trkpt>
      <trkpt lat="45.96041" lon="6.56924">
        <ele>1801.65</ele>
        <time>2019-02-16T09:26:10Z</time>
      </trkpt>
      <trkpt lat="45.96029" lon="6.5692">
        <ele>1805.01</ele>
        <time>2019-02-16T09:26:24Z</time>
      </trkpt>
      <trkpt lat="45.96022" lon="6.56917">
        <ele>1807.9</ele>
        <time>2019-02-16T09:26:36Z</time>
      </trkpt>
      <trkpt lat="45.96014" lon="6.5691">
        <ele>1810.78</ele>
        <time>2019-02-16T09:26:51Z</time>
      </trkpt>
      <trkpt lat="45.96007" lon="6.56905">
        <ele>1814.15</ele>
        <time>2019-02-16T09:27:04Z</time>
      </trkpt>
      <trkpt lat="45.96006" lon="6.56905">
        <ele>1814.63</ele>
        <time>2019-02-16T09:27:06Z</time>
      </trkpt>
      <trkpt lat="45.96005" lon="6.56905">
        <ele>1814.63</ele>
        <time>2019-02-16T09:27:07Z</time>
      </trkpt>
      <trkpt lat="45.95998" lon="6.56897">
        <ele>1817.99</ele>
        <time>2019-02-16T09:27:22Z</time>
      </trkpt>
      <trkpt lat="45.95999" lon="6.56894">
        <ele>1817.99</ele>
        <time>2019-02-16T09:27:23Z</time>
      </trkpt>
      <trkpt lat="45.95997" lon="6.56889">
        <ele>1819.43</ele>
        <time>2019-02-16T09:27:28Z</time>
      </trkpt>
      <trkpt lat="45.95997" lon="6.56888">
        <ele>1819.43</ele>
        <time>2019-02-16T09:27:29Z</time>
      </trkpt>
      <trkpt lat="45.95996" lon="6.56886">
        <ele>1819.43</ele>
        <time>2019-02-16T09:27:30Z</time>
      </trkpt>
      <trkpt lat="45.95995" lon="6.56885">
        <ele>1819.91</ele>
        <time>2019-02-16T09:27:31Z</time>
      </trkpt>
      <trkpt lat="45.95994" lon="6.56883">
        <ele>1819.91</ele>
        <time>2019-02-16T09:27:32Z</time>
      </trkpt>
      <trkpt lat="45.95994" lon="6.56881">
        <ele>1820.39</ele>
        <time>2019-02-16T09:27:33Z</time>
      </trkpt>
      <trkpt lat="45.95992" lon="6.56878">
        <ele>1820.87</ele>
        <time>2019-02-16T09:27:36Z</time>
      </trkpt>
      <trkpt lat="45.9599" lon="6.56876">
        <ele>1821.35</ele>
        <time>2019-02-16T09:27:38Z</time>
      </trkpt>
      <trkpt lat="45.9599" lon="6.56875">
        <ele>1821.35</ele>
        <time>2019-02-16T09:27:39Z</time>
      </trkpt>
      <trkpt lat="45.95987" lon="6.56871">
        <ele>1822.32</ele>
        <time>2019-02-16T09:27:42Z</time>
      </trkpt>
      <trkpt lat="45.95987" lon="6.5687">
        <ele>1822.32</ele>
        <time>2019-02-16T09:27:43Z</time>
      </trkpt>
      <trkpt lat="45.95979" lon="6.56869">
        <ele>1825.68</ele>
        <time>2019-02-16T09:27:53Z</time>
      </trkpt>
      <trkpt lat="45.95979" lon="6.5687">
        <ele>1826.16</ele>
        <time>2019-02-16T09:27:54Z</time>
      </trkpt>
      <trkpt lat="45.95972" lon="6.5688">
        <ele>1829.05</ele>
        <time>2019-02-16T09:28:11Z</time>
      </trkpt>
      <trkpt lat="45.95963" lon="6.56882">
        <ele>1831.45</ele>
        <time>2019-02-16T09:28:20Z</time>
      </trkpt>
      <trkpt lat="45.95963" lon="6.5688">
        <ele>1830.97</ele>
        <time>2019-02-16T09:28:22Z</time>
      </trkpt>
      <trkpt lat="45.95963" lon="6.5688">
        <ele>1830.97</ele>
        <time>2019-02-16T09:28:23Z</time>
      </trkpt>
      <trkpt lat="45.95963" lon="6.56878">
        <ele>1830.97</ele>
        <time>2019-02-16T09:28:24Z</time>
      </trkpt>
      <trkpt lat="45.95966" lon="6.56861">
        <ele>1833.85</ele>
        <time>2019-02-16T09:28:37Z</time>
      </trkpt>
      <trkpt lat="45.95965" lon="6.56857">
        <ele>1834.33</ele>
        <time>2019-02-16T09:28:40Z</time>
      </trkpt>
      <trkpt lat="45.95965" lon="6.56855">
        <ele>1834.81</ele>
        <time>2019-02-16T09:28:42Z</time>
      </trkpt>
      <trkpt lat="45.95961" lon="6.56855">
        <ele>1837.22</ele>
        <time>2019-02-16T09:28:49Z</time>
      </trkpt>
      <trkpt lat="45.95948" lon="6.56857">
        <ele>1840.1</ele>
        <time>2019-02-16T09:29:03Z</time>
      </trkpt>
      <trkpt lat="45.95942" lon="6.56858">
        <ele>1841.54</ele>
        <time>2019-02-16T09:29:13Z</time>
      </trkpt>
      <trkpt lat="45.95941" lon="6.56855">
        <ele>1841.54</ele>
        <time>2019-02-16T09:29:15Z</time>
      </trkpt>
      <trkpt lat="45.95942" lon="6.56852">
        <ele>1842.02</ele>
        <time>2019-02-16T09:29:17Z</time>
      </trkpt>
      <trkpt lat="45.95942" lon="6.5685">
        <ele>1842.5</ele>
        <time>2019-02-16T09:29:19Z</time>
      </trkpt>
      <trkpt lat="45.95943" lon="6.56849">
        <ele>1842.98</ele>
        <time>2019-02-16T09:29:20Z</time>
      </trkpt>
      <trkpt lat="45.95943" lon="6.56848">
        <ele>1842.98</ele>
        <time>2019-02-16T09:29:21Z</time>
      </trkpt>
      <trkpt lat="45.95943" lon="6.56846">
        <ele>1842.98</ele>
        <time>2019-02-16T09:29:22Z</time>
      </trkpt>
      <trkpt lat="45.95943" lon="6.56844">
        <ele>1843.47</ele>
        <time>2019-02-16T09:29:24Z</time>
      </trkpt>
      <trkpt lat="45.95942" lon="6.56834">
        <ele>1845.87</ele>
        <time>2019-02-16T09:29:33Z</time>
      </trkpt>
      <trkpt lat="45.95942" lon="6.56831">
        <ele>1846.83</ele>
        <time>2019-02-16T09:29:36Z</time>
      </trkpt>
      <trkpt lat="45.95943" lon="6.56828">
        <ele>1846.83</ele>
        <time>2019-02-16T09:29:38Z</time>
      </trkpt>
      <trkpt lat="45.95943" lon="6.56825">
        <ele>1847.79</ele>
        <time>2019-02-16T09:29:40Z</time>
      </trkpt>
      <trkpt lat="45.95943" lon="6.56823">
        <ele>1847.79</ele>
        <time>2019-02-16T09:29:42Z</time>
      </trkpt>
      <trkpt lat="45.95944" lon="6.56821">
        <ele>1848.27</ele>
        <time>2019-02-16T09:29:43Z</time>
      </trkpt>
      <trkpt lat="45.95944" lon="6.5682">
        <ele>1848.27</ele>
        <time>2019-02-16T09:29:44Z</time>
      </trkpt>
      <trkpt lat="45.95943" lon="6.56818">
        <ele>1848.75</ele>
        <time>2019-02-16T09:29:45Z</time>
      </trkpt>
      <trkpt lat="45.95943" lon="6.56816">
        <ele>1849.23</ele>
        <time>2019-02-16T09:29:47Z</time>
      </trkpt>
      <trkpt lat="45.95943" lon="6.56814">
        <ele>1849.23</ele>
        <time>2019-02-16T09:29:49Z</time>
      </trkpt>
      <trkpt lat="45.95944" lon="6.56809">
        <ele>1850.68</ele>
        <time>2019-02-16T09:29:54Z</time>
      </trkpt>
      <trkpt lat="45.95943" lon="6.56806">
        <ele>1853.56</ele>
        <time>2019-02-16T09:30:06Z</time>
      </trkpt>
      <trkpt lat="45.95934" lon="6.5681">
        <ele>1856.92</ele>
        <time>2019-02-16T09:30:22Z</time>
      </trkpt>
      <trkpt lat="45.95919" lon="6.56819">
        <ele>1859.81</ele>
        <time>2019-02-16T09:30:37Z</time>
      </trkpt>
      <trkpt lat="45.95907" lon="6.56821">
        <ele>1862.69</ele>
        <time>2019-02-16T09:30:48Z</time>
      </trkpt>
      <trkpt lat="45.95905" lon="6.5682">
        <ele>1863.65</ele>
        <time>2019-02-16T09:30:50Z</time>
      </trkpt>
      <trkpt lat="45.95905" lon="6.56817">
        <ele>1864.13</ele>
        <time>2019-02-16T09:30:52Z</time>
      </trkpt>
      <trkpt lat="45.95906" lon="6.56811">
        <ele>1865.09</ele>
        <time>2019-02-16T09:30:57Z</time>
      </trkpt>
      <trkpt lat="45.95904" lon="6.56795">
        <ele>1868.46</ele>
        <time>2019-02-16T09:31:14Z</time>
      </trkpt>
      <trkpt lat="45.95903" lon="6.56785">
        <ele>1871.82</ele>
        <time>2019-02-16T09:31:29Z</time>
      </trkpt>
      <trkpt lat="45.95902" lon="6.56785">
        <ele>1873.75</ele>
        <time>2019-02-16T09:31:31Z</time>
      </trkpt>
      <trkpt lat="45.95893" lon="6.56787">
        <ele>1876.63</ele>
        <time>2019-02-16T09:31:45Z</time>
      </trkpt>
      <trkpt lat="45.9589" lon="6.56782">
        <ele>1877.11</ele>
        <time>2019-02-16T09:31:51Z</time>
      </trkpt>
      <trkpt lat="45.9589" lon="6.56779">
        <ele>1877.59</ele>
        <time>2019-02-16T09:31:54Z</time>
      </trkpt>
      <trkpt lat="45.95891" lon="6.56778">
        <ele>1877.59</ele>
        <time>2019-02-16T09:31:55Z</time>
      </trkpt>
      <trkpt lat="45.95891" lon="6.56776">
        <ele>1877.59</ele>
        <time>2019-02-16T09:31:56Z</time>
      </trkpt>
      <trkpt lat="45.95894" lon="6.56761">
        <ele>1880</ele>
        <time>2019-02-16T09:32:07Z</time>
      </trkpt>
      <trkpt lat="45.95893" lon="6.56759">
        <ele>1880.48</ele>
        <time>2019-02-16T09:32:09Z</time>
      </trkpt>
      <trkpt lat="45.95894" lon="6.56757">
        <ele>1880.48</ele>
        <time>2019-02-16T09:32:10Z</time>
      </trkpt>
      <trkpt lat="45.95893" lon="6.56754">
        <ele>1881.44</ele>
        <time>2019-02-16T09:32:13Z</time>
      </trkpt>
      <trkpt lat="45.95893" lon="6.56752">
        <ele>1881.44</ele>
        <time>2019-02-16T09:32:14Z</time>
      </trkpt>
      <trkpt lat="45.95893" lon="6.56751">
        <ele>1881.44</ele>
        <time>2019-02-16T09:32:15Z</time>
      </trkpt>
      <trkpt lat="45.95894" lon="6.56748">
        <ele>1882.4</ele>
        <time>2019-02-16T09:32:18Z</time>
      </trkpt>
      <trkpt lat="45.95897" lon="6.56744">
        <ele>1882.4</ele>
        <time>2019-02-16T09:32:21Z</time>
      </trkpt>
      <trkpt lat="45.95901" lon="6.5674">
        <ele>1882.88</ele>
        <time>2019-02-16T09:32:23Z</time>
      </trkpt>
      <trkpt lat="45.95903" lon="6.56738">
        <ele>1883.36</ele>
        <time>2019-02-16T09:32:24Z</time>
      </trkpt>
      <trkpt lat="45.95903" lon="6.56736">
        <ele>1883.36</ele>
        <time>2019-02-16T09:32:25Z</time>
      </trkpt>
      <trkpt lat="45.95907" lon="6.56731">
        <ele>1884.8</ele>
        <time>2019-02-16T09:32:30Z</time>
      </trkpt>
      <trkpt lat="45.95908" lon="6.56721">
        <ele>1887.69</ele>
        <time>2019-02-16T09:32:40Z</time>
      </trkpt>
      <trkpt lat="45.95907" lon="6.5672">
        <ele>1888.17</ele>
        <time>2019-02-16T09:32:41Z</time>
      </trkpt>
      <trkpt lat="45.95907" lon="6.56716">
        <ele>1889.13</ele>
        <time>2019-02-16T09:32:45Z</time>
      </trkpt>
      <trkpt lat="45.95907" lon="6.56714">
        <ele>1889.61</ele>
        <time>2019-02-16T09:32:47Z</time>
      </trkpt>
      <trkpt lat="45.95909" lon="6.56713">
        <ele>1890.09</ele>
        <time>2019-02-16T09:32:48Z</time>
      </trkpt>
      <trkpt lat="45.95906" lon="6.56711">
        <ele>1890.57</ele>
        <time>2019-02-16T09:32:50Z</time>
      </trkpt>
      <trkpt lat="45.95906" lon="6.5671">
        <ele>1891.05</ele>
        <time>2019-02-16T09:32:51Z</time>
      </trkpt>
      <trkpt lat="45.95907" lon="6.56709">
        <ele>1891.05</ele>
        <time>2019-02-16T09:32:52Z</time>
      </trkpt>
      <trkpt lat="45.95905" lon="6.5671">
        <ele>1894.42</ele>
        <time>2019-02-16T09:33:03Z</time>
      </trkpt>
      <trkpt lat="45.95899" lon="6.56711">
        <ele>1897.3</ele>
        <time>2019-02-16T09:33:17Z</time>
      </trkpt>
      <trkpt lat="45.95899" lon="6.56711">
        <ele>1897.3</ele>
        <time>2019-02-16T09:33:18Z</time>
      </trkpt>
      <trkpt lat="45.95898" lon="6.56712">
        <ele>1897.78</ele>
        <time>2019-02-16T09:33:19Z</time>
      </trkpt>
      <trkpt lat="45.95893" lon="6.56717">
        <ele>1900.66</ele>
        <time>2019-02-16T09:33:29Z</time>
      </trkpt>
      <trkpt lat="45.95884" lon="6.56719">
        <ele>1904.03</ele>
        <time>2019-02-16T09:33:42Z</time>
      </trkpt>
      <trkpt lat="45.95877" lon="6.56717">
        <ele>1907.39</ele>
        <time>2019-02-16T09:33:55Z</time>
      </trkpt>
      <trkpt lat="45.95876" lon="6.56701">
        <ele>1909.8</ele>
        <time>2019-02-16T09:34:15Z</time>
      </trkpt>
      <trkpt lat="45.95873" lon="6.56691">
        <ele>1913.16</ele>
        <time>2019-02-16T09:34:27Z</time>
      </trkpt>
      <trkpt lat="45.95872" lon="6.56687">
        <ele>1913.64</ele>
        <time>2019-02-16T09:34:31Z</time>
      </trkpt>
      <trkpt lat="45.9587" lon="6.56678">
        <ele>1916.53</ele>
        <time>2019-02-16T09:34:42Z</time>
      </trkpt>
      <trkpt lat="45.9587" lon="6.56675">
        <ele>1918.93</ele>
        <time>2019-02-16T09:34:50Z</time>
      </trkpt>
      <trkpt lat="45.95866" lon="6.56675">
        <ele>1919.89</ele>
        <time>2019-02-16T09:34:54Z</time>
      </trkpt>
      <trkpt lat="45.95865" lon="6.56675">
        <ele>1919.89</ele>
        <time>2019-02-16T09:34:55Z</time>
      </trkpt>
      <trkpt lat="45.95865" lon="6.56675">
        <ele>1920.37</ele>
        <time>2019-02-16T09:34:56Z</time>
      </trkpt>
      <trkpt lat="45.95864" lon="6.56675">
        <ele>1920.37</ele>
        <time>2019-02-16T09:34:57Z</time>
      </trkpt>
      <trkpt lat="45.95864" lon="6.56675">
        <ele>1920.85</ele>
        <time>2019-02-16T09:34:58Z</time>
      </trkpt>
      <trkpt lat="45.95863" lon="6.56675">
        <ele>1920.85</ele>
        <time>2019-02-16T09:34:59Z</time>
      </trkpt>
      <trkpt lat="45.95862" lon="6.56675">
        <ele>1921.33</ele>
        <time>2019-02-16T09:35:00Z</time>
      </trkpt>
      <trkpt lat="45.95861" lon="6.56675">
        <ele>1921.33</ele>
        <time>2019-02-16T09:35:01Z</time>
      </trkpt>
      <trkpt lat="45.95858" lon="6.56678">
        <ele>1924.22</ele>
        <time>2019-02-16T09:35:15Z</time>
      </trkpt>
      <trkpt lat="45.95859" lon="6.56678">
        <ele>1925.18</ele>
        <time>2019-02-16T09:35:17Z</time>
      </trkpt>
      <trkpt lat="45.9586" lon="6.5667">
        <ele>1927.58</ele>
        <time>2019-02-16T09:35:31Z</time>
      </trkpt>
      <trkpt lat="45.95858" lon="6.56657">
        <ele>1930.95</ele>
        <time>2019-02-16T09:35:46Z</time>
      </trkpt>
      <trkpt lat="45.95856" lon="6.56647">
        <ele>1934.31</ele>
        <time>2019-02-16T09:35:59Z</time>
      </trkpt>
      <trkpt lat="45.95848" lon="6.56651">
        <ele>1937.19</ele>
        <time>2019-02-16T09:36:13Z</time>
      </trkpt>
      <trkpt lat="45.9584" lon="6.56653">
        <ele>1940.08</ele>
        <time>2019-02-16T09:36:26Z</time>
      </trkpt>
      <trkpt lat="45.95829" lon="6.56654">
        <ele>1943.44</ele>
        <time>2019-02-16T09:36:42Z</time>
      </trkpt>
      <trkpt lat="45.95828" lon="6.56654">
        <ele>1943.92</ele>
        <time>2019-02-16T09:36:43Z</time>
      </trkpt>
      <trkpt lat="45.95827" lon="6.56654">
        <ele>1943.92</ele>
        <time>2019-02-16T09:36:44Z</time>
      </trkpt>
      <trkpt lat="45.95823" lon="6.56654">
        <ele>1945.85</ele>
        <time>2019-02-16T09:36:52Z</time>
      </trkpt>
      <trkpt lat="45.95822" lon="6.56654">
        <ele>1946.33</ele>
        <time>2019-02-16T09:36:53Z</time>
      </trkpt>
      <trkpt lat="45.95817" lon="6.56656">
        <ele>1948.25</ele>
        <time>2019-02-16T09:37:03Z</time>
      </trkpt>
      <trkpt lat="45.95815" lon="6.56656">
        <ele>1948.73</ele>
        <time>2019-02-16T09:37:04Z</time>
      </trkpt>
      <trkpt lat="45.95814" lon="6.56656">
        <ele>1949.21</ele>
        <time>2019-02-16T09:37:05Z</time>
      </trkpt>
      <trkpt lat="45.95813" lon="6.56656">
        <ele>1949.21</ele>
        <time>2019-02-16T09:37:06Z</time>
      </trkpt>
      <trkpt lat="45.95811" lon="6.56656">
        <ele>1949.21</ele>
        <time>2019-02-16T09:37:07Z</time>
      </trkpt>
      <trkpt lat="45.95803" lon="6.56656">
        <ele>1951.61</ele>
        <time>2019-02-16T09:37:15Z</time>
      </trkpt>
      <trkpt lat="45.95802" lon="6.56646">
        <ele>1952.09</ele>
        <time>2019-02-16T09:37:26Z</time>
      </trkpt>
      <trkpt lat="45.95801" lon="6.56644">
        <ele>1952.57</ele>
        <time>2019-02-16T09:37:27Z</time>
      </trkpt>
      <trkpt lat="45.95801" lon="6.56635">
        <ele>1955.46</ele>
        <time>2019-02-16T09:37:37Z</time>
      </trkpt>
      <trkpt lat="45.958" lon="6.56624">
        <ele>1957.86</ele>
        <time>2019-02-16T09:37:50Z</time>
      </trkpt>
      <trkpt lat="45.95799" lon="6.56618">
        <ele>1959.3</ele>
        <time>2019-02-16T09:37:56Z</time>
      </trkpt>
      <trkpt lat="45.95802" lon="6.56607">
        <ele>1962.19</ele>
        <time>2019-02-16T09:38:11Z</time>
      </trkpt>
      <trkpt lat="45.95803" lon="6.56598">
        <ele>1965.55</ele>
        <time>2019-02-16T09:38:23Z</time>
      </trkpt>
      <trkpt lat="45.95803" lon="6.56598">
        <ele>1966.03</ele>
        <time>2019-02-16T09:38:24Z</time>
      </trkpt>
      <trkpt lat="45.95796" lon="6.56601">
        <ele>1968.44</ele>
        <time>2019-02-16T09:38:36Z</time>
      </trkpt>
      <trkpt lat="45.95794" lon="6.56602">
        <ele>1968.92</ele>
        <time>2019-02-16T09:38:38Z</time>
      </trkpt>
      <trkpt lat="45.95783" lon="6.56604">
        <ele>1972.28</ele>
        <time>2019-02-16T09:38:53Z</time>
      </trkpt>
      <trkpt lat="45.95772" lon="6.56605">
        <ele>1975.17</ele>
        <time>2019-02-16T09:39:07Z</time>
      </trkpt>
      <trkpt lat="45.95775" lon="6.56597">
        <ele>1975.65</ele>
        <time>2019-02-16T09:39:14Z</time>
      </trkpt>
      <trkpt lat="45.9578" lon="6.56581">
        <ele>1979.01</ele>
        <time>2019-02-16T09:39:29Z</time>
      </trkpt>
      <trkpt lat="45.95781" lon="6.56581">
        <ele>1979.01</ele>
        <time>2019-02-16T09:39:30Z</time>
      </trkpt>
      <trkpt lat="45.95782" lon="6.5658">
        <ele>1979.01</ele>
        <time>2019-02-16T09:39:31Z</time>
      </trkpt>
      <trkpt lat="45.95782" lon="6.56577">
        <ele>1979.49</ele>
        <time>2019-02-16T09:39:34Z</time>
      </trkpt>
      <trkpt lat="45.95785" lon="6.56567">
        <ele>1982.86</ele>
        <time>2019-02-16T09:39:44Z</time>
      </trkpt>
      <trkpt lat="45.95781" lon="6.56567">
        <ele>1986.22</ele>
        <time>2019-02-16T09:39:56Z</time>
      </trkpt>
      <trkpt lat="45.95778" lon="6.56567">
        <ele>1986.7</ele>
        <time>2019-02-16T09:39:59Z</time>
      </trkpt>
      <trkpt lat="45.9577" lon="6.56567">
        <ele>1989.59</ele>
        <time>2019-02-16T09:40:13Z</time>
      </trkpt>
      <trkpt lat="45.95762" lon="6.56568">
        <ele>1992.95</ele>
        <time>2019-02-16T09:40:28Z</time>
      </trkpt>
      <trkpt lat="45.95753" lon="6.56569">
        <ele>1995.83</ele>
        <time>2019-02-16T09:40:42Z</time>
      </trkpt>
      <trkpt lat="45.95748" lon="6.56568">
        <ele>1998.24</ele>
        <time>2019-02-16T09:40:52Z</time>
      </trkpt>
      <trkpt lat="45.95742" lon="6.56567">
        <ele>2001.6</ele>
        <time>2019-02-16T09:41:05Z</time>
      </trkpt>
      <trkpt lat="45.95734" lon="6.56568">
        <ele>2004.49</ele>
        <time>2019-02-16T09:41:18Z</time>
      </trkpt>
      <trkpt lat="45.95726" lon="6.56567">
        <ele>2007.37</ele>
        <time>2019-02-16T09:41:33Z</time>
      </trkpt>
      <trkpt lat="45.95716" lon="6.56566">
        <ele>2010.73</ele>
        <time>2019-02-16T09:41:48Z</time>
      </trkpt>
      <trkpt lat="45.95714" lon="6.56566">
        <ele>2011.22</ele>
        <time>2019-02-16T09:41:50Z</time>
      </trkpt>
      <trkpt lat="45.95704" lon="6.56562">
        <ele>2014.1</ele>
        <time>2019-02-16T09:42:04Z</time>
      </trkpt>
      <trkpt lat="45.95697" lon="6.56561">
        <ele>2016.98</ele>
        <time>2019-02-16T09:42:17Z</time>
      </trkpt>
      <trkpt lat="45.95688" lon="6.5656">
        <ele>2020.35</ele>
        <time>2019-02-16T09:42:31Z</time>
      </trkpt>
      <trkpt lat="45.95687" lon="6.56559">
        <ele>2020.83</ele>
        <time>2019-02-16T09:42:33Z</time>
      </trkpt>
      <trkpt lat="45.95686" lon="6.56559">
        <ele>2020.83</ele>
        <time>2019-02-16T09:42:34Z</time>
      </trkpt>
      <trkpt lat="45.95678" lon="6.56558">
        <ele>2024.19</ele>
        <time>2019-02-16T09:42:49Z</time>
      </trkpt>
      <trkpt lat="45.95676" lon="6.56557">
        <ele>2025.15</ele>
        <time>2019-02-16T09:42:52Z</time>
      </trkpt>
      <trkpt lat="45.95668" lon="6.56558">
        <ele>2028.04</ele>
        <time>2019-02-16T09:43:05Z</time>
      </trkpt>
      <trkpt lat="45.9566" lon="6.5656">
        <ele>2031.4</ele>
        <time>2019-02-16T09:43:19Z</time>
      </trkpt>
      <trkpt lat="45.95652" lon="6.56561">
        <ele>2034.29</ele>
        <time>2019-02-16T09:43:34Z</time>
      </trkpt>
      <trkpt lat="45.9565" lon="6.56561">
        <ele>2034.77</ele>
        <time>2019-02-16T09:43:36Z</time>
      </trkpt>
      <trkpt lat="45.95643" lon="6.56561">
        <ele>2037.65</ele>
        <time>2019-02-16T09:43:49Z</time>
      </trkpt>
      <trkpt lat="45.95636" lon="6.56562">
        <ele>2041.02</ele>
        <time>2019-02-16T09:44:03Z</time>
      </trkpt>
      <trkpt lat="45.95628" lon="6.56561">
        <ele>2043.9</ele>
        <time>2019-02-16T09:44:18Z</time>
      </trkpt>
      <trkpt lat="45.9562" lon="6.56561">
        <ele>2047.26</ele>
        <time>2019-02-16T09:44:32Z</time>
      </trkpt>
      <trkpt lat="45.95611" lon="6.56557">
        <ele>2050.63</ele>
        <time>2019-02-16T09:44:45Z</time>
      </trkpt>
      <trkpt lat="45.95604" lon="6.56557">
        <ele>2053.51</ele>
        <time>2019-02-16T09:44:57Z</time>
      </trkpt>
      <trkpt lat="45.95595" lon="6.56553">
        <ele>2056.88</ele>
        <time>2019-02-16T09:45:11Z</time>
      </trkpt>
      <trkpt lat="45.95589" lon="6.56551">
        <ele>2059.76</ele>
        <time>2019-02-16T09:45:23Z</time>
      </trkpt>
      <trkpt lat="45.95582" lon="6.56548">
        <ele>2063.13</ele>
        <time>2019-02-16T09:45:37Z</time>
      </trkpt>
      <trkpt lat="45.95574" lon="6.56543">
        <ele>2066.01</ele>
        <time>2019-02-16T09:45:52Z</time>
      </trkpt>
      <trkpt lat="45.95572" lon="6.5654">
        <ele>2066.97</ele>
        <time>2019-02-16T09:45:56Z</time>
      </trkpt>
      <trkpt lat="45.9557" lon="6.5654">
        <ele>2067.45</ele>
        <time>2019-02-16T09:45:58Z</time>
      </trkpt>
      <trkpt lat="45.95564" lon="6.56538">
        <ele>2070.82</ele>
        <time>2019-02-16T09:46:12Z</time>
      </trkpt>
      <trkpt lat="45.95558" lon="6.56535">
        <ele>2074.18</ele>
        <time>2019-02-16T09:46:26Z</time>
      </trkpt>
      <trkpt lat="45.95555" lon="6.56535">
        <ele>2074.66</ele>
        <time>2019-02-16T09:46:29Z</time>
      </trkpt>
      <trkpt lat="45.95549" lon="6.5653">
        <ele>2078.03</ele>
        <time>2019-02-16T09:46:41Z</time>
      </trkpt>
      <trkpt lat="45.95545" lon="6.56519">
        <ele>2080.43</ele>
        <time>2019-02-16T09:46:55Z</time>
      </trkpt>
      <trkpt lat="45.95542" lon="6.56519">
        <ele>2083.79</ele>
        <time>2019-02-16T09:47:06Z</time>
      </trkpt>
      <trkpt lat="45.95537" lon="6.56523">
        <ele>2085.24</ele>
        <time>2019-02-16T09:47:14Z</time>
      </trkpt>
      <trkpt lat="45.95528" lon="6.56532">
        <ele>2087.64</ele>
        <time>2019-02-16T09:47:29Z</time>
      </trkpt>
      <trkpt lat="45.95527" lon="6.56532">
        <ele>2088.12</ele>
        <time>2019-02-16T09:47:30Z</time>
      </trkpt>
      <trkpt lat="45.95521" lon="6.56539">
        <ele>2091</ele>
        <time>2019-02-16T09:47:43Z</time>
      </trkpt>
      <trkpt lat="45.95514" lon="6.56539">
        <ele>2092.93</ele>
        <time>2019-02-16T09:47:55Z</time>
      </trkpt>
      <trkpt lat="45.95513" lon="6.56533">
        <ele>2093.89</ele>
        <time>2019-02-16T09:48:00Z</time>
      </trkpt>
      <trkpt lat="45.95512" lon="6.56532">
        <ele>2094.37</ele>
        <time>2019-02-16T09:48:01Z</time>
      </trkpt>
      <trkpt lat="45.95509" lon="6.56515">
        <ele>2097.25</ele>
        <time>2019-02-16T09:48:17Z</time>
      </trkpt>
      <trkpt lat="45.95508" lon="6.56504">
        <ele>2099.18</ele>
        <time>2019-02-16T09:48:27Z</time>
      </trkpt>
      <trkpt lat="45.95507" lon="6.56497">
        <ele>2103.02</ele>
        <time>2019-02-16T09:48:38Z</time>
      </trkpt>
      <trkpt lat="45.955" lon="6.56502">
        <ele>2104.46</ele>
        <time>2019-02-16T09:48:47Z</time>
      </trkpt>
      <trkpt lat="45.95488" lon="6.56522">
        <ele>2107.83</ele>
        <time>2019-02-16T09:49:07Z</time>
      </trkpt>
      <trkpt lat="45.95482" lon="6.56535">
        <ele>2110.71</ele>
        <time>2019-02-16T09:49:22Z</time>
      </trkpt>
      <trkpt lat="45.95477" lon="6.56546">
        <ele>2114.08</ele>
        <time>2019-02-16T09:49:35Z</time>
      </trkpt>
      <trkpt lat="45.95473" lon="6.56543">
        <ele>2115.04</ele>
        <time>2019-02-16T09:49:42Z</time>
      </trkpt>
      <trkpt lat="45.9547" lon="6.56539">
        <ele>2116</ele>
        <time>2019-02-16T09:49:49Z</time>
      </trkpt>
      <trkpt lat="45.95468" lon="6.56544">
        <ele>2119.36</ele>
        <time>2019-02-16T09:50:04Z</time>
      </trkpt>
      <trkpt lat="45.95467" lon="6.5655">
        <ele>2120.81</ele>
        <time>2019-02-16T09:50:09Z</time>
      </trkpt>
      <trkpt lat="45.95467" lon="6.56551">
        <ele>2120.81</ele>
        <time>2019-02-16T09:50:10Z</time>
      </trkpt>
      <trkpt lat="45.95462" lon="6.56555">
        <ele>2123.21</ele>
        <time>2019-02-16T09:50:23Z</time>
      </trkpt>
      <trkpt lat="45.95461" lon="6.56554">
        <ele>2123.21</ele>
        <time>2019-02-16T09:50:24Z</time>
      </trkpt>
      <trkpt lat="45.95452" lon="6.56542">
        <ele>2126.57</ele>
        <time>2019-02-16T09:50:40Z</time>
      </trkpt>
      <trkpt lat="45.95451" lon="6.56553">
        <ele>2129.46</ele>
        <time>2019-02-16T09:50:53Z</time>
      </trkpt>
      <trkpt lat="45.95449" lon="6.56556">
        <ele>2131.38</ele>
        <time>2019-02-16T09:51:05Z</time>
      </trkpt>
      <trkpt lat="45.95449" lon="6.56555">
        <ele>2131.86</ele>
        <time>2019-02-16T09:51:06Z</time>
      </trkpt>
      <trkpt lat="45.95441" lon="6.56553">
        <ele>2135.23</ele>
        <time>2019-02-16T09:51:22Z</time>
      </trkpt>
      <trkpt lat="45.95441" lon="6.56568">
        <ele>2138.11</ele>
        <time>2019-02-16T09:51:35Z</time>
      </trkpt>
      <trkpt lat="45.95436" lon="6.56565">
        <ele>2140.03</ele>
        <time>2019-02-16T09:51:46Z</time>
      </trkpt>
      <trkpt lat="45.95429" lon="6.56555">
        <ele>2142.92</ele>
        <time>2019-02-16T09:51:59Z</time>
      </trkpt>
      <trkpt lat="45.95428" lon="6.56566">
        <ele>2145.8</ele>
        <time>2019-02-16T09:52:13Z</time>
      </trkpt>
      <trkpt lat="45.95428" lon="6.56574">
        <ele>2147.72</ele>
        <time>2019-02-16T09:52:20Z</time>
      </trkpt>
      <trkpt lat="45.95421" lon="6.5657">
        <ele>2150.61</ele>
        <time>2019-02-16T09:52:38Z</time>
      </trkpt>
      <trkpt lat="45.95417" lon="6.5658">
        <ele>2153.01</ele>
        <time>2019-02-16T09:52:49Z</time>
      </trkpt>
      <trkpt lat="45.95418" lon="6.56588">
        <ele>2156.37</ele>
        <time>2019-02-16T09:53:01Z</time>
      </trkpt>
      <trkpt lat="45.95416" lon="6.56599">
        <ele>2159.26</ele>
        <time>2019-02-16T09:53:14Z</time>
      </trkpt>
      <trkpt lat="45.9541" lon="6.56594">
        <ele>2160.7</ele>
        <time>2019-02-16T09:53:23Z</time>
      </trkpt>
      <trkpt lat="45.95402" lon="6.56591">
        <ele>2163.58</ele>
        <time>2019-02-16T09:53:36Z</time>
      </trkpt>
      <trkpt lat="45.95399" lon="6.56584">
        <ele>2165.51</ele>
        <time>2019-02-16T09:53:55Z</time>
      </trkpt>
      <trkpt lat="45.954" lon="6.56586">
        <ele>2165.51</ele>
        <time>2019-02-16T09:54:15Z</time>
      </trkpt>
      <trkpt lat="45.95399" lon="6.56585">
        <ele>2165.03</ele>
        <time>2019-02-16T09:54:40Z</time>
      </trkpt>
      <trkpt lat="45.95398" lon="6.56583">
        <ele>2165.03</ele>
        <time>2019-02-16T09:55:11Z</time>
      </trkpt>
      <trkpt lat="45.954" lon="6.56584">
        <ele>2165.03</ele>
        <time>2019-02-16T09:55:25Z</time>
      </trkpt>
      <trkpt lat="45.95396" lon="6.5658">
        <ele>2165.03</ele>
        <time>2019-02-16T09:55:53Z</time>
      </trkpt>
      <trkpt lat="45.95396" lon="6.56583">
        <ele>2165.03</ele>
        <time>2019-02-16T09:56:04Z</time>
      </trkpt>
      <trkpt lat="45.95397" lon="6.56585">
        <ele>2165.03</ele>
        <time>2019-02-16T09:56:31Z</time>
      </trkpt>
      <trkpt lat="45.95397" lon="6.56573">
        <ele>2167.91</ele>
        <time>2019-02-16T09:56:46Z</time>
      </trkpt>
      <trkpt lat="45.95393" lon="6.56559">
        <ele>2170.79</ele>
        <time>2019-02-16T09:57:00Z</time>
      </trkpt>
      <trkpt lat="45.95392" lon="6.56556">
        <ele>2172.24</ele>
        <time>2019-02-16T09:57:03Z</time>
      </trkpt>
      <trkpt lat="45.95389" lon="6.56548">
        <ele>2175.12</ele>
        <time>2019-02-16T09:57:17Z</time>
      </trkpt>
      <trkpt lat="45.95385" lon="6.56541">
        <ele>2178.48</ele>
        <time>2019-02-16T09:57:33Z</time>
      </trkpt>
      <trkpt lat="45.95383" lon="6.56537">
        <ele>2179.93</ele>
        <time>2019-02-16T09:57:40Z</time>
      </trkpt>
      <trkpt lat="45.95382" lon="6.56536">
        <ele>2179.93</ele>
        <time>2019-02-16T09:57:41Z</time>
      </trkpt>
      <trkpt lat="45.95381" lon="6.56535">
        <ele>2179.93</ele>
        <time>2019-02-16T09:57:42Z</time>
      </trkpt>
      <trkpt lat="45.95373" lon="6.56519">
        <ele>2182.33</ele>
        <time>2019-02-16T09:57:59Z</time>
      </trkpt>
      <trkpt lat="45.95367" lon="6.56506">
        <ele>2185.21</ele>
        <time>2019-02-16T09:58:13Z</time>
      </trkpt>
      <trkpt lat="45.95367" lon="6.56504">
        <ele>2185.69</ele>
        <time>2019-02-16T09:58:15Z</time>
      </trkpt>
      <trkpt lat="45.95363" lon="6.56497">
        <ele>2188.58</ele>
        <time>2019-02-16T09:58:31Z</time>
      </trkpt>
      <trkpt lat="45.9536" lon="6.56491">
        <ele>2190.5</ele>
        <time>2019-02-16T09:58:39Z</time>
      </trkpt>
      <trkpt lat="45.95359" lon="6.56488">
        <ele>2191.46</ele>
        <time>2019-02-16T09:58:43Z</time>
      </trkpt>
      <trkpt lat="45.95358" lon="6.56481">
        <ele>2193.39</ele>
        <time>2019-02-16T09:58:53Z</time>
      </trkpt>
      <trkpt lat="45.95358" lon="6.56479">
        <ele>2193.87</ele>
        <time>2019-02-16T09:58:55Z</time>
      </trkpt>
      <trkpt lat="45.95357" lon="6.56467">
        <ele>2197.23</ele>
        <time>2019-02-16T09:59:10Z</time>
      </trkpt>
      <trkpt lat="45.95357" lon="6.56458">
        <ele>2200.59</ele>
        <time>2019-02-16T09:59:23Z</time>
      </trkpt>
      <trkpt lat="45.95355" lon="6.56452">
        <ele>2203.48</ele>
        <time>2019-02-16T09:59:43Z</time>
      </trkpt>
      <trkpt lat="45.95356" lon="6.56447">
        <ele>2205.4</ele>
        <time>2019-02-16T10:00:01Z</time>
      </trkpt>
      <trkpt lat="45.95357" lon="6.56443">
        <ele>2206.84</ele>
        <time>2019-02-16T10:00:17Z</time>
      </trkpt>
      <trkpt lat="45.95357" lon="6.5644">
        <ele>2207.81</ele>
        <time>2019-02-16T10:00:32Z</time>
      </trkpt>
      <trkpt lat="45.95357" lon="6.56441">
        <ele>2208.77</ele>
        <time>2019-02-16T10:00:46Z</time>
      </trkpt>
      <trkpt lat="45.95357" lon="6.56443">
        <ele>2208.77</ele>
        <time>2019-02-16T10:00:58Z</time>
      </trkpt>
      <trkpt lat="45.95358" lon="6.56435">
        <ele>2210.69</ele>
        <time>2019-02-16T10:01:10Z</time>
      </trkpt>
      <trkpt lat="45.95363" lon="6.56406">
        <ele>2207.81</ele>
        <time>2019-02-16T10:01:25Z</time>
      </trkpt>
      <trkpt lat="45.95367" lon="6.56374">
        <ele>2206.84</ele>
        <time>2019-02-16T10:02:12Z</time>
      </trkpt>
      <trkpt lat="45.9537" lon="6.5635">
        <ele>2209.73</ele>
        <time>2019-02-16T10:02:50Z</time>
      </trkpt>
      <trkpt lat="45.95372" lon="6.56336">
        <ele>2212.61</ele>
        <time>2019-02-16T10:03:27Z</time>
      </trkpt>
      <trkpt lat="45.95372" lon="6.56317">
        <ele>2215.98</ele>
        <time>2019-02-16T10:04:08Z</time>
      </trkpt>
      <trkpt lat="45.95373" lon="6.56303">
        <ele>2218.38</ele>
        <time>2019-02-16T10:04:47Z</time>
      </trkpt>
      <trkpt lat="45.95373" lon="6.5629">
        <ele>2221.26</ele>
        <time>2019-02-16T10:05:17Z</time>
      </trkpt>
      <trkpt lat="45.95369" lon="6.56272">
        <ele>2224.63</ele>
        <time>2019-02-16T10:05:45Z</time>
      </trkpt>
      <trkpt lat="45.95365" lon="6.56256">
        <ele>2227.51</ele>
        <time>2019-02-16T10:06:07Z</time>
      </trkpt>
      <trkpt lat="45.95364" lon="6.56253">
        <ele>2227.99</ele>
        <time>2019-02-16T10:06:10Z</time>
      </trkpt>
      <trkpt lat="45.95359" lon="6.56236">
        <ele>2231.36</ele>
        <time>2019-02-16T10:06:26Z</time>
      </trkpt>
      <trkpt lat="45.95355" lon="6.56217">
        <ele>2234.24</ele>
        <time>2019-02-16T10:06:47Z</time>
      </trkpt>
      <trkpt lat="45.95352" lon="6.56212">
        <ele>2234.72</ele>
        <time>2019-02-16T10:06:57Z</time>
      </trkpt>
      <trkpt lat="45.95351" lon="6.56211">
        <ele>2235.2</ele>
        <time>2019-02-16T10:06:59Z</time>
      </trkpt>
      <trkpt lat="45.95343" lon="6.56201">
        <ele>2235.2</ele>
        <time>2019-02-16T10:07:09Z</time>
      </trkpt>
      <trkpt lat="45.95332" lon="6.56187">
        <ele>2235.2</ele>
        <time>2019-02-16T10:07:23Z</time>
      </trkpt>
      <trkpt lat="45.95331" lon="6.56186">
        <ele>2235.2</ele>
        <time>2019-02-16T10:07:24Z</time>
      </trkpt>
      <trkpt lat="45.9533" lon="6.56184">
        <ele>2235.2</ele>
        <time>2019-02-16T10:07:25Z</time>
      </trkpt>
      <trkpt lat="45.95329" lon="6.56183">
        <ele>2235.2</ele>
        <time>2019-02-16T10:07:26Z</time>
      </trkpt>
      <trkpt lat="45.95328" lon="6.56181">
        <ele>2235.2</ele>
        <time>2019-02-16T10:07:27Z</time>
      </trkpt>
      <trkpt lat="45.95328" lon="6.56179">
        <ele>2234.72</ele>
        <time>2019-02-16T10:07:28Z</time>
      </trkpt>
      <trkpt lat="45.95327" lon="6.56178">
        <ele>2234.72</ele>
        <time>2019-02-16T10:07:29Z</time>
      </trkpt>
      <trkpt lat="45.95325" lon="6.56176">
        <ele>2234.72</ele>
        <time>2019-02-16T10:07:30Z</time>
      </trkpt>
      <trkpt lat="45.95314" lon="6.56153">
        <ele>2231.36</ele>
        <time>2019-02-16T10:07:43Z</time>
      </trkpt>
      <trkpt lat="45.95304" lon="6.56133">
        <ele>2227.99</ele>
        <time>2019-02-16T10:07:51Z</time>
      </trkpt>
      <trkpt lat="45.95295" lon="6.56118">
        <ele>2224.63</ele>
        <time>2019-02-16T10:07:56Z</time>
      </trkpt>
      <trkpt lat="45.95288" lon="6.56105">
        <ele>2220.78</ele>
        <time>2019-02-16T10:08:00Z</time>
      </trkpt>
      <trkpt lat="45.95274" lon="6.5608">
        <ele>2217.9</ele>
        <time>2019-02-16T10:08:14Z</time>
      </trkpt>
      <trkpt lat="45.9525" lon="6.56047">
        <ele>2215.01</ele>
        <time>2019-02-16T10:08:33Z</time>
      </trkpt>
      <trkpt lat="45.95234" lon="6.56024">
        <ele>2211.65</ele>
        <time>2019-02-16T10:08:44Z</time>
      </trkpt>
      <trkpt lat="45.95216" lon="6.56001">
        <ele>2210.21</ele>
        <time>2019-02-16T10:08:59Z</time>
      </trkpt>
      <trkpt lat="45.95213" lon="6.55999">
        <ele>2209.73</ele>
        <time>2019-02-16T10:09:01Z</time>
      </trkpt>
      <trkpt lat="45.95212" lon="6.55997">
        <ele>2209.73</ele>
        <time>2019-02-16T10:09:02Z</time>
      </trkpt>
      <trkpt lat="45.9521" lon="6.55995">
        <ele>2209.25</ele>
        <time>2019-02-16T10:09:03Z</time>
      </trkpt>
      <trkpt lat="45.95209" lon="6.55994">
        <ele>2209.25</ele>
        <time>2019-02-16T10:09:04Z</time>
      </trkpt>
      <trkpt lat="45.95208" lon="6.55992">
        <ele>2208.77</ele>
        <time>2019-02-16T10:09:05Z</time>
      </trkpt>
      <trkpt lat="45.95181" lon="6.55954">
        <ele>2205.88</ele>
        <time>2019-02-16T10:09:30Z</time>
      </trkpt>
      <trkpt lat="45.95176" lon="6.55948">
        <ele>2205.88</ele>
        <time>2019-02-16T10:09:35Z</time>
      </trkpt>
      <trkpt lat="45.95175" lon="6.55947">
        <ele>2205.88</ele>
        <time>2019-02-16T10:09:36Z</time>
      </trkpt>
      <trkpt lat="45.95167" lon="6.55941">
        <ele>2206.36</ele>
        <time>2019-02-16T10:09:43Z</time>
      </trkpt>
      <trkpt lat="45.95166" lon="6.5594">
        <ele>2206.84</ele>
        <time>2019-02-16T10:09:44Z</time>
      </trkpt>
      <trkpt lat="45.95165" lon="6.55939">
        <ele>2206.84</ele>
        <time>2019-02-16T10:09:45Z</time>
      </trkpt>
      <trkpt lat="45.95162" lon="6.55937">
        <ele>2207.32</ele>
        <time>2019-02-16T10:09:47Z</time>
      </trkpt>
      <trkpt lat="45.95161" lon="6.55936">
        <ele>2207.32</ele>
        <time>2019-02-16T10:09:48Z</time>
      </trkpt>
      <trkpt lat="45.9516" lon="6.55935">
        <ele>2207.81</ele>
        <time>2019-02-16T10:09:49Z</time>
      </trkpt>
      <trkpt lat="45.95158" lon="6.55934">
        <ele>2207.81</ele>
        <time>2019-02-16T10:09:51Z</time>
      </trkpt>
      <trkpt lat="45.95157" lon="6.55932">
        <ele>2208.29</ele>
        <time>2019-02-16T10:09:52Z</time>
      </trkpt>
      <trkpt lat="45.95156" lon="6.55931">
        <ele>2208.29</ele>
        <time>2019-02-16T10:09:53Z</time>
      </trkpt>
      <trkpt lat="45.9515" lon="6.55925">
        <ele>2208.77</ele>
        <time>2019-02-16T10:09:59Z</time>
      </trkpt>
      <trkpt lat="45.95149" lon="6.55924">
        <ele>2208.77</ele>
        <time>2019-02-16T10:10:00Z</time>
      </trkpt>
      <trkpt lat="45.95138" lon="6.55916">
        <ele>2209.25</ele>
        <time>2019-02-16T10:10:11Z</time>
      </trkpt>
      <trkpt lat="45.95136" lon="6.55914">
        <ele>2209.25</ele>
        <time>2019-02-16T10:10:13Z</time>
      </trkpt>
      <trkpt lat="45.95135" lon="6.55913">
        <ele>2209.73</ele>
        <time>2019-02-16T10:10:14Z</time>
      </trkpt>
      <trkpt lat="45.95134" lon="6.55913">
        <ele>2209.73</ele>
        <time>2019-02-16T10:10:15Z</time>
      </trkpt>
      <trkpt lat="45.95133" lon="6.55912">
        <ele>2209.73</ele>
        <time>2019-02-16T10:10:16Z</time>
      </trkpt>
      <trkpt lat="45.95132" lon="6.5591">
        <ele>2209.25</ele>
        <time>2019-02-16T10:10:17Z</time>
      </trkpt>
      <trkpt lat="45.9513" lon="6.5591">
        <ele>2209.25</ele>
        <time>2019-02-16T10:10:18Z</time>
      </trkpt>
      <trkpt lat="45.95129" lon="6.55909">
        <ele>2209.25</ele>
        <time>2019-02-16T10:10:19Z</time>
      </trkpt>
      <trkpt lat="45.95128" lon="6.55908">
        <ele>2209.25</ele>
        <time>2019-02-16T10:10:20Z</time>
      </trkpt>
      <trkpt lat="45.95127" lon="6.55907">
        <ele>2209.25</ele>
        <time>2019-02-16T10:10:21Z</time>
      </trkpt>
      <trkpt lat="45.95126" lon="6.55906">
        <ele>2209.25</ele>
        <time>2019-02-16T10:10:22Z</time>
      </trkpt>
      <trkpt lat="45.95125" lon="6.55905">
        <ele>2209.25</ele>
        <time>2019-02-16T10:10:23Z</time>
      </trkpt>
      <trkpt lat="45.95098" lon="6.55873">
        <ele>2208.77</ele>
        <time>2019-02-16T10:10:51Z</time>
      </trkpt>
      <trkpt lat="45.95086" lon="6.55862">
        <ele>2210.69</ele>
        <time>2019-02-16T10:11:05Z</time>
      </trkpt>
      <trkpt lat="45.95085" lon="6.55861">
        <ele>2210.69</ele>
        <time>2019-02-16T10:11:06Z</time>
      </trkpt>
      <trkpt lat="45.95059" lon="6.55842">
        <ele>2213.57</ele>
        <time>2019-02-16T10:11:35Z</time>
      </trkpt>
      <trkpt lat="45.95058" lon="6.55842">
        <ele>2213.57</ele>
        <time>2019-02-16T10:11:36Z</time>
      </trkpt>
      <trkpt lat="45.95057" lon="6.55841">
        <ele>2213.57</ele>
        <time>2019-02-16T10:11:37Z</time>
      </trkpt>
      <trkpt lat="45.95046" lon="6.55829">
        <ele>2214.05</ele>
        <time>2019-02-16T10:11:51Z</time>
      </trkpt>
      <trkpt lat="45.95045" lon="6.55828">
        <ele>2214.53</ele>
        <time>2019-02-16T10:11:52Z</time>
      </trkpt>
      <trkpt lat="45.95044" lon="6.55827">
        <ele>2214.53</ele>
        <time>2019-02-16T10:11:53Z</time>
      </trkpt>
      <trkpt lat="45.95043" lon="6.55826">
        <ele>2215.01</ele>
        <time>2019-02-16T10:11:54Z</time>
      </trkpt>
      <trkpt lat="45.95042" lon="6.55825">
        <ele>2215.01</ele>
        <time>2019-02-16T10:11:55Z</time>
      </trkpt>
      <trkpt lat="45.95041" lon="6.55824">
        <ele>2215.01</ele>
        <time>2019-02-16T10:11:56Z</time>
      </trkpt>
      <trkpt lat="45.9504" lon="6.55823">
        <ele>2215.01</ele>
        <time>2019-02-16T10:11:57Z</time>
      </trkpt>
      <trkpt lat="45.9504" lon="6.55822">
        <ele>2215.01</ele>
        <time>2019-02-16T10:11:58Z</time>
      </trkpt>
      <trkpt lat="45.95029" lon="6.55811">
        <ele>2216.46</ele>
        <time>2019-02-16T10:12:12Z</time>
      </trkpt>
      <trkpt lat="45.95028" lon="6.5581">
        <ele>2216.46</ele>
        <time>2019-02-16T10:12:13Z</time>
      </trkpt>
      <trkpt lat="45.95028" lon="6.55809">
        <ele>2216.94</ele>
        <time>2019-02-16T10:12:14Z</time>
      </trkpt>
      <trkpt lat="45.95012" lon="6.55801">
        <ele>2219.82</ele>
        <time>2019-02-16T10:12:32Z</time>
      </trkpt>
      <trkpt lat="45.94996" lon="6.55787">
        <ele>2223.19</ele>
        <time>2019-02-16T10:12:55Z</time>
      </trkpt>
      <trkpt lat="45.94982" lon="6.55772">
        <ele>2223.19</ele>
        <time>2019-02-16T10:13:13Z</time>
      </trkpt>
      <trkpt lat="45.94979" lon="6.55769">
        <ele>2222.71</ele>
        <time>2019-02-16T10:13:17Z</time>
      </trkpt>
      <trkpt lat="45.94978" lon="6.55768">
        <ele>2222.71</ele>
        <time>2019-02-16T10:13:18Z</time>
      </trkpt>
      <trkpt lat="45.94956" lon="6.55746">
        <ele>2223.19</ele>
        <time>2019-02-16T10:13:48Z</time>
      </trkpt>
      <trkpt lat="45.94955" lon="6.55745">
        <ele>2223.19</ele>
        <time>2019-02-16T10:13:49Z</time>
      </trkpt>
      <trkpt lat="45.94939" lon="6.55722">
        <ele>2225.59</ele>
        <time>2019-02-16T10:14:28Z</time>
      </trkpt>
      <trkpt lat="45.94939" lon="6.55721">
        <ele>2225.59</ele>
        <time>2019-02-16T10:14:29Z</time>
      </trkpt>
      <trkpt lat="45.94937" lon="6.55716">
        <ele>2225.59</ele>
        <time>2019-02-16T10:14:34Z</time>
      </trkpt>
      <trkpt lat="45.94936" lon="6.55714">
        <ele>2225.59</ele>
        <time>2019-02-16T10:14:35Z</time>
      </trkpt>
      <trkpt lat="45.94935" lon="6.55713">
        <ele>2225.59</ele>
        <time>2019-02-16T10:14:36Z</time>
      </trkpt>
      <trkpt lat="45.94935" lon="6.55712">
        <ele>2225.59</ele>
        <time>2019-02-16T10:14:37Z</time>
      </trkpt>
      <trkpt lat="45.94933" lon="6.55708">
        <ele>2225.59</ele>
        <time>2019-02-16T10:14:40Z</time>
      </trkpt>
      <trkpt lat="45.94932" lon="6.55706">
        <ele>2226.07</ele>
        <time>2019-02-16T10:14:42Z</time>
      </trkpt>
      <trkpt lat="45.9493" lon="6.55704">
        <ele>2226.07</ele>
        <time>2019-02-16T10:14:45Z</time>
      </trkpt>
      <trkpt lat="45.94929" lon="6.55703">
        <ele>2226.55</ele>
        <time>2019-02-16T10:14:46Z</time>
      </trkpt>
      <trkpt lat="45.94929" lon="6.55701">
        <ele>2226.55</ele>
        <time>2019-02-16T10:14:47Z</time>
      </trkpt>
      <trkpt lat="45.94909" lon="6.55656">
        <ele>2229.43</ele>
        <time>2019-02-16T10:15:47Z</time>
      </trkpt>
      <trkpt lat="45.94909" lon="6.55655">
        <ele>2229.43</ele>
        <time>2019-02-16T10:15:48Z</time>
      </trkpt>
      <trkpt lat="45.94909" lon="6.55654">
        <ele>2229.43</ele>
        <time>2019-02-16T10:15:49Z</time>
      </trkpt>
      <trkpt lat="45.9491" lon="6.55646">
        <ele>2232.8</ele>
        <time>2019-02-16T10:16:08Z</time>
      </trkpt>
      <trkpt lat="45.94913" lon="6.55628">
        <ele>2235.68</ele>
        <time>2019-02-16T10:16:56Z</time>
      </trkpt>
      <trkpt lat="45.94916" lon="6.55615">
        <ele>2238.57</ele>
        <time>2019-02-16T10:17:09Z</time>
      </trkpt>
      <trkpt lat="45.94921" lon="6.55611">
        <ele>2241.93</ele>
        <time>2019-02-16T10:17:23Z</time>
      </trkpt>
      <trkpt lat="45.94928" lon="6.55618">
        <ele>2245.3</ele>
        <time>2019-02-16T10:17:38Z</time>
      </trkpt>
      <trkpt lat="45.94932" lon="6.55626">
        <ele>2248.18</ele>
        <time>2019-02-16T10:17:53Z</time>
      </trkpt>
      <trkpt lat="45.94939" lon="6.55633">
        <ele>2251.06</ele>
        <time>2019-02-16T10:18:09Z</time>
      </trkpt>
      <trkpt lat="45.94948" lon="6.55639">
        <ele>2254.43</ele>
        <time>2019-02-16T10:18:25Z</time>
      </trkpt>
      <trkpt lat="45.94956" lon="6.55644">
        <ele>2256.83</ele>
        <time>2019-02-16T10:18:40Z</time>
      </trkpt>
      <trkpt lat="45.94961" lon="6.55646">
        <ele>2259.72</ele>
        <time>2019-02-16T10:18:56Z</time>
      </trkpt>
      <trkpt lat="45.94958" lon="6.55636">
        <ele>2262.6</ele>
        <time>2019-02-16T10:19:18Z</time>
      </trkpt>
      <trkpt lat="45.94957" lon="6.55622">
        <ele>2265.96</ele>
        <time>2019-02-16T10:19:35Z</time>
      </trkpt>
      <trkpt lat="45.94957" lon="6.55615">
        <ele>2267.41</ele>
        <time>2019-02-16T10:19:43Z</time>
      </trkpt>
      <trkpt lat="45.94955" lon="6.55605">
        <ele>2270.77</ele>
        <time>2019-02-16T10:19:58Z</time>
      </trkpt>
      <trkpt lat="45.94964" lon="6.55612">
        <ele>2274.14</ele>
        <time>2019-02-16T10:20:23Z</time>
      </trkpt>
      <trkpt lat="45.9497" lon="6.5562">
        <ele>2277.02</ele>
        <time>2019-02-16T10:20:41Z</time>
      </trkpt>
      <trkpt lat="45.94974" lon="6.55621">
        <ele>2278.94</ele>
        <time>2019-02-16T10:21:03Z</time>
      </trkpt>
      <trkpt lat="45.94972" lon="6.55607">
        <ele>2281.83</ele>
        <time>2019-02-16T10:21:24Z</time>
      </trkpt>
      <trkpt lat="45.94971" lon="6.55596">
        <ele>2285.19</ele>
        <time>2019-02-16T10:21:38Z</time>
      </trkpt>
      <trkpt lat="45.94975" lon="6.55592">
        <ele>2288.08</ele>
        <time>2019-02-16T10:21:58Z</time>
      </trkpt>
      <trkpt lat="45.94982" lon="6.55597">
        <ele>2291.44</ele>
        <time>2019-02-16T10:22:16Z</time>
      </trkpt>
      <trkpt lat="45.94988" lon="6.55602">
        <ele>2294.32</ele>
        <time>2019-02-16T10:22:29Z</time>
      </trkpt>
      <trkpt lat="45.94986" lon="6.5559">
        <ele>2297.21</ele>
        <time>2019-02-16T10:23:02Z</time>
      </trkpt>
      <trkpt lat="45.94984" lon="6.55581">
        <ele>2300.57</ele>
        <time>2019-02-16T10:23:18Z</time>
      </trkpt>
      <trkpt lat="45.94982" lon="6.5557">
        <ele>2303.46</ele>
        <time>2019-02-16T10:23:35Z</time>
      </trkpt>
      <trkpt lat="45.94987" lon="6.55569">
        <ele>2306.82</ele>
        <time>2019-02-16T10:24:05Z</time>
      </trkpt>
      <trkpt lat="45.94991" lon="6.55569">
        <ele>2307.78</ele>
        <time>2019-02-16T10:24:11Z</time>
      </trkpt>
      <trkpt lat="45.94999" lon="6.55571">
        <ele>2310.67</ele>
        <time>2019-02-16T10:24:31Z</time>
      </trkpt>
      <trkpt lat="45.95005" lon="6.55576">
        <ele>2314.03</ele>
        <time>2019-02-16T10:24:48Z</time>
      </trkpt>
      <trkpt lat="45.95012" lon="6.55581">
        <ele>2316.91</ele>
        <time>2019-02-16T10:25:02Z</time>
      </trkpt>
      <trkpt lat="45.95012" lon="6.55574">
        <ele>2318.84</ele>
        <time>2019-02-16T10:25:43Z</time>
      </trkpt>
      <trkpt lat="45.95006" lon="6.55558">
        <ele>2321.72</ele>
        <time>2019-02-16T10:26:07Z</time>
      </trkpt>
      <trkpt lat="45.95001" lon="6.55548">
        <ele>2324.12</ele>
        <time>2019-02-16T10:26:24Z</time>
      </trkpt>
      <trkpt lat="45.94996" lon="6.55543">
        <ele>2326.53</ele>
        <time>2019-02-16T10:26:42Z</time>
      </trkpt>
      <trkpt lat="45.94995" lon="6.55535">
        <ele>2328.45</ele>
        <time>2019-02-16T10:26:56Z</time>
      </trkpt>
      <trkpt lat="45.94987" lon="6.5553">
        <ele>2331.81</ele>
        <time>2019-02-16T10:27:20Z</time>
      </trkpt>
      <trkpt lat="45.94983" lon="6.5553">
        <ele>2332.78</ele>
        <time>2019-02-16T10:27:51Z</time>
      </trkpt>
      <trkpt lat="45.94985" lon="6.55526">
        <ele>2332.3</ele>
        <time>2019-02-16T10:28:22Z</time>
      </trkpt>
      <trkpt lat="45.94983" lon="6.55524">
        <ele>2332.78</ele>
        <time>2019-02-16T10:29:23Z</time>
      </trkpt>
      <trkpt lat="45.9498" lon="6.55517">
        <ele>2334.7</ele>
        <time>2019-02-16T10:30:55Z</time>
      </trkpt>
      <trkpt lat="45.94982" lon="6.55511">
        <ele>2337.58</ele>
        <time>2019-02-16T10:33:09Z</time>
      </trkpt>
      <trkpt lat="45.94982" lon="6.55509">
        <ele>2340.47</ele>
        <time>2019-02-16T10:34:05Z</time>
      </trkpt>
      <trkpt lat="45.94983" lon="6.5551">
        <ele>2340.47</ele>
        <time>2019-02-16T10:34:10Z</time>
      </trkpt>
      <trkpt lat="45.94984" lon="6.55509">
        <ele>2340.47</ele>
        <time>2019-02-16T10:35:22Z</time>
      </trkpt>
      <trkpt lat="45.94983" lon="6.55511">
        <ele>2340.95</ele>
        <time>2019-02-16T10:36:06Z</time>
      </trkpt>
      <trkpt lat="45.94982" lon="6.55511">
        <ele>2340.47</ele>
        <time>2019-02-16T10:36:51Z</time>
      </trkpt>
      <trkpt lat="45.94985" lon="6.55512">
        <ele>2340.95</ele>
        <time>2019-02-16T10:37:41Z</time>
      </trkpt>
      <trkpt lat="45.94984" lon="6.55511">
        <ele>2340.95</ele>
        <time>2019-02-16T10:38:33Z</time>
      </trkpt>
      <trkpt lat="45.94985" lon="6.55507">
        <ele>2344.31</ele>
        <time>2019-02-16T10:38:49Z</time>
      </trkpt>
      <trkpt lat="45.94988" lon="6.55502">
        <ele>2347.2</ele>
        <time>2019-02-16T10:39:02Z</time>
      </trkpt>
      <trkpt lat="45.94989" lon="6.555">
        <ele>2350.56</ele>
        <time>2019-02-16T10:39:18Z</time>
      </trkpt>
      <trkpt lat="45.94993" lon="6.55498">
        <ele>2353.93</ele>
        <time>2019-02-16T10:39:35Z</time>
      </trkpt>
      <trkpt lat="45.94994" lon="6.55497">
        <ele>2354.41</ele>
        <time>2019-02-16T10:39:39Z</time>
      </trkpt>
      <trkpt lat="45.94996" lon="6.55496">
        <ele>2357.29</ele>
        <time>2019-02-16T10:40:05Z</time>
      </trkpt>
      <trkpt lat="45.94999" lon="6.55494">
        <ele>2360.17</ele>
        <time>2019-02-16T10:40:19Z</time>
      </trkpt>
      <trkpt lat="45.95003" lon="6.55493">
        <ele>2363.54</ele>
        <time>2019-02-16T10:40:47Z</time>
      </trkpt>
      <trkpt lat="45.95005" lon="6.55489">
        <ele>2366.42</ele>
        <time>2019-02-16T10:41:01Z</time>
      </trkpt>
      <trkpt lat="45.95006" lon="6.55488">
        <ele>2369.79</ele>
        <time>2019-02-16T10:41:33Z</time>
      </trkpt>
      <trkpt lat="45.95009" lon="6.55483">
        <ele>2372.67</ele>
        <time>2019-02-16T10:41:54Z</time>
      </trkpt>
      <trkpt lat="45.9501" lon="6.55481">
        <ele>2374.59</ele>
        <time>2019-02-16T10:42:19Z</time>
      </trkpt>
      <trkpt lat="45.95012" lon="6.55478">
        <ele>2377.96</ele>
        <time>2019-02-16T10:42:41Z</time>
      </trkpt>
      <trkpt lat="45.95015" lon="6.55477">
        <ele>2380.84</ele>
        <time>2019-02-16T10:43:10Z</time>
      </trkpt>
      <trkpt lat="45.95018" lon="6.55475">
        <ele>2383.73</ele>
        <time>2019-02-16T10:43:49Z</time>
      </trkpt>
      <trkpt lat="45.95022" lon="6.55471">
        <ele>2387.09</ele>
        <time>2019-02-16T10:44:05Z</time>
      </trkpt>
      <trkpt lat="45.95023" lon="6.55472">
        <ele>2389.97</ele>
        <time>2019-02-16T10:44:41Z</time>
      </trkpt>
      <trkpt lat="45.95027" lon="6.55468">
        <ele>2391.42</ele>
        <time>2019-02-16T10:45:19Z</time>
      </trkpt>
      <trkpt lat="45.95028" lon="6.55468">
        <ele>2394.78</ele>
        <time>2019-02-16T10:46:03Z</time>
      </trkpt>
      <trkpt lat="45.9503" lon="6.55465">
        <ele>2397.67</ele>
        <time>2019-02-16T10:46:18Z</time>
      </trkpt>
      <trkpt lat="45.95033" lon="6.55464">
        <ele>2401.03</ele>
        <time>2019-02-16T10:46:48Z</time>
      </trkpt>
      <trkpt lat="45.95034" lon="6.55461">
        <ele>2403.91</ele>
        <time>2019-02-16T10:47:11Z</time>
      </trkpt>
      <trkpt lat="45.95036" lon="6.55453">
        <ele>2405.84</ele>
        <time>2019-02-16T10:47:44Z</time>
      </trkpt>
      <trkpt lat="45.95034" lon="6.5545">
        <ele>2408.24</ele>
        <time>2019-02-16T10:48:19Z</time>
      </trkpt>
      <trkpt lat="45.95035" lon="6.55449">
        <ele>2408.24</ele>
        <time>2019-02-16T10:48:38Z</time>
      </trkpt>
      <trkpt lat="45.95035" lon="6.55447">
        <ele>2409.68</ele>
        <time>2019-02-16T10:48:53Z</time>
      </trkpt>
      <trkpt lat="45.95037" lon="6.55444">
        <ele>2412.57</ele>
        <time>2019-02-16T10:49:10Z</time>
      </trkpt>
      <trkpt lat="45.95039" lon="6.5544">
        <ele>2415.45</ele>
        <time>2019-02-16T10:49:28Z</time>
      </trkpt>
      <trkpt lat="45.95043" lon="6.55441">
        <ele>2418.81</ele>
        <time>2019-02-16T10:49:50Z</time>
      </trkpt>
      <trkpt lat="45.95046" lon="6.55436">
        <ele>2422.18</ele>
        <time>2019-02-16T10:50:27Z</time>
      </trkpt>
      <trkpt lat="45.9505" lon="6.55433">
        <ele>2425.06</ele>
        <time>2019-02-16T10:50:53Z</time>
      </trkpt>
      <trkpt lat="45.95051" lon="6.5543">
        <ele>2427.95</ele>
        <time>2019-02-16T10:51:10Z</time>
      </trkpt>
      <trkpt lat="45.95053" lon="6.55429">
        <ele>2430.83</ele>
        <time>2019-02-16T10:51:46Z</time>
      </trkpt>
      <trkpt lat="45.95055" lon="6.55428">
        <ele>2434.2</ele>
        <time>2019-02-16T10:52:10Z</time>
      </trkpt>
      <trkpt lat="45.95056" lon="6.55425">
        <ele>2436.6</ele>
        <time>2019-02-16T10:52:48Z</time>
      </trkpt>
      <trkpt lat="45.95059" lon="6.55423">
        <ele>2439</ele>
        <time>2019-02-16T10:53:29Z</time>
      </trkpt>
      <trkpt lat="45.95059" lon="6.55423">
        <ele>2439.48</ele>
        <time>2019-02-16T10:53:35Z</time>
      </trkpt>
      <trkpt lat="45.9506" lon="6.55423">
        <ele>2440.44</ele>
        <time>2019-02-16T10:53:51Z</time>
      </trkpt>
      <trkpt lat="45.95061" lon="6.55425">
        <ele>2441.41</ele>
        <time>2019-02-16T10:54:04Z</time>
      </trkpt>
      <trkpt lat="45.95063" lon="6.55424">
        <ele>2441.89</ele>
        <time>2019-02-16T10:54:12Z</time>
      </trkpt>
      <trkpt lat="45.95064" lon="6.55422">
        <ele>2442.37</ele>
        <time>2019-02-16T10:54:20Z</time>
      </trkpt>
      <trkpt lat="45.95063" lon="6.5542">
        <ele>2444.29</ele>
        <time>2019-02-16T10:54:42Z</time>
      </trkpt>
      <trkpt lat="45.95064" lon="6.55419">
        <ele>2444.77</ele>
        <time>2019-02-16T10:54:51Z</time>
      </trkpt>
      <trkpt lat="45.95067" lon="6.55415">
        <ele>2448.13</ele>
        <time>2019-02-16T10:55:15Z</time>
      </trkpt>
      <trkpt lat="45.9507" lon="6.55415">
        <ele>2451.02</ele>
        <time>2019-02-16T10:55:41Z</time>
      </trkpt>
      <trkpt lat="45.95071" lon="6.55413">
        <ele>2452.46</ele>
        <time>2019-02-16T10:55:50Z</time>
      </trkpt>
      <trkpt lat="45.95074" lon="6.55412">
        <ele>2455.82</ele>
        <time>2019-02-16T10:56:13Z</time>
      </trkpt>
      <trkpt lat="45.95079" lon="6.55406">
        <ele>2458.71</ele>
        <time>2019-02-16T10:56:39Z</time>
      </trkpt>
      <trkpt lat="45.95082" lon="6.55406">
        <ele>2461.59</ele>
        <time>2019-02-16T10:57:02Z</time>
      </trkpt>
      <trkpt lat="45.95084" lon="6.55404">
        <ele>2464.96</ele>
        <time>2019-02-16T10:57:32Z</time>
      </trkpt>
      <trkpt lat="45.95086" lon="6.55404">
        <ele>2467.84</ele>
        <time>2019-02-16T10:57:55Z</time>
      </trkpt>
      <trkpt lat="45.95085" lon="6.55405">
        <ele>2468.32</ele>
        <time>2019-02-16T10:58:01Z</time>
      </trkpt>
      <trkpt lat="45.95086" lon="6.55404">
        <ele>2469.76</ele>
        <time>2019-02-16T10:58:24Z</time>
      </trkpt>
      <trkpt lat="45.95088" lon="6.55401">
        <ele>2473.13</ele>
        <time>2019-02-16T10:58:48Z</time>
      </trkpt>
      <trkpt lat="45.95091" lon="6.55394">
        <ele>2476.01</ele>
        <time>2019-02-16T10:59:18Z</time>
      </trkpt>
      <trkpt lat="45.95099" lon="6.55385">
        <ele>2478.9</ele>
        <time>2019-02-16T10:59:51Z</time>
      </trkpt>
      <trkpt lat="45.95106" lon="6.55386">
        <ele>2481.78</ele>
        <time>2019-02-16T11:00:28Z</time>
      </trkpt>
      <trkpt lat="45.95107" lon="6.55387">
        <ele>2483.22</ele>
        <time>2019-02-16T11:00:48Z</time>
      </trkpt>
      <trkpt lat="45.95107" lon="6.55389">
        <ele>2483.7</ele>
        <time>2019-02-16T11:00:55Z</time>
      </trkpt>
      <trkpt lat="45.95103" lon="6.55399">
        <ele>2483.22</ele>
        <time>2019-02-16T11:01:08Z</time>
      </trkpt>
      <trkpt lat="45.95104" lon="6.55406">
        <ele>2483.22</ele>
        <time>2019-02-16T11:01:24Z</time>
      </trkpt>
      <trkpt lat="45.95107" lon="6.55415">
        <ele>2484.18</ele>
        <time>2019-02-16T11:01:41Z</time>
      </trkpt>
      <trkpt lat="45.9511" lon="6.55419">
        <ele>2484.66</ele>
        <time>2019-02-16T11:01:58Z</time>
      </trkpt>
      <trkpt lat="45.95112" lon="6.55424">
        <ele>2485.15</ele>
        <time>2019-02-16T11:02:15Z</time>
      </trkpt>
      <trkpt lat="45.95121" lon="6.55432">
        <ele>2487.07</ele>
        <time>2019-02-16T11:02:35Z</time>
      </trkpt>
      <trkpt lat="45.95127" lon="6.55444">
        <ele>2488.51</ele>
        <time>2019-02-16T11:02:56Z</time>
      </trkpt>
      <trkpt lat="45.95132" lon="6.55454">
        <ele>2489.47</ele>
        <time>2019-02-16T11:03:14Z</time>
      </trkpt>
      <trkpt lat="45.9514" lon="6.55465">
        <ele>2487.55</ele>
        <time>2019-02-16T11:03:33Z</time>
      </trkpt>
      <trkpt lat="45.95141" lon="6.55469">
        <ele>2486.11</ele>
        <time>2019-02-16T11:03:58Z</time>
      </trkpt>
      <trkpt lat="45.9514" lon="6.5547">
        <ele>2486.59</ele>
        <time>2019-02-16T11:04:28Z</time>
      </trkpt>
      <trkpt lat="45.95141" lon="6.5547">
        <ele>2486.59</ele>
        <time>2019-02-16T11:05:00Z</time>
      </trkpt>
      <trkpt lat="45.95142" lon="6.55469">
        <ele>2486.59</ele>
        <time>2019-02-16T11:05:51Z</time>
      </trkpt>
      <trkpt lat="45.95139" lon="6.55469">
        <ele>2486.11</ele>
        <time>2019-02-16T11:07:50Z</time>
      </trkpt>
      <trkpt lat="45.95139" lon="6.55469">
        <ele>2485.63</ele>
        <time>2019-02-16T11:09:23Z</time>
      </trkpt>
      <trkpt lat="45.95139" lon="6.55468">
        <ele>2486.11</ele>
        <time>2019-02-16T11:10:08Z</time>
      </trkpt>
      <trkpt lat="45.9514" lon="6.55471">
        <ele>2486.59</ele>
        <time>2019-02-16T11:12:56Z</time>
      </trkpt>
      <trkpt lat="45.95139" lon="6.55469">
        <ele>2486.11</ele>
        <time>2019-02-16T11:13:10Z</time>
      </trkpt>
      <trkpt lat="45.95139" lon="6.55469">
        <ele>2486.59</ele>
        <time>2019-02-16T11:13:42Z</time>
      </trkpt>
      <trkpt lat="45.95141" lon="6.55468">
        <ele>2486.59</ele>
        <time>2019-02-16T11:15:07Z</time>
      </trkpt>
      <trkpt lat="45.9514" lon="6.55468">
        <ele>2486.59</ele>
        <time>2019-02-16T11:15:28Z</time>
      </trkpt>
      <trkpt lat="45.9514" lon="6.55468">
        <ele>2486.59</ele>
        <time>2019-02-16T11:15:49Z</time>
      </trkpt>
      <trkpt lat="45.9514" lon="6.55469">
        <ele>2486.59</ele>
        <time>2019-02-16T11:16:07Z</time>
      </trkpt>
      <trkpt lat="45.95141" lon="6.55469">
        <ele>2486.11</ele>
        <time>2019-02-16T11:16:25Z</time>
      </trkpt>
      <trkpt lat="45.95141" lon="6.55471">
        <ele>2486.11</ele>
        <time>2019-02-16T11:16:42Z</time>
      </trkpt>
      <trkpt lat="45.95142" lon="6.55472">
        <ele>2486.11</ele>
        <time>2019-02-16T11:17:00Z</time>
      </trkpt>
      <trkpt lat="45.95142" lon="6.55475">
        <ele>2486.11</ele>
        <time>2019-02-16T11:17:20Z</time>
      </trkpt>
      <trkpt lat="45.95141" lon="6.55475">
        <ele>2486.11</ele>
        <time>2019-02-16T11:17:40Z</time>
      </trkpt>
      <trkpt lat="45.95141" lon="6.55476">
        <ele>2486.11</ele>
        <time>2019-02-16T11:18:02Z</time>
      </trkpt>
      <trkpt lat="45.95141" lon="6.55477">
        <ele>2486.11</ele>
        <time>2019-02-16T11:18:24Z</time>
      </trkpt>
      <trkpt lat="45.95141" lon="6.55475">
        <ele>2486.11</ele>
        <time>2019-02-16T11:18:51Z</time>
      </trkpt>
      <trkpt lat="45.9514" lon="6.55474">
        <ele>2486.11</ele>
        <time>2019-02-16T11:19:13Z</time>
      </trkpt>
      <trkpt lat="45.9514" lon="6.55473">
        <ele>2486.59</ele>
        <time>2019-02-16T11:21:13Z</time>
      </trkpt>
      <trkpt lat="45.9514" lon="6.55471">
        <ele>2486.59</ele>
        <time>2019-02-16T11:21:49Z</time>
      </trkpt>
      <trkpt lat="45.95138" lon="6.55469">
        <ele>2487.07</ele>
        <time>2019-02-16T11:23:26Z</time>
      </trkpt>
      <trkpt lat="45.95138" lon="6.55468">
        <ele>2487.55</ele>
        <time>2019-02-16T11:23:44Z</time>
      </trkpt>
      <trkpt lat="45.95137" lon="6.55467">
        <ele>2487.07</ele>
        <time>2019-02-16T11:23:59Z</time>
      </trkpt>
      <trkpt lat="45.95138" lon="6.55467">
        <ele>2487.07</ele>
        <time>2019-02-16T11:24:19Z</time>
      </trkpt>
      <trkpt lat="45.95139" lon="6.55467">
        <ele>2486.59</ele>
        <time>2019-02-16T11:24:35Z</time>
      </trkpt>
      <trkpt lat="45.95138" lon="6.55468">
        <ele>2486.59</ele>
        <time>2019-02-16T11:24:53Z</time>
      </trkpt>
      <trkpt lat="45.95138" lon="6.55468">
        <ele>2487.07</ele>
        <time>2019-02-16T11:25:21Z</time>
      </trkpt>
      <trkpt lat="45.95137" lon="6.5547">
        <ele>2487.07</ele>
        <time>2019-02-16T11:26:03Z</time>
      </trkpt>
      <trkpt lat="45.95139" lon="6.55466">
        <ele>2487.07</ele>
        <time>2019-02-16T11:26:39Z</time>
      </trkpt>
      <trkpt lat="45.95136" lon="6.55465">
        <ele>2487.07</ele>
        <time>2019-02-16T11:27:21Z</time>
      </trkpt>
      <trkpt lat="45.9514" lon="6.55466">
        <ele>2488.03</ele>
        <time>2019-02-16T11:29:17Z</time>
      </trkpt>
      <trkpt lat="45.95138" lon="6.55467">
        <ele>2487.55</ele>
        <time>2019-02-16T11:29:41Z</time>
      </trkpt>
      <trkpt lat="45.9514" lon="6.55468">
        <ele>2488.03</ele>
        <time>2019-02-16T11:30:16Z</time>
      </trkpt>
      <trkpt lat="45.95138" lon="6.55469">
        <ele>2488.03</ele>
        <time>2019-02-16T11:30:43Z</time>
      </trkpt>
      <trkpt lat="45.95138" lon="6.55469">
        <ele>2487.55</ele>
        <time>2019-02-16T11:31:07Z</time>
      </trkpt>
      <trkpt lat="45.95139" lon="6.5547">
        <ele>2487.55</ele>
        <time>2019-02-16T11:31:32Z</time>
      </trkpt>
      <trkpt lat="45.9514" lon="6.55471">
        <ele>2488.03</ele>
        <time>2019-02-16T11:31:56Z</time>
      </trkpt>
      <trkpt lat="45.95144" lon="6.55477">
        <ele>2488.03</ele>
        <time>2019-02-16T11:32:07Z</time>
      </trkpt>
      <trkpt lat="45.95158" lon="6.55489">
        <ele>2489.47</ele>
        <time>2019-02-16T11:32:34Z</time>
      </trkpt>
      <trkpt lat="45.95168" lon="6.55487">
        <ele>2488.03</ele>
        <time>2019-02-16T11:33:02Z</time>
      </trkpt>
      <trkpt lat="45.95167" lon="6.55485">
        <ele>2487.55</ele>
        <time>2019-02-16T11:33:03Z</time>
      </trkpt>
      <trkpt lat="45.95165" lon="6.5548">
        <ele>2484.18</ele>
        <time>2019-02-16T11:33:07Z</time>
      </trkpt>
      <trkpt lat="45.95166" lon="6.55478">
        <ele>2483.22</ele>
        <time>2019-02-16T11:33:08Z</time>
      </trkpt>
      <trkpt lat="45.95166" lon="6.55474">
        <ele>2482.26</ele>
        <time>2019-02-16T11:33:09Z</time>
      </trkpt>
      <trkpt lat="45.95165" lon="6.55469">
        <ele>2480.34</ele>
        <time>2019-02-16T11:33:10Z</time>
      </trkpt>
      <trkpt lat="45.95163" lon="6.55465">
        <ele>2478.9</ele>
        <time>2019-02-16T11:33:11Z</time>
      </trkpt>
      <trkpt lat="45.95161" lon="6.55461">
        <ele>2476.97</ele>
        <time>2019-02-16T11:33:12Z</time>
      </trkpt>
      <trkpt lat="45.95162" lon="6.55456">
        <ele>2474.57</ele>
        <time>2019-02-16T11:33:13Z</time>
      </trkpt>
      <trkpt lat="45.95162" lon="6.55451">
        <ele>2472.65</ele>
        <time>2019-02-16T11:33:14Z</time>
      </trkpt>
      <trkpt lat="45.95161" lon="6.55445">
        <ele>2471.21</ele>
        <time>2019-02-16T11:33:15Z</time>
      </trkpt>
      <trkpt lat="45.95161" lon="6.55436">
        <ele>2467.36</ele>
        <time>2019-02-16T11:33:16Z</time>
      </trkpt>
      <trkpt lat="45.95165" lon="6.5543">
        <ele>2464</ele>
        <time>2019-02-16T11:33:17Z</time>
      </trkpt>
      <trkpt lat="45.95167" lon="6.55421">
        <ele>2460.63</ele>
        <time>2019-02-16T11:33:18Z</time>
      </trkpt>
      <trkpt lat="45.95167" lon="6.5541">
        <ele>2456.79</ele>
        <time>2019-02-16T11:33:19Z</time>
      </trkpt>
      <trkpt lat="45.95166" lon="6.554">
        <ele>2451.5</ele>
        <time>2019-02-16T11:33:20Z</time>
      </trkpt>
      <trkpt lat="45.95166" lon="6.55387">
        <ele>2448.13</ele>
        <time>2019-02-16T11:33:21Z</time>
      </trkpt>
      <trkpt lat="45.95167" lon="6.55375">
        <ele>2441.41</ele>
        <time>2019-02-16T11:33:22Z</time>
      </trkpt>
      <trkpt lat="45.95169" lon="6.55362">
        <ele>2434.2</ele>
        <time>2019-02-16T11:33:23Z</time>
      </trkpt>
      <trkpt lat="45.95173" lon="6.55349">
        <ele>2429.39</ele>
        <time>2019-02-16T11:33:24Z</time>
      </trkpt>
      <trkpt lat="45.95177" lon="6.55336">
        <ele>2422.18</ele>
        <time>2019-02-16T11:33:25Z</time>
      </trkpt>
      <trkpt lat="45.95177" lon="6.55321">
        <ele>2416.41</ele>
        <time>2019-02-16T11:33:26Z</time>
      </trkpt>
      <trkpt lat="45.95177" lon="6.55308">
        <ele>2411.6</ele>
        <time>2019-02-16T11:33:27Z</time>
      </trkpt>
      <trkpt lat="45.95174" lon="6.55294">
        <ele>2405.36</ele>
        <time>2019-02-16T11:33:28Z</time>
      </trkpt>
      <trkpt lat="45.95177" lon="6.55281">
        <ele>2399.59</ele>
        <time>2019-02-16T11:33:29Z</time>
      </trkpt>
      <trkpt lat="45.9518" lon="6.55268">
        <ele>2396.7</ele>
        <time>2019-02-16T11:33:30Z</time>
      </trkpt>
      <trkpt lat="45.95188" lon="6.55253">
        <ele>2390.46</ele>
        <time>2019-02-16T11:33:31Z</time>
      </trkpt>
      <trkpt lat="45.95195" lon="6.55238">
        <ele>2385.17</ele>
        <time>2019-02-16T11:33:32Z</time>
      </trkpt>
      <trkpt lat="45.95201" lon="6.55221">
        <ele>2381.32</ele>
        <time>2019-02-16T11:33:33Z</time>
      </trkpt>
      <trkpt lat="45.95202" lon="6.55202">
        <ele>2376.04</ele>
        <time>2019-02-16T11:33:34Z</time>
      </trkpt>
      <trkpt lat="45.95213" lon="6.55189">
        <ele>2369.79</ele>
        <time>2019-02-16T11:33:35Z</time>
      </trkpt>
      <trkpt lat="45.9522" lon="6.55176">
        <ele>2364.98</ele>
        <time>2019-02-16T11:33:36Z</time>
      </trkpt>
      <trkpt lat="45.95221" lon="6.55163">
        <ele>2361.62</ele>
        <time>2019-02-16T11:33:37Z</time>
      </trkpt>
      <trkpt lat="45.95227" lon="6.55156">
        <ele>2358.25</ele>
        <time>2019-02-16T11:33:38Z</time>
      </trkpt>
      <trkpt lat="45.95236" lon="6.5515">
        <ele>2356.81</ele>
        <time>2019-02-16T11:33:39Z</time>
      </trkpt>
      <trkpt lat="45.95247" lon="6.55147">
        <ele>2352.48</ele>
        <time>2019-02-16T11:33:40Z</time>
      </trkpt>
      <trkpt lat="45.95258" lon="6.5514">
        <ele>2349.12</ele>
        <time>2019-02-16T11:33:41Z</time>
      </trkpt>
      <trkpt lat="45.95268" lon="6.55132">
        <ele>2346.23</ele>
        <time>2019-02-16T11:33:42Z</time>
      </trkpt>
      <trkpt lat="45.9528" lon="6.55123">
        <ele>2343.35</ele>
        <time>2019-02-16T11:33:43Z</time>
      </trkpt>
      <trkpt lat="45.95294" lon="6.55118">
        <ele>2338.06</ele>
        <time>2019-02-16T11:33:44Z</time>
      </trkpt>
      <trkpt lat="45.95309" lon="6.55115">
        <ele>2334.22</ele>
        <time>2019-02-16T11:33:45Z</time>
      </trkpt>
      <trkpt lat="45.95325" lon="6.55114">
        <ele>2328.93</ele>
        <time>2019-02-16T11:33:46Z</time>
      </trkpt>
      <trkpt lat="45.95337" lon="6.55111">
        <ele>2323.16</ele>
        <time>2019-02-16T11:33:47Z</time>
      </trkpt>
      <trkpt lat="45.9535" lon="6.55103">
        <ele>2317.88</ele>
        <time>2019-02-16T11:33:49Z</time>
      </trkpt>
      <trkpt lat="45.95351" lon="6.55096">
        <ele>2312.59</ele>
        <time>2019-02-16T11:33:50Z</time>
      </trkpt>
      <trkpt lat="45.95361" lon="6.55091">
        <ele>2310.19</ele>
        <time>2019-02-16T11:33:51Z</time>
      </trkpt>
      <trkpt lat="45.95367" lon="6.55084">
        <ele>2306.82</ele>
        <time>2019-02-16T11:33:52Z</time>
      </trkpt>
      <trkpt lat="45.95376" lon="6.55077">
        <ele>2304.9</ele>
        <time>2019-02-16T11:33:53Z</time>
      </trkpt>
      <trkpt lat="45.95383" lon="6.55068">
        <ele>2301.05</ele>
        <time>2019-02-16T11:33:54Z</time>
      </trkpt>
      <trkpt lat="45.95391" lon="6.55059">
        <ele>2296.73</ele>
        <time>2019-02-16T11:33:55Z</time>
      </trkpt>
      <trkpt lat="45.95399" lon="6.55051">
        <ele>2294.8</ele>
        <time>2019-02-16T11:33:56Z</time>
      </trkpt>
      <trkpt lat="45.95398" lon="6.55038">
        <ele>2294.32</ele>
        <time>2019-02-16T11:33:57Z</time>
      </trkpt>
      <trkpt lat="45.95403" lon="6.55014">
        <ele>2289.52</ele>
        <time>2019-02-16T11:33:59Z</time>
      </trkpt>
      <trkpt lat="45.95407" lon="6.55006">
        <ele>2286.63</ele>
        <time>2019-02-16T11:34:00Z</time>
      </trkpt>
      <trkpt lat="45.95411" lon="6.54993">
        <ele>2285.67</ele>
        <time>2019-02-16T11:34:01Z</time>
      </trkpt>
      <trkpt lat="45.95417" lon="6.54977">
        <ele>2282.31</ele>
        <time>2019-02-16T11:34:02Z</time>
      </trkpt>
      <trkpt lat="45.95425" lon="6.54961">
        <ele>2275.58</ele>
        <time>2019-02-16T11:34:03Z</time>
      </trkpt>
      <trkpt lat="45.95441" lon="6.54928">
        <ele>2267.41</ele>
        <time>2019-02-16T11:34:05Z</time>
      </trkpt>
      <trkpt lat="45.95448" lon="6.5491">
        <ele>2263.56</ele>
        <time>2019-02-16T11:34:06Z</time>
      </trkpt>
      <trkpt lat="45.95461" lon="6.5488">
        <ele>2260.2</ele>
        <time>2019-02-16T11:34:08Z</time>
      </trkpt>
      <trkpt lat="45.95468" lon="6.54868">
        <ele>2258.75</ele>
        <time>2019-02-16T11:34:09Z</time>
      </trkpt>
      <trkpt lat="45.95477" lon="6.54847">
        <ele>2254.43</ele>
        <time>2019-02-16T11:34:11Z</time>
      </trkpt>
      <trkpt lat="45.95481" lon="6.54837">
        <ele>2253.47</ele>
        <time>2019-02-16T11:34:12Z</time>
      </trkpt>
      <trkpt lat="45.95486" lon="6.54832">
        <ele>2252.03</ele>
        <time>2019-02-16T11:34:13Z</time>
      </trkpt>
      <trkpt lat="45.95491" lon="6.54833">
        <ele>2251.54</ele>
        <time>2019-02-16T11:34:14Z</time>
      </trkpt>
      <trkpt lat="45.95495" lon="6.54835">
        <ele>2250.58</ele>
        <time>2019-02-16T11:34:15Z</time>
      </trkpt>
      <trkpt lat="45.95498" lon="6.54838">
        <ele>2250.58</ele>
        <time>2019-02-16T11:34:16Z</time>
      </trkpt>
      <trkpt lat="45.95499" lon="6.54839">
        <ele>2250.58</ele>
        <time>2019-02-16T11:34:17Z</time>
      </trkpt>
      <trkpt lat="45.95494" lon="6.54836">
        <ele>2250.1</ele>
        <time>2019-02-16T11:34:25Z</time>
      </trkpt>
      <trkpt lat="45.95494" lon="6.54834">
        <ele>2249.62</ele>
        <time>2019-02-16T11:34:26Z</time>
      </trkpt>
      <trkpt lat="45.95494" lon="6.54832">
        <ele>2249.62</ele>
        <time>2019-02-16T11:34:27Z</time>
      </trkpt>
      <trkpt lat="45.95495" lon="6.5483">
        <ele>2249.62</ele>
        <time>2019-02-16T11:34:28Z</time>
      </trkpt>
      <trkpt lat="45.95496" lon="6.54828">
        <ele>2249.14</ele>
        <time>2019-02-16T11:34:29Z</time>
      </trkpt>
      <trkpt lat="45.95497" lon="6.54826">
        <ele>2249.14</ele>
        <time>2019-02-16T11:34:30Z</time>
      </trkpt>
      <trkpt lat="45.95496" lon="6.54824">
        <ele>2248.66</ele>
        <time>2019-02-16T11:34:31Z</time>
      </trkpt>
      <trkpt lat="45.95496" lon="6.54822">
        <ele>2248.66</ele>
        <time>2019-02-16T11:34:32Z</time>
      </trkpt>
      <trkpt lat="45.95495" lon="6.5482">
        <ele>2248.18</ele>
        <time>2019-02-16T11:34:33Z</time>
      </trkpt>
      <trkpt lat="45.95494" lon="6.54819">
        <ele>2248.18</ele>
        <time>2019-02-16T11:34:34Z</time>
      </trkpt>
      <trkpt lat="45.95493" lon="6.54818">
        <ele>2247.7</ele>
        <time>2019-02-16T11:34:35Z</time>
      </trkpt>
      <trkpt lat="45.9549" lon="6.54823">
        <ele>2247.7</ele>
        <time>2019-02-16T11:34:43Z</time>
      </trkpt>
      <trkpt lat="45.95488" lon="6.54824">
        <ele>2247.7</ele>
        <time>2019-02-16T11:34:48Z</time>
      </trkpt>
      <trkpt lat="45.95484" lon="6.54822">
        <ele>2247.7</ele>
        <time>2019-02-16T11:34:50Z</time>
      </trkpt>
      <trkpt lat="45.95483" lon="6.5482">
        <ele>2247.22</ele>
        <time>2019-02-16T11:34:51Z</time>
      </trkpt>
      <trkpt lat="45.95481" lon="6.54819">
        <ele>2247.22</ele>
        <time>2019-02-16T11:34:52Z</time>
      </trkpt>
      <trkpt lat="45.95479" lon="6.54816">
        <ele>2247.22</ele>
        <time>2019-02-16T11:34:53Z</time>
      </trkpt>
      <trkpt lat="45.95476" lon="6.54813">
        <ele>2246.26</ele>
        <time>2019-02-16T11:34:54Z</time>
      </trkpt>
      <trkpt lat="45.95475" lon="6.5481">
        <ele>2245.78</ele>
        <time>2019-02-16T11:34:55Z</time>
      </trkpt>
      <trkpt lat="45.95474" lon="6.54807">
        <ele>2245.78</ele>
        <time>2019-02-16T11:34:56Z</time>
      </trkpt>
      <trkpt lat="45.95474" lon="6.54801">
        <ele>2244.33</ele>
        <time>2019-02-16T11:34:57Z</time>
      </trkpt>
      <trkpt lat="45.95472" lon="6.54797">
        <ele>2242.89</ele>
        <time>2019-02-16T11:34:58Z</time>
      </trkpt>
      <trkpt lat="45.95468" lon="6.54794">
        <ele>2241.45</ele>
        <time>2019-02-16T11:34:59Z</time>
      </trkpt>
      <trkpt lat="45.95463" lon="6.5479">
        <ele>2240.01</ele>
        <time>2019-02-16T11:35:00Z</time>
      </trkpt>
      <trkpt lat="45.95456" lon="6.54783">
        <ele>2238.57</ele>
        <time>2019-02-16T11:35:01Z</time>
      </trkpt>
      <trkpt lat="45.95444" lon="6.54765">
        <ele>2233.76</ele>
        <time>2019-02-16T11:35:03Z</time>
      </trkpt>
      <trkpt lat="45.95445" lon="6.54754">
        <ele>2227.99</ele>
        <time>2019-02-16T11:35:04Z</time>
      </trkpt>
      <trkpt lat="45.95448" lon="6.54743">
        <ele>2225.11</ele>
        <time>2019-02-16T11:35:05Z</time>
      </trkpt>
      <trkpt lat="45.95449" lon="6.54731">
        <ele>2222.71</ele>
        <time>2019-02-16T11:35:06Z</time>
      </trkpt>
      <trkpt lat="45.95448" lon="6.54718">
        <ele>2220.78</ele>
        <time>2019-02-16T11:35:07Z</time>
      </trkpt>
      <trkpt lat="45.95447" lon="6.54707">
        <ele>2218.86</ele>
        <time>2019-02-16T11:35:08Z</time>
      </trkpt>
      <trkpt lat="45.95447" lon="6.54697">
        <ele>2217.9</ele>
        <time>2019-02-16T11:35:09Z</time>
      </trkpt>
      <trkpt lat="45.9545" lon="6.54688">
        <ele>2215.5</ele>
        <time>2019-02-16T11:35:10Z</time>
      </trkpt>
      <trkpt lat="45.95454" lon="6.54681">
        <ele>2213.57</ele>
        <time>2019-02-16T11:35:11Z</time>
      </trkpt>
      <trkpt lat="45.95458" lon="6.54674">
        <ele>2213.09</ele>
        <time>2019-02-16T11:35:12Z</time>
      </trkpt>
      <trkpt lat="45.95463" lon="6.54667">
        <ele>2211.65</ele>
        <time>2019-02-16T11:35:13Z</time>
      </trkpt>
      <trkpt lat="45.95468" lon="6.5466">
        <ele>2210.21</ele>
        <time>2019-02-16T11:35:14Z</time>
      </trkpt>
      <trkpt lat="45.95471" lon="6.5465">
        <ele>2208.77</ele>
        <time>2019-02-16T11:35:15Z</time>
      </trkpt>
      <trkpt lat="45.95476" lon="6.54639">
        <ele>2205.4</ele>
        <time>2019-02-16T11:35:16Z</time>
      </trkpt>
      <trkpt lat="45.95479" lon="6.54627">
        <ele>2203.96</ele>
        <time>2019-02-16T11:35:17Z</time>
      </trkpt>
      <trkpt lat="45.95482" lon="6.54615">
        <ele>2201.56</ele>
        <time>2019-02-16T11:35:18Z</time>
      </trkpt>
      <trkpt lat="45.95485" lon="6.54604">
        <ele>2199.15</ele>
        <time>2019-02-16T11:35:19Z</time>
      </trkpt>
      <trkpt lat="45.95491" lon="6.54598">
        <ele>2196.75</ele>
        <time>2019-02-16T11:35:20Z</time>
      </trkpt>
      <trkpt lat="45.95496" lon="6.54594">
        <ele>2195.79</ele>
        <time>2019-02-16T11:35:21Z</time>
      </trkpt>
      <trkpt lat="45.95502" lon="6.54591">
        <ele>2194.35</ele>
        <time>2019-02-16T11:35:22Z</time>
      </trkpt>
      <trkpt lat="45.95505" lon="6.54586">
        <ele>2193.39</ele>
        <time>2019-02-16T11:35:23Z</time>
      </trkpt>
      <trkpt lat="45.95505" lon="6.5458">
        <ele>2191.94</ele>
        <time>2019-02-16T11:35:24Z</time>
      </trkpt>
      <trkpt lat="45.95508" lon="6.54575">
        <ele>2190.5</ele>
        <time>2019-02-16T11:35:25Z</time>
      </trkpt>
      <trkpt lat="45.95513" lon="6.54571">
        <ele>2188.58</ele>
        <time>2019-02-16T11:35:26Z</time>
      </trkpt>
      <trkpt lat="45.95518" lon="6.54567">
        <ele>2187.62</ele>
        <time>2019-02-16T11:35:27Z</time>
      </trkpt>
      <trkpt lat="45.95524" lon="6.54561">
        <ele>2184.73</ele>
        <time>2019-02-16T11:35:28Z</time>
      </trkpt>
      <trkpt lat="45.95529" lon="6.54552">
        <ele>2181.85</ele>
        <time>2019-02-16T11:35:29Z</time>
      </trkpt>
      <trkpt lat="45.9553" lon="6.54542">
        <ele>2179.45</ele>
        <time>2019-02-16T11:35:30Z</time>
      </trkpt>
      <trkpt lat="45.95531" lon="6.54531">
        <ele>2175.6</ele>
        <time>2019-02-16T11:35:31Z</time>
      </trkpt>
      <trkpt lat="45.95536" lon="6.54525">
        <ele>2171.76</ele>
        <time>2019-02-16T11:35:32Z</time>
      </trkpt>
      <trkpt lat="45.95543" lon="6.54521">
        <ele>2169.83</ele>
        <time>2019-02-16T11:35:33Z</time>
      </trkpt>
      <trkpt lat="45.95549" lon="6.5452">
        <ele>2168.39</ele>
        <time>2019-02-16T11:35:34Z</time>
      </trkpt>
      <trkpt lat="45.95554" lon="6.54519">
        <ele>2168.39</ele>
        <time>2019-02-16T11:35:35Z</time>
      </trkpt>
      <trkpt lat="45.95594" lon="6.5451">
        <ele>2165.03</ele>
        <time>2019-02-16T11:35:43Z</time>
      </trkpt>
      <trkpt lat="45.9563" lon="6.54509">
        <ele>2161.66</ele>
        <time>2019-02-16T11:35:53Z</time>
      </trkpt>
      <trkpt lat="45.95641" lon="6.54505">
        <ele>2160.22</ele>
        <time>2019-02-16T11:35:55Z</time>
      </trkpt>
      <trkpt lat="45.95649" lon="6.545">
        <ele>2159.74</ele>
        <time>2019-02-16T11:35:57Z</time>
      </trkpt>
      <trkpt lat="45.95656" lon="6.54496">
        <ele>2159.26</ele>
        <time>2019-02-16T11:36:00Z</time>
      </trkpt>
      <trkpt lat="45.95658" lon="6.54496">
        <ele>2159.26</ele>
        <time>2019-02-16T11:36:01Z</time>
      </trkpt>
      <trkpt lat="45.95694" lon="6.54495">
        <ele>2156.37</ele>
        <time>2019-02-16T11:36:12Z</time>
      </trkpt>
      <trkpt lat="45.95712" lon="6.54495">
        <ele>2154.45</ele>
        <time>2019-02-16T11:36:15Z</time>
      </trkpt>
      <trkpt lat="45.95717" lon="6.54494">
        <ele>2153.49</ele>
        <time>2019-02-16T11:36:16Z</time>
      </trkpt>
      <trkpt lat="45.95752" lon="6.54483">
        <ele>2150.13</ele>
        <time>2019-02-16T11:36:22Z</time>
      </trkpt>
      <trkpt lat="45.95758" lon="6.54483">
        <ele>2149.65</ele>
        <time>2019-02-16T11:36:23Z</time>
      </trkpt>
      <trkpt lat="45.95768" lon="6.54484">
        <ele>2149.16</ele>
        <time>2019-02-16T11:36:25Z</time>
      </trkpt>
      <trkpt lat="45.95777" lon="6.54487">
        <ele>2148.68</ele>
        <time>2019-02-16T11:36:27Z</time>
      </trkpt>
      <trkpt lat="45.95782" lon="6.54489">
        <ele>2148.2</ele>
        <time>2019-02-16T11:36:28Z</time>
      </trkpt>
      <trkpt lat="45.95797" lon="6.54495">
        <ele>2146.76</ele>
        <time>2019-02-16T11:36:31Z</time>
      </trkpt>
      <trkpt lat="45.95802" lon="6.54496">
        <ele>2145.8</ele>
        <time>2019-02-16T11:36:32Z</time>
      </trkpt>
      <trkpt lat="45.95815" lon="6.54496">
        <ele>2143.88</ele>
        <time>2019-02-16T11:36:34Z</time>
      </trkpt>
      <trkpt lat="45.95821" lon="6.54494">
        <ele>2142.92</ele>
        <time>2019-02-16T11:36:35Z</time>
      </trkpt>
      <trkpt lat="45.95827" lon="6.54491">
        <ele>2141.95</ele>
        <time>2019-02-16T11:36:36Z</time>
      </trkpt>
      <trkpt lat="45.95832" lon="6.54487">
        <ele>2141.47</ele>
        <time>2019-02-16T11:36:37Z</time>
      </trkpt>
      <trkpt lat="45.95836" lon="6.54483">
        <ele>2140.99</ele>
        <time>2019-02-16T11:36:38Z</time>
      </trkpt>
      <trkpt lat="45.95839" lon="6.54479">
        <ele>2140.99</ele>
        <time>2019-02-16T11:36:39Z</time>
      </trkpt>
      <trkpt lat="45.9585" lon="6.54467">
        <ele>2140.51</ele>
        <time>2019-02-16T11:36:42Z</time>
      </trkpt>
      <trkpt lat="45.95853" lon="6.54465">
        <ele>2140.51</ele>
        <time>2019-02-16T11:36:43Z</time>
      </trkpt>
      <trkpt lat="45.959" lon="6.54451">
        <ele>2137.15</ele>
        <time>2019-02-16T11:36:56Z</time>
      </trkpt>
      <trkpt lat="45.95927" lon="6.5445">
        <ele>2133.78</ele>
        <time>2019-02-16T11:37:01Z</time>
      </trkpt>
      <trkpt lat="45.95954" lon="6.5445">
        <ele>2130.9</ele>
        <time>2019-02-16T11:37:06Z</time>
      </trkpt>
      <trkpt lat="45.95999" lon="6.54452">
        <ele>2129.94</ele>
        <time>2019-02-16T11:37:37Z</time>
      </trkpt>
      <trkpt lat="45.96015" lon="6.54454">
        <ele>2131.86</ele>
        <time>2019-02-16T11:38:46Z</time>
      </trkpt>
      <trkpt lat="45.96015" lon="6.54457">
        <ele>2132.34</ele>
        <time>2019-02-16T11:38:53Z</time>
      </trkpt>
      <trkpt lat="45.96015" lon="6.54459">
        <ele>2131.86</ele>
        <time>2019-02-16T11:38:54Z</time>
      </trkpt>
      <trkpt lat="45.96019" lon="6.54469">
        <ele>2130.9</ele>
        <time>2019-02-16T11:38:58Z</time>
      </trkpt>
      <trkpt lat="45.96021" lon="6.54476">
        <ele>2129.94</ele>
        <time>2019-02-16T11:38:59Z</time>
      </trkpt>
      <trkpt lat="45.96024" lon="6.54482">
        <ele>2128.98</ele>
        <time>2019-02-16T11:39:00Z</time>
      </trkpt>
      <trkpt lat="45.96036" lon="6.545">
        <ele>2128.02</ele>
        <time>2019-02-16T11:42:04Z</time>
      </trkpt>
      <trkpt lat="45.96034" lon="6.545">
        <ele>2128.5</ele>
        <time>2019-02-16T11:42:50Z</time>
      </trkpt>
      <trkpt lat="45.96035" lon="6.54501">
        <ele>2128.5</ele>
        <time>2019-02-16T11:44:42Z</time>
      </trkpt>
      <trkpt lat="45.96042" lon="6.54504">
        <ele>2130.42</ele>
        <time>2019-02-16T11:45:07Z</time>
      </trkpt>
      <trkpt lat="45.96056" lon="6.54507">
        <ele>2133.78</ele>
        <time>2019-02-16T11:45:26Z</time>
      </trkpt>
      <trkpt lat="45.96061" lon="6.54511">
        <ele>2134.74</ele>
        <time>2019-02-16T11:45:33Z</time>
      </trkpt>
      <trkpt lat="45.96062" lon="6.54512">
        <ele>2135.23</ele>
        <time>2019-02-16T11:45:35Z</time>
      </trkpt>
      <trkpt lat="45.96068" lon="6.54517">
        <ele>2136.19</ele>
        <time>2019-02-16T11:45:44Z</time>
      </trkpt>
      <trkpt lat="45.9607" lon="6.54518">
        <ele>2136.67</ele>
        <time>2019-02-16T11:45:46Z</time>
      </trkpt>
      <trkpt lat="45.96083" lon="6.54531">
        <ele>2140.03</ele>
        <time>2019-02-16T11:46:06Z</time>
      </trkpt>
      <trkpt lat="45.9609" lon="6.54552">
        <ele>2142.92</ele>
        <time>2019-02-16T11:46:27Z</time>
      </trkpt>
      <trkpt lat="45.96082" lon="6.54566">
        <ele>2145.8</ele>
        <time>2019-02-16T11:46:46Z</time>
      </trkpt>
      <trkpt lat="45.9608" lon="6.54569">
        <ele>2146.76</ele>
        <time>2019-02-16T11:46:49Z</time>
      </trkpt>
      <trkpt lat="45.9608" lon="6.5457">
        <ele>2146.76</ele>
        <time>2019-02-16T11:46:50Z</time>
      </trkpt>
      <trkpt lat="45.9608" lon="6.54571">
        <ele>2146.76</ele>
        <time>2019-02-16T11:46:51Z</time>
      </trkpt>
      <trkpt lat="45.9606" lon="6.54611">
        <ele>2149.65</ele>
        <time>2019-02-16T11:47:32Z</time>
      </trkpt>
      <trkpt lat="45.96062" lon="6.54618">
        <ele>2151.57</ele>
        <time>2019-02-16T11:47:41Z</time>
      </trkpt>
      <trkpt lat="45.96075" lon="6.54635">
        <ele>2154.93</ele>
        <time>2019-02-16T11:48:02Z</time>
      </trkpt>
      <trkpt lat="45.96083" lon="6.54651">
        <ele>2157.82</ele>
        <time>2019-02-16T11:48:21Z</time>
      </trkpt>
      <trkpt lat="45.96075" lon="6.54664">
        <ele>2161.18</ele>
        <time>2019-02-16T11:48:47Z</time>
      </trkpt>
      <trkpt lat="45.9607" lon="6.54669">
        <ele>2164.06</ele>
        <time>2019-02-16T11:48:59Z</time>
      </trkpt>
      <trkpt lat="45.9607" lon="6.54679">
        <ele>2166.95</ele>
        <time>2019-02-16T11:49:09Z</time>
      </trkpt>
      <trkpt lat="45.96071" lon="6.54685">
        <ele>2167.91</ele>
        <time>2019-02-16T11:49:15Z</time>
      </trkpt>
      <trkpt lat="45.96075" lon="6.54696">
        <ele>2170.79</ele>
        <time>2019-02-16T11:49:30Z</time>
      </trkpt>
      <trkpt lat="45.96077" lon="6.54709">
        <ele>2174.16</ele>
        <time>2019-02-16T11:49:46Z</time>
      </trkpt>
      <trkpt lat="45.96078" lon="6.54721">
        <ele>2177.04</ele>
        <time>2019-02-16T11:50:00Z</time>
      </trkpt>
      <trkpt lat="45.96078" lon="6.54722">
        <ele>2177.52</ele>
        <time>2019-02-16T11:50:01Z</time>
      </trkpt>
      <trkpt lat="45.96081" lon="6.54733">
        <ele>2180.41</ele>
        <time>2019-02-16T11:50:16Z</time>
      </trkpt>
      <trkpt lat="45.96082" lon="6.54745">
        <ele>2183.77</ele>
        <time>2019-02-16T11:50:31Z</time>
      </trkpt>
      <trkpt lat="45.96083" lon="6.54748">
        <ele>2184.25</ele>
        <time>2019-02-16T11:50:34Z</time>
      </trkpt>
      <trkpt lat="45.96085" lon="6.54764">
        <ele>2187.62</ele>
        <time>2019-02-16T11:50:53Z</time>
      </trkpt>
      <trkpt lat="45.96087" lon="6.54772">
        <ele>2189.06</ele>
        <time>2019-02-16T11:51:01Z</time>
      </trkpt>
      <trkpt lat="45.96091" lon="6.54779">
        <ele>2190.98</ele>
        <time>2019-02-16T11:51:10Z</time>
      </trkpt>
      <trkpt lat="45.96092" lon="6.54782">
        <ele>2191.94</ele>
        <time>2019-02-16T11:51:14Z</time>
      </trkpt>
      <trkpt lat="45.96093" lon="6.54784">
        <ele>2192.42</ele>
        <time>2019-02-16T11:51:16Z</time>
      </trkpt>
      <trkpt lat="45.96098" lon="6.54797">
        <ele>2195.31</ele>
        <time>2019-02-16T11:51:32Z</time>
      </trkpt>
      <trkpt lat="45.96091" lon="6.5481">
        <ele>2198.19</ele>
        <time>2019-02-16T11:51:54Z</time>
      </trkpt>
      <trkpt lat="45.96084" lon="6.54813">
        <ele>2200.11</ele>
        <time>2019-02-16T11:52:04Z</time>
      </trkpt>
      <trkpt lat="45.96083" lon="6.54813">
        <ele>2200.59</ele>
        <time>2019-02-16T11:52:05Z</time>
      </trkpt>
      <trkpt lat="45.96072" lon="6.54815">
        <ele>2203.48</ele>
        <time>2019-02-16T11:52:22Z</time>
      </trkpt>
      <trkpt lat="45.96061" lon="6.54817">
        <ele>2206.36</ele>
        <time>2019-02-16T11:52:39Z</time>
      </trkpt>
      <trkpt lat="45.96062" lon="6.54824">
        <ele>2209.73</ele>
        <time>2019-02-16T11:52:52Z</time>
      </trkpt>
      <trkpt lat="45.96067" lon="6.5483">
        <ele>2211.17</ele>
        <time>2019-02-16T11:53:00Z</time>
      </trkpt>
      <trkpt lat="45.96073" lon="6.54844">
        <ele>2214.53</ele>
        <time>2019-02-16T11:53:15Z</time>
      </trkpt>
      <trkpt lat="45.96077" lon="6.54854">
        <ele>2216.46</ele>
        <time>2019-02-16T11:53:26Z</time>
      </trkpt>
      <trkpt lat="45.96077" lon="6.54856">
        <ele>2216.94</ele>
        <time>2019-02-16T11:53:28Z</time>
      </trkpt>
      <trkpt lat="45.96077" lon="6.54861">
        <ele>2217.9</ele>
        <time>2019-02-16T11:53:33Z</time>
      </trkpt>
      <trkpt lat="45.96079" lon="6.54873">
        <ele>2219.82</ele>
        <time>2019-02-16T11:53:46Z</time>
      </trkpt>
      <trkpt lat="45.9608" lon="6.5489">
        <ele>2223.19</ele>
        <time>2019-02-16T11:54:04Z</time>
      </trkpt>
      <trkpt lat="45.96076" lon="6.54893">
        <ele>2224.15</ele>
        <time>2019-02-16T11:54:10Z</time>
      </trkpt>
      <trkpt lat="45.96065" lon="6.54904">
        <ele>2227.03</ele>
        <time>2019-02-16T11:54:29Z</time>
      </trkpt>
      <trkpt lat="45.96064" lon="6.54908">
        <ele>2227.03</ele>
        <time>2019-02-16T11:54:30Z</time>
      </trkpt>
      <trkpt lat="45.96062" lon="6.54916">
        <ele>2225.59</ele>
        <time>2019-02-16T11:54:33Z</time>
      </trkpt>
      <trkpt lat="45.96061" lon="6.54936">
        <ele>2228.47</ele>
        <time>2019-02-16T11:54:53Z</time>
      </trkpt>
      <trkpt lat="45.96053" lon="6.54946">
        <ele>2231.84</ele>
        <time>2019-02-16T11:55:08Z</time>
      </trkpt>
      <trkpt lat="45.96052" lon="6.54956">
        <ele>2234.72</ele>
        <time>2019-02-16T11:55:23Z</time>
      </trkpt>
      <trkpt lat="45.9605" lon="6.5497">
        <ele>2237.61</ele>
        <time>2019-02-16T11:55:41Z</time>
      </trkpt>
      <trkpt lat="45.96046" lon="6.5499">
        <ele>2240.97</ele>
        <time>2019-02-16T11:56:01Z</time>
      </trkpt>
      <trkpt lat="45.96052" lon="6.55006">
        <ele>2243.85</ele>
        <time>2019-02-16T11:56:20Z</time>
      </trkpt>
      <trkpt lat="45.96052" lon="6.55007">
        <ele>2243.85</ele>
        <time>2019-02-16T11:56:21Z</time>
      </trkpt>
      <trkpt lat="45.96052" lon="6.5501">
        <ele>2244.33</ele>
        <time>2019-02-16T11:56:23Z</time>
      </trkpt>
      <trkpt lat="45.96049" lon="6.55016">
        <ele>2245.78</ele>
        <time>2019-02-16T11:56:30Z</time>
      </trkpt>
      <trkpt lat="45.96046" lon="6.55017">
        <ele>2246.26</ele>
        <time>2019-02-16T11:56:34Z</time>
      </trkpt>
      <trkpt lat="45.96031" lon="6.55021">
        <ele>2249.62</ele>
        <time>2019-02-16T11:56:53Z</time>
      </trkpt>
      <trkpt lat="45.96021" lon="6.55025">
        <ele>2252.51</ele>
        <time>2019-02-16T11:57:10Z</time>
      </trkpt>
      <trkpt lat="45.96013" lon="6.5503">
        <ele>2255.39</ele>
        <time>2019-02-16T11:57:26Z</time>
      </trkpt>
      <trkpt lat="45.9601" lon="6.55035">
        <ele>2256.83</ele>
        <time>2019-02-16T11:57:34Z</time>
      </trkpt>
      <trkpt lat="45.96009" lon="6.55037">
        <ele>2257.31</ele>
        <time>2019-02-16T11:57:36Z</time>
      </trkpt>
      <trkpt lat="45.96009" lon="6.55052">
        <ele>2259.72</ele>
        <time>2019-02-16T11:57:51Z</time>
      </trkpt>
      <trkpt lat="45.96009" lon="6.55075">
        <ele>2262.6</ele>
        <time>2019-02-16T11:58:13Z</time>
      </trkpt>
      <trkpt lat="45.96007" lon="6.55085">
        <ele>2265.96</ele>
        <time>2019-02-16T11:58:28Z</time>
      </trkpt>
      <trkpt lat="45.95997" lon="6.55093">
        <ele>2268.85</ele>
        <time>2019-02-16T11:58:46Z</time>
      </trkpt>
      <trkpt lat="45.95991" lon="6.551">
        <ele>2272.21</ele>
        <time>2019-02-16T11:59:01Z</time>
      </trkpt>
      <trkpt lat="45.95986" lon="6.55111">
        <ele>2275.1</ele>
        <time>2019-02-16T11:59:15Z</time>
      </trkpt>
      <trkpt lat="45.95986" lon="6.55113">
        <ele>2275.58</ele>
        <time>2019-02-16T11:59:17Z</time>
      </trkpt>
      <trkpt lat="45.95982" lon="6.55129">
        <ele>2278.46</ele>
        <time>2019-02-16T11:59:35Z</time>
      </trkpt>
      <trkpt lat="45.95977" lon="6.55141">
        <ele>2281.83</ele>
        <time>2019-02-16T11:59:50Z</time>
      </trkpt>
      <trkpt lat="45.95972" lon="6.55155">
        <ele>2284.71</ele>
        <time>2019-02-16T12:00:08Z</time>
      </trkpt>
      <trkpt lat="45.95965" lon="6.55165">
        <ele>2287.59</ele>
        <time>2019-02-16T12:00:23Z</time>
      </trkpt>
      <trkpt lat="45.95963" lon="6.55173">
        <ele>2290.96</ele>
        <time>2019-02-16T12:00:35Z</time>
      </trkpt>
      <trkpt lat="45.95969" lon="6.55183">
        <ele>2293.36</ele>
        <time>2019-02-16T12:00:50Z</time>
      </trkpt>
      <trkpt lat="45.95988" lon="6.55198">
        <ele>2295.28</ele>
        <time>2019-02-16T12:01:11Z</time>
      </trkpt>
      <trkpt lat="45.95989" lon="6.55199">
        <ele>2295.28</ele>
        <time>2019-02-16T12:01:12Z</time>
      </trkpt>
      <trkpt lat="45.96017" lon="6.5523">
        <ele>2293.84</ele>
        <time>2019-02-16T12:01:39Z</time>
      </trkpt>
      <trkpt lat="45.96025" lon="6.55233">
        <ele>2294.32</ele>
        <time>2019-02-16T12:01:47Z</time>
      </trkpt>
      <trkpt lat="45.96026" lon="6.55234">
        <ele>2294.8</ele>
        <time>2019-02-16T12:01:48Z</time>
      </trkpt>
      <trkpt lat="45.96027" lon="6.55235">
        <ele>2294.8</ele>
        <time>2019-02-16T12:01:49Z</time>
      </trkpt>
      <trkpt lat="45.96028" lon="6.55236">
        <ele>2294.8</ele>
        <time>2019-02-16T12:01:50Z</time>
      </trkpt>
      <trkpt lat="45.96029" lon="6.55237">
        <ele>2294.8</ele>
        <time>2019-02-16T12:01:51Z</time>
      </trkpt>
      <trkpt lat="45.96031" lon="6.55238">
        <ele>2294.8</ele>
        <time>2019-02-16T12:01:53Z</time>
      </trkpt>
      <trkpt lat="45.96034" lon="6.55246">
        <ele>2295.28</ele>
        <time>2019-02-16T12:02:00Z</time>
      </trkpt>
      <trkpt lat="45.96034" lon="6.55247">
        <ele>2295.77</ele>
        <time>2019-02-16T12:02:01Z</time>
      </trkpt>
      <trkpt lat="45.96071" lon="6.55292">
        <ele>2298.65</ele>
        <time>2019-02-16T12:02:45Z</time>
      </trkpt>
      <trkpt lat="45.96093" lon="6.55315">
        <ele>2302.01</ele>
        <time>2019-02-16T12:03:15Z</time>
      </trkpt>
      <trkpt lat="45.96106" lon="6.55331">
        <ele>2304.9</ele>
        <time>2019-02-16T12:03:35Z</time>
      </trkpt>
      <trkpt lat="45.96115" lon="6.55346">
        <ele>2307.78</ele>
        <time>2019-02-16T12:03:53Z</time>
      </trkpt>
      <trkpt lat="45.96122" lon="6.55358">
        <ele>2311.15</ele>
        <time>2019-02-16T12:04:09Z</time>
      </trkpt>
      <trkpt lat="45.96126" lon="6.55371">
        <ele>2314.03</ele>
        <time>2019-02-16T12:04:25Z</time>
      </trkpt>
      <trkpt lat="45.96128" lon="6.55375">
        <ele>2314.99</ele>
        <time>2019-02-16T12:04:29Z</time>
      </trkpt>
      <trkpt lat="45.96134" lon="6.55387">
        <ele>2317.88</ele>
        <time>2019-02-16T12:04:45Z</time>
      </trkpt>
      <trkpt lat="45.96139" lon="6.55401">
        <ele>2320.76</ele>
        <time>2019-02-16T12:05:01Z</time>
      </trkpt>
      <trkpt lat="45.96144" lon="6.55414">
        <ele>2324.12</ele>
        <time>2019-02-16T12:05:17Z</time>
      </trkpt>
      <trkpt lat="45.96148" lon="6.55427">
        <ele>2327.01</ele>
        <time>2019-02-16T12:05:33Z</time>
      </trkpt>
      <trkpt lat="45.96153" lon="6.55441">
        <ele>2330.37</ele>
        <time>2019-02-16T12:05:49Z</time>
      </trkpt>
      <trkpt lat="45.96156" lon="6.55452">
        <ele>2333.26</ele>
        <time>2019-02-16T12:06:04Z</time>
      </trkpt>
      <trkpt lat="45.9616" lon="6.55464">
        <ele>2336.62</ele>
        <time>2019-02-16T12:06:20Z</time>
      </trkpt>
      <trkpt lat="45.96161" lon="6.55466">
        <ele>2336.62</ele>
        <time>2019-02-16T12:06:21Z</time>
      </trkpt>
      <trkpt lat="45.96162" lon="6.55467">
        <ele>2337.1</ele>
        <time>2019-02-16T12:06:23Z</time>
      </trkpt>
      <trkpt lat="45.96163" lon="6.55473">
        <ele>2338.06</ele>
        <time>2019-02-16T12:06:29Z</time>
      </trkpt>
      <trkpt lat="45.96167" lon="6.55486">
        <ele>2341.43</ele>
        <time>2019-02-16T12:06:45Z</time>
      </trkpt>
      <trkpt lat="45.96169" lon="6.5549">
        <ele>2342.39</ele>
        <time>2019-02-16T12:06:50Z</time>
      </trkpt>
      <trkpt lat="45.96171" lon="6.55505">
        <ele>2345.27</ele>
        <time>2019-02-16T12:07:08Z</time>
      </trkpt>
      <trkpt lat="45.96173" lon="6.55518">
        <ele>2348.64</ele>
        <time>2019-02-16T12:07:24Z</time>
      </trkpt>
      <trkpt lat="45.96173" lon="6.55526">
        <ele>2350.08</ele>
        <time>2019-02-16T12:07:32Z</time>
      </trkpt>
      <trkpt lat="45.96174" lon="6.55528">
        <ele>2350.08</ele>
        <time>2019-02-16T12:07:34Z</time>
      </trkpt>
      <trkpt lat="45.96176" lon="6.55544">
        <ele>2352</ele>
        <time>2019-02-16T12:07:48Z</time>
      </trkpt>
      <trkpt lat="45.96178" lon="6.55549">
        <ele>2352.96</ele>
        <time>2019-02-16T12:07:52Z</time>
      </trkpt>
      <trkpt lat="45.96178" lon="6.55572">
        <ele>2355.37</ele>
        <time>2019-02-16T12:08:10Z</time>
      </trkpt>
      <trkpt lat="45.96177" lon="6.55577">
        <ele>2354.89</ele>
        <time>2019-02-16T12:08:13Z</time>
      </trkpt>
      <trkpt lat="45.96176" lon="6.55579">
        <ele>2355.37</ele>
        <time>2019-02-16T12:08:15Z</time>
      </trkpt>
      <trkpt lat="45.96173" lon="6.55594">
        <ele>2358.25</ele>
        <time>2019-02-16T12:08:33Z</time>
      </trkpt>
      <trkpt lat="45.96173" lon="6.55607">
        <ele>2361.14</ele>
        <time>2019-02-16T12:08:48Z</time>
      </trkpt>
      <trkpt lat="45.9617" lon="6.55617">
        <ele>2364.02</ele>
        <time>2019-02-16T12:09:03Z</time>
      </trkpt>
      <trkpt lat="45.96163" lon="6.55626">
        <ele>2367.38</ele>
        <time>2019-02-16T12:09:21Z</time>
      </trkpt>
      <trkpt lat="45.96154" lon="6.55626">
        <ele>2370.75</ele>
        <time>2019-02-16T12:09:36Z</time>
      </trkpt>
      <trkpt lat="45.96153" lon="6.55627">
        <ele>2370.75</ele>
        <time>2019-02-16T12:09:37Z</time>
      </trkpt>
      <trkpt lat="45.96141" lon="6.5563">
        <ele>2374.11</ele>
        <time>2019-02-16T12:09:52Z</time>
      </trkpt>
      <trkpt lat="45.96137" lon="6.55636">
        <ele>2375.55</ele>
        <time>2019-02-16T12:10:02Z</time>
      </trkpt>
      <trkpt lat="45.96138" lon="6.55641">
        <ele>2376.04</ele>
        <time>2019-02-16T12:10:08Z</time>
      </trkpt>
      <trkpt lat="45.96138" lon="6.55643">
        <ele>2376.04</ele>
        <time>2019-02-16T12:10:09Z</time>
      </trkpt>
      <trkpt lat="45.96139" lon="6.55647">
        <ele>2377</ele>
        <time>2019-02-16T12:10:13Z</time>
      </trkpt>
      <trkpt lat="45.96141" lon="6.55661">
        <ele>2379.88</ele>
        <time>2019-02-16T12:10:30Z</time>
      </trkpt>
      <trkpt lat="45.96139" lon="6.55675">
        <ele>2382.76</ele>
        <time>2019-02-16T12:10:47Z</time>
      </trkpt>
      <trkpt lat="45.9614" lon="6.55686">
        <ele>2385.17</ele>
        <time>2019-02-16T12:10:59Z</time>
      </trkpt>
      <trkpt lat="45.96141" lon="6.55703">
        <ele>2388.05</ele>
        <time>2019-02-16T12:11:19Z</time>
      </trkpt>
      <trkpt lat="45.9614" lon="6.55704">
        <ele>2388.05</ele>
        <time>2019-02-16T12:11:20Z</time>
      </trkpt>
      <trkpt lat="45.9614" lon="6.55707">
        <ele>2388.53</ele>
        <time>2019-02-16T12:11:22Z</time>
      </trkpt>
      <trkpt lat="45.96137" lon="6.55718">
        <ele>2390.94</ele>
        <time>2019-02-16T12:11:35Z</time>
      </trkpt>
      <trkpt lat="45.96135" lon="6.55721">
        <ele>2391.42</ele>
        <time>2019-02-16T12:11:39Z</time>
      </trkpt>
      <trkpt lat="45.96134" lon="6.55723">
        <ele>2391.9</ele>
        <time>2019-02-16T12:11:41Z</time>
      </trkpt>
      <trkpt lat="45.96124" lon="6.5574">
        <ele>2394.78</ele>
        <time>2019-02-16T12:12:01Z</time>
      </trkpt>
      <trkpt lat="45.96114" lon="6.5574">
        <ele>2398.15</ele>
        <time>2019-02-16T12:12:17Z</time>
      </trkpt>
      <trkpt lat="45.96111" lon="6.55742">
        <ele>2401.03</ele>
        <time>2019-02-16T12:12:32Z</time>
      </trkpt>
      <trkpt lat="45.96111" lon="6.55753">
        <ele>2404.39</ele>
        <time>2019-02-16T12:12:47Z</time>
      </trkpt>
      <trkpt lat="45.96106" lon="6.55758">
        <ele>2407.28</ele>
        <time>2019-02-16T12:13:07Z</time>
      </trkpt>
      <trkpt lat="45.9611" lon="6.55772">
        <ele>2410.64</ele>
        <time>2019-02-16T12:13:24Z</time>
      </trkpt>
      <trkpt lat="45.96111" lon="6.55775">
        <ele>2410.64</ele>
        <time>2019-02-16T12:13:26Z</time>
      </trkpt>
      <trkpt lat="45.96112" lon="6.5578">
        <ele>2412.09</ele>
        <time>2019-02-16T12:13:32Z</time>
      </trkpt>
      <trkpt lat="45.96116" lon="6.55793">
        <ele>2414.97</ele>
        <time>2019-02-16T12:13:50Z</time>
      </trkpt>
      <trkpt lat="45.96124" lon="6.55801">
        <ele>2417.37</ele>
        <time>2019-02-16T12:14:03Z</time>
      </trkpt>
      <trkpt lat="45.96131" lon="6.55816">
        <ele>2420.26</ele>
        <time>2019-02-16T12:14:21Z</time>
      </trkpt>
      <trkpt lat="45.96139" lon="6.5583">
        <ele>2423.62</ele>
        <time>2019-02-16T12:14:40Z</time>
      </trkpt>
      <trkpt lat="45.96141" lon="6.55843">
        <ele>2426.5</ele>
        <time>2019-02-16T12:14:59Z</time>
      </trkpt>
      <trkpt lat="45.96129" lon="6.55847">
        <ele>2429.39</ele>
        <time>2019-02-16T12:15:15Z</time>
      </trkpt>
      <trkpt lat="45.96121" lon="6.5585">
        <ele>2432.75</ele>
        <time>2019-02-16T12:15:31Z</time>
      </trkpt>
      <trkpt lat="45.9613" lon="6.55862">
        <ele>2435.64</ele>
        <time>2019-02-16T12:15:50Z</time>
      </trkpt>
      <trkpt lat="45.96136" lon="6.55875">
        <ele>2439</ele>
        <time>2019-02-16T12:16:10Z</time>
      </trkpt>
      <trkpt lat="45.9613" lon="6.5588">
        <ele>2441.89</ele>
        <time>2019-02-16T12:16:29Z</time>
      </trkpt>
      <trkpt lat="45.96136" lon="6.5588">
        <ele>2444.77</ele>
        <time>2019-02-16T12:17:22Z</time>
      </trkpt>
      <trkpt lat="45.96136" lon="6.5588">
        <ele>2444.77</ele>
        <time>2019-02-16T12:17:23Z</time>
      </trkpt>
      <trkpt lat="45.96134" lon="6.55879">
        <ele>2444.77</ele>
        <time>2019-02-16T12:17:25Z</time>
      </trkpt>
      <trkpt lat="45.96134" lon="6.55882">
        <ele>2444.77</ele>
        <time>2019-02-16T12:18:07Z</time>
      </trkpt>
      <trkpt lat="45.96144" lon="6.5589">
        <ele>2444.77</ele>
        <time>2019-02-16T12:18:53Z</time>
      </trkpt>
      <trkpt lat="45.96143" lon="6.55887">
        <ele>2444.77</ele>
        <time>2019-02-16T12:18:59Z</time>
      </trkpt>
      <trkpt lat="45.96142" lon="6.55889">
        <ele>2444.77</ele>
        <time>2019-02-16T12:19:30Z</time>
      </trkpt>
      <trkpt lat="45.96142" lon="6.5589">
        <ele>2444.77</ele>
        <time>2019-02-16T12:19:33Z</time>
      </trkpt>
      <trkpt lat="45.96142" lon="6.5589">
        <ele>2444.77</ele>
        <time>2019-02-16T12:20:02Z</time>
      </trkpt>
      <trkpt lat="45.96144" lon="6.55888">
        <ele>2445.25</ele>
        <time>2019-02-16T12:20:29Z</time>
      </trkpt>
      <trkpt lat="45.96148" lon="6.55889">
        <ele>2444.77</ele>
        <time>2019-02-16T12:20:55Z</time>
      </trkpt>
      <trkpt lat="45.96143" lon="6.55884">
        <ele>2445.25</ele>
        <time>2019-02-16T12:20:58Z</time>
      </trkpt>
      <trkpt lat="45.96142" lon="6.55883">
        <ele>2444.77</ele>
        <time>2019-02-16T12:20:59Z</time>
      </trkpt>
      <trkpt lat="45.9614" lon="6.55882">
        <ele>2444.77</ele>
        <time>2019-02-16T12:21:04Z</time>
      </trkpt>
      <trkpt lat="45.96139" lon="6.55881">
        <ele>2444.77</ele>
        <time>2019-02-16T12:21:09Z</time>
      </trkpt>
      <trkpt lat="45.96138" lon="6.55884">
        <ele>2445.25</ele>
        <time>2019-02-16T12:21:22Z</time>
      </trkpt>
      <trkpt lat="45.96139" lon="6.55884">
        <ele>2445.25</ele>
        <time>2019-02-16T12:21:27Z</time>
      </trkpt>
      <trkpt lat="45.96144" lon="6.55885">
        <ele>2446.69</ele>
        <time>2019-02-16T12:21:39Z</time>
      </trkpt>
      <trkpt lat="45.96148" lon="6.55895">
        <ele>2450.06</ele>
        <time>2019-02-16T12:21:54Z</time>
      </trkpt>
      <trkpt lat="45.96146" lon="6.55902">
        <ele>2453.42</ele>
        <time>2019-02-16T12:22:07Z</time>
      </trkpt>
      <trkpt lat="45.96145" lon="6.55906">
        <ele>2456.31</ele>
        <time>2019-02-16T12:22:26Z</time>
      </trkpt>
      <trkpt lat="45.96142" lon="6.55907">
        <ele>2459.67</ele>
        <time>2019-02-16T12:22:43Z</time>
      </trkpt>
      <trkpt lat="45.96148" lon="6.55908">
        <ele>2459.67</ele>
        <time>2019-02-16T12:25:04Z</time>
      </trkpt>
      <trkpt lat="45.9615" lon="6.55909">
        <ele>2459.67</ele>
        <time>2019-02-16T12:30:20Z</time>
      </trkpt>
      <trkpt lat="45.96151" lon="6.55909">
        <ele>2459.19</ele>
        <time>2019-02-16T12:31:30Z</time>
      </trkpt>
      <trkpt lat="45.9615" lon="6.55908">
        <ele>2459.67</ele>
        <time>2019-02-16T12:32:44Z</time>
      </trkpt>
      <trkpt lat="45.96151" lon="6.55913">
        <ele>2459.67</ele>
        <time>2019-02-16T12:34:04Z</time>
      </trkpt>
      <trkpt lat="45.96154" lon="6.55915">
        <ele>2459.19</ele>
        <time>2019-02-16T12:34:34Z</time>
      </trkpt>
      <trkpt lat="45.96154" lon="6.55912">
        <ele>2460.15</ele>
        <time>2019-02-16T12:34:38Z</time>
      </trkpt>
      <trkpt lat="45.96151" lon="6.55906">
        <ele>2459.67</ele>
        <time>2019-02-16T12:35:13Z</time>
      </trkpt>
      <trkpt lat="45.96149" lon="6.55901">
        <ele>2456.31</ele>
        <time>2019-02-16T12:35:41Z</time>
      </trkpt>
      <trkpt lat="45.96153" lon="6.55895">
        <ele>2453.42</ele>
        <time>2019-02-16T12:35:57Z</time>
      </trkpt>
      <trkpt lat="45.96156" lon="6.55891">
        <ele>2450.06</ele>
        <time>2019-02-16T12:36:08Z</time>
      </trkpt>
      <trkpt lat="45.96153" lon="6.55886">
        <ele>2447.17</ele>
        <time>2019-02-16T12:36:21Z</time>
      </trkpt>
      <trkpt lat="45.96151" lon="6.55886">
        <ele>2446.69</ele>
        <time>2019-02-16T12:36:25Z</time>
      </trkpt>
      <trkpt lat="45.96145" lon="6.55887">
        <ele>2446.21</ele>
        <time>2019-02-16T12:36:39Z</time>
      </trkpt>
      <trkpt lat="45.96144" lon="6.55884">
        <ele>2444.77</ele>
        <time>2019-02-16T12:36:47Z</time>
      </trkpt>
      <trkpt lat="45.96144" lon="6.55886">
        <ele>2443.33</ele>
        <time>2019-02-16T12:36:58Z</time>
      </trkpt>
      <trkpt lat="45.96134" lon="6.55881">
        <ele>2442.85</ele>
        <time>2019-02-16T12:37:48Z</time>
      </trkpt>
      <trkpt lat="45.96131" lon="6.5588">
        <ele>2442.85</ele>
        <time>2019-02-16T12:38:04Z</time>
      </trkpt>
      <trkpt lat="45.9613" lon="6.55879">
        <ele>2442.85</ele>
        <time>2019-02-16T12:38:06Z</time>
      </trkpt>
      <trkpt lat="45.96129" lon="6.55879">
        <ele>2443.33</ele>
        <time>2019-02-16T12:38:11Z</time>
      </trkpt>
      <trkpt lat="45.96126" lon="6.55878">
        <ele>2442.85</ele>
        <time>2019-02-16T12:38:15Z</time>
      </trkpt>
      <trkpt lat="45.96126" lon="6.55877">
        <ele>2443.33</ele>
        <time>2019-02-16T12:38:21Z</time>
      </trkpt>
      <trkpt lat="45.96127" lon="6.55876">
        <ele>2443.33</ele>
        <time>2019-02-16T12:38:57Z</time>
      </trkpt>
      <trkpt lat="45.96121" lon="6.55876">
        <ele>2442.85</ele>
        <time>2019-02-16T12:39:49Z</time>
      </trkpt>
      <trkpt lat="45.96123" lon="6.55877">
        <ele>2443.33</ele>
        <time>2019-02-16T12:39:58Z</time>
      </trkpt>
      <trkpt lat="45.96118" lon="6.55874">
        <ele>2443.33</ele>
        <time>2019-02-16T12:40:19Z</time>
      </trkpt>
      <trkpt lat="45.96124" lon="6.55878">
        <ele>2443.33</ele>
        <time>2019-02-16T12:40:40Z</time>
      </trkpt>
      <trkpt lat="45.9613" lon="6.55875">
        <ele>2443.81</ele>
        <time>2019-02-16T12:42:48Z</time>
      </trkpt>
      <trkpt lat="45.96133" lon="6.55872">
        <ele>2443.81</ele>
        <time>2019-02-16T12:42:49Z</time>
      </trkpt>
      <trkpt lat="45.96137" lon="6.5587">
        <ele>2442.85</ele>
        <time>2019-02-16T12:42:50Z</time>
      </trkpt>
      <trkpt lat="45.96143" lon="6.55868">
        <ele>2441.41</ele>
        <time>2019-02-16T12:42:51Z</time>
      </trkpt>
      <trkpt lat="45.96149" lon="6.55865">
        <ele>2439</ele>
        <time>2019-02-16T12:42:52Z</time>
      </trkpt>
      <trkpt lat="45.96155" lon="6.55862">
        <ele>2437.08</ele>
        <time>2019-02-16T12:42:53Z</time>
      </trkpt>
      <trkpt lat="45.96159" lon="6.55857">
        <ele>2435.16</ele>
        <time>2019-02-16T12:42:54Z</time>
      </trkpt>
      <trkpt lat="45.96159" lon="6.55851">
        <ele>2431.31</ele>
        <time>2019-02-16T12:42:55Z</time>
      </trkpt>
      <trkpt lat="45.9616" lon="6.55844">
        <ele>2428.91</ele>
        <time>2019-02-16T12:42:56Z</time>
      </trkpt>
      <trkpt lat="45.96161" lon="6.55836">
        <ele>2426.99</ele>
        <time>2019-02-16T12:42:57Z</time>
      </trkpt>
      <trkpt lat="45.96164" lon="6.55827">
        <ele>2424.58</ele>
        <time>2019-02-16T12:42:58Z</time>
      </trkpt>
      <trkpt lat="45.96169" lon="6.55823">
        <ele>2420.26</ele>
        <time>2019-02-16T12:42:59Z</time>
      </trkpt>
      <trkpt lat="45.96174" lon="6.5582">
        <ele>2417.37</ele>
        <time>2019-02-16T12:43:00Z</time>
      </trkpt>
      <trkpt lat="45.96185" lon="6.55816">
        <ele>2413.05</ele>
        <time>2019-02-16T12:43:02Z</time>
      </trkpt>
      <trkpt lat="45.96191" lon="6.55816">
        <ele>2412.09</ele>
        <time>2019-02-16T12:43:03Z</time>
      </trkpt>
      <trkpt lat="45.96196" lon="6.55818">
        <ele>2410.16</ele>
        <time>2019-02-16T12:43:04Z</time>
      </trkpt>
      <trkpt lat="45.96201" lon="6.55821">
        <ele>2408.24</ele>
        <time>2019-02-16T12:43:05Z</time>
      </trkpt>
      <trkpt lat="45.96204" lon="6.55823">
        <ele>2407.28</ele>
        <time>2019-02-16T12:43:06Z</time>
      </trkpt>
      <trkpt lat="45.96205" lon="6.55825">
        <ele>2406.8</ele>
        <time>2019-02-16T12:43:07Z</time>
      </trkpt>
      <trkpt lat="45.96206" lon="6.55827">
        <ele>2407.28</ele>
        <time>2019-02-16T12:43:08Z</time>
      </trkpt>
      <trkpt lat="45.96208" lon="6.55829">
        <ele>2407.28</ele>
        <time>2019-02-16T12:43:09Z</time>
      </trkpt>
      <trkpt lat="45.96209" lon="6.55831">
        <ele>2407.28</ele>
        <time>2019-02-16T12:43:10Z</time>
      </trkpt>
      <trkpt lat="45.96211" lon="6.55833">
        <ele>2407.28</ele>
        <time>2019-02-16T12:43:11Z</time>
      </trkpt>
      <trkpt lat="45.96213" lon="6.55834">
        <ele>2406.8</ele>
        <time>2019-02-16T12:43:12Z</time>
      </trkpt>
      <trkpt lat="45.96214" lon="6.55834">
        <ele>2406.32</ele>
        <time>2019-02-16T12:43:13Z</time>
      </trkpt>
      <trkpt lat="45.96215" lon="6.55832">
        <ele>2405.84</ele>
        <time>2019-02-16T12:43:15Z</time>
      </trkpt>
      <trkpt lat="45.96216" lon="6.55829">
        <ele>2405.84</ele>
        <time>2019-02-16T12:43:17Z</time>
      </trkpt>
      <trkpt lat="45.96218" lon="6.55827">
        <ele>2405.36</ele>
        <time>2019-02-16T12:43:18Z</time>
      </trkpt>
      <trkpt lat="45.96222" lon="6.55825">
        <ele>2404.39</ele>
        <time>2019-02-16T12:43:19Z</time>
      </trkpt>
      <trkpt lat="45.96225" lon="6.55824">
        <ele>2403.43</ele>
        <time>2019-02-16T12:43:20Z</time>
      </trkpt>
      <trkpt lat="45.96228" lon="6.5582">
        <ele>2403.43</ele>
        <time>2019-02-16T12:43:21Z</time>
      </trkpt>
      <trkpt lat="45.9623" lon="6.55814">
        <ele>2402.47</ele>
        <time>2019-02-16T12:43:22Z</time>
      </trkpt>
      <trkpt lat="45.96232" lon="6.55807">
        <ele>2401.03</ele>
        <time>2019-02-16T12:43:23Z</time>
      </trkpt>
      <trkpt lat="45.96234" lon="6.55801">
        <ele>2399.59</ele>
        <time>2019-02-16T12:43:24Z</time>
      </trkpt>
      <trkpt lat="45.96238" lon="6.55795">
        <ele>2399.11</ele>
        <time>2019-02-16T12:43:25Z</time>
      </trkpt>
      <trkpt lat="45.96241" lon="6.55792">
        <ele>2397.67</ele>
        <time>2019-02-16T12:43:26Z</time>
      </trkpt>
      <trkpt lat="45.96245" lon="6.55791">
        <ele>2397.18</ele>
        <time>2019-02-16T12:43:27Z</time>
      </trkpt>
      <trkpt lat="45.96248" lon="6.55787">
        <ele>2396.22</ele>
        <time>2019-02-16T12:43:28Z</time>
      </trkpt>
      <trkpt lat="45.96253" lon="6.55782">
        <ele>2394.3</ele>
        <time>2019-02-16T12:43:29Z</time>
      </trkpt>
      <trkpt lat="45.96259" lon="6.55779">
        <ele>2392.38</ele>
        <time>2019-02-16T12:43:30Z</time>
      </trkpt>
      <trkpt lat="45.96267" lon="6.55775">
        <ele>2389.97</ele>
        <time>2019-02-16T12:43:31Z</time>
      </trkpt>
      <trkpt lat="45.96271" lon="6.55766">
        <ele>2387.09</ele>
        <time>2019-02-16T12:43:32Z</time>
      </trkpt>
      <trkpt lat="45.96273" lon="6.55756">
        <ele>2385.65</ele>
        <time>2019-02-16T12:43:33Z</time>
      </trkpt>
      <trkpt lat="45.96276" lon="6.55749">
        <ele>2382.76</ele>
        <time>2019-02-16T12:43:34Z</time>
      </trkpt>
      <trkpt lat="45.96281" lon="6.55745">
        <ele>2380.36</ele>
        <time>2019-02-16T12:43:35Z</time>
      </trkpt>
      <trkpt lat="45.96287" lon="6.55741">
        <ele>2378.44</ele>
        <time>2019-02-16T12:43:36Z</time>
      </trkpt>
      <trkpt lat="45.96291" lon="6.55734">
        <ele>2376.04</ele>
        <time>2019-02-16T12:43:37Z</time>
      </trkpt>
      <trkpt lat="45.96293" lon="6.55726">
        <ele>2373.63</ele>
        <time>2019-02-16T12:43:38Z</time>
      </trkpt>
      <trkpt lat="45.96297" lon="6.5572">
        <ele>2371.71</ele>
        <time>2019-02-16T12:43:39Z</time>
      </trkpt>
      <trkpt lat="45.96302" lon="6.55716">
        <ele>2369.79</ele>
        <time>2019-02-16T12:43:40Z</time>
      </trkpt>
      <trkpt lat="45.96306" lon="6.5571">
        <ele>2367.86</ele>
        <time>2019-02-16T12:43:41Z</time>
      </trkpt>
      <trkpt lat="45.9631" lon="6.55703">
        <ele>2365.46</ele>
        <time>2019-02-16T12:43:42Z</time>
      </trkpt>
      <trkpt lat="45.96315" lon="6.55699">
        <ele>2363.06</ele>
        <time>2019-02-16T12:43:43Z</time>
      </trkpt>
      <trkpt lat="45.9632" lon="6.55694">
        <ele>2361.14</ele>
        <time>2019-02-16T12:43:44Z</time>
      </trkpt>
      <trkpt lat="45.96323" lon="6.55688">
        <ele>2359.21</ele>
        <time>2019-02-16T12:43:45Z</time>
      </trkpt>
      <trkpt lat="45.96327" lon="6.55683">
        <ele>2356.81</ele>
        <time>2019-02-16T12:43:46Z</time>
      </trkpt>
      <trkpt lat="45.9633" lon="6.55675">
        <ele>2354.89</ele>
        <time>2019-02-16T12:43:47Z</time>
      </trkpt>
      <trkpt lat="45.96332" lon="6.55668">
        <ele>2352</ele>
        <time>2019-02-16T12:43:48Z</time>
      </trkpt>
      <trkpt lat="45.96336" lon="6.55663">
        <ele>2349.6</ele>
        <time>2019-02-16T12:43:49Z</time>
      </trkpt>
      <trkpt lat="45.9634" lon="6.55659">
        <ele>2348.16</ele>
        <time>2019-02-16T12:43:50Z</time>
      </trkpt>
      <trkpt lat="45.96344" lon="6.55655">
        <ele>2346.23</ele>
        <time>2019-02-16T12:43:51Z</time>
      </trkpt>
      <trkpt lat="45.96347" lon="6.55649">
        <ele>2343.83</ele>
        <time>2019-02-16T12:43:52Z</time>
      </trkpt>
      <trkpt lat="45.9635" lon="6.55644">
        <ele>2341.43</ele>
        <time>2019-02-16T12:43:53Z</time>
      </trkpt>
      <trkpt lat="45.96354" lon="6.55639">
        <ele>2339.51</ele>
        <time>2019-02-16T12:43:54Z</time>
      </trkpt>
      <trkpt lat="45.96357" lon="6.55633">
        <ele>2337.58</ele>
        <time>2019-02-16T12:43:55Z</time>
      </trkpt>
      <trkpt lat="45.96361" lon="6.55625">
        <ele>2334.7</ele>
        <time>2019-02-16T12:43:56Z</time>
      </trkpt>
      <trkpt lat="45.96362" lon="6.55617">
        <ele>2333.26</ele>
        <time>2019-02-16T12:43:57Z</time>
      </trkpt>
      <trkpt lat="45.96366" lon="6.55609">
        <ele>2330.37</ele>
        <time>2019-02-16T12:43:58Z</time>
      </trkpt>
      <trkpt lat="45.96368" lon="6.55602">
        <ele>2327.97</ele>
        <time>2019-02-16T12:43:59Z</time>
      </trkpt>
      <trkpt lat="45.9637" lon="6.55593">
        <ele>2325.57</ele>
        <time>2019-02-16T12:44:00Z</time>
      </trkpt>
      <trkpt lat="45.96373" lon="6.55587">
        <ele>2323.16</ele>
        <time>2019-02-16T12:44:01Z</time>
      </trkpt>
      <trkpt lat="45.96378" lon="6.55583">
        <ele>2320.76</ele>
        <time>2019-02-16T12:44:02Z</time>
      </trkpt>
      <trkpt lat="45.96381" lon="6.55577">
        <ele>2319.32</ele>
        <time>2019-02-16T12:44:03Z</time>
      </trkpt>
      <trkpt lat="45.96385" lon="6.55571">
        <ele>2316.91</ele>
        <time>2019-02-16T12:44:04Z</time>
      </trkpt>
      <trkpt lat="45.9639" lon="6.55566">
        <ele>2314.51</ele>
        <time>2019-02-16T12:44:05Z</time>
      </trkpt>
      <trkpt lat="45.96394" lon="6.55558">
        <ele>2312.59</ele>
        <time>2019-02-16T12:44:06Z</time>
      </trkpt>
      <trkpt lat="45.96399" lon="6.55551">
        <ele>2309.22</ele>
        <time>2019-02-16T12:44:07Z</time>
      </trkpt>
      <trkpt lat="45.96403" lon="6.55544">
        <ele>2307.3</ele>
        <time>2019-02-16T12:44:08Z</time>
      </trkpt>
      <trkpt lat="45.96407" lon="6.55537">
        <ele>2305.86</ele>
        <time>2019-02-16T12:44:09Z</time>
      </trkpt>
      <trkpt lat="45.96409" lon="6.55529">
        <ele>2304.42</ele>
        <time>2019-02-16T12:44:10Z</time>
      </trkpt>
      <trkpt lat="45.96411" lon="6.55524">
        <ele>2302.49</ele>
        <time>2019-02-16T12:44:11Z</time>
      </trkpt>
      <trkpt lat="45.96413" lon="6.55523">
        <ele>2301.05</ele>
        <time>2019-02-16T12:44:12Z</time>
      </trkpt>
      <trkpt lat="45.96416" lon="6.55527">
        <ele>2299.61</ele>
        <time>2019-02-16T12:44:13Z</time>
      </trkpt>
      <trkpt lat="45.96415" lon="6.55531">
        <ele>2298.65</ele>
        <time>2019-02-16T12:44:14Z</time>
      </trkpt>
      <trkpt lat="45.96414" lon="6.55533">
        <ele>2298.17</ele>
        <time>2019-02-16T12:44:15Z</time>
      </trkpt>
      <trkpt lat="45.96413" lon="6.55535">
        <ele>2297.21</ele>
        <time>2019-02-16T12:44:16Z</time>
      </trkpt>
      <trkpt lat="45.96406" lon="6.55555">
        <ele>2293.84</ele>
        <time>2019-02-16T12:44:25Z</time>
      </trkpt>
      <trkpt lat="45.96408" lon="6.55573">
        <ele>2291.44</ele>
        <time>2019-02-16T12:44:29Z</time>
      </trkpt>
      <trkpt lat="45.96413" lon="6.55574">
        <ele>2290.48</ele>
        <time>2019-02-16T12:44:30Z</time>
      </trkpt>
      <trkpt lat="45.96417" lon="6.55571">
        <ele>2288.56</ele>
        <time>2019-02-16T12:44:31Z</time>
      </trkpt>
      <trkpt lat="45.96422" lon="6.55572">
        <ele>2285.67</ele>
        <time>2019-02-16T12:44:32Z</time>
      </trkpt>
      <trkpt lat="45.96427" lon="6.55575">
        <ele>2283.75</ele>
        <time>2019-02-16T12:44:33Z</time>
      </trkpt>
      <trkpt lat="45.96434" lon="6.55575">
        <ele>2279.9</ele>
        <time>2019-02-16T12:44:34Z</time>
      </trkpt>
      <trkpt lat="45.9644" lon="6.55572">
        <ele>2275.58</ele>
        <time>2019-02-16T12:44:35Z</time>
      </trkpt>
      <trkpt lat="45.96447" lon="6.55576">
        <ele>2271.25</ele>
        <time>2019-02-16T12:44:36Z</time>
      </trkpt>
      <trkpt lat="45.96451" lon="6.55584">
        <ele>2267.41</ele>
        <time>2019-02-16T12:44:37Z</time>
      </trkpt>
      <trkpt lat="45.96452" lon="6.55592">
        <ele>2264.04</ele>
        <time>2019-02-16T12:44:38Z</time>
      </trkpt>
      <trkpt lat="45.96453" lon="6.55599">
        <ele>2262.6</ele>
        <time>2019-02-16T12:44:39Z</time>
      </trkpt>
      <trkpt lat="45.96453" lon="6.55605">
        <ele>2261.16</ele>
        <time>2019-02-16T12:44:40Z</time>
      </trkpt>
      <trkpt lat="45.96454" lon="6.55611">
        <ele>2259.72</ele>
        <time>2019-02-16T12:44:41Z</time>
      </trkpt>
      <trkpt lat="45.96457" lon="6.55615">
        <ele>2258.75</ele>
        <time>2019-02-16T12:44:42Z</time>
      </trkpt>
      <trkpt lat="45.96462" lon="6.55614">
        <ele>2257.79</ele>
        <time>2019-02-16T12:44:43Z</time>
      </trkpt>
      <trkpt lat="45.96468" lon="6.55613">
        <ele>2255.39</ele>
        <time>2019-02-16T12:44:44Z</time>
      </trkpt>
      <trkpt lat="45.96473" lon="6.55611">
        <ele>2252.99</ele>
        <time>2019-02-16T12:44:45Z</time>
      </trkpt>
      <trkpt lat="45.96479" lon="6.55607">
        <ele>2250.1</ele>
        <time>2019-02-16T12:44:46Z</time>
      </trkpt>
      <trkpt lat="45.96485" lon="6.55607">
        <ele>2248.18</ele>
        <time>2019-02-16T12:44:47Z</time>
      </trkpt>
      <trkpt lat="45.96489" lon="6.55613">
        <ele>2243.37</ele>
        <time>2019-02-16T12:44:48Z</time>
      </trkpt>
      <trkpt lat="45.96493" lon="6.55622">
        <ele>2238.09</ele>
        <time>2019-02-16T12:44:49Z</time>
      </trkpt>
      <trkpt lat="45.96499" lon="6.55629">
        <ele>2234.24</ele>
        <time>2019-02-16T12:44:50Z</time>
      </trkpt>
      <trkpt lat="45.96505" lon="6.55633">
        <ele>2231.36</ele>
        <time>2019-02-16T12:44:51Z</time>
      </trkpt>
      <trkpt lat="45.96511" lon="6.5564">
        <ele>2227.03</ele>
        <time>2019-02-16T12:44:52Z</time>
      </trkpt>
      <trkpt lat="45.96518" lon="6.55647">
        <ele>2223.19</ele>
        <time>2019-02-16T12:44:53Z</time>
      </trkpt>
      <trkpt lat="45.96533" lon="6.55657">
        <ele>2218.38</ele>
        <time>2019-02-16T12:44:55Z</time>
      </trkpt>
      <trkpt lat="45.96541" lon="6.55662">
        <ele>2216.46</ele>
        <time>2019-02-16T12:44:56Z</time>
      </trkpt>
      <trkpt lat="45.9655" lon="6.55664">
        <ele>2214.53</ele>
        <time>2019-02-16T12:44:57Z</time>
      </trkpt>
      <trkpt lat="45.96569" lon="6.55664">
        <ele>2211.17</ele>
        <time>2019-02-16T12:44:59Z</time>
      </trkpt>
      <trkpt lat="45.96581" lon="6.55664">
        <ele>2207.81</ele>
        <time>2019-02-16T12:45:00Z</time>
      </trkpt>
      <trkpt lat="45.96591" lon="6.55664">
        <ele>2205.4</ele>
        <time>2019-02-16T12:45:01Z</time>
      </trkpt>
      <trkpt lat="45.96601" lon="6.55662">
        <ele>2202.52</ele>
        <time>2019-02-16T12:45:02Z</time>
      </trkpt>
      <trkpt lat="45.96612" lon="6.55661">
        <ele>2199.63</ele>
        <time>2019-02-16T12:45:03Z</time>
      </trkpt>
      <trkpt lat="45.96621" lon="6.55657">
        <ele>2195.79</ele>
        <time>2019-02-16T12:45:04Z</time>
      </trkpt>
      <trkpt lat="45.96631" lon="6.55654">
        <ele>2191.46</ele>
        <time>2019-02-16T12:45:05Z</time>
      </trkpt>
      <trkpt lat="45.96639" lon="6.55656">
        <ele>2188.1</ele>
        <time>2019-02-16T12:45:06Z</time>
      </trkpt>
      <trkpt lat="45.96647" lon="6.55658">
        <ele>2186.18</ele>
        <time>2019-02-16T12:45:07Z</time>
      </trkpt>
      <trkpt lat="45.96654" lon="6.55656">
        <ele>2184.73</ele>
        <time>2019-02-16T12:45:08Z</time>
      </trkpt>
      <trkpt lat="45.96661" lon="6.55655">
        <ele>2182.81</ele>
        <time>2019-02-16T12:45:09Z</time>
      </trkpt>
      <trkpt lat="45.96667" lon="6.55654">
        <ele>2178</ele>
        <time>2019-02-16T12:45:10Z</time>
      </trkpt>
      <trkpt lat="45.96673" lon="6.55655">
        <ele>2176.08</ele>
        <time>2019-02-16T12:45:11Z</time>
      </trkpt>
      <trkpt lat="45.96678" lon="6.55657">
        <ele>2175.12</ele>
        <time>2019-02-16T12:45:12Z</time>
      </trkpt>
      <trkpt lat="45.96682" lon="6.55662">
        <ele>2173.68</ele>
        <time>2019-02-16T12:45:17Z</time>
      </trkpt>
      <trkpt lat="45.96685" lon="6.55661">
        <ele>2173.2</ele>
        <time>2019-02-16T12:45:21Z</time>
      </trkpt>
      <trkpt lat="45.96688" lon="6.55663">
        <ele>2173.2</ele>
        <time>2019-02-16T12:45:22Z</time>
      </trkpt>
      <trkpt lat="45.96709" lon="6.55672">
        <ele>2169.83</ele>
        <time>2019-02-16T12:45:27Z</time>
      </trkpt>
      <trkpt lat="45.96722" lon="6.55674">
        <ele>2165.99</ele>
        <time>2019-02-16T12:45:30Z</time>
      </trkpt>
      <trkpt lat="45.96727" lon="6.55673">
        <ele>2163.58</ele>
        <time>2019-02-16T12:45:31Z</time>
      </trkpt>
      <trkpt lat="45.9673" lon="6.55669">
        <ele>2162.62</ele>
        <time>2019-02-16T12:45:32Z</time>
      </trkpt>
      <trkpt lat="45.96738" lon="6.55656">
        <ele>2156.86</ele>
        <time>2019-02-16T12:45:34Z</time>
      </trkpt>
      <trkpt lat="45.96739" lon="6.5565">
        <ele>2152.53</ele>
        <time>2019-02-16T12:45:35Z</time>
      </trkpt>
      <trkpt lat="45.96739" lon="6.55637">
        <ele>2146.28</ele>
        <time>2019-02-16T12:45:37Z</time>
      </trkpt>
      <trkpt lat="45.96744" lon="6.55631">
        <ele>2141.47</ele>
        <time>2019-02-16T12:45:38Z</time>
      </trkpt>
      <trkpt lat="45.96751" lon="6.55625">
        <ele>2136.19</ele>
        <time>2019-02-16T12:45:39Z</time>
      </trkpt>
      <trkpt lat="45.96757" lon="6.5562">
        <ele>2132.82</ele>
        <time>2019-02-16T12:45:40Z</time>
      </trkpt>
      <trkpt lat="45.96761" lon="6.55617">
        <ele>2128.98</ele>
        <time>2019-02-16T12:45:41Z</time>
      </trkpt>
      <trkpt lat="45.96762" lon="6.55612">
        <ele>2126.57</ele>
        <time>2019-02-16T12:45:42Z</time>
      </trkpt>
      <trkpt lat="45.96765" lon="6.55607">
        <ele>2123.21</ele>
        <time>2019-02-16T12:45:43Z</time>
      </trkpt>
      <trkpt lat="45.96769" lon="6.55603">
        <ele>2118.88</ele>
        <time>2019-02-16T12:45:44Z</time>
      </trkpt>
      <trkpt lat="45.96769" lon="6.55594">
        <ele>2116</ele>
        <time>2019-02-16T12:45:45Z</time>
      </trkpt>
      <trkpt lat="45.96772" lon="6.55586">
        <ele>2113.12</ele>
        <time>2019-02-16T12:45:46Z</time>
      </trkpt>
      <trkpt lat="45.96773" lon="6.55577">
        <ele>2110.23</ele>
        <time>2019-02-16T12:45:47Z</time>
      </trkpt>
      <trkpt lat="45.96774" lon="6.55568">
        <ele>2106.87</ele>
        <time>2019-02-16T12:45:48Z</time>
      </trkpt>
      <trkpt lat="45.96778" lon="6.55563">
        <ele>2104.46</ele>
        <time>2019-02-16T12:45:49Z</time>
      </trkpt>
      <trkpt lat="45.96781" lon="6.55558">
        <ele>2103.02</ele>
        <time>2019-02-16T12:45:50Z</time>
      </trkpt>
      <trkpt lat="45.96786" lon="6.55554">
        <ele>2101.1</ele>
        <time>2019-02-16T12:45:51Z</time>
      </trkpt>
      <trkpt lat="45.9679" lon="6.55551">
        <ele>2099.18</ele>
        <time>2019-02-16T12:45:52Z</time>
      </trkpt>
      <trkpt lat="45.96792" lon="6.55545">
        <ele>2096.77</ele>
        <time>2019-02-16T12:45:53Z</time>
      </trkpt>
      <trkpt lat="45.96796" lon="6.55543">
        <ele>2095.33</ele>
        <time>2019-02-16T12:45:54Z</time>
      </trkpt>
      <trkpt lat="45.968" lon="6.55543">
        <ele>2093.41</ele>
        <time>2019-02-16T12:45:55Z</time>
      </trkpt>
      <trkpt lat="45.96802" lon="6.5554">
        <ele>2091.49</ele>
        <time>2019-02-16T12:45:56Z</time>
      </trkpt>
      <trkpt lat="45.96801" lon="6.55534">
        <ele>2090.04</ele>
        <time>2019-02-16T12:45:57Z</time>
      </trkpt>
      <trkpt lat="45.968" lon="6.55525">
        <ele>2089.08</ele>
        <time>2019-02-16T12:45:58Z</time>
      </trkpt>
      <trkpt lat="45.96803" lon="6.55523">
        <ele>2087.64</ele>
        <time>2019-02-16T12:45:59Z</time>
      </trkpt>
      <trkpt lat="45.96805" lon="6.55525">
        <ele>2086.2</ele>
        <time>2019-02-16T12:46:00Z</time>
      </trkpt>
      <trkpt lat="45.96807" lon="6.55527">
        <ele>2085.24</ele>
        <time>2019-02-16T12:46:01Z</time>
      </trkpt>
      <trkpt lat="45.96806" lon="6.55527">
        <ele>2084.28</ele>
        <time>2019-02-16T12:46:02Z</time>
      </trkpt>
      <trkpt lat="45.96805" lon="6.55527">
        <ele>2083.79</ele>
        <time>2019-02-16T12:46:03Z</time>
      </trkpt>
      <trkpt lat="45.96804" lon="6.55522">
        <ele>2081.87</ele>
        <time>2019-02-16T12:46:09Z</time>
      </trkpt>
      <trkpt lat="45.96805" lon="6.5552">
        <ele>2081.39</ele>
        <time>2019-02-16T12:46:10Z</time>
      </trkpt>
      <trkpt lat="45.96805" lon="6.55515">
        <ele>2080.91</ele>
        <time>2019-02-16T12:46:11Z</time>
      </trkpt>
      <trkpt lat="45.96806" lon="6.5551">
        <ele>2079.47</ele>
        <time>2019-02-16T12:46:12Z</time>
      </trkpt>
      <trkpt lat="45.96808" lon="6.55509">
        <ele>2077.55</ele>
        <time>2019-02-16T12:46:13Z</time>
      </trkpt>
      <trkpt lat="45.96811" lon="6.55507">
        <ele>2076.1</ele>
        <time>2019-02-16T12:46:14Z</time>
      </trkpt>
      <trkpt lat="45.96813" lon="6.55503">
        <ele>2074.18</ele>
        <time>2019-02-16T12:46:15Z</time>
      </trkpt>
      <trkpt lat="45.96817" lon="6.555">
        <ele>2072.74</ele>
        <time>2019-02-16T12:46:16Z</time>
      </trkpt>
      <trkpt lat="45.96818" lon="6.55496">
        <ele>2070.82</ele>
        <time>2019-02-16T12:46:17Z</time>
      </trkpt>
      <trkpt lat="45.9682" lon="6.55492">
        <ele>2068.41</ele>
        <time>2019-02-16T12:46:18Z</time>
      </trkpt>
      <trkpt lat="45.96823" lon="6.55487">
        <ele>2066.01</ele>
        <time>2019-02-16T12:46:19Z</time>
      </trkpt>
      <trkpt lat="45.96826" lon="6.55481">
        <ele>2063.61</ele>
        <time>2019-02-16T12:46:20Z</time>
      </trkpt>
      <trkpt lat="45.96829" lon="6.55476">
        <ele>2061.68</ele>
        <time>2019-02-16T12:46:21Z</time>
      </trkpt>
      <trkpt lat="45.96831" lon="6.55472">
        <ele>2059.76</ele>
        <time>2019-02-16T12:46:22Z</time>
      </trkpt>
      <trkpt lat="45.96833" lon="6.55466">
        <ele>2057.84</ele>
        <time>2019-02-16T12:46:23Z</time>
      </trkpt>
      <trkpt lat="45.96836" lon="6.55461">
        <ele>2054.96</ele>
        <time>2019-02-16T12:46:24Z</time>
      </trkpt>
      <trkpt lat="45.96844" lon="6.55457">
        <ele>2050.15</ele>
        <time>2019-02-16T12:46:26Z</time>
      </trkpt>
      <trkpt lat="45.96854" lon="6.55454">
        <ele>2048.23</ele>
        <time>2019-02-16T12:46:28Z</time>
      </trkpt>
      <trkpt lat="45.96857" lon="6.5545">
        <ele>2046.78</ele>
        <time>2019-02-16T12:46:29Z</time>
      </trkpt>
      <trkpt lat="45.96859" lon="6.55444">
        <ele>2045.34</ele>
        <time>2019-02-16T12:46:30Z</time>
      </trkpt>
      <trkpt lat="45.96867" lon="6.55434">
        <ele>2040.54</ele>
        <time>2019-02-16T12:46:32Z</time>
      </trkpt>
      <trkpt lat="45.96867" lon="6.55421">
        <ele>2038.13</ele>
        <time>2019-02-16T12:46:33Z</time>
      </trkpt>
      <trkpt lat="45.96872" lon="6.55416">
        <ele>2036.21</ele>
        <time>2019-02-16T12:46:34Z</time>
      </trkpt>
      <trkpt lat="45.96876" lon="6.55411">
        <ele>2033.81</ele>
        <time>2019-02-16T12:46:35Z</time>
      </trkpt>
      <trkpt lat="45.96876" lon="6.55403">
        <ele>2031.4</ele>
        <time>2019-02-16T12:46:36Z</time>
      </trkpt>
      <trkpt lat="45.96875" lon="6.55394">
        <ele>2029</ele>
        <time>2019-02-16T12:46:37Z</time>
      </trkpt>
      <trkpt lat="45.96873" lon="6.55382">
        <ele>2026.6</ele>
        <time>2019-02-16T12:46:38Z</time>
      </trkpt>
      <trkpt lat="45.96873" lon="6.55371">
        <ele>2024.19</ele>
        <time>2019-02-16T12:46:39Z</time>
      </trkpt>
      <trkpt lat="45.96873" lon="6.55362">
        <ele>2022.75</ele>
        <time>2019-02-16T12:46:40Z</time>
      </trkpt>
      <trkpt lat="45.96879" lon="6.55361">
        <ele>2021.79</ele>
        <time>2019-02-16T12:46:41Z</time>
      </trkpt>
      <trkpt lat="45.96884" lon="6.55358">
        <ele>2019.39</ele>
        <time>2019-02-16T12:46:42Z</time>
      </trkpt>
      <trkpt lat="45.96889" lon="6.55353">
        <ele>2016.98</ele>
        <time>2019-02-16T12:46:43Z</time>
      </trkpt>
      <trkpt lat="45.96894" lon="6.5535">
        <ele>2014.1</ele>
        <time>2019-02-16T12:46:44Z</time>
      </trkpt>
      <trkpt lat="45.969" lon="6.5535">
        <ele>2011.22</ele>
        <time>2019-02-16T12:46:45Z</time>
      </trkpt>
      <trkpt lat="45.96905" lon="6.55345">
        <ele>2008.81</ele>
        <time>2019-02-16T12:46:46Z</time>
      </trkpt>
      <trkpt lat="45.9691" lon="6.55342">
        <ele>2005.45</ele>
        <time>2019-02-16T12:46:47Z</time>
      </trkpt>
      <trkpt lat="45.96916" lon="6.55342">
        <ele>2001.6</ele>
        <time>2019-02-16T12:46:48Z</time>
      </trkpt>
      <trkpt lat="45.96921" lon="6.5534">
        <ele>1998.24</ele>
        <time>2019-02-16T12:46:49Z</time>
      </trkpt>
      <trkpt lat="45.96924" lon="6.55333">
        <ele>1994.87</ele>
        <time>2019-02-16T12:46:50Z</time>
      </trkpt>
      <trkpt lat="45.96926" lon="6.55325">
        <ele>1991.51</ele>
        <time>2019-02-16T12:46:51Z</time>
      </trkpt>
      <trkpt lat="45.96927" lon="6.55315">
        <ele>1988.62</ele>
        <time>2019-02-16T12:46:52Z</time>
      </trkpt>
      <trkpt lat="45.96928" lon="6.55306">
        <ele>1985.26</ele>
        <time>2019-02-16T12:46:53Z</time>
      </trkpt>
      <trkpt lat="45.96929" lon="6.55297">
        <ele>1983.82</ele>
        <time>2019-02-16T12:46:54Z</time>
      </trkpt>
      <trkpt lat="45.96932" lon="6.55289">
        <ele>1982.86</ele>
        <time>2019-02-16T12:46:55Z</time>
      </trkpt>
      <trkpt lat="45.96934" lon="6.55281">
        <ele>1981.41</ele>
        <time>2019-02-16T12:46:56Z</time>
      </trkpt>
      <trkpt lat="45.96941" lon="6.55259">
        <ele>1978.53</ele>
        <time>2019-02-16T12:46:59Z</time>
      </trkpt>
      <trkpt lat="45.96945" lon="6.55245">
        <ele>1977.09</ele>
        <time>2019-02-16T12:47:01Z</time>
      </trkpt>
      <trkpt lat="45.96951" lon="6.55218">
        <ele>1974.2</ele>
        <time>2019-02-16T12:47:07Z</time>
      </trkpt>
      <trkpt lat="45.96951" lon="6.55215">
        <ele>1973.72</ele>
        <time>2019-02-16T12:47:08Z</time>
      </trkpt>
      <trkpt lat="45.96954" lon="6.5521">
        <ele>1972.76</ele>
        <time>2019-02-16T12:47:27Z</time>
      </trkpt>
      <trkpt lat="45.96958" lon="6.55208">
        <ele>1971.8</ele>
        <time>2019-02-16T12:47:28Z</time>
      </trkpt>
      <trkpt lat="45.96961" lon="6.55211">
        <ele>1970.36</ele>
        <time>2019-02-16T12:47:29Z</time>
      </trkpt>
      <trkpt lat="45.96965" lon="6.55214">
        <ele>1968.44</ele>
        <time>2019-02-16T12:47:30Z</time>
      </trkpt>
      <trkpt lat="45.9697" lon="6.55212">
        <ele>1966.99</ele>
        <time>2019-02-16T12:47:31Z</time>
      </trkpt>
      <trkpt lat="45.96975" lon="6.55211">
        <ele>1965.07</ele>
        <time>2019-02-16T12:47:32Z</time>
      </trkpt>
      <trkpt lat="45.96981" lon="6.55207">
        <ele>1962.19</ele>
        <time>2019-02-16T12:47:33Z</time>
      </trkpt>
      <trkpt lat="45.96987" lon="6.55201">
        <ele>1959.78</ele>
        <time>2019-02-16T12:47:34Z</time>
      </trkpt>
      <trkpt lat="45.96992" lon="6.55193">
        <ele>1956.9</ele>
        <time>2019-02-16T12:47:35Z</time>
      </trkpt>
      <trkpt lat="45.96997" lon="6.55187">
        <ele>1955.46</ele>
        <time>2019-02-16T12:47:36Z</time>
      </trkpt>
      <trkpt lat="45.97003" lon="6.55181">
        <ele>1955.46</ele>
        <time>2019-02-16T12:47:37Z</time>
      </trkpt>
      <trkpt lat="45.97008" lon="6.55176">
        <ele>1954.98</ele>
        <time>2019-02-16T12:47:38Z</time>
      </trkpt>
      <trkpt lat="45.97011" lon="6.5517">
        <ele>1954.02</ele>
        <time>2019-02-16T12:47:39Z</time>
      </trkpt>
      <trkpt lat="45.97014" lon="6.55166">
        <ele>1954.02</ele>
        <time>2019-02-16T12:47:40Z</time>
      </trkpt>
      <trkpt lat="45.97016" lon="6.55164">
        <ele>1953.54</ele>
        <time>2019-02-16T12:47:41Z</time>
      </trkpt>
      <trkpt lat="45.9702" lon="6.55156">
        <ele>1953.06</ele>
        <time>2019-02-16T12:47:45Z</time>
      </trkpt>
      <trkpt lat="45.97022" lon="6.55153">
        <ele>1953.06</ele>
        <time>2019-02-16T12:47:46Z</time>
      </trkpt>
      <trkpt lat="45.97036" lon="6.55127">
        <ele>1948.73</ele>
        <time>2019-02-16T12:47:50Z</time>
      </trkpt>
      <trkpt lat="45.97044" lon="6.55111">
        <ele>1945.36</ele>
        <time>2019-02-16T12:47:52Z</time>
      </trkpt>
      <trkpt lat="45.97047" lon="6.55105">
        <ele>1945.36</ele>
        <time>2019-02-16T12:47:53Z</time>
      </trkpt>
      <trkpt lat="45.97049" lon="6.55099">
        <ele>1945.36</ele>
        <time>2019-02-16T12:47:54Z</time>
      </trkpt>
      <trkpt lat="45.97051" lon="6.55094">
        <ele>1945.36</ele>
        <time>2019-02-16T12:47:55Z</time>
      </trkpt>
      <trkpt lat="45.97054" lon="6.55078">
        <ele>1945.36</ele>
        <time>2019-02-16T12:47:58Z</time>
      </trkpt>
      <trkpt lat="45.97054" lon="6.55072">
        <ele>1945.36</ele>
        <time>2019-02-16T12:47:59Z</time>
      </trkpt>
      <trkpt lat="45.97055" lon="6.55066">
        <ele>1944.4</ele>
        <time>2019-02-16T12:48:00Z</time>
      </trkpt>
      <trkpt lat="45.97059" lon="6.55063">
        <ele>1943.92</ele>
        <time>2019-02-16T12:48:01Z</time>
      </trkpt>
      <trkpt lat="45.97063" lon="6.5506">
        <ele>1942.48</ele>
        <time>2019-02-16T12:48:02Z</time>
      </trkpt>
      <trkpt lat="45.97067" lon="6.55057">
        <ele>1941.04</ele>
        <time>2019-02-16T12:48:03Z</time>
      </trkpt>
      <trkpt lat="45.97071" lon="6.55053">
        <ele>1938.64</ele>
        <time>2019-02-16T12:48:04Z</time>
      </trkpt>
      <trkpt lat="45.97075" lon="6.55049">
        <ele>1937.19</ele>
        <time>2019-02-16T12:48:05Z</time>
      </trkpt>
      <trkpt lat="45.97075" lon="6.55043">
        <ele>1935.27</ele>
        <time>2019-02-16T12:48:06Z</time>
      </trkpt>
      <trkpt lat="45.97076" lon="6.55037">
        <ele>1934.31</ele>
        <time>2019-02-16T12:48:07Z</time>
      </trkpt>
      <trkpt lat="45.97079" lon="6.55031">
        <ele>1932.39</ele>
        <time>2019-02-16T12:48:08Z</time>
      </trkpt>
      <trkpt lat="45.9708" lon="6.55022">
        <ele>1929.98</ele>
        <time>2019-02-16T12:48:09Z</time>
      </trkpt>
      <trkpt lat="45.9708" lon="6.55012">
        <ele>1926.62</ele>
        <time>2019-02-16T12:48:10Z</time>
      </trkpt>
      <trkpt lat="45.97078" lon="6.55003">
        <ele>1923.74</ele>
        <time>2019-02-16T12:48:11Z</time>
      </trkpt>
      <trkpt lat="45.97076" lon="6.54995">
        <ele>1921.81</ele>
        <time>2019-02-16T12:48:12Z</time>
      </trkpt>
      <trkpt lat="45.97074" lon="6.54992">
        <ele>1921.81</ele>
        <time>2019-02-16T12:48:13Z</time>
      </trkpt>
      <trkpt lat="45.97072" lon="6.5499">
        <ele>1921.81</ele>
        <time>2019-02-16T12:48:14Z</time>
      </trkpt>
      <trkpt lat="45.9707" lon="6.54987">
        <ele>1921.81</ele>
        <time>2019-02-16T12:48:15Z</time>
      </trkpt>
      <trkpt lat="45.97055" lon="6.5498">
        <ele>1920.85</ele>
        <time>2019-02-16T12:48:31Z</time>
      </trkpt>
      <trkpt lat="45.97054" lon="6.54979">
        <ele>1920.85</ele>
        <time>2019-02-16T12:48:32Z</time>
      </trkpt>
      <trkpt lat="45.97054" lon="6.54976">
        <ele>1920.37</ele>
        <time>2019-02-16T12:48:33Z</time>
      </trkpt>
      <trkpt lat="45.97055" lon="6.54974">
        <ele>1918.93</ele>
        <time>2019-02-16T12:48:34Z</time>
      </trkpt>
      <trkpt lat="45.97056" lon="6.54972">
        <ele>1917.97</ele>
        <time>2019-02-16T12:48:35Z</time>
      </trkpt>
      <trkpt lat="45.97056" lon="6.5497">
        <ele>1917.01</ele>
        <time>2019-02-16T12:48:36Z</time>
      </trkpt>
      <trkpt lat="45.97054" lon="6.54968">
        <ele>1916.53</ele>
        <time>2019-02-16T12:48:37Z</time>
      </trkpt>
      <trkpt lat="45.97053" lon="6.54966">
        <ele>1915.08</ele>
        <time>2019-02-16T12:48:38Z</time>
      </trkpt>
      <trkpt lat="45.97052" lon="6.54963">
        <ele>1914.12</ele>
        <time>2019-02-16T12:48:39Z</time>
      </trkpt>
      <trkpt lat="45.97054" lon="6.54958">
        <ele>1913.16</ele>
        <time>2019-02-16T12:48:40Z</time>
      </trkpt>
      <trkpt lat="45.97058" lon="6.54954">
        <ele>1911.24</ele>
        <time>2019-02-16T12:48:41Z</time>
      </trkpt>
      <trkpt lat="45.97061" lon="6.54953">
        <ele>1909.32</ele>
        <time>2019-02-16T12:48:42Z</time>
      </trkpt>
      <trkpt lat="45.97063" lon="6.54951">
        <ele>1907.87</ele>
        <time>2019-02-16T12:48:43Z</time>
      </trkpt>
      <trkpt lat="45.97064" lon="6.54948">
        <ele>1906.43</ele>
        <time>2019-02-16T12:48:44Z</time>
      </trkpt>
      <trkpt lat="45.97063" lon="6.54946">
        <ele>1904.99</ele>
        <time>2019-02-16T12:48:45Z</time>
      </trkpt>
      <trkpt lat="45.97062" lon="6.54943">
        <ele>1903.07</ele>
        <time>2019-02-16T12:48:46Z</time>
      </trkpt>
      <trkpt lat="45.9706" lon="6.5494">
        <ele>1901.63</ele>
        <time>2019-02-16T12:48:47Z</time>
      </trkpt>
      <trkpt lat="45.97056" lon="6.54934">
        <ele>1900.18</ele>
        <time>2019-02-16T12:48:48Z</time>
      </trkpt>
      <trkpt lat="45.97051" lon="6.54931">
        <ele>1899.22</ele>
        <time>2019-02-16T12:48:49Z</time>
      </trkpt>
      <trkpt lat="45.97047" lon="6.54927">
        <ele>1897.78</ele>
        <time>2019-02-16T12:48:50Z</time>
      </trkpt>
      <trkpt lat="45.97032" lon="6.54913">
        <ele>1894.42</ele>
        <time>2019-02-16T12:48:54Z</time>
      </trkpt>
      <trkpt lat="45.97017" lon="6.5489">
        <ele>1891.05</ele>
        <time>2019-02-16T12:48:59Z</time>
      </trkpt>
      <trkpt lat="45.97018" lon="6.54884">
        <ele>1890.09</ele>
        <time>2019-02-16T12:49:00Z</time>
      </trkpt>
      <trkpt lat="45.97022" lon="6.54879">
        <ele>1888.65</ele>
        <time>2019-02-16T12:49:01Z</time>
      </trkpt>
      <trkpt lat="45.97024" lon="6.54872">
        <ele>1886.72</ele>
        <time>2019-02-16T12:49:02Z</time>
      </trkpt>
      <trkpt lat="45.97028" lon="6.54869">
        <ele>1883.84</ele>
        <time>2019-02-16T12:49:03Z</time>
      </trkpt>
      <trkpt lat="45.97033" lon="6.54868">
        <ele>1880.48</ele>
        <time>2019-02-16T12:49:04Z</time>
      </trkpt>
      <trkpt lat="45.97038" lon="6.54867">
        <ele>1877.59</ele>
        <time>2019-02-16T12:49:05Z</time>
      </trkpt>
      <trkpt lat="45.97042" lon="6.54864">
        <ele>1875.19</ele>
        <time>2019-02-16T12:49:06Z</time>
      </trkpt>
      <trkpt lat="45.97046" lon="6.54861">
        <ele>1873.75</ele>
        <time>2019-02-16T12:49:07Z</time>
      </trkpt>
      <trkpt lat="45.9705" lon="6.54862">
        <ele>1871.34</ele>
        <time>2019-02-16T12:49:08Z</time>
      </trkpt>
      <trkpt lat="45.97055" lon="6.54862">
        <ele>1868.94</ele>
        <time>2019-02-16T12:49:09Z</time>
      </trkpt>
      <trkpt lat="45.97057" lon="6.5486">
        <ele>1867.02</ele>
        <time>2019-02-16T12:49:10Z</time>
      </trkpt>
      <trkpt lat="45.97057" lon="6.54856">
        <ele>1865.09</ele>
        <time>2019-02-16T12:49:11Z</time>
      </trkpt>
      <trkpt lat="45.97059" lon="6.54852">
        <ele>1863.17</ele>
        <time>2019-02-16T12:49:12Z</time>
      </trkpt>
      <trkpt lat="45.9706" lon="6.5485">
        <ele>1861.25</ele>
        <time>2019-02-16T12:49:13Z</time>
      </trkpt>
      <trkpt lat="45.97063" lon="6.54846">
        <ele>1859.33</ele>
        <time>2019-02-16T12:49:14Z</time>
      </trkpt>
      <trkpt lat="45.97063" lon="6.54841">
        <ele>1857.4</ele>
        <time>2019-02-16T12:49:15Z</time>
      </trkpt>
      <trkpt lat="45.97062" lon="6.54835">
        <ele>1855.48</ele>
        <time>2019-02-16T12:49:16Z</time>
      </trkpt>
      <trkpt lat="45.97063" lon="6.54829">
        <ele>1853.08</ele>
        <time>2019-02-16T12:49:17Z</time>
      </trkpt>
      <trkpt lat="45.97065" lon="6.54824">
        <ele>1850.19</ele>
        <time>2019-02-16T12:49:18Z</time>
      </trkpt>
      <trkpt lat="45.97068" lon="6.54819">
        <ele>1848.75</ele>
        <time>2019-02-16T12:49:19Z</time>
      </trkpt>
      <trkpt lat="45.97069" lon="6.54814">
        <ele>1846.83</ele>
        <time>2019-02-16T12:49:20Z</time>
      </trkpt>
      <trkpt lat="45.9707" lon="6.54808">
        <ele>1844.91</ele>
        <time>2019-02-16T12:49:21Z</time>
      </trkpt>
      <trkpt lat="45.97072" lon="6.54805">
        <ele>1842.02</ele>
        <time>2019-02-16T12:49:22Z</time>
      </trkpt>
      <trkpt lat="45.97077" lon="6.54804">
        <ele>1839.14</ele>
        <time>2019-02-16T12:49:23Z</time>
      </trkpt>
      <trkpt lat="45.97082" lon="6.54803">
        <ele>1837.22</ele>
        <time>2019-02-16T12:49:24Z</time>
      </trkpt>
      <trkpt lat="45.97087" lon="6.54801">
        <ele>1835.77</ele>
        <time>2019-02-16T12:49:25Z</time>
      </trkpt>
      <trkpt lat="45.97092" lon="6.54798">
        <ele>1834.33</ele>
        <time>2019-02-16T12:49:26Z</time>
      </trkpt>
      <trkpt lat="45.97099" lon="6.54794">
        <ele>1830.97</ele>
        <time>2019-02-16T12:49:27Z</time>
      </trkpt>
      <trkpt lat="45.97107" lon="6.54788">
        <ele>1827.6</ele>
        <time>2019-02-16T12:49:28Z</time>
      </trkpt>
      <trkpt lat="45.97115" lon="6.54781">
        <ele>1823.76</ele>
        <time>2019-02-16T12:49:29Z</time>
      </trkpt>
      <trkpt lat="45.97121" lon="6.54775">
        <ele>1819.43</ele>
        <time>2019-02-16T12:49:30Z</time>
      </trkpt>
      <trkpt lat="45.97128" lon="6.54771">
        <ele>1817.51</ele>
        <time>2019-02-16T12:49:31Z</time>
      </trkpt>
      <trkpt lat="45.97133" lon="6.54765">
        <ele>1815.11</ele>
        <time>2019-02-16T12:49:32Z</time>
      </trkpt>
      <trkpt lat="45.97138" lon="6.54758">
        <ele>1812.7</ele>
        <time>2019-02-16T12:49:33Z</time>
      </trkpt>
      <trkpt lat="45.97145" lon="6.54752">
        <ele>1809.34</ele>
        <time>2019-02-16T12:49:34Z</time>
      </trkpt>
      <trkpt lat="45.97159" lon="6.5474">
        <ele>1804.05</ele>
        <time>2019-02-16T12:49:36Z</time>
      </trkpt>
      <trkpt lat="45.97168" lon="6.54732">
        <ele>1800.69</ele>
        <time>2019-02-16T12:49:37Z</time>
      </trkpt>
      <trkpt lat="45.97177" lon="6.54723">
        <ele>1797.32</ele>
        <time>2019-02-16T12:49:38Z</time>
      </trkpt>
      <trkpt lat="45.97186" lon="6.54714">
        <ele>1793</ele>
        <time>2019-02-16T12:49:39Z</time>
      </trkpt>
      <trkpt lat="45.97194" lon="6.54705">
        <ele>1791.07</ele>
        <time>2019-02-16T12:49:40Z</time>
      </trkpt>
      <trkpt lat="45.97202" lon="6.54695">
        <ele>1786.75</ele>
        <time>2019-02-16T12:49:41Z</time>
      </trkpt>
      <trkpt lat="45.97204" lon="6.54685">
        <ele>1784.82</ele>
        <time>2019-02-16T12:49:42Z</time>
      </trkpt>
      <trkpt lat="45.97204" lon="6.54678">
        <ele>1783.38</ele>
        <time>2019-02-16T12:49:43Z</time>
      </trkpt>
      <trkpt lat="45.97203" lon="6.54673">
        <ele>1781.94</ele>
        <time>2019-02-16T12:49:44Z</time>
      </trkpt>
      <trkpt lat="45.97202" lon="6.54669">
        <ele>1780.98</ele>
        <time>2019-02-16T12:49:45Z</time>
      </trkpt>
      <trkpt lat="45.97201" lon="6.54666">
        <ele>1780.5</ele>
        <time>2019-02-16T12:49:46Z</time>
      </trkpt>
      <trkpt lat="45.972" lon="6.54664">
        <ele>1780.02</ele>
        <time>2019-02-16T12:49:47Z</time>
      </trkpt>
      <trkpt lat="45.97196" lon="6.5466">
        <ele>1780.02</ele>
        <time>2019-02-16T12:50:06Z</time>
      </trkpt>
      <trkpt lat="45.97198" lon="6.54659">
        <ele>1779.06</ele>
        <time>2019-02-16T12:50:07Z</time>
      </trkpt>
      <trkpt lat="45.97202" lon="6.54658">
        <ele>1777.61</ele>
        <time>2019-02-16T12:50:08Z</time>
      </trkpt>
      <trkpt lat="45.97207" lon="6.54656">
        <ele>1775.21</ele>
        <time>2019-02-16T12:50:09Z</time>
      </trkpt>
      <trkpt lat="45.97211" lon="6.54654">
        <ele>1772.81</ele>
        <time>2019-02-16T12:50:10Z</time>
      </trkpt>
      <trkpt lat="45.97217" lon="6.54654">
        <ele>1769.44</ele>
        <time>2019-02-16T12:50:11Z</time>
      </trkpt>
      <trkpt lat="45.97222" lon="6.54652">
        <ele>1768</ele>
        <time>2019-02-16T12:50:12Z</time>
      </trkpt>
      <trkpt lat="45.97226" lon="6.54647">
        <ele>1764.64</ele>
        <time>2019-02-16T12:50:13Z</time>
      </trkpt>
      <trkpt lat="45.97232" lon="6.54643">
        <ele>1761.27</ele>
        <time>2019-02-16T12:50:14Z</time>
      </trkpt>
      <trkpt lat="45.97239" lon="6.54639">
        <ele>1758.39</ele>
        <time>2019-02-16T12:50:15Z</time>
      </trkpt>
      <trkpt lat="45.97246" lon="6.54636">
        <ele>1755.02</ele>
        <time>2019-02-16T12:50:16Z</time>
      </trkpt>
      <trkpt lat="45.97252" lon="6.54635">
        <ele>1752.14</ele>
        <time>2019-02-16T12:50:17Z</time>
      </trkpt>
      <trkpt lat="45.97255" lon="6.54636">
        <ele>1749.74</ele>
        <time>2019-02-16T12:50:18Z</time>
      </trkpt>
      <trkpt lat="45.97257" lon="6.54634">
        <ele>1748.78</ele>
        <time>2019-02-16T12:50:19Z</time>
      </trkpt>
      <trkpt lat="45.97259" lon="6.5463">
        <ele>1746.37</ele>
        <time>2019-02-16T12:50:20Z</time>
      </trkpt>
      <trkpt lat="45.97263" lon="6.54627">
        <ele>1743.97</ele>
        <time>2019-02-16T12:50:21Z</time>
      </trkpt>
      <trkpt lat="45.9727" lon="6.54625">
        <ele>1740.6</ele>
        <time>2019-02-16T12:50:22Z</time>
      </trkpt>
      <trkpt lat="45.97276" lon="6.5462">
        <ele>1737.24</ele>
        <time>2019-02-16T12:50:23Z</time>
      </trkpt>
      <trkpt lat="45.97282" lon="6.54615">
        <ele>1732.91</ele>
        <time>2019-02-16T12:50:24Z</time>
      </trkpt>
      <trkpt lat="45.97289" lon="6.5461">
        <ele>1728.59</ele>
        <time>2019-02-16T12:50:25Z</time>
      </trkpt>
      <trkpt lat="45.97298" lon="6.54607">
        <ele>1725.22</ele>
        <time>2019-02-16T12:50:26Z</time>
      </trkpt>
      <trkpt lat="45.97306" lon="6.54605">
        <ele>1720.42</ele>
        <time>2019-02-16T12:50:27Z</time>
      </trkpt>
      <trkpt lat="45.97316" lon="6.546">
        <ele>1715.13</ele>
        <time>2019-02-16T12:50:28Z</time>
      </trkpt>
      <trkpt lat="45.97323" lon="6.54594">
        <ele>1710.8</ele>
        <time>2019-02-16T12:50:29Z</time>
      </trkpt>
      <trkpt lat="45.97329" lon="6.54585">
        <ele>1707.44</ele>
        <time>2019-02-16T12:50:30Z</time>
      </trkpt>
      <trkpt lat="45.97333" lon="6.54577">
        <ele>1704.07</ele>
        <time>2019-02-16T12:50:31Z</time>
      </trkpt>
      <trkpt lat="45.97338" lon="6.5457">
        <ele>1700.71</ele>
        <time>2019-02-16T12:50:32Z</time>
      </trkpt>
      <trkpt lat="45.97344" lon="6.54568">
        <ele>1697.83</ele>
        <time>2019-02-16T12:50:33Z</time>
      </trkpt>
      <trkpt lat="45.97348" lon="6.54567">
        <ele>1696.38</ele>
        <time>2019-02-16T12:50:34Z</time>
      </trkpt>
      <trkpt lat="45.97352" lon="6.54565">
        <ele>1694.94</ele>
        <time>2019-02-16T12:50:35Z</time>
      </trkpt>
      <trkpt lat="45.97354" lon="6.54561">
        <ele>1693.98</ele>
        <time>2019-02-16T12:50:36Z</time>
      </trkpt>
      <trkpt lat="45.97353" lon="6.54557">
        <ele>1693.5</ele>
        <time>2019-02-16T12:50:37Z</time>
      </trkpt>
      <trkpt lat="45.97351" lon="6.54555">
        <ele>1692.54</ele>
        <time>2019-02-16T12:50:38Z</time>
      </trkpt>
      <trkpt lat="45.97349" lon="6.54553">
        <ele>1691.1</ele>
        <time>2019-02-16T12:50:39Z</time>
      </trkpt>
      <trkpt lat="45.97348" lon="6.54551">
        <ele>1690.14</ele>
        <time>2019-02-16T12:50:40Z</time>
      </trkpt>
      <trkpt lat="45.97347" lon="6.54546">
        <ele>1689.65</ele>
        <time>2019-02-16T12:50:41Z</time>
      </trkpt>
      <trkpt lat="45.97348" lon="6.54541">
        <ele>1688.69</ele>
        <time>2019-02-16T12:50:42Z</time>
      </trkpt>
      <trkpt lat="45.9735" lon="6.54535">
        <ele>1687.25</ele>
        <time>2019-02-16T12:50:43Z</time>
      </trkpt>
      <trkpt lat="45.97352" lon="6.54528">
        <ele>1685.33</ele>
        <time>2019-02-16T12:50:44Z</time>
      </trkpt>
      <trkpt lat="45.97355" lon="6.5452">
        <ele>1681.96</ele>
        <time>2019-02-16T12:50:45Z</time>
      </trkpt>
      <trkpt lat="45.97357" lon="6.5451">
        <ele>1679.08</ele>
        <time>2019-02-16T12:50:46Z</time>
      </trkpt>
      <trkpt lat="45.97361" lon="6.54502">
        <ele>1675.72</ele>
        <time>2019-02-16T12:50:47Z</time>
      </trkpt>
      <trkpt lat="45.97365" lon="6.54495">
        <ele>1673.79</ele>
        <time>2019-02-16T12:50:48Z</time>
      </trkpt>
      <trkpt lat="45.97369" lon="6.54487">
        <ele>1671.39</ele>
        <time>2019-02-16T12:50:49Z</time>
      </trkpt>
      <trkpt lat="45.9737" lon="6.54479">
        <ele>1668.99</ele>
        <time>2019-02-16T12:50:50Z</time>
      </trkpt>
      <trkpt lat="45.97371" lon="6.5447">
        <ele>1666.1</ele>
        <time>2019-02-16T12:50:51Z</time>
      </trkpt>
      <trkpt lat="45.97372" lon="6.54459">
        <ele>1663.22</ele>
        <time>2019-02-16T12:50:52Z</time>
      </trkpt>
      <trkpt lat="45.97375" lon="6.5445">
        <ele>1661.3</ele>
        <time>2019-02-16T12:50:53Z</time>
      </trkpt>
      <trkpt lat="45.97378" lon="6.5444">
        <ele>1658.41</ele>
        <time>2019-02-16T12:50:54Z</time>
      </trkpt>
      <trkpt lat="45.97376" lon="6.54432">
        <ele>1656.01</ele>
        <time>2019-02-16T12:50:55Z</time>
      </trkpt>
      <trkpt lat="45.97375" lon="6.54427">
        <ele>1654.57</ele>
        <time>2019-02-16T12:50:56Z</time>
      </trkpt>
      <trkpt lat="45.97373" lon="6.54426">
        <ele>1653.12</ele>
        <time>2019-02-16T12:50:57Z</time>
      </trkpt>
      <trkpt lat="45.97372" lon="6.54426">
        <ele>1652.16</ele>
        <time>2019-02-16T12:50:58Z</time>
      </trkpt>
      <trkpt lat="45.97372" lon="6.54426">
        <ele>1651.68</ele>
        <time>2019-02-16T12:50:59Z</time>
      </trkpt>
      <trkpt lat="45.97371" lon="6.54425">
        <ele>1651.68</ele>
        <time>2019-02-16T12:51:10Z</time>
      </trkpt>
      <trkpt lat="45.97372" lon="6.54422">
        <ele>1651.68</ele>
        <time>2019-02-16T12:51:11Z</time>
      </trkpt>
      <trkpt lat="45.97374" lon="6.54418">
        <ele>1650.72</ele>
        <time>2019-02-16T12:51:12Z</time>
      </trkpt>
      <trkpt lat="45.97377" lon="6.54416">
        <ele>1648.8</ele>
        <time>2019-02-16T12:51:13Z</time>
      </trkpt>
      <trkpt lat="45.97381" lon="6.54413">
        <ele>1647.84</ele>
        <time>2019-02-16T12:51:14Z</time>
      </trkpt>
      <trkpt lat="45.97384" lon="6.5441">
        <ele>1646.88</ele>
        <time>2019-02-16T12:51:15Z</time>
      </trkpt>
      <trkpt lat="45.97385" lon="6.54404">
        <ele>1645.43</ele>
        <time>2019-02-16T12:51:16Z</time>
      </trkpt>
      <trkpt lat="45.97387" lon="6.54398">
        <ele>1642.55</ele>
        <time>2019-02-16T12:51:17Z</time>
      </trkpt>
      <trkpt lat="45.97391" lon="6.54385">
        <ele>1638.7</ele>
        <time>2019-02-16T12:51:19Z</time>
      </trkpt>
      <trkpt lat="45.9739" lon="6.54371">
        <ele>1634.86</ele>
        <time>2019-02-16T12:51:21Z</time>
      </trkpt>
      <trkpt lat="45.97389" lon="6.54364">
        <ele>1633.42</ele>
        <time>2019-02-16T12:51:22Z</time>
      </trkpt>
      <trkpt lat="45.97389" lon="6.54358">
        <ele>1631.01</ele>
        <time>2019-02-16T12:51:23Z</time>
      </trkpt>
      <trkpt lat="45.9739" lon="6.54351">
        <ele>1629.09</ele>
        <time>2019-02-16T12:51:24Z</time>
      </trkpt>
      <trkpt lat="45.97388" lon="6.54345">
        <ele>1626.69</ele>
        <time>2019-02-16T12:51:25Z</time>
      </trkpt>
      <trkpt lat="45.97387" lon="6.54338">
        <ele>1625.25</ele>
        <time>2019-02-16T12:51:26Z</time>
      </trkpt>
      <trkpt lat="45.97389" lon="6.5433">
        <ele>1622.36</ele>
        <time>2019-02-16T12:51:27Z</time>
      </trkpt>
      <trkpt lat="45.97392" lon="6.54322">
        <ele>1619</ele>
        <time>2019-02-16T12:51:28Z</time>
      </trkpt>
      <trkpt lat="45.97397" lon="6.54315">
        <ele>1615.63</ele>
        <time>2019-02-16T12:51:29Z</time>
      </trkpt>
      <trkpt lat="45.97401" lon="6.5431">
        <ele>1612.75</ele>
        <time>2019-02-16T12:51:30Z</time>
      </trkpt>
      <trkpt lat="45.97403" lon="6.54302">
        <ele>1611.31</ele>
        <time>2019-02-16T12:51:31Z</time>
      </trkpt>
      <trkpt lat="45.97401" lon="6.54292">
        <ele>1608.42</ele>
        <time>2019-02-16T12:51:32Z</time>
      </trkpt>
      <trkpt lat="45.97399" lon="6.54283">
        <ele>1606.02</ele>
        <time>2019-02-16T12:51:33Z</time>
      </trkpt>
      <trkpt lat="45.97398" lon="6.54275">
        <ele>1603.62</ele>
        <time>2019-02-16T12:51:34Z</time>
      </trkpt>
      <trkpt lat="45.97398" lon="6.54268">
        <ele>1601.21</ele>
        <time>2019-02-16T12:51:35Z</time>
      </trkpt>
      <trkpt lat="45.974" lon="6.54263">
        <ele>1600.25</ele>
        <time>2019-02-16T12:51:36Z</time>
      </trkpt>
      <trkpt lat="45.97404" lon="6.5426">
        <ele>1598.81</ele>
        <time>2019-02-16T12:51:37Z</time>
      </trkpt>
      <trkpt lat="45.9741" lon="6.54255">
        <ele>1597.37</ele>
        <time>2019-02-16T12:51:38Z</time>
      </trkpt>
      <trkpt lat="45.97415" lon="6.54246">
        <ele>1594.96</ele>
        <time>2019-02-16T12:51:39Z</time>
      </trkpt>
      <trkpt lat="45.97417" lon="6.54234">
        <ele>1593.04</ele>
        <time>2019-02-16T12:51:40Z</time>
      </trkpt>
      <trkpt lat="45.97413" lon="6.54218">
        <ele>1589.68</ele>
        <time>2019-02-16T12:51:41Z</time>
      </trkpt>
      <trkpt lat="45.9741" lon="6.54204">
        <ele>1587.27</ele>
        <time>2019-02-16T12:51:42Z</time>
      </trkpt>
      <trkpt lat="45.97405" lon="6.54194">
        <ele>1586.31</ele>
        <time>2019-02-16T12:51:43Z</time>
      </trkpt>
      <trkpt lat="45.97401" lon="6.54183">
        <ele>1583.43</ele>
        <time>2019-02-16T12:51:44Z</time>
      </trkpt>
      <trkpt lat="45.97396" lon="6.54173">
        <ele>1581.51</ele>
        <time>2019-02-16T12:51:45Z</time>
      </trkpt>
      <trkpt lat="45.97384" lon="6.54159">
        <ele>1579.58</ele>
        <time>2019-02-16T12:51:47Z</time>
      </trkpt>
      <trkpt lat="45.97357" lon="6.54143">
        <ele>1573.82</ele>
        <time>2019-02-16T12:51:50Z</time>
      </trkpt>
      <trkpt lat="45.97348" lon="6.54135">
        <ele>1569.49</ele>
        <time>2019-02-16T12:51:51Z</time>
      </trkpt>
      <trkpt lat="45.97333" lon="6.54117">
        <ele>1564.68</ele>
        <time>2019-02-16T12:51:53Z</time>
      </trkpt>
      <trkpt lat="45.97311" lon="6.54091">
        <ele>1559.88</ele>
        <time>2019-02-16T12:51:56Z</time>
      </trkpt>
      <trkpt lat="45.97304" lon="6.54084">
        <ele>1560.36</ele>
        <time>2019-02-16T12:51:57Z</time>
      </trkpt>
      <trkpt lat="45.97299" lon="6.54077">
        <ele>1560.84</ele>
        <time>2019-02-16T12:51:58Z</time>
      </trkpt>
      <trkpt lat="45.97294" lon="6.5407">
        <ele>1561.32</ele>
        <time>2019-02-16T12:51:59Z</time>
      </trkpt>
      <trkpt lat="45.97289" lon="6.54063">
        <ele>1560.84</ele>
        <time>2019-02-16T12:52:00Z</time>
      </trkpt>
      <trkpt lat="45.97276" lon="6.54045">
        <ele>1560.36</ele>
        <time>2019-02-16T12:52:03Z</time>
      </trkpt>
      <trkpt lat="45.97274" lon="6.54038">
        <ele>1560.36</ele>
        <time>2019-02-16T12:52:04Z</time>
      </trkpt>
      <trkpt lat="45.97271" lon="6.54031">
        <ele>1560.36</ele>
        <time>2019-02-16T12:52:05Z</time>
      </trkpt>
      <trkpt lat="45.97267" lon="6.54026">
        <ele>1559.4</ele>
        <time>2019-02-16T12:52:06Z</time>
      </trkpt>
      <trkpt lat="45.97263" lon="6.54022">
        <ele>1558.92</ele>
        <time>2019-02-16T12:52:07Z</time>
      </trkpt>
      <trkpt lat="45.97256" lon="6.54017">
        <ele>1557.95</ele>
        <time>2019-02-16T12:52:09Z</time>
      </trkpt>
      <trkpt lat="45.97252" lon="6.54013">
        <ele>1557.47</ele>
        <time>2019-02-16T12:52:10Z</time>
      </trkpt>
      <trkpt lat="45.97249" lon="6.54009">
        <ele>1556.99</ele>
        <time>2019-02-16T12:52:11Z</time>
      </trkpt>
      <trkpt lat="45.97246" lon="6.54004">
        <ele>1556.51</ele>
        <time>2019-02-16T12:52:12Z</time>
      </trkpt>
      <trkpt lat="45.97246" lon="6.53998">
        <ele>1556.03</ele>
        <time>2019-02-16T12:52:13Z</time>
      </trkpt>
      <trkpt lat="45.97245" lon="6.53992">
        <ele>1555.55</ele>
        <time>2019-02-16T12:52:14Z</time>
      </trkpt>
      <trkpt lat="45.97244" lon="6.53987">
        <ele>1554.11</ele>
        <time>2019-02-16T12:52:15Z</time>
      </trkpt>
      <trkpt lat="45.97245" lon="6.53982">
        <ele>1552.67</ele>
        <time>2019-02-16T12:52:16Z</time>
      </trkpt>
      <trkpt lat="45.97244" lon="6.53977">
        <ele>1551.22</ele>
        <time>2019-02-16T12:52:17Z</time>
      </trkpt>
      <trkpt lat="45.97242" lon="6.53974">
        <ele>1550.74</ele>
        <time>2019-02-16T12:52:18Z</time>
      </trkpt>
      <trkpt lat="45.9724" lon="6.53971">
        <ele>1550.26</ele>
        <time>2019-02-16T12:52:19Z</time>
      </trkpt>
      <trkpt lat="45.97239" lon="6.53968">
        <ele>1549.3</ele>
        <time>2019-02-16T12:52:20Z</time>
      </trkpt>
      <trkpt lat="45.97239" lon="6.53965">
        <ele>1548.82</ele>
        <time>2019-02-16T12:52:21Z</time>
      </trkpt>
      <trkpt lat="45.9724" lon="6.53964">
        <ele>1547.38</ele>
        <time>2019-02-16T12:52:22Z</time>
      </trkpt>
      <trkpt lat="45.97242" lon="6.53962">
        <ele>1546.9</ele>
        <time>2019-02-16T12:52:23Z</time>
      </trkpt>
      <trkpt lat="45.97241" lon="6.53954">
        <ele>1545.94</ele>
        <time>2019-02-16T12:52:24Z</time>
      </trkpt>
      <trkpt lat="45.9724" lon="6.53946">
        <ele>1544.98</ele>
        <time>2019-02-16T12:52:25Z</time>
      </trkpt>
      <trkpt lat="45.97239" lon="6.53936">
        <ele>1544.01</ele>
        <time>2019-02-16T12:52:26Z</time>
      </trkpt>
      <trkpt lat="45.97236" lon="6.53926">
        <ele>1541.61</ele>
        <time>2019-02-16T12:52:27Z</time>
      </trkpt>
      <trkpt lat="45.97231" lon="6.53916">
        <ele>1538.25</ele>
        <time>2019-02-16T12:52:28Z</time>
      </trkpt>
      <trkpt lat="45.97226" lon="6.53906">
        <ele>1534.4</ele>
        <time>2019-02-16T12:52:29Z</time>
      </trkpt>
      <trkpt lat="45.97222" lon="6.53895">
        <ele>1532</ele>
        <time>2019-02-16T12:52:30Z</time>
      </trkpt>
      <trkpt lat="45.97218" lon="6.53886">
        <ele>1529.59</ele>
        <time>2019-02-16T12:52:31Z</time>
      </trkpt>
      <trkpt lat="45.97216" lon="6.53875">
        <ele>1527.67</ele>
        <time>2019-02-16T12:52:32Z</time>
      </trkpt>
      <trkpt lat="45.97213" lon="6.53866">
        <ele>1527.19</ele>
        <time>2019-02-16T12:52:33Z</time>
      </trkpt>
      <trkpt lat="45.9721" lon="6.5386">
        <ele>1527.19</ele>
        <time>2019-02-16T12:52:34Z</time>
      </trkpt>
      <trkpt lat="45.97205" lon="6.53857">
        <ele>1528.15</ele>
        <time>2019-02-16T12:52:35Z</time>
      </trkpt>
      <trkpt lat="45.972" lon="6.53856">
        <ele>1528.15</ele>
        <time>2019-02-16T12:52:36Z</time>
      </trkpt>
      <trkpt lat="45.97196" lon="6.53853">
        <ele>1527.67</ele>
        <time>2019-02-16T12:52:37Z</time>
      </trkpt>
      <trkpt lat="45.97194" lon="6.53849">
        <ele>1527.19</ele>
        <time>2019-02-16T12:52:38Z</time>
      </trkpt>
      <trkpt lat="45.9719" lon="6.53844">
        <ele>1526.23</ele>
        <time>2019-02-16T12:52:39Z</time>
      </trkpt>
      <trkpt lat="45.97186" lon="6.53836">
        <ele>1524.79</ele>
        <time>2019-02-16T12:52:40Z</time>
      </trkpt>
      <trkpt lat="45.97183" lon="6.53827">
        <ele>1522.39</ele>
        <time>2019-02-16T12:52:41Z</time>
      </trkpt>
      <trkpt lat="45.97182" lon="6.53819">
        <ele>1520.94</ele>
        <time>2019-02-16T12:52:42Z</time>
      </trkpt>
      <trkpt lat="45.9718" lon="6.53812">
        <ele>1519.98</ele>
        <time>2019-02-16T12:52:43Z</time>
      </trkpt>
      <trkpt lat="45.97177" lon="6.53807">
        <ele>1519.5</ele>
        <time>2019-02-16T12:52:44Z</time>
      </trkpt>
      <trkpt lat="45.97178" lon="6.53801">
        <ele>1518.06</ele>
        <time>2019-02-16T12:52:45Z</time>
      </trkpt>
      <trkpt lat="45.97178" lon="6.53786">
        <ele>1514.69</ele>
        <time>2019-02-16T12:52:47Z</time>
      </trkpt>
      <trkpt lat="45.97178" lon="6.53778">
        <ele>1512.77</ele>
        <time>2019-02-16T12:52:48Z</time>
      </trkpt>
      <trkpt lat="45.97177" lon="6.5377">
        <ele>1511.81</ele>
        <time>2019-02-16T12:52:49Z</time>
      </trkpt>
      <trkpt lat="45.97175" lon="6.53765">
        <ele>1511.33</ele>
        <time>2019-02-16T12:52:50Z</time>
      </trkpt>
      <trkpt lat="45.97181" lon="6.53766">
        <ele>1510.37</ele>
        <time>2019-02-16T12:52:52Z</time>
      </trkpt>
      <trkpt lat="45.97186" lon="6.53766">
        <ele>1509.89</ele>
        <time>2019-02-16T12:52:53Z</time>
      </trkpt>
      <trkpt lat="45.97189" lon="6.53762">
        <ele>1508.45</ele>
        <time>2019-02-16T12:52:54Z</time>
      </trkpt>
      <trkpt lat="45.97194" lon="6.53759">
        <ele>1507.48</ele>
        <time>2019-02-16T12:52:55Z</time>
      </trkpt>
      <trkpt lat="45.97197" lon="6.53757">
        <ele>1505.56</ele>
        <time>2019-02-16T12:52:56Z</time>
      </trkpt>
      <trkpt lat="45.97201" lon="6.53755">
        <ele>1504.12</ele>
        <time>2019-02-16T12:52:57Z</time>
      </trkpt>
      <trkpt lat="45.97205" lon="6.53753">
        <ele>1502.2</ele>
        <time>2019-02-16T12:52:58Z</time>
      </trkpt>
      <trkpt lat="45.97208" lon="6.53751">
        <ele>1500.76</ele>
        <time>2019-02-16T12:52:59Z</time>
      </trkpt>
      <trkpt lat="45.97212" lon="6.53749">
        <ele>1499.31</ele>
        <time>2019-02-16T12:53:00Z</time>
      </trkpt>
      <trkpt lat="45.97213" lon="6.53746">
        <ele>1498.83</ele>
        <time>2019-02-16T12:53:01Z</time>
      </trkpt>
      <trkpt lat="45.97215" lon="6.53743">
        <ele>1497.87</ele>
        <time>2019-02-16T12:53:02Z</time>
      </trkpt>
      <trkpt lat="45.97223" lon="6.53732">
        <ele>1494.99</ele>
        <time>2019-02-16T12:53:05Z</time>
      </trkpt>
      <trkpt lat="45.97231" lon="6.53725">
        <ele>1493.55</ele>
        <time>2019-02-16T12:53:07Z</time>
      </trkpt>
      <trkpt lat="45.97233" lon="6.5372">
        <ele>1492.58</ele>
        <time>2019-02-16T12:53:08Z</time>
      </trkpt>
      <trkpt lat="45.97234" lon="6.53715">
        <ele>1491.14</ele>
        <time>2019-02-16T12:53:09Z</time>
      </trkpt>
      <trkpt lat="45.97238" lon="6.53713">
        <ele>1489.7</ele>
        <time>2019-02-16T12:53:10Z</time>
      </trkpt>
      <trkpt lat="45.97243" lon="6.53714">
        <ele>1488.74</ele>
        <time>2019-02-16T12:53:11Z</time>
      </trkpt>
      <trkpt lat="45.97247" lon="6.53712">
        <ele>1487.3</ele>
        <time>2019-02-16T12:53:12Z</time>
      </trkpt>
      <trkpt lat="45.97253" lon="6.53709">
        <ele>1486.82</ele>
        <time>2019-02-16T12:53:13Z</time>
      </trkpt>
      <trkpt lat="45.97258" lon="6.5371">
        <ele>1485.37</ele>
        <time>2019-02-16T12:53:14Z</time>
      </trkpt>
      <trkpt lat="45.97265" lon="6.5371">
        <ele>1482.97</ele>
        <time>2019-02-16T12:53:15Z</time>
      </trkpt>
      <trkpt lat="45.97271" lon="6.53708">
        <ele>1481.05</ele>
        <time>2019-02-16T12:53:16Z</time>
      </trkpt>
      <trkpt lat="45.97277" lon="6.53707">
        <ele>1479.13</ele>
        <time>2019-02-16T12:53:17Z</time>
      </trkpt>
      <trkpt lat="45.97282" lon="6.53706">
        <ele>1477.68</ele>
        <time>2019-02-16T12:53:18Z</time>
      </trkpt>
      <trkpt lat="45.97288" lon="6.53708">
        <ele>1476.72</ele>
        <time>2019-02-16T12:53:19Z</time>
      </trkpt>
      <trkpt lat="45.97292" lon="6.5371">
        <ele>1475.28</ele>
        <time>2019-02-16T12:53:20Z</time>
      </trkpt>
      <trkpt lat="45.97298" lon="6.5371">
        <ele>1474.32</ele>
        <time>2019-02-16T12:53:21Z</time>
      </trkpt>
      <trkpt lat="45.97305" lon="6.53708">
        <ele>1472.88</ele>
        <time>2019-02-16T12:53:22Z</time>
      </trkpt>
      <trkpt lat="45.97311" lon="6.53707">
        <ele>1470.95</ele>
        <time>2019-02-16T12:53:23Z</time>
      </trkpt>
      <trkpt lat="45.97318" lon="6.53707">
        <ele>1469.03</ele>
        <time>2019-02-16T12:53:24Z</time>
      </trkpt>
      <trkpt lat="45.97325" lon="6.53705">
        <ele>1468.07</ele>
        <time>2019-02-16T12:53:25Z</time>
      </trkpt>
      <trkpt lat="45.97332" lon="6.53705">
        <ele>1466.15</ele>
        <time>2019-02-16T12:53:26Z</time>
      </trkpt>
      <trkpt lat="45.97339" lon="6.53707">
        <ele>1464.23</ele>
        <time>2019-02-16T12:53:27Z</time>
      </trkpt>
      <trkpt lat="45.97345" lon="6.5371">
        <ele>1462.78</ele>
        <time>2019-02-16T12:53:28Z</time>
      </trkpt>
      <trkpt lat="45.97352" lon="6.53708">
        <ele>1461.34</ele>
        <time>2019-02-16T12:53:29Z</time>
      </trkpt>
      <trkpt lat="45.97358" lon="6.53706">
        <ele>1460.38</ele>
        <time>2019-02-16T12:53:30Z</time>
      </trkpt>
      <trkpt lat="45.97366" lon="6.53704">
        <ele>1458.94</ele>
        <time>2019-02-16T12:53:31Z</time>
      </trkpt>
      <trkpt lat="45.97373" lon="6.537">
        <ele>1457.5</ele>
        <time>2019-02-16T12:53:32Z</time>
      </trkpt>
      <trkpt lat="45.97388" lon="6.53689">
        <ele>1453.65</ele>
        <time>2019-02-16T12:53:34Z</time>
      </trkpt>
      <trkpt lat="45.97405" lon="6.53676">
        <ele>1450.29</ele>
        <time>2019-02-16T12:53:36Z</time>
      </trkpt>
      <trkpt lat="45.97423" lon="6.53661">
        <ele>1445.96</ele>
        <time>2019-02-16T12:53:38Z</time>
      </trkpt>
      <trkpt lat="45.97432" lon="6.53659">
        <ele>1444.04</ele>
        <time>2019-02-16T12:53:39Z</time>
      </trkpt>
      <trkpt lat="45.97437" lon="6.53658">
        <ele>1443.08</ele>
        <time>2019-02-16T12:53:40Z</time>
      </trkpt>
      <trkpt lat="45.97442" lon="6.53659">
        <ele>1443.56</ele>
        <time>2019-02-16T12:53:41Z</time>
      </trkpt>
      <trkpt lat="45.97459" lon="6.53657">
        <ele>1445.96</ele>
        <time>2019-02-16T12:53:45Z</time>
      </trkpt>
      <trkpt lat="45.97463" lon="6.53651">
        <ele>1446.92</ele>
        <time>2019-02-16T12:53:50Z</time>
      </trkpt>
      <trkpt lat="45.97464" lon="6.5365">
        <ele>1446.92</ele>
        <time>2019-02-16T12:53:51Z</time>
      </trkpt>
      <trkpt lat="45.9747" lon="6.5364">
        <ele>1447.4</ele>
        <time>2019-02-16T12:54:00Z</time>
      </trkpt>
      <trkpt lat="45.97471" lon="6.5364">
        <ele>1447.4</ele>
        <time>2019-02-16T12:54:01Z</time>
      </trkpt>
      <trkpt lat="45.97476" lon="6.53641">
        <ele>1447.4</ele>
        <time>2019-02-16T12:54:05Z</time>
      </trkpt>
      <trkpt lat="45.97477" lon="6.53642">
        <ele>1447.4</ele>
        <time>2019-02-16T12:54:06Z</time>
      </trkpt>
      <trkpt lat="45.975" lon="6.53672">
        <ele>1446.44</ele>
        <time>2019-02-16T12:54:21Z</time>
      </trkpt>
      <trkpt lat="45.97511" lon="6.53703">
        <ele>1445</ele>
        <time>2019-02-16T12:54:28Z</time>
      </trkpt>
      <trkpt lat="45.97514" lon="6.53708">
        <ele>1445</ele>
        <time>2019-02-16T12:54:29Z</time>
      </trkpt>
      <trkpt lat="45.9752" lon="6.53716">
        <ele>1444.04</ele>
        <time>2019-02-16T12:54:31Z</time>
      </trkpt>
      <trkpt lat="45.97527" lon="6.53724">
        <ele>1443.56</ele>
        <time>2019-02-16T12:54:33Z</time>
      </trkpt>
      <trkpt lat="45.9753" lon="6.53727">
        <ele>1443.56</ele>
        <time>2019-02-16T12:54:34Z</time>
      </trkpt>
      <trkpt lat="45.97533" lon="6.5373">
        <ele>1443.56</ele>
        <time>2019-02-16T12:54:35Z</time>
      </trkpt>
      <trkpt lat="45.97535" lon="6.53731">
        <ele>1443.56</ele>
        <time>2019-02-16T12:54:36Z</time>
      </trkpt>
      <trkpt lat="45.97536" lon="6.53732">
        <ele>1443.56</ele>
        <time>2019-02-16T12:54:37Z</time>
      </trkpt>
      <trkpt lat="45.97537" lon="6.53733">
        <ele>1444.04</ele>
        <time>2019-02-16T12:54:38Z</time>
      </trkpt>
      <trkpt lat="45.9754" lon="6.53736">
        <ele>1444.04</ele>
        <time>2019-02-16T12:54:42Z</time>
      </trkpt>
      <trkpt lat="45.97541" lon="6.53737">
        <ele>1444.52</ele>
        <time>2019-02-16T12:54:43Z</time>
      </trkpt>
      <trkpt lat="45.97542" lon="6.53738">
        <ele>1444.52</ele>
        <time>2019-02-16T12:54:44Z</time>
      </trkpt>
      <trkpt lat="45.97587" lon="6.53752">
        <ele>1440.67</ele>
        <time>2019-02-16T12:54:57Z</time>
      </trkpt>
      <trkpt lat="45.97592" lon="6.53755">
        <ele>1439.71</ele>
        <time>2019-02-16T12:54:58Z</time>
      </trkpt>
      <trkpt lat="45.97599" lon="6.5376">
        <ele>1438.75</ele>
        <time>2019-02-16T12:54:59Z</time>
      </trkpt>
      <trkpt lat="45.97621" lon="6.53777">
        <ele>1435.39</ele>
        <time>2019-02-16T12:55:02Z</time>
      </trkpt>
      <trkpt lat="45.97629" lon="6.53782">
        <ele>1433.94</ele>
        <time>2019-02-16T12:55:03Z</time>
      </trkpt>
      <trkpt lat="45.97655" lon="6.538">
        <ele>1428.18</ele>
        <time>2019-02-16T12:55:06Z</time>
      </trkpt>
      <trkpt lat="45.97679" lon="6.53825">
        <ele>1423.37</ele>
        <time>2019-02-16T12:55:09Z</time>
      </trkpt>
      <trkpt lat="45.97688" lon="6.53831">
        <ele>1421.45</ele>
        <time>2019-02-16T12:55:10Z</time>
      </trkpt>
      <trkpt lat="45.97695" lon="6.53836">
        <ele>1420.97</ele>
        <time>2019-02-16T12:55:11Z</time>
      </trkpt>
      <trkpt lat="45.97739" lon="6.53877">
        <ele>1418.08</ele>
        <time>2019-02-16T12:55:18Z</time>
      </trkpt>
      <trkpt lat="45.97771" lon="6.53917">
        <ele>1417.12</ele>
        <time>2019-02-16T12:55:24Z</time>
      </trkpt>
      <trkpt lat="45.97777" lon="6.53924">
        <ele>1416.16</ele>
        <time>2019-02-16T12:55:25Z</time>
      </trkpt>
      <trkpt lat="45.97783" lon="6.5393">
        <ele>1415.68</ele>
        <time>2019-02-16T12:55:26Z</time>
      </trkpt>
      <trkpt lat="45.97802" lon="6.53945">
        <ele>1413.76</ele>
        <time>2019-02-16T12:55:29Z</time>
      </trkpt>
      <trkpt lat="45.97833" lon="6.53974">
        <ele>1410.39</ele>
        <time>2019-02-16T12:55:34Z</time>
      </trkpt>
      <trkpt lat="45.97845" lon="6.53985">
        <ele>1408.95</ele>
        <time>2019-02-16T12:55:36Z</time>
      </trkpt>
      <trkpt lat="45.97858" lon="6.53998">
        <ele>1405.58</ele>
        <time>2019-02-16T12:55:38Z</time>
      </trkpt>
      <trkpt lat="45.97872" lon="6.54011">
        <ele>1401.74</ele>
        <time>2019-02-16T12:55:40Z</time>
      </trkpt>
      <trkpt lat="45.97878" lon="6.54019">
        <ele>1400.3</ele>
        <time>2019-02-16T12:55:41Z</time>
      </trkpt>
      <trkpt lat="45.97884" lon="6.54027">
        <ele>1399.34</ele>
        <time>2019-02-16T12:55:42Z</time>
      </trkpt>
      <trkpt lat="45.9789" lon="6.54033">
        <ele>1398.37</ele>
        <time>2019-02-16T12:55:43Z</time>
      </trkpt>
      <trkpt lat="45.97897" lon="6.54037">
        <ele>1397.41</ele>
        <time>2019-02-16T12:55:44Z</time>
      </trkpt>
      <trkpt lat="45.97903" lon="6.54039">
        <ele>1396.45</ele>
        <time>2019-02-16T12:55:45Z</time>
      </trkpt>
      <trkpt lat="45.97909" lon="6.54039">
        <ele>1395.97</ele>
        <time>2019-02-16T12:55:46Z</time>
      </trkpt>
      <trkpt lat="45.97915" lon="6.54038">
        <ele>1395.49</ele>
        <time>2019-02-16T12:55:47Z</time>
      </trkpt>
      <trkpt lat="45.9792" lon="6.54036">
        <ele>1395.01</ele>
        <time>2019-02-16T12:55:48Z</time>
      </trkpt>
      <trkpt lat="45.97931" lon="6.54033">
        <ele>1393.57</ele>
        <time>2019-02-16T12:55:50Z</time>
      </trkpt>
      <trkpt lat="45.9795" lon="6.54033">
        <ele>1390.2</ele>
        <time>2019-02-16T12:55:53Z</time>
      </trkpt>
      <trkpt lat="45.97957" lon="6.54036">
        <ele>1388.76</ele>
        <time>2019-02-16T12:55:54Z</time>
      </trkpt>
      <trkpt lat="45.97963" lon="6.54042">
        <ele>1386.36</ele>
        <time>2019-02-16T12:55:55Z</time>
      </trkpt>
      <trkpt lat="45.97971" lon="6.54054">
        <ele>1382.99</ele>
        <time>2019-02-16T12:55:57Z</time>
      </trkpt>
      <trkpt lat="45.97974" lon="6.54058">
        <ele>1382.03</ele>
        <time>2019-02-16T12:55:58Z</time>
      </trkpt>
      <trkpt lat="45.97977" lon="6.54064">
        <ele>1380.59</ele>
        <time>2019-02-16T12:55:59Z</time>
      </trkpt>
      <trkpt lat="45.9798" lon="6.54069">
        <ele>1379.63</ele>
        <time>2019-02-16T12:56:00Z</time>
      </trkpt>
      <trkpt lat="45.97983" lon="6.54074">
        <ele>1378.19</ele>
        <time>2019-02-16T12:56:01Z</time>
      </trkpt>
      <trkpt lat="45.97991" lon="6.54085">
        <ele>1376.26</ele>
        <time>2019-02-16T12:56:04Z</time>
      </trkpt>
      <trkpt lat="45.98004" lon="6.54095">
        <ele>1372.42</ele>
        <time>2019-02-16T12:56:08Z</time>
      </trkpt>
      <trkpt lat="45.98007" lon="6.54097">
        <ele>1370.98</ele>
        <time>2019-02-16T12:56:09Z</time>
      </trkpt>
      <trkpt lat="45.98009" lon="6.54099">
        <ele>1370.02</ele>
        <time>2019-02-16T12:56:10Z</time>
      </trkpt>
      <trkpt lat="45.98013" lon="6.541">
        <ele>1369.05</ele>
        <time>2019-02-16T12:56:11Z</time>
      </trkpt>
      <trkpt lat="45.98016" lon="6.54102">
        <ele>1368.09</ele>
        <time>2019-02-16T12:56:12Z</time>
      </trkpt>
      <trkpt lat="45.9802" lon="6.54105">
        <ele>1366.65</ele>
        <time>2019-02-16T12:56:13Z</time>
      </trkpt>
      <trkpt lat="45.98023" lon="6.54108">
        <ele>1365.69</ele>
        <time>2019-02-16T12:56:14Z</time>
      </trkpt>
      <trkpt lat="45.98027" lon="6.5411">
        <ele>1364.25</ele>
        <time>2019-02-16T12:56:15Z</time>
      </trkpt>
      <trkpt lat="45.9803" lon="6.54109">
        <ele>1363.29</ele>
        <time>2019-02-16T12:56:16Z</time>
      </trkpt>
      <trkpt lat="45.98033" lon="6.54108">
        <ele>1362.33</ele>
        <time>2019-02-16T12:56:17Z</time>
      </trkpt>
      <trkpt lat="45.98039" lon="6.54107">
        <ele>1361.36</ele>
        <time>2019-02-16T12:56:18Z</time>
      </trkpt>
      <trkpt lat="45.98044" lon="6.54108">
        <ele>1359.44</ele>
        <time>2019-02-16T12:56:19Z</time>
      </trkpt>
      <trkpt lat="45.98049" lon="6.54108">
        <ele>1358</ele>
        <time>2019-02-16T12:56:20Z</time>
      </trkpt>
      <trkpt lat="45.98054" lon="6.5411">
        <ele>1356.56</ele>
        <time>2019-02-16T12:56:21Z</time>
      </trkpt>
      <trkpt lat="45.9806" lon="6.54117">
        <ele>1354.63</ele>
        <time>2019-02-16T12:56:22Z</time>
      </trkpt>
      <trkpt lat="45.98065" lon="6.54125">
        <ele>1351.75</ele>
        <time>2019-02-16T12:56:23Z</time>
      </trkpt>
      <trkpt lat="45.98071" lon="6.54135">
        <ele>1350.31</ele>
        <time>2019-02-16T12:56:24Z</time>
      </trkpt>
      <trkpt lat="45.98077" lon="6.54144">
        <ele>1347.91</ele>
        <time>2019-02-16T12:56:25Z</time>
      </trkpt>
      <trkpt lat="45.98083" lon="6.54152">
        <ele>1347.43</ele>
        <time>2019-02-16T12:56:26Z</time>
      </trkpt>
      <trkpt lat="45.98102" lon="6.54171">
        <ele>1345.5</ele>
        <time>2019-02-16T12:56:29Z</time>
      </trkpt>
      <trkpt lat="45.98108" lon="6.54176">
        <ele>1345.5</ele>
        <time>2019-02-16T12:56:30Z</time>
      </trkpt>
      <trkpt lat="45.98114" lon="6.54183">
        <ele>1345.02</ele>
        <time>2019-02-16T12:56:31Z</time>
      </trkpt>
      <trkpt lat="45.98126" lon="6.54198">
        <ele>1342.14</ele>
        <time>2019-02-16T12:56:33Z</time>
      </trkpt>
      <trkpt lat="45.98141" lon="6.54211">
        <ele>1340.7</ele>
        <time>2019-02-16T12:56:35Z</time>
      </trkpt>
      <trkpt lat="45.98148" lon="6.54215">
        <ele>1340.22</ele>
        <time>2019-02-16T12:56:36Z</time>
      </trkpt>
      <trkpt lat="45.98164" lon="6.5422">
        <ele>1339.25</ele>
        <time>2019-02-16T12:56:38Z</time>
      </trkpt>
      <trkpt lat="45.98207" lon="6.54238">
        <ele>1336.37</ele>
        <time>2019-02-16T12:56:44Z</time>
      </trkpt>
      <trkpt lat="45.98213" lon="6.5424">
        <ele>1336.37</ele>
        <time>2019-02-16T12:56:45Z</time>
      </trkpt>
      <trkpt lat="45.98224" lon="6.54242">
        <ele>1336.37</ele>
        <time>2019-02-16T12:56:47Z</time>
      </trkpt>
      <trkpt lat="45.9823" lon="6.54243">
        <ele>1336.85</ele>
        <time>2019-02-16T12:56:48Z</time>
      </trkpt>
      <trkpt lat="45.98235" lon="6.54245">
        <ele>1336.85</ele>
        <time>2019-02-16T12:56:49Z</time>
      </trkpt>
      <trkpt lat="45.98258" lon="6.54257">
        <ele>1335.41</ele>
        <time>2019-02-16T12:56:54Z</time>
      </trkpt>
      <trkpt lat="45.98267" lon="6.54261">
        <ele>1334.45</ele>
        <time>2019-02-16T12:56:56Z</time>
      </trkpt>
      <trkpt lat="45.9831" lon="6.54285">
        <ele>1331.56</ele>
        <time>2019-02-16T12:57:08Z</time>
      </trkpt>
      <trkpt lat="45.98313" lon="6.54275">
        <ele>1332.04</ele>
        <time>2019-02-16T12:57:22Z</time>
      </trkpt>
      <trkpt lat="45.98314" lon="6.54274">
        <ele>1331.56</ele>
        <time>2019-02-16T12:57:23Z</time>
      </trkpt>
      <trkpt lat="45.98316" lon="6.54274">
        <ele>1331.56</ele>
        <time>2019-02-16T12:57:24Z</time>
      </trkpt>
      <trkpt lat="45.98317" lon="6.54274">
        <ele>1331.56</ele>
        <time>2019-02-16T12:57:25Z</time>
      </trkpt>
      <trkpt lat="45.9832" lon="6.54276">
        <ele>1331.56</ele>
        <time>2019-02-16T12:57:32Z</time>
      </trkpt>
      <trkpt lat="45.98322" lon="6.54278">
        <ele>1332.04</ele>
        <time>2019-02-16T12:57:34Z</time>
      </trkpt>
      <trkpt lat="45.98325" lon="6.54283">
        <ele>1332.04</ele>
        <time>2019-02-16T12:57:35Z</time>
      </trkpt>
      <trkpt lat="45.98327" lon="6.54286">
        <ele>1331.56</ele>
        <time>2019-02-16T12:57:36Z</time>
      </trkpt>
      <trkpt lat="45.98332" lon="6.54287">
        <ele>1330.6</ele>
        <time>2019-02-16T12:57:37Z</time>
      </trkpt>
      <trkpt lat="45.98337" lon="6.54287">
        <ele>1330.12</ele>
        <time>2019-02-16T12:57:38Z</time>
      </trkpt>
      <trkpt lat="45.98341" lon="6.54287">
        <ele>1329.16</ele>
        <time>2019-02-16T12:57:39Z</time>
      </trkpt>
      <trkpt lat="45.98355" lon="6.54286">
        <ele>1328.2</ele>
        <time>2019-02-16T12:57:42Z</time>
      </trkpt>
      <trkpt lat="45.9836" lon="6.54286">
        <ele>1328.2</ele>
        <time>2019-02-16T12:57:43Z</time>
      </trkpt>
      <trkpt lat="45.9838" lon="6.54285">
        <ele>1327.24</ele>
        <time>2019-02-16T12:57:47Z</time>
      </trkpt>
      <trkpt lat="45.98405" lon="6.54286">
        <ele>1323.87</ele>
        <time>2019-02-16T12:57:51Z</time>
      </trkpt>
      <trkpt lat="45.98417" lon="6.54286">
        <ele>1323.39</ele>
        <time>2019-02-16T12:57:53Z</time>
      </trkpt>
      <trkpt lat="45.98422" lon="6.54285">
        <ele>1323.39</ele>
        <time>2019-02-16T12:57:54Z</time>
      </trkpt>
      <trkpt lat="45.98443" lon="6.54283">
        <ele>1320.03</ele>
        <time>2019-02-16T12:57:57Z</time>
      </trkpt>
      <trkpt lat="45.9845" lon="6.54287">
        <ele>1319.07</ele>
        <time>2019-02-16T12:57:58Z</time>
      </trkpt>
      <trkpt lat="45.98456" lon="6.54294">
        <ele>1317.62</ele>
        <time>2019-02-16T12:57:59Z</time>
      </trkpt>
      <trkpt lat="45.98463" lon="6.54302">
        <ele>1316.66</ele>
        <time>2019-02-16T12:58:00Z</time>
      </trkpt>
      <trkpt lat="45.98468" lon="6.5431">
        <ele>1316.66</ele>
        <time>2019-02-16T12:58:01Z</time>
      </trkpt>
      <trkpt lat="45.98473" lon="6.54319">
        <ele>1315.7</ele>
        <time>2019-02-16T12:58:02Z</time>
      </trkpt>
      <trkpt lat="45.98477" lon="6.54326">
        <ele>1315.7</ele>
        <time>2019-02-16T12:58:03Z</time>
      </trkpt>
      <trkpt lat="45.98485" lon="6.54342">
        <ele>1316.66</ele>
        <time>2019-02-16T12:58:06Z</time>
      </trkpt>
      <trkpt lat="45.98488" lon="6.54345">
        <ele>1317.14</ele>
        <time>2019-02-16T12:58:07Z</time>
      </trkpt>
      <trkpt lat="45.98491" lon="6.54347">
        <ele>1317.62</ele>
        <time>2019-02-16T12:58:08Z</time>
      </trkpt>
      <trkpt lat="45.98493" lon="6.54349">
        <ele>1317.62</ele>
        <time>2019-02-16T12:58:09Z</time>
      </trkpt>
      <trkpt lat="45.98495" lon="6.5435">
        <ele>1318.1</ele>
        <time>2019-02-16T12:58:10Z</time>
      </trkpt>
      <trkpt lat="45.98497" lon="6.5435">
        <ele>1318.59</ele>
        <time>2019-02-16T12:58:11Z</time>
      </trkpt>
      <trkpt lat="45.98545" lon="6.54358">
        <ele>1318.59</ele>
        <time>2019-02-16T12:58:32Z</time>
      </trkpt>
      <trkpt lat="45.98586" lon="6.54379">
        <ele>1315.7</ele>
        <time>2019-02-16T12:58:46Z</time>
      </trkpt>
      <trkpt lat="45.9859" lon="6.54381">
        <ele>1315.22</ele>
        <time>2019-02-16T12:58:47Z</time>
      </trkpt>
      <trkpt lat="45.98594" lon="6.54383">
        <ele>1314.74</ele>
        <time>2019-02-16T12:58:48Z</time>
      </trkpt>
      <trkpt lat="45.98613" lon="6.54387">
        <ele>1311.86</ele>
        <time>2019-02-16T12:58:53Z</time>
      </trkpt>
      <trkpt lat="45.98617" lon="6.54388">
        <ele>1311.38</ele>
        <time>2019-02-16T12:58:54Z</time>
      </trkpt>
      <trkpt lat="45.9863" lon="6.54386">
        <ele>1309.45</ele>
        <time>2019-02-16T12:58:56Z</time>
      </trkpt>
      <trkpt lat="45.98643" lon="6.54383">
        <ele>1305.61</ele>
        <time>2019-02-16T12:58:58Z</time>
      </trkpt>
      <trkpt lat="45.98649" lon="6.54382">
        <ele>1305.13</ele>
        <time>2019-02-16T12:58:59Z</time>
      </trkpt>
      <trkpt lat="45.98655" lon="6.54383">
        <ele>1304.65</ele>
        <time>2019-02-16T12:59:00Z</time>
      </trkpt>
      <trkpt lat="45.98668" lon="6.54385">
        <ele>1303.69</ele>
        <time>2019-02-16T12:59:02Z</time>
      </trkpt>
      <trkpt lat="45.98675" lon="6.54389">
        <ele>1303.2</ele>
        <time>2019-02-16T12:59:03Z</time>
      </trkpt>
      <trkpt lat="45.98697" lon="6.54399">
        <ele>1299.84</ele>
        <time>2019-02-16T12:59:07Z</time>
      </trkpt>
      <trkpt lat="45.98712" lon="6.54405">
        <ele>1298.4</ele>
        <time>2019-02-16T12:59:10Z</time>
      </trkpt>
      <trkpt lat="45.98754" lon="6.54418">
        <ele>1295.03</ele>
        <time>2019-02-16T12:59:18Z</time>
      </trkpt>
      <trkpt lat="45.98757" lon="6.54419">
        <ele>1294.55</ele>
        <time>2019-02-16T12:59:19Z</time>
      </trkpt>
      <trkpt lat="45.98773" lon="6.54424">
        <ele>1293.11</ele>
        <time>2019-02-16T12:59:23Z</time>
      </trkpt>
      <trkpt lat="45.98785" lon="6.54428">
        <ele>1291.19</ele>
        <time>2019-02-16T12:59:26Z</time>
      </trkpt>
      <trkpt lat="45.98806" lon="6.5443">
        <ele>1288.3</ele>
        <time>2019-02-16T12:59:31Z</time>
      </trkpt>
      <trkpt lat="45.9881" lon="6.5443">
        <ele>1287.34</ele>
        <time>2019-02-16T12:59:32Z</time>
      </trkpt>
      <trkpt lat="45.98828" lon="6.54429">
        <ele>1284.46</ele>
        <time>2019-02-16T12:59:36Z</time>
      </trkpt>
      <trkpt lat="45.98842" lon="6.54424">
        <ele>1281.09</ele>
        <time>2019-02-16T12:59:40Z</time>
      </trkpt>
      <trkpt lat="45.98857" lon="6.54416">
        <ele>1278.21</ele>
        <time>2019-02-16T12:59:44Z</time>
      </trkpt>
      <trkpt lat="45.98874" lon="6.54405">
        <ele>1274.36</ele>
        <time>2019-02-16T12:59:48Z</time>
      </trkpt>
      <trkpt lat="45.98889" lon="6.544">
        <ele>1271.48</ele>
        <time>2019-02-16T12:59:51Z</time>
      </trkpt>
      <trkpt lat="45.98909" lon="6.54395">
        <ele>1267.16</ele>
        <time>2019-02-16T12:59:54Z</time>
      </trkpt>
      <trkpt lat="45.98926" lon="6.54388">
        <ele>1262.83</ele>
        <time>2019-02-16T12:59:57Z</time>
      </trkpt>
      <trkpt lat="45.98933" lon="6.54384">
        <ele>1261.39</ele>
        <time>2019-02-16T12:59:58Z</time>
      </trkpt>
      <trkpt lat="45.98939" lon="6.54378">
        <ele>1258.98</ele>
        <time>2019-02-16T12:59:59Z</time>
      </trkpt>
      <trkpt lat="45.98954" lon="6.54373">
        <ele>1255.14</ele>
        <time>2019-02-16T13:00:01Z</time>
      </trkpt>
      <trkpt lat="45.98962" lon="6.54371">
        <ele>1253.7</ele>
        <time>2019-02-16T13:00:02Z</time>
      </trkpt>
      <trkpt lat="45.98973" lon="6.54375">
        <ele>1251.77</ele>
        <time>2019-02-16T13:00:03Z</time>
      </trkpt>
      <trkpt lat="45.98981" lon="6.54374">
        <ele>1249.85</ele>
        <time>2019-02-16T13:00:04Z</time>
      </trkpt>
      <trkpt lat="45.98989" lon="6.54373">
        <ele>1248.41</ele>
        <time>2019-02-16T13:00:05Z</time>
      </trkpt>
      <trkpt lat="45.98999" lon="6.54369">
        <ele>1244.56</ele>
        <time>2019-02-16T13:00:07Z</time>
      </trkpt>
      <trkpt lat="45.99009" lon="6.54364">
        <ele>1242.16</ele>
        <time>2019-02-16T13:00:09Z</time>
      </trkpt>
      <trkpt lat="45.99014" lon="6.54363">
        <ele>1241.2</ele>
        <time>2019-02-16T13:00:10Z</time>
      </trkpt>
      <trkpt lat="45.99019" lon="6.54362">
        <ele>1239.28</ele>
        <time>2019-02-16T13:00:11Z</time>
      </trkpt>
      <trkpt lat="45.9903" lon="6.54366">
        <ele>1237.35</ele>
        <time>2019-02-16T13:00:12Z</time>
      </trkpt>
      <trkpt lat="45.99037" lon="6.54364">
        <ele>1235.43</ele>
        <time>2019-02-16T13:00:13Z</time>
      </trkpt>
      <trkpt lat="45.99044" lon="6.54361">
        <ele>1233.99</ele>
        <time>2019-02-16T13:00:14Z</time>
      </trkpt>
      <trkpt lat="45.99049" lon="6.54355">
        <ele>1232.55</ele>
        <time>2019-02-16T13:00:15Z</time>
      </trkpt>
      <trkpt lat="45.9906" lon="6.54348">
        <ele>1228.7</ele>
        <time>2019-02-16T13:00:18Z</time>
      </trkpt>
      <trkpt lat="45.99066" lon="6.54343">
        <ele>1227.26</ele>
        <time>2019-02-16T13:00:21Z</time>
      </trkpt>
      <trkpt lat="45.99066" lon="6.54341">
        <ele>1226.78</ele>
        <time>2019-02-16T13:00:22Z</time>
      </trkpt>
      <trkpt lat="45.99067" lon="6.54339">
        <ele>1226.78</ele>
        <time>2019-02-16T13:00:23Z</time>
      </trkpt>
      <trkpt lat="45.99068" lon="6.54337">
        <ele>1226.3</ele>
        <time>2019-02-16T13:00:24Z</time>
      </trkpt>
      <trkpt lat="45.99069" lon="6.54335">
        <ele>1226.3</ele>
        <time>2019-02-16T13:00:25Z</time>
      </trkpt>
      <trkpt lat="45.99072" lon="6.54333">
        <ele>1225.82</ele>
        <time>2019-02-16T13:00:26Z</time>
      </trkpt>
      <trkpt lat="45.99075" lon="6.5433">
        <ele>1225.34</ele>
        <time>2019-02-16T13:00:27Z</time>
      </trkpt>
      <trkpt lat="45.99085" lon="6.54322">
        <ele>1221.97</ele>
        <time>2019-02-16T13:00:30Z</time>
      </trkpt>
      <trkpt lat="45.99092" lon="6.54315">
        <ele>1218.13</ele>
        <time>2019-02-16T13:00:35Z</time>
      </trkpt>
      <trkpt lat="45.99101" lon="6.54308">
        <ele>1214.76</ele>
        <time>2019-02-16T13:00:38Z</time>
      </trkpt>
      <trkpt lat="45.99112" lon="6.54295">
        <ele>1210.92</ele>
        <time>2019-02-16T13:00:41Z</time>
      </trkpt>
      <trkpt lat="45.99117" lon="6.54289">
        <ele>1209</ele>
        <time>2019-02-16T13:00:42Z</time>
      </trkpt>
      <trkpt lat="45.99121" lon="6.54284">
        <ele>1206.59</ele>
        <time>2019-02-16T13:00:43Z</time>
      </trkpt>
      <trkpt lat="45.99127" lon="6.54279">
        <ele>1205.63</ele>
        <time>2019-02-16T13:00:44Z</time>
      </trkpt>
      <trkpt lat="45.9913" lon="6.54274">
        <ele>1204.19</ele>
        <time>2019-02-16T13:00:45Z</time>
      </trkpt>
      <trkpt lat="45.99134" lon="6.5427">
        <ele>1202.75</ele>
        <time>2019-02-16T13:00:46Z</time>
      </trkpt>
      <trkpt lat="45.99143" lon="6.54258">
        <ele>1198.42</ele>
        <time>2019-02-16T13:00:49Z</time>
      </trkpt>
      <trkpt lat="45.99148" lon="6.54246">
        <ele>1196.02</ele>
        <time>2019-02-16T13:00:51Z</time>
      </trkpt>
      <trkpt lat="45.99154" lon="6.54233">
        <ele>1193.61</ele>
        <time>2019-02-16T13:00:53Z</time>
      </trkpt>
      <trkpt lat="45.99163" lon="6.5421">
        <ele>1189.77</ele>
        <time>2019-02-16T13:00:56Z</time>
      </trkpt>
      <trkpt lat="45.99167" lon="6.54202">
        <ele>1187.37</ele>
        <time>2019-02-16T13:00:57Z</time>
      </trkpt>
      <trkpt lat="45.99171" lon="6.54194">
        <ele>1185.92</ele>
        <time>2019-02-16T13:00:58Z</time>
      </trkpt>
      <trkpt lat="45.99177" lon="6.54188">
        <ele>1185.44</ele>
        <time>2019-02-16T13:00:59Z</time>
      </trkpt>
      <trkpt lat="45.99182" lon="6.54182">
        <ele>1184.96</ele>
        <time>2019-02-16T13:01:00Z</time>
      </trkpt>
      <trkpt lat="45.99188" lon="6.54177">
        <ele>1184.96</ele>
        <time>2019-02-16T13:01:01Z</time>
      </trkpt>
      <trkpt lat="45.99193" lon="6.54171">
        <ele>1184</ele>
        <time>2019-02-16T13:01:02Z</time>
      </trkpt>
      <trkpt lat="45.99195" lon="6.54161">
        <ele>1182.08</ele>
        <time>2019-02-16T13:01:03Z</time>
      </trkpt>
      <trkpt lat="45.99204" lon="6.54151">
        <ele>1180.16</ele>
        <time>2019-02-16T13:01:05Z</time>
      </trkpt>
      <trkpt lat="45.99229" lon="6.54128">
        <ele>1175.83</ele>
        <time>2019-02-16T13:01:09Z</time>
      </trkpt>
      <trkpt lat="45.99248" lon="6.54112">
        <ele>1172.47</ele>
        <time>2019-02-16T13:01:12Z</time>
      </trkpt>
      <trkpt lat="45.99265" lon="6.54084">
        <ele>1168.62</ele>
        <time>2019-02-16T13:01:16Z</time>
      </trkpt>
      <trkpt lat="45.99272" lon="6.54079">
        <ele>1167.18</ele>
        <time>2019-02-16T13:01:17Z</time>
      </trkpt>
      <trkpt lat="45.99277" lon="6.54074">
        <ele>1166.7</ele>
        <time>2019-02-16T13:01:18Z</time>
      </trkpt>
      <trkpt lat="45.99281" lon="6.54069">
        <ele>1166.22</ele>
        <time>2019-02-16T13:01:19Z</time>
      </trkpt>
      <trkpt lat="45.99282" lon="6.54064">
        <ele>1166.22</ele>
        <time>2019-02-16T13:01:20Z</time>
      </trkpt>
      <trkpt lat="45.99286" lon="6.54061">
        <ele>1165.74</ele>
        <time>2019-02-16T13:01:21Z</time>
      </trkpt>
      <trkpt lat="45.99289" lon="6.5406">
        <ele>1164.77</ele>
        <time>2019-02-16T13:01:22Z</time>
      </trkpt>
      <trkpt lat="45.99291" lon="6.54058">
        <ele>1163.81</ele>
        <time>2019-02-16T13:01:23Z</time>
      </trkpt>
      <trkpt lat="45.99292" lon="6.54057">
        <ele>1162.85</ele>
        <time>2019-02-16T13:01:24Z</time>
      </trkpt>
      <trkpt lat="45.99302" lon="6.54042">
        <ele>1159.97</ele>
        <time>2019-02-16T13:01:30Z</time>
      </trkpt>
      <trkpt lat="45.99313" lon="6.54023">
        <ele>1157.08</ele>
        <time>2019-02-16T13:01:34Z</time>
      </trkpt>
      <trkpt lat="45.99317" lon="6.54018">
        <ele>1156.12</ele>
        <time>2019-02-16T13:01:35Z</time>
      </trkpt>
      <trkpt lat="45.9932" lon="6.54013">
        <ele>1155.16</ele>
        <time>2019-02-16T13:01:36Z</time>
      </trkpt>
      <trkpt lat="45.99325" lon="6.54008">
        <ele>1154.2</ele>
        <time>2019-02-16T13:01:37Z</time>
      </trkpt>
      <trkpt lat="45.99328" lon="6.54004">
        <ele>1154.2</ele>
        <time>2019-02-16T13:01:38Z</time>
      </trkpt>
      <trkpt lat="45.99331" lon="6.53998">
        <ele>1153.72</ele>
        <time>2019-02-16T13:01:39Z</time>
      </trkpt>
      <trkpt lat="45.99334" lon="6.53993">
        <ele>1153.24</ele>
        <time>2019-02-16T13:01:40Z</time>
      </trkpt>
      <trkpt lat="45.99338" lon="6.53989">
        <ele>1151.8</ele>
        <time>2019-02-16T13:01:41Z</time>
      </trkpt>
      <trkpt lat="45.9934" lon="6.53981">
        <ele>1150.84</ele>
        <time>2019-02-16T13:01:42Z</time>
      </trkpt>
      <trkpt lat="45.99345" lon="6.53975">
        <ele>1148.91</ele>
        <time>2019-02-16T13:01:43Z</time>
      </trkpt>
      <trkpt lat="45.9935" lon="6.53969">
        <ele>1148.43</ele>
        <time>2019-02-16T13:01:44Z</time>
      </trkpt>
      <trkpt lat="45.99356" lon="6.53965">
        <ele>1146.99</ele>
        <time>2019-02-16T13:01:45Z</time>
      </trkpt>
      <trkpt lat="45.99359" lon="6.53964">
        <ele>1146.51</ele>
        <time>2019-02-16T13:01:46Z</time>
      </trkpt>
      <trkpt lat="45.99363" lon="6.53966">
        <ele>1145.55</ele>
        <time>2019-02-16T13:01:47Z</time>
      </trkpt>
      <trkpt lat="45.99368" lon="6.53969">
        <ele>1144.59</ele>
        <time>2019-02-16T13:01:48Z</time>
      </trkpt>
      <trkpt lat="45.99374" lon="6.53971">
        <ele>1143.63</ele>
        <time>2019-02-16T13:01:49Z</time>
      </trkpt>
      <trkpt lat="45.99381" lon="6.53973">
        <ele>1142.18</ele>
        <time>2019-02-16T13:01:50Z</time>
      </trkpt>
      <trkpt lat="45.9939" lon="6.53971">
        <ele>1140.26</ele>
        <time>2019-02-16T13:01:51Z</time>
      </trkpt>
      <trkpt lat="45.99398" lon="6.53972">
        <ele>1137.86</ele>
        <time>2019-02-16T13:01:52Z</time>
      </trkpt>
      <trkpt lat="45.99407" lon="6.53975">
        <ele>1136.42</ele>
        <time>2019-02-16T13:01:53Z</time>
      </trkpt>
      <trkpt lat="45.99415" lon="6.53974">
        <ele>1134.97</ele>
        <time>2019-02-16T13:01:54Z</time>
      </trkpt>
      <trkpt lat="45.99424" lon="6.53971">
        <ele>1133.53</ele>
        <time>2019-02-16T13:01:55Z</time>
      </trkpt>
      <trkpt lat="45.99431" lon="6.5397">
        <ele>1131.61</ele>
        <time>2019-02-16T13:01:56Z</time>
      </trkpt>
      <trkpt lat="45.99438" lon="6.53968">
        <ele>1130.17</ele>
        <time>2019-02-16T13:01:57Z</time>
      </trkpt>
      <trkpt lat="45.99443" lon="6.53967">
        <ele>1128.73</ele>
        <time>2019-02-16T13:01:58Z</time>
      </trkpt>
      <trkpt lat="45.99448" lon="6.53967">
        <ele>1127.76</ele>
        <time>2019-02-16T13:01:59Z</time>
      </trkpt>
      <trkpt lat="45.99453" lon="6.53967">
        <ele>1127.28</ele>
        <time>2019-02-16T13:02:00Z</time>
      </trkpt>
      <trkpt lat="45.99457" lon="6.53967">
        <ele>1126.32</ele>
        <time>2019-02-16T13:02:01Z</time>
      </trkpt>
      <trkpt lat="45.9946" lon="6.53967">
        <ele>1125.84</ele>
        <time>2019-02-16T13:02:02Z</time>
      </trkpt>
      <trkpt lat="45.99473" lon="6.53967">
        <ele>1125.36</ele>
        <time>2019-02-16T13:02:05Z</time>
      </trkpt>
      <trkpt lat="45.99479" lon="6.53967">
        <ele>1124.88</ele>
        <time>2019-02-16T13:02:06Z</time>
      </trkpt>
      <trkpt lat="45.99484" lon="6.53966">
        <ele>1124.4</ele>
        <time>2019-02-16T13:02:07Z</time>
      </trkpt>
      <trkpt lat="45.99489" lon="6.53965">
        <ele>1123.92</ele>
        <time>2019-02-16T13:02:08Z</time>
      </trkpt>
      <trkpt lat="45.99495" lon="6.53965">
        <ele>1123.44</ele>
        <time>2019-02-16T13:02:09Z</time>
      </trkpt>
      <trkpt lat="45.99501" lon="6.53966">
        <ele>1122.96</ele>
        <time>2019-02-16T13:02:10Z</time>
      </trkpt>
      <trkpt lat="45.99506" lon="6.53966">
        <ele>1122.48</ele>
        <time>2019-02-16T13:02:11Z</time>
      </trkpt>
      <trkpt lat="45.99511" lon="6.53966">
        <ele>1121.52</ele>
        <time>2019-02-16T13:02:12Z</time>
      </trkpt>
      <trkpt lat="45.99517" lon="6.53965">
        <ele>1121.03</ele>
        <time>2019-02-16T13:02:13Z</time>
      </trkpt>
      <trkpt lat="45.99522" lon="6.53963">
        <ele>1120.55</ele>
        <time>2019-02-16T13:02:14Z</time>
      </trkpt>
      <trkpt lat="45.99527" lon="6.53961">
        <ele>1120.55</ele>
        <time>2019-02-16T13:02:15Z</time>
      </trkpt>
      <trkpt lat="45.99532" lon="6.53958">
        <ele>1120.07</ele>
        <time>2019-02-16T13:02:16Z</time>
      </trkpt>
      <trkpt lat="45.99537" lon="6.5396">
        <ele>1119.11</ele>
        <time>2019-02-16T13:02:17Z</time>
      </trkpt>
      <trkpt lat="45.99543" lon="6.53963">
        <ele>1118.63</ele>
        <time>2019-02-16T13:02:18Z</time>
      </trkpt>
      <trkpt lat="45.99549" lon="6.53966">
        <ele>1117.67</ele>
        <time>2019-02-16T13:02:19Z</time>
      </trkpt>
      <trkpt lat="45.99558" lon="6.53966">
        <ele>1117.19</ele>
        <time>2019-02-16T13:02:20Z</time>
      </trkpt>
      <trkpt lat="45.99566" lon="6.53965">
        <ele>1116.23</ele>
        <time>2019-02-16T13:02:21Z</time>
      </trkpt>
      <trkpt lat="45.99583" lon="6.53967">
        <ele>1111.9</ele>
        <time>2019-02-16T13:02:23Z</time>
      </trkpt>
      <trkpt lat="45.99593" lon="6.53971">
        <ele>1110.46</ele>
        <time>2019-02-16T13:02:24Z</time>
      </trkpt>
      <trkpt lat="45.99602" lon="6.53975">
        <ele>1109.5</ele>
        <time>2019-02-16T13:02:25Z</time>
      </trkpt>
      <trkpt lat="45.99621" lon="6.53983">
        <ele>1106.13</ele>
        <time>2019-02-16T13:02:27Z</time>
      </trkpt>
      <trkpt lat="45.99641" lon="6.53992">
        <ele>1103.73</ele>
        <time>2019-02-16T13:02:29Z</time>
      </trkpt>
      <trkpt lat="45.99651" lon="6.53997">
        <ele>1100.85</ele>
        <time>2019-02-16T13:02:30Z</time>
      </trkpt>
      <trkpt lat="45.99662" lon="6.54">
        <ele>1099.4</ele>
        <time>2019-02-16T13:02:31Z</time>
      </trkpt>
      <trkpt lat="45.99682" lon="6.54007">
        <ele>1095.08</ele>
        <time>2019-02-16T13:02:33Z</time>
      </trkpt>
      <trkpt lat="45.99692" lon="6.5401">
        <ele>1093.64</ele>
        <time>2019-02-16T13:02:34Z</time>
      </trkpt>
      <trkpt lat="45.99701" lon="6.54013">
        <ele>1091.23</ele>
        <time>2019-02-16T13:02:35Z</time>
      </trkpt>
      <trkpt lat="45.99712" lon="6.54018">
        <ele>1089.79</ele>
        <time>2019-02-16T13:02:36Z</time>
      </trkpt>
      <trkpt lat="45.99722" lon="6.54022">
        <ele>1087.87</ele>
        <time>2019-02-16T13:02:37Z</time>
      </trkpt>
      <trkpt lat="45.99732" lon="6.54025">
        <ele>1085.95</ele>
        <time>2019-02-16T13:02:38Z</time>
      </trkpt>
      <trkpt lat="45.99742" lon="6.5403">
        <ele>1083.54</ele>
        <time>2019-02-16T13:02:39Z</time>
      </trkpt>
      <trkpt lat="45.99751" lon="6.54032">
        <ele>1082.1</ele>
        <time>2019-02-16T13:02:40Z</time>
      </trkpt>
      <trkpt lat="45.99761" lon="6.54034">
        <ele>1079.22</ele>
        <time>2019-02-16T13:02:41Z</time>
      </trkpt>
      <trkpt lat="45.9979" lon="6.5404">
        <ele>1076.33</ele>
        <time>2019-02-16T13:02:44Z</time>
      </trkpt>
      <trkpt lat="45.99816" lon="6.54042">
        <ele>1072.49</ele>
        <time>2019-02-16T13:02:47Z</time>
      </trkpt>
      <trkpt lat="45.99824" lon="6.54047">
        <ele>1070.57</ele>
        <time>2019-02-16T13:02:48Z</time>
      </trkpt>
      <trkpt lat="45.99829" lon="6.54057">
        <ele>1069.12</ele>
        <time>2019-02-16T13:02:49Z</time>
      </trkpt>
      <trkpt lat="45.99829" lon="6.54069">
        <ele>1067.68</ele>
        <time>2019-02-16T13:02:50Z</time>
      </trkpt>
      <trkpt lat="45.99828" lon="6.54081">
        <ele>1067.2</ele>
        <time>2019-02-16T13:02:51Z</time>
      </trkpt>
      <trkpt lat="45.99826" lon="6.54091">
        <ele>1065.28</ele>
        <time>2019-02-16T13:02:52Z</time>
      </trkpt>
      <trkpt lat="45.99825" lon="6.541">
        <ele>1064.32</ele>
        <time>2019-02-16T13:02:53Z</time>
      </trkpt>
      <trkpt lat="45.99823" lon="6.54107">
        <ele>1063.84</ele>
        <time>2019-02-16T13:02:54Z</time>
      </trkpt>
      <trkpt lat="45.99821" lon="6.54114">
        <ele>1064.32</ele>
        <time>2019-02-16T13:02:55Z</time>
      </trkpt>
      <trkpt lat="45.9982" lon="6.54118">
        <ele>1063.84</ele>
        <time>2019-02-16T13:02:56Z</time>
      </trkpt>
      <trkpt lat="45.9982" lon="6.54121">
        <ele>1063.36</ele>
        <time>2019-02-16T13:02:57Z</time>
      </trkpt>
      <trkpt lat="45.99821" lon="6.54123">
        <ele>1063.36</ele>
        <time>2019-02-16T13:02:58Z</time>
      </trkpt>
      <trkpt lat="45.99847" lon="6.5413">
        <ele>1059.99</ele>
        <time>2019-02-16T13:03:10Z</time>
      </trkpt>
      <trkpt lat="45.99861" lon="6.54135">
        <ele>1058.55</ele>
        <time>2019-02-16T13:03:14Z</time>
      </trkpt>
      <trkpt lat="45.99901" lon="6.54133">
        <ele>1055.18</ele>
        <time>2019-02-16T13:03:26Z</time>
      </trkpt>
      <trkpt lat="45.99957" lon="6.54118">
        <ele>1052.78</ele>
        <time>2019-02-16T13:03:44Z</time>
      </trkpt>
      <trkpt lat="46.00023" lon="6.54113">
        <ele>1049.9</ele>
        <time>2019-02-16T13:03:59Z</time>
      </trkpt>
      <trkpt lat="46.00071" lon="6.541">
        <ele>1047.01</ele>
        <time>2019-02-16T13:04:10Z</time>
      </trkpt>
      <trkpt lat="46.00073" lon="6.54097">
        <ele>1047.01</ele>
        <time>2019-02-16T13:04:11Z</time>
      </trkpt>
      <trkpt lat="46.00083" lon="6.54092">
        <ele>1046.05</ele>
        <time>2019-02-16T13:04:16Z</time>
      </trkpt>
      <trkpt lat="46.00084" lon="6.54092">
        <ele>1046.53</ele>
        <time>2019-02-16T13:04:17Z</time>
      </trkpt>
      <trkpt lat="46.00087" lon="6.5409">
        <ele>1046.05</ele>
        <time>2019-02-16T13:04:23Z</time>
      </trkpt>
      <trkpt lat="46.00088" lon="6.54087">
        <ele>1046.05</ele>
        <time>2019-02-16T13:04:29Z</time>
      </trkpt>
    </trkseg>
  </trk>
</gpx>